<?xml version="1.0" encoding="UTF-8" standalone="no" ?>
<gpx xmlns="http://www.topografix.com/GPX/1/1" xmlns:xsi="http://www.w3.org/2001/XMLSchema-instance" xsi:schemaLocation="http://www.topografix.com/GPX/1/1 http://www.topografix.com/GPX/1/1/gpx.xsd" version="1.1" creator="VisuGPX - https://www.visugpx.com">
  <metadata>
    <name>Pornichet 30/08/2020</name>
    <desc><![CDATA[Sortie VTT du dimanche 30 août 2020]]></desc>
  </metadata>
  <trk>
    <name><![CDATA[Pornichet Cyclisme]]></name>
    <trkseg>
      <trkpt lat="47.26412" lon="-2.31564">
        <ele>9.8</ele>
        <time>2020-08-30T06:55:24.000Z</time>
      </trkpt>
      <trkpt lat="47.26408" lon="-2.31572">
        <ele>9.7</ele>
        <time>2020-08-30T06:55:27.000Z</time>
      </trkpt>
      <trkpt lat="47.26408" lon="-2.31577">
        <ele>-0.40000000596046</ele>
        <time>2020-08-30T06:55:28.000Z</time>
      </trkpt>
      <trkpt lat="47.26409" lon="-2.31588">
        <ele>-0.40000000596046</ele>
        <time>2020-08-30T06:55:31.000Z</time>
      </trkpt>
      <trkpt lat="47.26404" lon="-2.31617">
        <ele>-0.40000000596046</ele>
        <time>2020-08-30T06:55:37.000Z</time>
      </trkpt>
      <trkpt lat="47.26406" lon="-2.31649">
        <ele>-0.40000000596046</ele>
        <time>2020-08-30T06:55:43.000Z</time>
      </trkpt>
      <trkpt lat="47.26405" lon="-2.31653">
        <ele>-0.40000000596046</ele>
        <time>2020-08-30T06:55:44.000Z</time>
      </trkpt>
      <trkpt lat="47.26402" lon="-2.31658">
        <ele>-0.40000000596046</ele>
        <time>2020-08-30T06:55:46.000Z</time>
      </trkpt>
      <trkpt lat="47.26393" lon="-2.31661">
        <ele>-0.40000000596046</ele>
        <time>2020-08-30T06:55:49.000Z</time>
      </trkpt>
      <trkpt lat="47.26386" lon="-2.31664">
        <ele>-0.40000000596046</ele>
        <time>2020-08-30T06:55:51.000Z</time>
      </trkpt>
      <trkpt lat="47.26362" lon="-2.31679">
        <ele>-0.40000000596046</ele>
        <time>2020-08-30T06:55:56.000Z</time>
      </trkpt>
      <trkpt lat="47.26342" lon="-2.31691">
        <ele>-0.80000001192093</ele>
        <time>2020-08-30T06:56:00.000Z</time>
      </trkpt>
      <trkpt lat="47.26336" lon="-2.31693">
        <ele>-1.2000000476837</ele>
        <time>2020-08-30T06:56:01.000Z</time>
      </trkpt>
      <trkpt lat="47.2633" lon="-2.31696">
        <ele>-1.6000000238419</ele>
        <time>2020-08-30T06:56:02.000Z</time>
      </trkpt>
      <trkpt lat="47.26324" lon="-2.31699">
        <ele>-2</ele>
        <time>2020-08-30T06:56:03.000Z</time>
      </trkpt>
      <trkpt lat="47.26318" lon="-2.31701">
        <ele>-2.4000000953674</ele>
        <time>2020-08-30T06:56:04.000Z</time>
      </trkpt>
      <trkpt lat="47.26308" lon="-2.31706">
        <ele>-2.4000000953674</ele>
        <time>2020-08-30T06:56:06.000Z</time>
      </trkpt>
      <trkpt lat="47.26301" lon="-2.31715">
        <ele>-2.7999999523163</ele>
        <time>2020-08-30T06:56:08.000Z</time>
      </trkpt>
      <trkpt lat="47.263" lon="-2.3172">
        <ele>-3.2000000476837</ele>
        <time>2020-08-30T06:56:09.000Z</time>
      </trkpt>
      <trkpt lat="47.263" lon="-2.31725">
        <ele>-3.5999999046326</ele>
        <time>2020-08-30T06:56:10.000Z</time>
      </trkpt>
      <trkpt lat="47.263" lon="-2.3173">
        <ele>-4</ele>
        <time>2020-08-30T06:56:11.000Z</time>
      </trkpt>
      <trkpt lat="47.263" lon="-2.31736">
        <ele>-4.5999999046326</ele>
        <time>2020-08-30T06:56:12.000Z</time>
      </trkpt>
      <trkpt lat="47.26301" lon="-2.31743">
        <ele>-4.5999999046326</ele>
        <time>2020-08-30T06:56:13.000Z</time>
      </trkpt>
      <trkpt lat="47.26304" lon="-2.31777">
        <ele>-4.5999999046326</ele>
        <time>2020-08-30T06:56:19.000Z</time>
      </trkpt>
      <trkpt lat="47.26306" lon="-2.31815">
        <ele>-4.5999999046326</ele>
        <time>2020-08-30T06:56:25.000Z</time>
      </trkpt>
      <trkpt lat="47.26303" lon="-2.31841">
        <ele>-4.5999999046326</ele>
        <time>2020-08-30T06:56:29.000Z</time>
      </trkpt>
      <trkpt lat="47.26301" lon="-2.31859">
        <ele>-4.5999999046326</ele>
        <time>2020-08-30T06:56:32.000Z</time>
      </trkpt>
      <trkpt lat="47.26288" lon="-2.31874">
        <ele>-4.5999999046326</ele>
        <time>2020-08-30T06:56:37.000Z</time>
      </trkpt>
      <trkpt lat="47.26271" lon="-2.31895">
        <ele>-4.5999999046326</ele>
        <time>2020-08-30T06:56:43.000Z</time>
      </trkpt>
      <trkpt lat="47.26256" lon="-2.31922">
        <ele>-4.5999999046326</ele>
        <time>2020-08-30T06:56:49.000Z</time>
      </trkpt>
      <trkpt lat="47.26246" lon="-2.31938">
        <ele>-4.5999999046326</ele>
        <time>2020-08-30T06:56:53.000Z</time>
      </trkpt>
      <trkpt lat="47.26231" lon="-2.31948">
        <ele>-4.5999999046326</ele>
        <time>2020-08-30T06:56:58.000Z</time>
      </trkpt>
      <trkpt lat="47.26217" lon="-2.31962">
        <ele>-4.5999999046326</ele>
        <time>2020-08-30T06:57:04.000Z</time>
      </trkpt>
      <trkpt lat="47.26212" lon="-2.31968">
        <ele>-4.5999999046326</ele>
        <time>2020-08-30T06:57:06.000Z</time>
      </trkpt>
      <trkpt lat="47.2621" lon="-2.31976">
        <ele>-4.5999999046326</ele>
        <time>2020-08-30T06:57:08.000Z</time>
      </trkpt>
      <trkpt lat="47.26204" lon="-2.31984">
        <ele>-4.5999999046326</ele>
        <time>2020-08-30T06:57:12.000Z</time>
      </trkpt>
      <trkpt lat="47.26201" lon="-2.31984">
        <ele>-4.5999999046326</ele>
        <time>2020-08-30T06:57:13.000Z</time>
      </trkpt>
      <trkpt lat="47.26186" lon="-2.31987">
        <ele>-4.5999999046326</ele>
        <time>2020-08-30T06:57:18.000Z</time>
      </trkpt>
      <trkpt lat="47.26174" lon="-2.31993">
        <ele>-4.5999999046326</ele>
        <time>2020-08-30T06:57:21.000Z</time>
      </trkpt>
      <trkpt lat="47.26168" lon="-2.32001">
        <ele>-4.5999999046326</ele>
        <time>2020-08-30T06:57:23.000Z</time>
      </trkpt>
      <trkpt lat="47.26159" lon="-2.32023">
        <ele>-4.5999999046326</ele>
        <time>2020-08-30T06:57:27.000Z</time>
      </trkpt>
      <trkpt lat="47.26157" lon="-2.32029">
        <ele>-4.5999999046326</ele>
        <time>2020-08-30T06:57:28.000Z</time>
      </trkpt>
      <trkpt lat="47.26143" lon="-2.32072">
        <ele>-4.5999999046326</ele>
        <time>2020-08-30T06:57:35.000Z</time>
      </trkpt>
      <trkpt lat="47.26141" lon="-2.32079">
        <ele>-4.5999999046326</ele>
        <time>2020-08-30T06:57:36.000Z</time>
      </trkpt>
      <trkpt lat="47.26133" lon="-2.32106">
        <ele>-4.5999999046326</ele>
        <time>2020-08-30T06:57:40.000Z</time>
      </trkpt>
      <trkpt lat="47.26123" lon="-2.32132">
        <ele>-4.5999999046326</ele>
        <time>2020-08-30T06:57:44.000Z</time>
      </trkpt>
      <trkpt lat="47.26107" lon="-2.32171">
        <ele>-4.5999999046326</ele>
        <time>2020-08-30T06:57:51.000Z</time>
      </trkpt>
      <trkpt lat="47.26087" lon="-2.32199">
        <ele>-4.5999999046326</ele>
        <time>2020-08-30T06:57:57.000Z</time>
      </trkpt>
      <trkpt lat="47.26057" lon="-2.32235">
        <ele>-4.5999999046326</ele>
        <time>2020-08-30T06:58:04.000Z</time>
      </trkpt>
      <trkpt lat="47.26022" lon="-2.32273">
        <ele>-4.5999999046326</ele>
        <time>2020-08-30T06:58:13.000Z</time>
      </trkpt>
      <trkpt lat="47.25994" lon="-2.32306">
        <ele>-4.5999999046326</ele>
        <time>2020-08-30T06:58:21.000Z</time>
      </trkpt>
      <trkpt lat="47.25962" lon="-2.32345">
        <ele>-4.5999999046326</ele>
        <time>2020-08-30T06:58:30.000Z</time>
      </trkpt>
      <trkpt lat="47.25932" lon="-2.32385">
        <ele>-4.5999999046326</ele>
        <time>2020-08-30T06:58:39.000Z</time>
      </trkpt>
      <trkpt lat="47.25907" lon="-2.32412">
        <ele>-4.5999999046326</ele>
        <time>2020-08-30T06:58:46.000Z</time>
      </trkpt>
      <trkpt lat="47.25896" lon="-2.32419">
        <ele>-4.5999999046326</ele>
        <time>2020-08-30T06:58:49.000Z</time>
      </trkpt>
      <trkpt lat="47.25888" lon="-2.32426">
        <ele>-4.5999999046326</ele>
        <time>2020-08-30T06:58:51.000Z</time>
      </trkpt>
      <trkpt lat="47.25884" lon="-2.3243">
        <ele>-4.5999999046326</ele>
        <time>2020-08-30T06:58:52.000Z</time>
      </trkpt>
      <trkpt lat="47.25876" lon="-2.32435">
        <ele>-4.5999999046326</ele>
        <time>2020-08-30T06:58:54.000Z</time>
      </trkpt>
      <trkpt lat="47.25867" lon="-2.32439">
        <ele>-4.5999999046326</ele>
        <time>2020-08-30T06:58:56.000Z</time>
      </trkpt>
      <trkpt lat="47.25854" lon="-2.3244">
        <ele>-4.5999999046326</ele>
        <time>2020-08-30T06:58:59.000Z</time>
      </trkpt>
      <trkpt lat="47.25845" lon="-2.32441">
        <ele>-4.1999998092651</ele>
        <time>2020-08-30T06:59:01.000Z</time>
      </trkpt>
      <trkpt lat="47.25839" lon="-2.32442">
        <ele>-3.5999999046326</ele>
        <time>2020-08-30T06:59:02.000Z</time>
      </trkpt>
      <trkpt lat="47.25833" lon="-2.32442">
        <ele>-3.2000000476837</ele>
        <time>2020-08-30T06:59:03.000Z</time>
      </trkpt>
      <trkpt lat="47.25828" lon="-2.32442">
        <ele>-2.7999999523163</ele>
        <time>2020-08-30T06:59:04.000Z</time>
      </trkpt>
      <trkpt lat="47.25822" lon="-2.32443">
        <ele>-2.4000000953674</ele>
        <time>2020-08-30T06:59:05.000Z</time>
      </trkpt>
      <trkpt lat="47.2581" lon="-2.3245">
        <ele>-2.4000000953674</ele>
        <time>2020-08-30T06:59:07.000Z</time>
      </trkpt>
      <trkpt lat="47.25795" lon="-2.3246">
        <ele>-2.4000000953674</ele>
        <time>2020-08-30T06:59:10.000Z</time>
      </trkpt>
      <trkpt lat="47.25792" lon="-2.32462">
        <ele>-2.4000000953674</ele>
        <time>2020-08-30T06:59:11.000Z</time>
      </trkpt>
      <trkpt lat="47.2578" lon="-2.32461">
        <ele>-2.4000000953674</ele>
        <time>2020-08-30T06:59:15.000Z</time>
      </trkpt>
      <trkpt lat="47.25774" lon="-2.32449">
        <ele>-2.4000000953674</ele>
        <time>2020-08-30T06:59:18.000Z</time>
      </trkpt>
      <trkpt lat="47.2577" lon="-2.32441">
        <ele>-2.4000000953674</ele>
        <time>2020-08-30T06:59:20.000Z</time>
      </trkpt>
      <trkpt lat="47.25766" lon="-2.32439">
        <ele>-2.4000000953674</ele>
        <time>2020-08-30T06:59:21.000Z</time>
      </trkpt>
      <trkpt lat="47.25756" lon="-2.3244">
        <ele>-2.4000000953674</ele>
        <time>2020-08-30T06:59:23.000Z</time>
      </trkpt>
      <trkpt lat="47.25738" lon="-2.32443">
        <ele>-2.4000000953674</ele>
        <time>2020-08-30T06:59:26.000Z</time>
      </trkpt>
      <trkpt lat="47.25719" lon="-2.32444">
        <ele>-2.4000000953674</ele>
        <time>2020-08-30T06:59:29.000Z</time>
      </trkpt>
      <trkpt lat="47.25687" lon="-2.32445">
        <ele>-2.4000000953674</ele>
        <time>2020-08-30T06:59:35.000Z</time>
      </trkpt>
      <trkpt lat="47.25668" lon="-2.32444">
        <ele>-2.4000000953674</ele>
        <time>2020-08-30T06:59:39.000Z</time>
      </trkpt>
      <trkpt lat="47.25664" lon="-2.32446">
        <ele>-2.4000000953674</ele>
        <time>2020-08-30T06:59:40.000Z</time>
      </trkpt>
      <trkpt lat="47.25658" lon="-2.32462">
        <ele>-2.4000000953674</ele>
        <time>2020-08-30T06:59:43.000Z</time>
      </trkpt>
      <trkpt lat="47.25662" lon="-2.32482">
        <ele>-1.6000000238419</ele>
        <time>2020-08-30T06:59:46.000Z</time>
      </trkpt>
      <trkpt lat="47.25663" lon="-2.32488">
        <ele>-1.2000000476837</ele>
        <time>2020-08-30T06:59:47.000Z</time>
      </trkpt>
      <trkpt lat="47.25665" lon="-2.32494">
        <ele>-0.80000001192093</ele>
        <time>2020-08-30T06:59:48.000Z</time>
      </trkpt>
      <trkpt lat="47.25667" lon="-2.325">
        <ele>-0.40000000596046</ele>
        <time>2020-08-30T06:59:49.000Z</time>
      </trkpt>
      <trkpt lat="47.25682" lon="-2.32546">
        <ele>-0.40000000596046</ele>
        <time>2020-08-30T06:59:57.000Z</time>
      </trkpt>
      <trkpt lat="47.25685" lon="-2.32557">
        <ele>9.4</ele>
        <time>2020-08-30T06:59:59.000Z</time>
      </trkpt>
      <trkpt lat="47.25687" lon="-2.32562">
        <ele>0.60000002384186</ele>
        <time>2020-08-30T07:00:00.000Z</time>
      </trkpt>
      <trkpt lat="47.25688" lon="-2.32568">
        <ele>1</ele>
        <time>2020-08-30T07:00:01.000Z</time>
      </trkpt>
      <trkpt lat="47.25691" lon="-2.3257">
        <ele>1.3999999761581</ele>
        <time>2020-08-30T07:00:02.000Z</time>
      </trkpt>
      <trkpt lat="47.25693" lon="-2.32574">
        <ele>1.7999999523163</ele>
        <time>2020-08-30T07:00:03.000Z</time>
      </trkpt>
      <trkpt lat="47.25699" lon="-2.32586">
        <ele>1.7999999523163</ele>
        <time>2020-08-30T07:00:06.000Z</time>
      </trkpt>
      <trkpt lat="47.25708" lon="-2.3261">
        <ele>1.7999999523163</ele>
        <time>2020-08-30T07:00:11.000Z</time>
      </trkpt>
      <trkpt lat="47.25708" lon="-2.32621">
        <ele>1.7999999523163</ele>
        <time>2020-08-30T07:00:13.000Z</time>
      </trkpt>
      <trkpt lat="47.25699" lon="-2.32632">
        <ele>1.7999999523163</ele>
        <time>2020-08-30T07:00:16.000Z</time>
      </trkpt>
      <trkpt lat="47.25695" lon="-2.32634">
        <ele>2.2000000476837</ele>
        <time>2020-08-30T07:00:17.000Z</time>
      </trkpt>
      <trkpt lat="47.25691" lon="-2.32637">
        <ele>2.5999999046326</ele>
        <time>2020-08-30T07:00:18.000Z</time>
      </trkpt>
      <trkpt lat="47.25687" lon="-2.32638">
        <ele>3</ele>
        <time>2020-08-30T07:00:19.000Z</time>
      </trkpt>
      <trkpt lat="47.25683" lon="-2.3264">
        <ele>3.4000000953674</ele>
        <time>2020-08-30T07:00:20.000Z</time>
      </trkpt>
      <trkpt lat="47.25679" lon="-2.32643">
        <ele>3.7999999523163</ele>
        <time>2020-08-30T07:00:21.000Z</time>
      </trkpt>
      <trkpt lat="47.25671" lon="-2.32647">
        <ele>3.7999999523163</ele>
        <time>2020-08-30T07:00:23.000Z</time>
      </trkpt>
      <trkpt lat="47.25641" lon="-2.32661">
        <ele>3.7999999523163</ele>
        <time>2020-08-30T07:00:30.000Z</time>
      </trkpt>
      <trkpt lat="47.25628" lon="-2.32667">
        <ele>4.4000000953674</ele>
        <time>2020-08-30T07:00:33.000Z</time>
      </trkpt>
      <trkpt lat="47.25624" lon="-2.32668">
        <ele>4.8000001907349</ele>
        <time>2020-08-30T07:00:34.000Z</time>
      </trkpt>
      <trkpt lat="47.2562" lon="-2.3267">
        <ele>5.1999998092651</ele>
        <time>2020-08-30T07:00:35.000Z</time>
      </trkpt>
      <trkpt lat="47.25616" lon="-2.32672">
        <ele>6</ele>
        <time>2020-08-30T07:00:36.000Z</time>
      </trkpt>
      <trkpt lat="47.25611" lon="-2.32674">
        <ele>6</ele>
        <time>2020-08-30T07:00:37.000Z</time>
      </trkpt>
      <trkpt lat="47.25573" lon="-2.3269">
        <ele>6</ele>
        <time>2020-08-30T07:00:46.000Z</time>
      </trkpt>
      <trkpt lat="47.25535" lon="-2.32707">
        <ele>6</ele>
        <time>2020-08-30T07:00:54.000Z</time>
      </trkpt>
      <trkpt lat="47.25501" lon="-2.32717">
        <ele>6</ele>
        <time>2020-08-30T07:01:01.000Z</time>
      </trkpt>
      <trkpt lat="47.25483" lon="-2.3272">
        <ele>6</ele>
        <time>2020-08-30T07:01:05.000Z</time>
      </trkpt>
      <trkpt lat="47.25475" lon="-2.32724">
        <ele>6</ele>
        <time>2020-08-30T07:01:07.000Z</time>
      </trkpt>
      <trkpt lat="47.25468" lon="-2.3273">
        <ele>6</ele>
        <time>2020-08-30T07:01:09.000Z</time>
      </trkpt>
      <trkpt lat="47.25454" lon="-2.32747">
        <ele>6</ele>
        <time>2020-08-30T07:01:13.000Z</time>
      </trkpt>
      <trkpt lat="47.25438" lon="-2.32771">
        <ele>6</ele>
        <time>2020-08-30T07:01:18.000Z</time>
      </trkpt>
      <trkpt lat="47.2543" lon="-2.32787">
        <ele>6</ele>
        <time>2020-08-30T07:01:21.000Z</time>
      </trkpt>
      <trkpt lat="47.25419" lon="-2.32803">
        <ele>6</ele>
        <time>2020-08-30T07:01:25.000Z</time>
      </trkpt>
      <trkpt lat="47.25416" lon="-2.32808">
        <ele>6</ele>
        <time>2020-08-30T07:01:26.000Z</time>
      </trkpt>
      <trkpt lat="47.25406" lon="-2.32823">
        <ele>6</ele>
        <time>2020-08-30T07:01:29.000Z</time>
      </trkpt>
      <trkpt lat="47.25398" lon="-2.32833">
        <ele>6</ele>
        <time>2020-08-30T07:01:31.000Z</time>
      </trkpt>
      <trkpt lat="47.2536" lon="-2.32877">
        <ele>6</ele>
        <time>2020-08-30T07:01:40.000Z</time>
      </trkpt>
      <trkpt lat="47.25321" lon="-2.32917">
        <ele>6</ele>
        <time>2020-08-30T07:01:49.000Z</time>
      </trkpt>
      <trkpt lat="47.25309" lon="-2.3293">
        <ele>6</ele>
        <time>2020-08-30T07:01:52.000Z</time>
      </trkpt>
      <trkpt lat="47.25307" lon="-2.32936">
        <ele>6</ele>
        <time>2020-08-30T07:01:53.000Z</time>
      </trkpt>
      <trkpt lat="47.25307" lon="-2.32963">
        <ele>6</ele>
        <time>2020-08-30T07:01:57.000Z</time>
      </trkpt>
      <trkpt lat="47.25308" lon="-2.32969">
        <ele>5.5999999046326</ele>
        <time>2020-08-30T07:01:58.000Z</time>
      </trkpt>
      <trkpt lat="47.25311" lon="-2.32976">
        <ele>5.1999998092651</ele>
        <time>2020-08-30T07:01:59.000Z</time>
      </trkpt>
      <trkpt lat="47.25313" lon="-2.32982">
        <ele>4.8000001907349</ele>
        <time>2020-08-30T07:02:00.000Z</time>
      </trkpt>
      <trkpt lat="47.25315" lon="-2.32987">
        <ele>4.4000000953674</ele>
        <time>2020-08-30T07:02:01.000Z</time>
      </trkpt>
      <trkpt lat="47.25318" lon="-2.32993">
        <ele>4</ele>
        <time>2020-08-30T07:02:02.000Z</time>
      </trkpt>
      <trkpt lat="47.2532" lon="-2.32999">
        <ele>4</ele>
        <time>2020-08-30T07:02:03.000Z</time>
      </trkpt>
      <trkpt lat="47.25339" lon="-2.33046">
        <ele>4</ele>
        <time>2020-08-30T07:02:11.000Z</time>
      </trkpt>
      <trkpt lat="47.25341" lon="-2.33052">
        <ele>4</ele>
        <time>2020-08-30T07:02:12.000Z</time>
      </trkpt>
      <trkpt lat="47.25352" lon="-2.33082">
        <ele>4</ele>
        <time>2020-08-30T07:02:17.000Z</time>
      </trkpt>
      <trkpt lat="47.25359" lon="-2.33097">
        <ele>4</ele>
        <time>2020-08-30T07:02:21.000Z</time>
      </trkpt>
      <trkpt lat="47.25359" lon="-2.33097">
        <ele>4</ele>
        <time>2020-08-30T07:02:23.000Z</time>
      </trkpt>
      <trkpt lat="47.25364" lon="-2.33105">
        <ele>-0.20000000298023</ele>
        <time>2020-08-30T07:09:36.000Z</time>
      </trkpt>
      <trkpt lat="47.25364" lon="-2.33108">
        <ele>-0.20000000298023</ele>
        <time>2020-08-30T07:09:37.000Z</time>
      </trkpt>
      <trkpt lat="47.25366" lon="-2.33112">
        <ele>-0.20000000298023</ele>
        <time>2020-08-30T07:09:39.000Z</time>
      </trkpt>
      <trkpt lat="47.2537" lon="-2.33118">
        <ele>-0.20000000298023</ele>
        <time>2020-08-30T07:09:43.000Z</time>
      </trkpt>
      <trkpt lat="47.2537" lon="-2.33118">
        <ele>-0.20000000298023</ele>
        <time>2020-08-30T07:09:44.000Z</time>
      </trkpt>
      <trkpt lat="47.25371" lon="-2.33119">
        <ele>-2.2000000476837</ele>
        <time>2020-08-30T07:10:29.000Z</time>
      </trkpt>
      <trkpt lat="47.25375" lon="-2.33124">
        <ele>-2.2000000476837</ele>
        <time>2020-08-30T07:10:31.000Z</time>
      </trkpt>
      <trkpt lat="47.25386" lon="-2.33136">
        <ele>-2.2000000476837</ele>
        <time>2020-08-30T07:10:36.000Z</time>
      </trkpt>
      <trkpt lat="47.2539" lon="-2.33135">
        <ele>-2.2000000476837</ele>
        <time>2020-08-30T07:10:37.000Z</time>
      </trkpt>
      <trkpt lat="47.25407" lon="-2.33126">
        <ele>-2.2000000476837</ele>
        <time>2020-08-30T07:10:42.000Z</time>
      </trkpt>
      <trkpt lat="47.25437" lon="-2.33115">
        <ele>-2.2000000476837</ele>
        <time>2020-08-30T07:10:49.000Z</time>
      </trkpt>
      <trkpt lat="47.25465" lon="-2.33102">
        <ele>-2.2000000476837</ele>
        <time>2020-08-30T07:10:56.000Z</time>
      </trkpt>
      <trkpt lat="47.25473" lon="-2.33098">
        <ele>-2.2000000476837</ele>
        <time>2020-08-30T07:11:01.000Z</time>
      </trkpt>
      <trkpt lat="47.25476" lon="-2.33096">
        <ele>-4.1999998092651</ele>
        <time>2020-08-30T07:12:00.000Z</time>
      </trkpt>
      <trkpt lat="47.25486" lon="-2.3309">
        <ele>-4.1999998092651</ele>
        <time>2020-08-30T07:12:06.000Z</time>
      </trkpt>
      <trkpt lat="47.25495" lon="-2.3308">
        <ele>-4.1999998092651</ele>
        <time>2020-08-30T07:12:11.000Z</time>
      </trkpt>
      <trkpt lat="47.25509" lon="-2.33065">
        <ele>-4.1999998092651</ele>
        <time>2020-08-30T07:12:16.000Z</time>
      </trkpt>
      <trkpt lat="47.25527" lon="-2.33048">
        <ele>-4.1999998092651</ele>
        <time>2020-08-30T07:12:22.000Z</time>
      </trkpt>
      <trkpt lat="47.25548" lon="-2.33042">
        <ele>-4.1999998092651</ele>
        <time>2020-08-30T07:12:28.000Z</time>
      </trkpt>
      <trkpt lat="47.25571" lon="-2.33035">
        <ele>-4.1999998092651</ele>
        <time>2020-08-30T07:12:35.000Z</time>
      </trkpt>
      <trkpt lat="47.256" lon="-2.3303">
        <ele>-4.1999998092651</ele>
        <time>2020-08-30T07:12:43.000Z</time>
      </trkpt>
      <trkpt lat="47.25618" lon="-2.3302">
        <ele>-4.1999998092651</ele>
        <time>2020-08-30T07:12:49.000Z</time>
      </trkpt>
      <trkpt lat="47.25619" lon="-2.33015">
        <ele>-4.1999998092651</ele>
        <time>2020-08-30T07:12:50.000Z</time>
      </trkpt>
      <trkpt lat="47.2562" lon="-2.3301">
        <ele>-3.7999999523163</ele>
        <time>2020-08-30T07:12:51.000Z</time>
      </trkpt>
      <trkpt lat="47.2562" lon="-2.33004">
        <ele>-3.4000000953674</ele>
        <time>2020-08-30T07:12:52.000Z</time>
      </trkpt>
      <trkpt lat="47.25619" lon="-2.32999">
        <ele>-3</ele>
        <time>2020-08-30T07:12:53.000Z</time>
      </trkpt>
      <trkpt lat="47.25617" lon="-2.32993">
        <ele>-2.5999999046326</ele>
        <time>2020-08-30T07:12:54.000Z</time>
      </trkpt>
      <trkpt lat="47.25615" lon="-2.32987">
        <ele>-2.2000000476837</ele>
        <time>2020-08-30T07:12:55.000Z</time>
      </trkpt>
      <trkpt lat="47.25612" lon="-2.32975">
        <ele>-2.2000000476837</ele>
        <time>2020-08-30T07:12:57.000Z</time>
      </trkpt>
      <trkpt lat="47.25602" lon="-2.3292">
        <ele>-2.2000000476837</ele>
        <time>2020-08-30T07:13:07.000Z</time>
      </trkpt>
      <trkpt lat="47.25595" lon="-2.32868">
        <ele>-2.2000000476837</ele>
        <time>2020-08-30T07:13:16.000Z</time>
      </trkpt>
      <trkpt lat="47.25592" lon="-2.32832">
        <ele>-2.2000000476837</ele>
        <time>2020-08-30T07:13:22.000Z</time>
      </trkpt>
      <trkpt lat="47.25592" lon="-2.32825">
        <ele>-2.2000000476837</ele>
        <time>2020-08-30T07:13:23.000Z</time>
      </trkpt>
      <trkpt lat="47.25594" lon="-2.32813">
        <ele>-2.2000000476837</ele>
        <time>2020-08-30T07:13:25.000Z</time>
      </trkpt>
      <trkpt lat="47.25599" lon="-2.32788">
        <ele>-2.2000000476837</ele>
        <time>2020-08-30T07:13:29.000Z</time>
      </trkpt>
      <trkpt lat="47.256" lon="-2.32781">
        <ele>-2.2000000476837</ele>
        <time>2020-08-30T07:13:30.000Z</time>
      </trkpt>
      <trkpt lat="47.25602" lon="-2.32751">
        <ele>-2.2000000476837</ele>
        <time>2020-08-30T07:13:35.000Z</time>
      </trkpt>
      <trkpt lat="47.25605" lon="-2.32702">
        <ele>-2.2000000476837</ele>
        <time>2020-08-30T07:13:43.000Z</time>
      </trkpt>
      <trkpt lat="47.25606" lon="-2.32674">
        <ele>-2.2000000476837</ele>
        <time>2020-08-30T07:13:49.000Z</time>
      </trkpt>
      <trkpt lat="47.25612" lon="-2.32664">
        <ele>-2.2000000476837</ele>
        <time>2020-08-30T07:13:54.000Z</time>
      </trkpt>
      <trkpt lat="47.25623" lon="-2.32657">
        <ele>-2.2000000476837</ele>
        <time>2020-08-30T07:13:57.000Z</time>
      </trkpt>
      <trkpt lat="47.25632" lon="-2.32654">
        <ele>-2.2000000476837</ele>
        <time>2020-08-30T07:13:59.000Z</time>
      </trkpt>
      <trkpt lat="47.25668" lon="-2.32639">
        <ele>-2.2000000476837</ele>
        <time>2020-08-30T07:14:07.000Z</time>
      </trkpt>
      <trkpt lat="47.25693" lon="-2.32628">
        <ele>-2.5999999046326</ele>
        <time>2020-08-30T07:14:12.000Z</time>
      </trkpt>
      <trkpt lat="47.25697" lon="-2.32627">
        <ele>-3</ele>
        <time>2020-08-30T07:14:13.000Z</time>
      </trkpt>
      <trkpt lat="47.25701" lon="-2.32625">
        <ele>-3.4000000953674</ele>
        <time>2020-08-30T07:14:14.000Z</time>
      </trkpt>
      <trkpt lat="47.25704" lon="-2.32623">
        <ele>-3.7999999523163</ele>
        <time>2020-08-30T07:14:15.000Z</time>
      </trkpt>
      <trkpt lat="47.25707" lon="-2.32621">
        <ele>-4.1999998092651</ele>
        <time>2020-08-30T07:14:16.000Z</time>
      </trkpt>
      <trkpt lat="47.25713" lon="-2.32607">
        <ele>-4.1999998092651</ele>
        <time>2020-08-30T07:14:19.000Z</time>
      </trkpt>
      <trkpt lat="47.25711" lon="-2.32596">
        <ele>-4.1999998092651</ele>
        <time>2020-08-30T07:14:21.000Z</time>
      </trkpt>
      <trkpt lat="47.25709" lon="-2.32589">
        <ele>-4.1999998092651</ele>
        <time>2020-08-30T07:14:22.000Z</time>
      </trkpt>
      <trkpt lat="47.25699" lon="-2.32557">
        <ele>-4.5999999046326</ele>
        <time>2020-08-30T07:14:27.000Z</time>
      </trkpt>
      <trkpt lat="47.25696" lon="-2.32549">
        <ele>-5</ele>
        <time>2020-08-30T07:14:28.000Z</time>
      </trkpt>
      <trkpt lat="47.25693" lon="-2.32542">
        <ele>-5.4000000953674</ele>
        <time>2020-08-30T07:14:29.000Z</time>
      </trkpt>
      <trkpt lat="47.25691" lon="-2.32535">
        <ele>-5.8000001907349</ele>
        <time>2020-08-30T07:14:30.000Z</time>
      </trkpt>
      <trkpt lat="47.25689" lon="-2.32527">
        <ele>-6.1999998092651</ele>
        <time>2020-08-30T07:14:31.000Z</time>
      </trkpt>
      <trkpt lat="47.25674" lon="-2.32486">
        <ele>-6.1999998092651</ele>
        <time>2020-08-30T07:14:36.000Z</time>
      </trkpt>
      <trkpt lat="47.25668" lon="-2.32469">
        <ele>-6.5999999046326</ele>
        <time>2020-08-30T07:14:38.000Z</time>
      </trkpt>
      <trkpt lat="47.25665" lon="-2.32461">
        <ele>-7.1999998092651</ele>
        <time>2020-08-30T07:14:39.000Z</time>
      </trkpt>
      <trkpt lat="47.25663" lon="-2.32453">
        <ele>-7.5999999046326</ele>
        <time>2020-08-30T07:14:40.000Z</time>
      </trkpt>
      <trkpt lat="47.25662" lon="-2.32445">
        <ele>-8</ele>
        <time>2020-08-30T07:14:41.000Z</time>
      </trkpt>
      <trkpt lat="47.25661" lon="-2.32438">
        <ele>-8.3999996185303</ele>
        <time>2020-08-30T07:14:42.000Z</time>
      </trkpt>
      <trkpt lat="47.25658" lon="-2.32424">
        <ele>-8.3999996185303</ele>
        <time>2020-08-30T07:14:44.000Z</time>
      </trkpt>
      <trkpt lat="47.25654" lon="-2.32407">
        <ele>-8.3999996185303</ele>
        <time>2020-08-30T07:14:47.000Z</time>
      </trkpt>
      <trkpt lat="47.25661" lon="-2.32402">
        <ele>-8.3999996185303</ele>
        <time>2020-08-30T07:14:49.000Z</time>
      </trkpt>
      <trkpt lat="47.25672" lon="-2.3241">
        <ele>-8.8000001907349</ele>
        <time>2020-08-30T07:14:52.000Z</time>
      </trkpt>
      <trkpt lat="47.25676" lon="-2.32414">
        <ele>-9.1999998092651</ele>
        <time>2020-08-30T07:14:53.000Z</time>
      </trkpt>
      <trkpt lat="47.2568" lon="-2.32417">
        <ele>-9.6000003814697</ele>
        <time>2020-08-30T07:14:54.000Z</time>
      </trkpt>
      <trkpt lat="47.25685" lon="-2.32418">
        <ele>-10.199999809265</ele>
        <time>2020-08-30T07:14:55.000Z</time>
      </trkpt>
      <trkpt lat="47.25691" lon="-2.32419">
        <ele>-10.60000038147</ele>
        <time>2020-08-30T07:14:56.000Z</time>
      </trkpt>
      <trkpt lat="47.25702" lon="-2.3242">
        <ele>-10.60000038147</ele>
        <time>2020-08-30T07:14:58.000Z</time>
      </trkpt>
      <trkpt lat="47.25729" lon="-2.32421">
        <ele>-10.60000038147</ele>
        <time>2020-08-30T07:15:03.000Z</time>
      </trkpt>
      <trkpt lat="47.25754" lon="-2.32422">
        <ele>-10.60000038147</ele>
        <time>2020-08-30T07:15:09.000Z</time>
      </trkpt>
      <trkpt lat="47.25776" lon="-2.32414">
        <ele>-10.60000038147</ele>
        <time>2020-08-30T07:15:16.000Z</time>
      </trkpt>
      <trkpt lat="47.25783" lon="-2.32415">
        <ele>-10.60000038147</ele>
        <time>2020-08-30T07:15:18.000Z</time>
      </trkpt>
      <trkpt lat="47.25789" lon="-2.32422">
        <ele>-10.60000038147</ele>
        <time>2020-08-30T07:15:20.000Z</time>
      </trkpt>
      <trkpt lat="47.25804" lon="-2.32449">
        <ele>-10.60000038147</ele>
        <time>2020-08-30T07:15:25.000Z</time>
      </trkpt>
      <trkpt lat="47.25819" lon="-2.3246">
        <ele>-10.60000038147</ele>
        <time>2020-08-30T07:15:29.000Z</time>
      </trkpt>
      <trkpt lat="47.2585" lon="-2.32473">
        <ele>-10.60000038147</ele>
        <time>2020-08-30T07:15:35.000Z</time>
      </trkpt>
      <trkpt lat="47.2586" lon="-2.32473">
        <ele>-10.60000038147</ele>
        <time>2020-08-30T07:15:37.000Z</time>
      </trkpt>
      <trkpt lat="47.25874" lon="-2.32471">
        <ele>-10.60000038147</ele>
        <time>2020-08-30T07:15:40.000Z</time>
      </trkpt>
      <trkpt lat="47.25889" lon="-2.32468">
        <ele>-10.60000038147</ele>
        <time>2020-08-30T07:15:43.000Z</time>
      </trkpt>
      <trkpt lat="47.25899" lon="-2.32462">
        <ele>-11</ele>
        <time>2020-08-30T07:15:45.000Z</time>
      </trkpt>
      <trkpt lat="47.25904" lon="-2.32457">
        <ele>-11.39999961853</ele>
        <time>2020-08-30T07:15:46.000Z</time>
      </trkpt>
      <trkpt lat="47.25908" lon="-2.32452">
        <ele>-12.199999809265</ele>
        <time>2020-08-30T07:15:47.000Z</time>
      </trkpt>
      <trkpt lat="47.25912" lon="-2.32447">
        <ele>-12.60000038147</ele>
        <time>2020-08-30T07:15:48.000Z</time>
      </trkpt>
      <trkpt lat="47.25916" lon="-2.32442">
        <ele>-12.60000038147</ele>
        <time>2020-08-30T07:15:49.000Z</time>
      </trkpt>
      <trkpt lat="47.25924" lon="-2.32431">
        <ele>-12.60000038147</ele>
        <time>2020-08-30T07:15:51.000Z</time>
      </trkpt>
      <trkpt lat="47.2595" lon="-2.32396">
        <ele>-12.60000038147</ele>
        <time>2020-08-30T07:15:58.000Z</time>
      </trkpt>
      <trkpt lat="47.2598" lon="-2.32357">
        <ele>-12.60000038147</ele>
        <time>2020-08-30T07:16:06.000Z</time>
      </trkpt>
      <trkpt lat="47.2601" lon="-2.32318">
        <ele>-12.60000038147</ele>
        <time>2020-08-30T07:16:14.000Z</time>
      </trkpt>
      <trkpt lat="47.26038" lon="-2.32284">
        <ele>-12.60000038147</ele>
        <time>2020-08-30T07:16:21.000Z</time>
      </trkpt>
      <trkpt lat="47.26066" lon="-2.32251">
        <ele>-12.60000038147</ele>
        <time>2020-08-30T07:16:29.000Z</time>
      </trkpt>
      <trkpt lat="47.26085" lon="-2.32226">
        <ele>-12.60000038147</ele>
        <time>2020-08-30T07:16:35.000Z</time>
      </trkpt>
      <trkpt lat="47.26095" lon="-2.3221">
        <ele>-12.60000038147</ele>
        <time>2020-08-30T07:16:38.000Z</time>
      </trkpt>
      <trkpt lat="47.26103" lon="-2.32193">
        <ele>-12.60000038147</ele>
        <time>2020-08-30T07:16:41.000Z</time>
      </trkpt>
      <trkpt lat="47.26122" lon="-2.32144">
        <ele>-12.60000038147</ele>
        <time>2020-08-30T07:16:49.000Z</time>
      </trkpt>
      <trkpt lat="47.26128" lon="-2.32123">
        <ele>-13</ele>
        <time>2020-08-30T07:16:52.000Z</time>
      </trkpt>
      <trkpt lat="47.2613" lon="-2.32116">
        <ele>-13.39999961853</ele>
        <time>2020-08-30T07:16:53.000Z</time>
      </trkpt>
      <trkpt lat="47.26132" lon="-2.32109">
        <ele>-13.800000190735</ele>
        <time>2020-08-30T07:16:54.000Z</time>
      </trkpt>
      <trkpt lat="47.26134" lon="-2.32102">
        <ele>-14.199999809265</ele>
        <time>2020-08-30T07:16:55.000Z</time>
      </trkpt>
      <trkpt lat="47.26136" lon="-2.32096">
        <ele>-14.60000038147</ele>
        <time>2020-08-30T07:16:56.000Z</time>
      </trkpt>
      <trkpt lat="47.2615" lon="-2.32052">
        <ele>-14.60000038147</ele>
        <time>2020-08-30T07:17:03.000Z</time>
      </trkpt>
      <trkpt lat="47.26163" lon="-2.32024">
        <ele>-14.60000038147</ele>
        <time>2020-08-30T07:17:09.000Z</time>
      </trkpt>
      <trkpt lat="47.26171" lon="-2.32022">
        <ele>-14.60000038147</ele>
        <time>2020-08-30T07:17:13.000Z</time>
      </trkpt>
      <trkpt lat="47.2618" lon="-2.32022">
        <ele>-14.60000038147</ele>
        <time>2020-08-30T07:17:21.000Z</time>
      </trkpt>
      <trkpt lat="47.26187" lon="-2.32024">
        <ele>-14.60000038147</ele>
        <time>2020-08-30T07:17:27.000Z</time>
      </trkpt>
      <trkpt lat="47.26195" lon="-2.32023">
        <ele>-14.60000038147</ele>
        <time>2020-08-30T07:17:32.000Z</time>
      </trkpt>
      <trkpt lat="47.26195" lon="-2.3202">
        <ele>-14.60000038147</ele>
        <time>2020-08-30T07:17:33.000Z</time>
      </trkpt>
      <trkpt lat="47.26198" lon="-2.32009">
        <ele>-14.60000038147</ele>
        <time>2020-08-30T07:17:38.000Z</time>
      </trkpt>
      <trkpt lat="47.262" lon="-2.32007">
        <ele>-14.60000038147</ele>
        <time>2020-08-30T07:17:39.000Z</time>
      </trkpt>
      <trkpt lat="47.26212" lon="-2.31993">
        <ele>-14.60000038147</ele>
        <time>2020-08-30T07:17:44.000Z</time>
      </trkpt>
      <trkpt lat="47.26219" lon="-2.31987">
        <ele>-14.60000038147</ele>
        <time>2020-08-30T07:17:46.000Z</time>
      </trkpt>
      <trkpt lat="47.26227" lon="-2.31985">
        <ele>-14.60000038147</ele>
        <time>2020-08-30T07:17:48.000Z</time>
      </trkpt>
      <trkpt lat="47.26234" lon="-2.31977">
        <ele>-14.60000038147</ele>
        <time>2020-08-30T07:17:50.000Z</time>
      </trkpt>
      <trkpt lat="47.26237" lon="-2.31971">
        <ele>-14.60000038147</ele>
        <time>2020-08-30T07:17:51.000Z</time>
      </trkpt>
      <trkpt lat="47.26257" lon="-2.31937">
        <ele>-14.60000038147</ele>
        <time>2020-08-30T07:17:58.000Z</time>
      </trkpt>
      <trkpt lat="47.26279" lon="-2.31908">
        <ele>-14.60000038147</ele>
        <time>2020-08-30T07:18:04.000Z</time>
      </trkpt>
      <trkpt lat="47.26294" lon="-2.31896">
        <ele>-14.60000038147</ele>
        <time>2020-08-30T07:18:09.000Z</time>
      </trkpt>
      <trkpt lat="47.26301" lon="-2.31897">
        <ele>-14.60000038147</ele>
        <time>2020-08-30T07:18:12.000Z</time>
      </trkpt>
      <trkpt lat="47.26302" lon="-2.319">
        <ele>-14.60000038147</ele>
        <time>2020-08-30T07:18:13.000Z</time>
      </trkpt>
      <trkpt lat="47.26304" lon="-2.31917">
        <ele>-14.60000038147</ele>
        <time>2020-08-30T07:18:16.000Z</time>
      </trkpt>
      <trkpt lat="47.26306" lon="-2.31922">
        <ele>-14.60000038147</ele>
        <time>2020-08-30T07:18:17.000Z</time>
      </trkpt>
      <trkpt lat="47.26315" lon="-2.31931">
        <ele>-14.60000038147</ele>
        <time>2020-08-30T07:18:21.000Z</time>
      </trkpt>
      <trkpt lat="47.26339" lon="-2.31935">
        <ele>-14.60000038147</ele>
        <time>2020-08-30T07:18:28.000Z</time>
      </trkpt>
      <trkpt lat="47.26353" lon="-2.31953">
        <ele>-14.60000038147</ele>
        <time>2020-08-30T07:18:33.000Z</time>
      </trkpt>
      <trkpt lat="47.26366" lon="-2.31982">
        <ele>-14.60000038147</ele>
        <time>2020-08-30T07:18:39.000Z</time>
      </trkpt>
      <trkpt lat="47.2637" lon="-2.31983">
        <ele>-14.60000038147</ele>
        <time>2020-08-30T07:18:40.000Z</time>
      </trkpt>
      <trkpt lat="47.2639" lon="-2.31987">
        <ele>-14.60000038147</ele>
        <time>2020-08-30T07:18:45.000Z</time>
      </trkpt>
      <trkpt lat="47.26393" lon="-2.31988">
        <ele>-14.60000038147</ele>
        <time>2020-08-30T07:18:46.000Z</time>
      </trkpt>
      <trkpt lat="47.26402" lon="-2.31991">
        <ele>-14.199999809265</ele>
        <time>2020-08-30T07:18:49.000Z</time>
      </trkpt>
      <trkpt lat="47.26405" lon="-2.31993">
        <ele>-13.800000190735</ele>
        <time>2020-08-30T07:18:50.000Z</time>
      </trkpt>
      <trkpt lat="47.26407" lon="-2.31994">
        <ele>-13.39999961853</ele>
        <time>2020-08-30T07:18:51.000Z</time>
      </trkpt>
      <trkpt lat="47.2641" lon="-2.31995">
        <ele>-13</ele>
        <time>2020-08-30T07:18:52.000Z</time>
      </trkpt>
      <trkpt lat="47.26413" lon="-2.31995">
        <ele>-12.60000038147</ele>
        <time>2020-08-30T07:18:53.000Z</time>
      </trkpt>
      <trkpt lat="47.26428" lon="-2.31997">
        <ele>-12.60000038147</ele>
        <time>2020-08-30T07:18:57.000Z</time>
      </trkpt>
      <trkpt lat="47.26438" lon="-2.31997">
        <ele>-12.199999809265</ele>
        <time>2020-08-30T07:19:00.000Z</time>
      </trkpt>
      <trkpt lat="47.26442" lon="-2.31998">
        <ele>-11.800000190735</ele>
        <time>2020-08-30T07:19:01.000Z</time>
      </trkpt>
      <trkpt lat="47.26446" lon="-2.31998">
        <ele>-11.39999961853</ele>
        <time>2020-08-30T07:19:02.000Z</time>
      </trkpt>
      <trkpt lat="47.26449" lon="-2.31999">
        <ele>-11</ele>
        <time>2020-08-30T07:19:03.000Z</time>
      </trkpt>
      <trkpt lat="47.26452" lon="-2.32">
        <ele>-10.60000038147</ele>
        <time>2020-08-30T07:19:04.000Z</time>
      </trkpt>
      <trkpt lat="47.26468" lon="-2.31998">
        <ele>-10.60000038147</ele>
        <time>2020-08-30T07:19:09.000Z</time>
      </trkpt>
      <trkpt lat="47.26476" lon="-2.32">
        <ele>-10</ele>
        <time>2020-08-30T07:19:12.000Z</time>
      </trkpt>
      <trkpt lat="47.26479" lon="-2.32">
        <ele>-9.6000003814697</ele>
        <time>2020-08-30T07:19:13.000Z</time>
      </trkpt>
      <trkpt lat="47.26482" lon="-2.32001">
        <ele>-9.1999998092651</ele>
        <time>2020-08-30T07:19:14.000Z</time>
      </trkpt>
      <trkpt lat="47.26486" lon="-2.32002">
        <ele>-8.8000001907349</ele>
        <time>2020-08-30T07:19:15.000Z</time>
      </trkpt>
      <trkpt lat="47.26489" lon="-2.32001">
        <ele>-8.3999996185303</ele>
        <time>2020-08-30T07:19:16.000Z</time>
      </trkpt>
      <trkpt lat="47.26501" lon="-2.32">
        <ele>-8.3999996185303</ele>
        <time>2020-08-30T07:19:20.000Z</time>
      </trkpt>
      <trkpt lat="47.26512" lon="-2.31999">
        <ele>-8</ele>
        <time>2020-08-30T07:19:25.000Z</time>
      </trkpt>
      <trkpt lat="47.26514" lon="-2.31998">
        <ele>-7.4000000953674</ele>
        <time>2020-08-30T07:19:26.000Z</time>
      </trkpt>
      <trkpt lat="47.26516" lon="-2.31998">
        <ele>-7</ele>
        <time>2020-08-30T07:19:27.000Z</time>
      </trkpt>
      <trkpt lat="47.26518" lon="-2.31998">
        <ele>-6.5999999046326</ele>
        <time>2020-08-30T07:19:28.000Z</time>
      </trkpt>
      <trkpt lat="47.2652" lon="-2.31999">
        <ele>-6</ele>
        <time>2020-08-30T07:19:29.000Z</time>
      </trkpt>
      <trkpt lat="47.26531" lon="-2.32004">
        <ele>-6</ele>
        <time>2020-08-30T07:19:34.000Z</time>
      </trkpt>
      <trkpt lat="47.26535" lon="-2.32009">
        <ele>-5.5999999046326</ele>
        <time>2020-08-30T07:19:36.000Z</time>
      </trkpt>
      <trkpt lat="47.26537" lon="-2.32012">
        <ele>-5.1999998092651</ele>
        <time>2020-08-30T07:19:37.000Z</time>
      </trkpt>
      <trkpt lat="47.26539" lon="-2.32014">
        <ele>-4.8000001907349</ele>
        <time>2020-08-30T07:19:38.000Z</time>
      </trkpt>
      <trkpt lat="47.2654" lon="-2.32016">
        <ele>-4.4000000953674</ele>
        <time>2020-08-30T07:19:39.000Z</time>
      </trkpt>
      <trkpt lat="47.26541" lon="-2.3202">
        <ele>-4</ele>
        <time>2020-08-30T07:19:40.000Z</time>
      </trkpt>
      <trkpt lat="47.26547" lon="-2.32039">
        <ele>-4</ele>
        <time>2020-08-30T07:19:46.000Z</time>
      </trkpt>
      <trkpt lat="47.2656" lon="-2.32035">
        <ele>-4</ele>
        <time>2020-08-30T07:19:50.000Z</time>
      </trkpt>
      <trkpt lat="47.2658" lon="-2.32028">
        <ele>-3.5999999046326</ele>
        <time>2020-08-30T07:19:56.000Z</time>
      </trkpt>
      <trkpt lat="47.26584" lon="-2.32027">
        <ele>-3.2000000476837</ele>
        <time>2020-08-30T07:19:57.000Z</time>
      </trkpt>
      <trkpt lat="47.26587" lon="-2.32025">
        <ele>-2.7999999523163</ele>
        <time>2020-08-30T07:19:58.000Z</time>
      </trkpt>
      <trkpt lat="47.2659" lon="-2.32023">
        <ele>-2.4000000953674</ele>
        <time>2020-08-30T07:19:59.000Z</time>
      </trkpt>
      <trkpt lat="47.26594" lon="-2.32022">
        <ele>-2</ele>
        <time>2020-08-30T07:20:00.000Z</time>
      </trkpt>
      <trkpt lat="47.26612" lon="-2.32015">
        <ele>-2</ele>
        <time>2020-08-30T07:20:05.000Z</time>
      </trkpt>
      <trkpt lat="47.26633" lon="-2.32008">
        <ele>-2</ele>
        <time>2020-08-30T07:20:12.000Z</time>
      </trkpt>
      <trkpt lat="47.26644" lon="-2.32005">
        <ele>-2</ele>
        <time>2020-08-30T07:20:18.000Z</time>
      </trkpt>
      <trkpt lat="47.26647" lon="-2.32007">
        <ele>-2</ele>
        <time>2020-08-30T07:20:20.000Z</time>
      </trkpt>
      <trkpt lat="47.26652" lon="-2.32017">
        <ele>-2</ele>
        <time>2020-08-30T07:20:23.000Z</time>
      </trkpt>
      <trkpt lat="47.26654" lon="-2.32025">
        <ele>-2</ele>
        <time>2020-08-30T07:20:25.000Z</time>
      </trkpt>
      <trkpt lat="47.2666" lon="-2.32053">
        <ele>-2</ele>
        <time>2020-08-30T07:20:32.000Z</time>
      </trkpt>
      <trkpt lat="47.26667" lon="-2.32083">
        <ele>-2</ele>
        <time>2020-08-30T07:20:39.000Z</time>
      </trkpt>
      <trkpt lat="47.26674" lon="-2.32119">
        <ele>-2</ele>
        <time>2020-08-30T07:20:47.000Z</time>
      </trkpt>
      <trkpt lat="47.26677" lon="-2.32125">
        <ele>-2</ele>
        <time>2020-08-30T07:20:49.000Z</time>
      </trkpt>
      <trkpt lat="47.26682" lon="-2.32121">
        <ele>-2</ele>
        <time>2020-08-30T07:20:51.000Z</time>
      </trkpt>
      <trkpt lat="47.26685" lon="-2.32108">
        <ele>-2</ele>
        <time>2020-08-30T07:20:54.000Z</time>
      </trkpt>
      <trkpt lat="47.26685" lon="-2.32103">
        <ele>-2</ele>
        <time>2020-08-30T07:20:55.000Z</time>
      </trkpt>
      <trkpt lat="47.26685" lon="-2.32073">
        <ele>-2</ele>
        <time>2020-08-30T07:21:01.000Z</time>
      </trkpt>
      <trkpt lat="47.26686" lon="-2.32048">
        <ele>-2</ele>
        <time>2020-08-30T07:21:07.000Z</time>
      </trkpt>
      <trkpt lat="47.26691" lon="-2.32027">
        <ele>-2</ele>
        <time>2020-08-30T07:21:13.000Z</time>
      </trkpt>
      <trkpt lat="47.26709" lon="-2.32002">
        <ele>-2</ele>
        <time>2020-08-30T07:21:19.000Z</time>
      </trkpt>
      <trkpt lat="47.26731" lon="-2.31986">
        <ele>-2</ele>
        <time>2020-08-30T07:21:24.000Z</time>
      </trkpt>
      <trkpt lat="47.26745" lon="-2.31975">
        <ele>-2.4000000953674</ele>
        <time>2020-08-30T07:21:27.000Z</time>
      </trkpt>
      <trkpt lat="47.26749" lon="-2.3197">
        <ele>-2.7999999523163</ele>
        <time>2020-08-30T07:21:28.000Z</time>
      </trkpt>
      <trkpt lat="47.26753" lon="-2.31964">
        <ele>-3.2000000476837</ele>
        <time>2020-08-30T07:21:29.000Z</time>
      </trkpt>
      <trkpt lat="47.26756" lon="-2.31959">
        <ele>-3.5999999046326</ele>
        <time>2020-08-30T07:21:30.000Z</time>
      </trkpt>
      <trkpt lat="47.26759" lon="-2.31953">
        <ele>-4</ele>
        <time>2020-08-30T07:21:31.000Z</time>
      </trkpt>
      <trkpt lat="47.26761" lon="-2.31948">
        <ele>-4</ele>
        <time>2020-08-30T07:21:32.000Z</time>
      </trkpt>
      <trkpt lat="47.26764" lon="-2.31947">
        <ele>-4</ele>
        <time>2020-08-30T07:21:33.000Z</time>
      </trkpt>
      <trkpt lat="47.26768" lon="-2.31948">
        <ele>-4</ele>
        <time>2020-08-30T07:21:34.000Z</time>
      </trkpt>
      <trkpt lat="47.26775" lon="-2.31964">
        <ele>-4</ele>
        <time>2020-08-30T07:21:37.000Z</time>
      </trkpt>
      <trkpt lat="47.26778" lon="-2.3197">
        <ele>-4.4000000953674</ele>
        <time>2020-08-30T07:21:38.000Z</time>
      </trkpt>
      <trkpt lat="47.26782" lon="-2.31975">
        <ele>-4.8000001907349</ele>
        <time>2020-08-30T07:21:39.000Z</time>
      </trkpt>
      <trkpt lat="47.26786" lon="-2.31981">
        <ele>-5.1999998092651</ele>
        <time>2020-08-30T07:21:40.000Z</time>
      </trkpt>
      <trkpt lat="47.26789" lon="-2.31988">
        <ele>-5.5999999046326</ele>
        <time>2020-08-30T07:21:41.000Z</time>
      </trkpt>
      <trkpt lat="47.26793" lon="-2.31995">
        <ele>-6</ele>
        <time>2020-08-30T07:21:42.000Z</time>
      </trkpt>
      <trkpt lat="47.26805" lon="-2.32017">
        <ele>-6</ele>
        <time>2020-08-30T07:21:45.000Z</time>
      </trkpt>
      <trkpt lat="47.26812" lon="-2.32034">
        <ele>-6</ele>
        <time>2020-08-30T07:21:47.000Z</time>
      </trkpt>
      <trkpt lat="47.26814" lon="-2.32043">
        <ele>-6.4000000953674</ele>
        <time>2020-08-30T07:21:48.000Z</time>
      </trkpt>
      <trkpt lat="47.26816" lon="-2.32052">
        <ele>-6.8000001907349</ele>
        <time>2020-08-30T07:21:49.000Z</time>
      </trkpt>
      <trkpt lat="47.26819" lon="-2.32061">
        <ele>-7.1999998092651</ele>
        <time>2020-08-30T07:21:50.000Z</time>
      </trkpt>
      <trkpt lat="47.26821" lon="-2.3207">
        <ele>-7.5999999046326</ele>
        <time>2020-08-30T07:21:51.000Z</time>
      </trkpt>
      <trkpt lat="47.26824" lon="-2.32079">
        <ele>-8</ele>
        <time>2020-08-30T07:21:52.000Z</time>
      </trkpt>
      <trkpt lat="47.26828" lon="-2.32096">
        <ele>-8</ele>
        <time>2020-08-30T07:21:54.000Z</time>
      </trkpt>
      <trkpt lat="47.26835" lon="-2.32126">
        <ele>-9</ele>
        <time>2020-08-30T07:21:58.000Z</time>
      </trkpt>
      <trkpt lat="47.26836" lon="-2.32134">
        <ele>-9.3999996185303</ele>
        <time>2020-08-30T07:21:59.000Z</time>
      </trkpt>
      <trkpt lat="47.26838" lon="-2.3214">
        <ele>-9.8000001907349</ele>
        <time>2020-08-30T07:22:00.000Z</time>
      </trkpt>
      <trkpt lat="47.26839" lon="-2.32148">
        <ele>-10.199999809265</ele>
        <time>2020-08-30T07:22:01.000Z</time>
      </trkpt>
      <trkpt lat="47.26843" lon="-2.32161">
        <ele>-10.199999809265</ele>
        <time>2020-08-30T07:22:03.000Z</time>
      </trkpt>
      <trkpt lat="47.26846" lon="-2.32168">
        <ele>-10.199999809265</ele>
        <time>2020-08-30T07:22:04.000Z</time>
      </trkpt>
      <trkpt lat="47.26867" lon="-2.32215">
        <ele>-10.60000038147</ele>
        <time>2020-08-30T07:22:11.000Z</time>
      </trkpt>
      <trkpt lat="47.2687" lon="-2.32221">
        <ele>-11</ele>
        <time>2020-08-30T07:22:12.000Z</time>
      </trkpt>
      <trkpt lat="47.26873" lon="-2.32228">
        <ele>-11.60000038147</ele>
        <time>2020-08-30T07:22:13.000Z</time>
      </trkpt>
      <trkpt lat="47.26877" lon="-2.32235">
        <ele>-12</ele>
        <time>2020-08-30T07:22:14.000Z</time>
      </trkpt>
      <trkpt lat="47.26881" lon="-2.32241">
        <ele>-12.39999961853</ele>
        <time>2020-08-30T07:22:15.000Z</time>
      </trkpt>
      <trkpt lat="47.2689" lon="-2.32257">
        <ele>-12.39999961853</ele>
        <time>2020-08-30T07:22:18.000Z</time>
      </trkpt>
      <trkpt lat="47.26898" lon="-2.3227">
        <ele>-12.800000190735</ele>
        <time>2020-08-30T07:22:20.000Z</time>
      </trkpt>
      <trkpt lat="47.26901" lon="-2.32277">
        <ele>-13.199999809265</ele>
        <time>2020-08-30T07:22:21.000Z</time>
      </trkpt>
      <trkpt lat="47.26905" lon="-2.32285">
        <ele>-13.60000038147</ele>
        <time>2020-08-30T07:22:22.000Z</time>
      </trkpt>
      <trkpt lat="47.26909" lon="-2.32292">
        <ele>-14.60000038147</ele>
        <time>2020-08-30T07:22:23.000Z</time>
      </trkpt>
      <trkpt lat="47.26912" lon="-2.32299">
        <ele>-14.60000038147</ele>
        <time>2020-08-30T07:22:24.000Z</time>
      </trkpt>
      <trkpt lat="47.2692" lon="-2.32325">
        <ele>-14.60000038147</ele>
        <time>2020-08-30T07:22:28.000Z</time>
      </trkpt>
      <trkpt lat="47.26921" lon="-2.32332">
        <ele>-15</ele>
        <time>2020-08-30T07:22:29.000Z</time>
      </trkpt>
      <trkpt lat="47.26922" lon="-2.32338">
        <ele>-15.39999961853</ele>
        <time>2020-08-30T07:22:30.000Z</time>
      </trkpt>
      <trkpt lat="47.26924" lon="-2.32342">
        <ele>-15.800000190735</ele>
        <time>2020-08-30T07:22:31.000Z</time>
      </trkpt>
      <trkpt lat="47.26927" lon="-2.32346">
        <ele>-16.200000762939</ele>
        <time>2020-08-30T07:22:32.000Z</time>
      </trkpt>
      <trkpt lat="47.2693" lon="-2.3235">
        <ele>-16.60000038147</ele>
        <time>2020-08-30T07:22:33.000Z</time>
      </trkpt>
      <trkpt lat="47.26933" lon="-2.32355">
        <ele>-16.60000038147</ele>
        <time>2020-08-30T07:22:34.000Z</time>
      </trkpt>
      <trkpt lat="47.26935" lon="-2.32361">
        <ele>-16.60000038147</ele>
        <time>2020-08-30T07:22:35.000Z</time>
      </trkpt>
      <trkpt lat="47.26944" lon="-2.32386">
        <ele>-16.60000038147</ele>
        <time>2020-08-30T07:22:39.000Z</time>
      </trkpt>
      <trkpt lat="47.26946" lon="-2.32394">
        <ele>-16.60000038147</ele>
        <time>2020-08-30T07:22:40.000Z</time>
      </trkpt>
      <trkpt lat="47.26959" lon="-2.32429">
        <ele>-16.60000038147</ele>
        <time>2020-08-30T07:22:45.000Z</time>
      </trkpt>
      <trkpt lat="47.26963" lon="-2.32435">
        <ele>-16.60000038147</ele>
        <time>2020-08-30T07:22:46.000Z</time>
      </trkpt>
      <trkpt lat="47.26971" lon="-2.32446">
        <ele>-17</ele>
        <time>2020-08-30T07:22:48.000Z</time>
      </trkpt>
      <trkpt lat="47.26975" lon="-2.32451">
        <ele>-17.39999961853</ele>
        <time>2020-08-30T07:22:49.000Z</time>
      </trkpt>
      <trkpt lat="47.26979" lon="-2.32456">
        <ele>-17.799999237061</ele>
        <time>2020-08-30T07:22:50.000Z</time>
      </trkpt>
      <trkpt lat="47.26983" lon="-2.32461">
        <ele>-18.200000762939</ele>
        <time>2020-08-30T07:22:51.000Z</time>
      </trkpt>
      <trkpt lat="47.26986" lon="-2.32467">
        <ele>-18.60000038147</ele>
        <time>2020-08-30T07:22:52.000Z</time>
      </trkpt>
      <trkpt lat="47.26994" lon="-2.32484">
        <ele>-18.60000038147</ele>
        <time>2020-08-30T07:22:55.000Z</time>
      </trkpt>
      <trkpt lat="47.27006" lon="-2.32506">
        <ele>-18.60000038147</ele>
        <time>2020-08-30T07:22:59.000Z</time>
      </trkpt>
      <trkpt lat="47.27012" lon="-2.32507">
        <ele>-18.60000038147</ele>
        <time>2020-08-30T07:23:00.000Z</time>
      </trkpt>
      <trkpt lat="47.27022" lon="-2.32504">
        <ele>-19</ele>
        <time>2020-08-30T07:23:02.000Z</time>
      </trkpt>
      <trkpt lat="47.27027" lon="-2.32502">
        <ele>-19.60000038147</ele>
        <time>2020-08-30T07:23:03.000Z</time>
      </trkpt>
      <trkpt lat="47.27029" lon="-2.32497">
        <ele>-20</ele>
        <time>2020-08-30T07:23:04.000Z</time>
      </trkpt>
      <trkpt lat="47.27032" lon="-2.3249">
        <ele>-20.39999961853</ele>
        <time>2020-08-30T07:23:05.000Z</time>
      </trkpt>
      <trkpt lat="47.27033" lon="-2.32482">
        <ele>-20.799999237061</ele>
        <time>2020-08-30T07:23:06.000Z</time>
      </trkpt>
      <trkpt lat="47.27033" lon="-2.32475">
        <ele>-20.799999237061</ele>
        <time>2020-08-30T07:23:07.000Z</time>
      </trkpt>
      <trkpt lat="47.27033" lon="-2.32459">
        <ele>-20.799999237061</ele>
        <time>2020-08-30T07:23:09.000Z</time>
      </trkpt>
      <trkpt lat="47.27031" lon="-2.32434">
        <ele>-20.799999237061</ele>
        <time>2020-08-30T07:23:12.000Z</time>
      </trkpt>
      <trkpt lat="47.2703" lon="-2.32418">
        <ele>-20.799999237061</ele>
        <time>2020-08-30T07:23:14.000Z</time>
      </trkpt>
      <trkpt lat="47.27028" lon="-2.32387">
        <ele>-20.799999237061</ele>
        <time>2020-08-30T07:23:18.000Z</time>
      </trkpt>
      <trkpt lat="47.27025" lon="-2.32371">
        <ele>-20.799999237061</ele>
        <time>2020-08-30T07:23:20.000Z</time>
      </trkpt>
      <trkpt lat="47.27018" lon="-2.32341">
        <ele>-20.799999237061</ele>
        <time>2020-08-30T07:23:24.000Z</time>
      </trkpt>
      <trkpt lat="47.27016" lon="-2.32294">
        <ele>-20.799999237061</ele>
        <time>2020-08-30T07:23:30.000Z</time>
      </trkpt>
      <trkpt lat="47.27018" lon="-2.32244">
        <ele>-20.799999237061</ele>
        <time>2020-08-30T07:23:36.000Z</time>
      </trkpt>
      <trkpt lat="47.27015" lon="-2.32208">
        <ele>-20.799999237061</ele>
        <time>2020-08-30T07:23:41.000Z</time>
      </trkpt>
      <trkpt lat="47.27011" lon="-2.32188">
        <ele>-20.799999237061</ele>
        <time>2020-08-30T07:23:44.000Z</time>
      </trkpt>
      <trkpt lat="47.27003" lon="-2.32175">
        <ele>-20.799999237061</ele>
        <time>2020-08-30T07:23:46.000Z</time>
      </trkpt>
      <trkpt lat="47.26993" lon="-2.32151">
        <ele>-20.799999237061</ele>
        <time>2020-08-30T07:23:50.000Z</time>
      </trkpt>
      <trkpt lat="47.26998" lon="-2.32137">
        <ele>-20.799999237061</ele>
        <time>2020-08-30T07:23:53.000Z</time>
      </trkpt>
      <trkpt lat="47.2701" lon="-2.32125">
        <ele>-20.799999237061</ele>
        <time>2020-08-30T07:23:57.000Z</time>
      </trkpt>
      <trkpt lat="47.27014" lon="-2.32111">
        <ele>-20.799999237061</ele>
        <time>2020-08-30T07:24:00.000Z</time>
      </trkpt>
      <trkpt lat="47.27016" lon="-2.32106">
        <ele>-20.799999237061</ele>
        <time>2020-08-30T07:24:01.000Z</time>
      </trkpt>
      <trkpt lat="47.27015" lon="-2.32088">
        <ele>-20.799999237061</ele>
        <time>2020-08-30T07:24:05.000Z</time>
      </trkpt>
      <trkpt lat="47.27015" lon="-2.32054">
        <ele>-20.799999237061</ele>
        <time>2020-08-30T07:24:12.000Z</time>
      </trkpt>
      <trkpt lat="47.2701" lon="-2.32023">
        <ele>-20.799999237061</ele>
        <time>2020-08-30T07:24:18.000Z</time>
      </trkpt>
      <trkpt lat="47.27006" lon="-2.32001">
        <ele>-20.799999237061</ele>
        <time>2020-08-30T07:24:23.000Z</time>
      </trkpt>
      <trkpt lat="47.27012" lon="-2.31986">
        <ele>-20.799999237061</ele>
        <time>2020-08-30T07:24:26.000Z</time>
      </trkpt>
      <trkpt lat="47.27029" lon="-2.31974">
        <ele>-20.799999237061</ele>
        <time>2020-08-30T07:24:31.000Z</time>
      </trkpt>
      <trkpt lat="47.27031" lon="-2.3197">
        <ele>-20.799999237061</ele>
        <time>2020-08-30T07:24:32.000Z</time>
      </trkpt>
      <trkpt lat="47.27039" lon="-2.31964">
        <ele>-20.799999237061</ele>
        <time>2020-08-30T07:24:35.000Z</time>
      </trkpt>
      <trkpt lat="47.27053" lon="-2.31962">
        <ele>-20.799999237061</ele>
        <time>2020-08-30T07:24:40.000Z</time>
      </trkpt>
      <trkpt lat="47.2706" lon="-2.31961">
        <ele>-20.799999237061</ele>
        <time>2020-08-30T07:24:45.000Z</time>
      </trkpt>
      <trkpt lat="47.27073" lon="-2.31956">
        <ele>-20.799999237061</ele>
        <time>2020-08-30T07:24:52.000Z</time>
      </trkpt>
      <trkpt lat="47.27074" lon="-2.31942">
        <ele>-20.799999237061</ele>
        <time>2020-08-30T07:24:56.000Z</time>
      </trkpt>
      <trkpt lat="47.27074" lon="-2.31938">
        <ele>-20.799999237061</ele>
        <time>2020-08-30T07:24:57.000Z</time>
      </trkpt>
      <trkpt lat="47.27072" lon="-2.31913">
        <ele>-20.799999237061</ele>
        <time>2020-08-30T07:25:04.000Z</time>
      </trkpt>
      <trkpt lat="47.27074" lon="-2.31888">
        <ele>-20.799999237061</ele>
        <time>2020-08-30T07:25:11.000Z</time>
      </trkpt>
      <trkpt lat="47.27077" lon="-2.31872">
        <ele>-20.799999237061</ele>
        <time>2020-08-30T07:25:16.000Z</time>
      </trkpt>
      <trkpt lat="47.27071" lon="-2.31862">
        <ele>-20.799999237061</ele>
        <time>2020-08-30T07:25:19.000Z</time>
      </trkpt>
      <trkpt lat="47.27063" lon="-2.31853">
        <ele>-20.39999961853</ele>
        <time>2020-08-30T07:25:22.000Z</time>
      </trkpt>
      <trkpt lat="47.27062" lon="-2.31848">
        <ele>-20</ele>
        <time>2020-08-30T07:25:23.000Z</time>
      </trkpt>
      <trkpt lat="47.27059" lon="-2.31841">
        <ele>-19.60000038147</ele>
        <time>2020-08-30T07:25:24.000Z</time>
      </trkpt>
      <trkpt lat="47.27058" lon="-2.31836">
        <ele>-19.200000762939</ele>
        <time>2020-08-30T07:25:25.000Z</time>
      </trkpt>
      <trkpt lat="47.27057" lon="-2.31831">
        <ele>-18.799999237061</ele>
        <time>2020-08-30T07:25:26.000Z</time>
      </trkpt>
      <trkpt lat="47.27055" lon="-2.31815">
        <ele>-18.799999237061</ele>
        <time>2020-08-30T07:25:30.000Z</time>
      </trkpt>
      <trkpt lat="47.27053" lon="-2.31795">
        <ele>-18.799999237061</ele>
        <time>2020-08-30T07:25:36.000Z</time>
      </trkpt>
      <trkpt lat="47.27051" lon="-2.31775">
        <ele>-18.799999237061</ele>
        <time>2020-08-30T07:25:42.000Z</time>
      </trkpt>
      <trkpt lat="47.27049" lon="-2.31757">
        <ele>-18.799999237061</ele>
        <time>2020-08-30T07:25:48.000Z</time>
      </trkpt>
      <trkpt lat="47.27051" lon="-2.31742">
        <ele>-18.799999237061</ele>
        <time>2020-08-30T07:25:54.000Z</time>
      </trkpt>
      <trkpt lat="47.27052" lon="-2.31741">
        <ele>-18.799999237061</ele>
        <time>2020-08-30T07:25:55.000Z</time>
      </trkpt>
      <trkpt lat="47.27052" lon="-2.3174">
        <ele>-18.799999237061</ele>
        <time>2020-08-30T07:25:58.000Z</time>
      </trkpt>
      <trkpt lat="47.2705" lon="-2.31734">
        <ele>-18.799999237061</ele>
        <time>2020-08-30T07:26:28.000Z</time>
      </trkpt>
      <trkpt lat="47.27046" lon="-2.31731">
        <ele>-18.799999237061</ele>
        <time>2020-08-30T07:26:30.000Z</time>
      </trkpt>
      <trkpt lat="47.27037" lon="-2.31726">
        <ele>-18.799999237061</ele>
        <time>2020-08-30T07:26:35.000Z</time>
      </trkpt>
      <trkpt lat="47.27036" lon="-2.31725">
        <ele>-18.799999237061</ele>
        <time>2020-08-30T07:26:36.000Z</time>
      </trkpt>
      <trkpt lat="47.27031" lon="-2.31721">
        <ele>-18.39999961853</ele>
        <time>2020-08-30T07:26:39.000Z</time>
      </trkpt>
      <trkpt lat="47.27029" lon="-2.3172">
        <ele>-18</ele>
        <time>2020-08-30T07:26:40.000Z</time>
      </trkpt>
      <trkpt lat="47.27027" lon="-2.31718">
        <ele>-17.60000038147</ele>
        <time>2020-08-30T07:26:41.000Z</time>
      </trkpt>
      <trkpt lat="47.27026" lon="-2.31715">
        <ele>-17.200000762939</ele>
        <time>2020-08-30T07:26:42.000Z</time>
      </trkpt>
      <trkpt lat="47.27025" lon="-2.31713">
        <ele>-16.799999237061</ele>
        <time>2020-08-30T07:26:43.000Z</time>
      </trkpt>
      <trkpt lat="47.27028" lon="-2.31692">
        <ele>-16.799999237061</ele>
        <time>2020-08-30T07:26:49.000Z</time>
      </trkpt>
      <trkpt lat="47.27034" lon="-2.31658">
        <ele>-16.200000762939</ele>
        <time>2020-08-30T07:26:57.000Z</time>
      </trkpt>
      <trkpt lat="47.27034" lon="-2.31655">
        <ele>-15.800000190735</ele>
        <time>2020-08-30T07:26:58.000Z</time>
      </trkpt>
      <trkpt lat="47.27033" lon="-2.31649">
        <ele>-15.39999961853</ele>
        <time>2020-08-30T07:26:59.000Z</time>
      </trkpt>
      <trkpt lat="47.27033" lon="-2.31645">
        <ele>-15</ele>
        <time>2020-08-30T07:27:00.000Z</time>
      </trkpt>
      <trkpt lat="47.27033" lon="-2.31641">
        <ele>-14.60000038147</ele>
        <time>2020-08-30T07:27:01.000Z</time>
      </trkpt>
      <trkpt lat="47.27032" lon="-2.31626">
        <ele>-14.60000038147</ele>
        <time>2020-08-30T07:27:05.000Z</time>
      </trkpt>
      <trkpt lat="47.27028" lon="-2.31604">
        <ele>-14.60000038147</ele>
        <time>2020-08-30T07:27:11.000Z</time>
      </trkpt>
      <trkpt lat="47.27028" lon="-2.31602">
        <ele>-14.199999809265</ele>
        <time>2020-08-30T07:27:12.000Z</time>
      </trkpt>
      <trkpt lat="47.27028" lon="-2.31599">
        <ele>-13.800000190735</ele>
        <time>2020-08-30T07:27:13.000Z</time>
      </trkpt>
      <trkpt lat="47.27026" lon="-2.31595">
        <ele>-13.39999961853</ele>
        <time>2020-08-30T07:27:14.000Z</time>
      </trkpt>
      <trkpt lat="47.27025" lon="-2.31593">
        <ele>-13</ele>
        <time>2020-08-30T07:27:15.000Z</time>
      </trkpt>
      <trkpt lat="47.27024" lon="-2.31589">
        <ele>-12.60000038147</ele>
        <time>2020-08-30T07:27:16.000Z</time>
      </trkpt>
      <trkpt lat="47.27016" lon="-2.31572">
        <ele>-12.60000038147</ele>
        <time>2020-08-30T07:27:22.000Z</time>
      </trkpt>
      <trkpt lat="47.27015" lon="-2.3157">
        <ele>-12.199999809265</ele>
        <time>2020-08-30T07:27:23.000Z</time>
      </trkpt>
      <trkpt lat="47.27013" lon="-2.31566">
        <ele>-11.800000190735</ele>
        <time>2020-08-30T07:27:24.000Z</time>
      </trkpt>
      <trkpt lat="47.27011" lon="-2.31562">
        <ele>-11.39999961853</ele>
        <time>2020-08-30T07:27:25.000Z</time>
      </trkpt>
      <trkpt lat="47.2701" lon="-2.31558">
        <ele>-10.800000190735</ele>
        <time>2020-08-30T07:27:26.000Z</time>
      </trkpt>
      <trkpt lat="47.27009" lon="-2.31554">
        <ele>-10.39999961853</ele>
        <time>2020-08-30T07:27:27.000Z</time>
      </trkpt>
      <trkpt lat="47.27009" lon="-2.3155">
        <ele>-10.39999961853</ele>
        <time>2020-08-30T07:27:28.000Z</time>
      </trkpt>
      <trkpt lat="47.27" lon="-2.3152">
        <ele>-10.39999961853</ele>
        <time>2020-08-30T07:27:35.000Z</time>
      </trkpt>
      <trkpt lat="47.26997" lon="-2.31503">
        <ele>-10</ele>
        <time>2020-08-30T07:27:39.000Z</time>
      </trkpt>
      <trkpt lat="47.26995" lon="-2.31499">
        <ele>-9.6000003814697</ele>
        <time>2020-08-30T07:27:40.000Z</time>
      </trkpt>
      <trkpt lat="47.26995" lon="-2.31496">
        <ele>-9.1999998092651</ele>
        <time>2020-08-30T07:27:41.000Z</time>
      </trkpt>
      <trkpt lat="47.26994" lon="-2.31492">
        <ele>-8.8000001907349</ele>
        <time>2020-08-30T07:27:42.000Z</time>
      </trkpt>
      <trkpt lat="47.26993" lon="-2.31488">
        <ele>-8.3999996185303</ele>
        <time>2020-08-30T07:27:43.000Z</time>
      </trkpt>
      <trkpt lat="47.26989" lon="-2.31464">
        <ele>-8.3999996185303</ele>
        <time>2020-08-30T07:27:48.000Z</time>
      </trkpt>
      <trkpt lat="47.26987" lon="-2.31457">
        <ele>-8</ele>
        <time>2020-08-30T07:27:50.000Z</time>
      </trkpt>
      <trkpt lat="47.26988" lon="-2.31453">
        <ele>-7.5999999046326</ele>
        <time>2020-08-30T07:27:51.000Z</time>
      </trkpt>
      <trkpt lat="47.26988" lon="-2.31446">
        <ele>-7.1999998092651</ele>
        <time>2020-08-30T07:27:52.000Z</time>
      </trkpt>
      <trkpt lat="47.26988" lon="-2.31441">
        <ele>-6.8000001907349</ele>
        <time>2020-08-30T07:27:53.000Z</time>
      </trkpt>
      <trkpt lat="47.26988" lon="-2.31436">
        <ele>-6.1999998092651</ele>
        <time>2020-08-30T07:27:54.000Z</time>
      </trkpt>
      <trkpt lat="47.26987" lon="-2.31404">
        <ele>-6.1999998092651</ele>
        <time>2020-08-30T07:28:01.000Z</time>
      </trkpt>
      <trkpt lat="47.26985" lon="-2.31377">
        <ele>-5.8000001907349</ele>
        <time>2020-08-30T07:28:07.000Z</time>
      </trkpt>
      <trkpt lat="47.26985" lon="-2.31373">
        <ele>-5.4000000953674</ele>
        <time>2020-08-30T07:28:08.000Z</time>
      </trkpt>
      <trkpt lat="47.26985" lon="-2.31369">
        <ele>-4.5999999046326</ele>
        <time>2020-08-30T07:28:09.000Z</time>
      </trkpt>
      <trkpt lat="47.26984" lon="-2.31366">
        <ele>-4.1999998092651</ele>
        <time>2020-08-30T07:28:10.000Z</time>
      </trkpt>
      <trkpt lat="47.26978" lon="-2.31346">
        <ele>-4.1999998092651</ele>
        <time>2020-08-30T07:28:15.000Z</time>
      </trkpt>
      <trkpt lat="47.26975" lon="-2.31311">
        <ele>-4.1999998092651</ele>
        <time>2020-08-30T07:28:21.000Z</time>
      </trkpt>
      <trkpt lat="47.26975" lon="-2.3129">
        <ele>-3.7999999523163</ele>
        <time>2020-08-30T07:28:24.000Z</time>
      </trkpt>
      <trkpt lat="47.26975" lon="-2.31283">
        <ele>-3.4000000953674</ele>
        <time>2020-08-30T07:28:25.000Z</time>
      </trkpt>
      <trkpt lat="47.26975" lon="-2.31276">
        <ele>-3</ele>
        <time>2020-08-30T07:28:26.000Z</time>
      </trkpt>
      <trkpt lat="47.26975" lon="-2.31269">
        <ele>-2.5999999046326</ele>
        <time>2020-08-30T07:28:27.000Z</time>
      </trkpt>
      <trkpt lat="47.26975" lon="-2.31262">
        <ele>-2.2000000476837</ele>
        <time>2020-08-30T07:28:28.000Z</time>
      </trkpt>
      <trkpt lat="47.26977" lon="-2.31235">
        <ele>-2.2000000476837</ele>
        <time>2020-08-30T07:28:32.000Z</time>
      </trkpt>
      <trkpt lat="47.26981" lon="-2.31195">
        <ele>-2.2000000476837</ele>
        <time>2020-08-30T07:28:38.000Z</time>
      </trkpt>
      <trkpt lat="47.26984" lon="-2.31169">
        <ele>-2.5999999046326</ele>
        <time>2020-08-30T07:28:41.000Z</time>
      </trkpt>
      <trkpt lat="47.26985" lon="-2.31159">
        <ele>-3</ele>
        <time>2020-08-30T07:28:42.000Z</time>
      </trkpt>
      <trkpt lat="47.26986" lon="-2.31149">
        <ele>-3.4000000953674</ele>
        <time>2020-08-30T07:28:43.000Z</time>
      </trkpt>
      <trkpt lat="47.26987" lon="-2.31139">
        <ele>-3.7999999523163</ele>
        <time>2020-08-30T07:28:44.000Z</time>
      </trkpt>
      <trkpt lat="47.26988" lon="-2.31128">
        <ele>-4.1999998092651</ele>
        <time>2020-08-30T07:28:45.000Z</time>
      </trkpt>
      <trkpt lat="47.26988" lon="-2.31118">
        <ele>-4.1999998092651</ele>
        <time>2020-08-30T07:28:46.000Z</time>
      </trkpt>
      <trkpt lat="47.26988" lon="-2.311">
        <ele>-4.1999998092651</ele>
        <time>2020-08-30T07:28:48.000Z</time>
      </trkpt>
      <trkpt lat="47.26987" lon="-2.31092">
        <ele>-4.5999999046326</ele>
        <time>2020-08-30T07:28:49.000Z</time>
      </trkpt>
      <trkpt lat="47.26986" lon="-2.31086">
        <ele>-5.1999998092651</ele>
        <time>2020-08-30T07:28:50.000Z</time>
      </trkpt>
      <trkpt lat="47.26986" lon="-2.31081">
        <ele>-5.8000001907349</ele>
        <time>2020-08-30T07:28:51.000Z</time>
      </trkpt>
      <trkpt lat="47.26987" lon="-2.31076">
        <ele>-6.1999998092651</ele>
        <time>2020-08-30T07:28:52.000Z</time>
      </trkpt>
      <trkpt lat="47.26988" lon="-2.31072">
        <ele>-6.8000001907349</ele>
        <time>2020-08-30T07:28:53.000Z</time>
      </trkpt>
      <trkpt lat="47.26992" lon="-2.31065">
        <ele>-6.8000001907349</ele>
        <time>2020-08-30T07:28:55.000Z</time>
      </trkpt>
      <trkpt lat="47.27002" lon="-2.31056">
        <ele>-7.1999998092651</ele>
        <time>2020-08-30T07:28:58.000Z</time>
      </trkpt>
      <trkpt lat="47.27006" lon="-2.31053">
        <ele>-7.5999999046326</ele>
        <time>2020-08-30T07:28:59.000Z</time>
      </trkpt>
      <trkpt lat="47.2701" lon="-2.31049">
        <ele>-8</ele>
        <time>2020-08-30T07:29:00.000Z</time>
      </trkpt>
      <trkpt lat="47.27014" lon="-2.31046">
        <ele>-8.6000003814697</ele>
        <time>2020-08-30T07:29:01.000Z</time>
      </trkpt>
      <trkpt lat="47.27018" lon="-2.31043">
        <ele>-9</ele>
        <time>2020-08-30T07:29:02.000Z</time>
      </trkpt>
      <trkpt lat="47.27029" lon="-2.31033">
        <ele>-9</ele>
        <time>2020-08-30T07:29:05.000Z</time>
      </trkpt>
      <trkpt lat="47.27041" lon="-2.31022">
        <ele>-9.3999996185303</ele>
        <time>2020-08-30T07:29:08.000Z</time>
      </trkpt>
      <trkpt lat="47.27045" lon="-2.31018">
        <ele>-9.8000001907349</ele>
        <time>2020-08-30T07:29:09.000Z</time>
      </trkpt>
      <trkpt lat="47.27048" lon="-2.31015">
        <ele>-10.199999809265</ele>
        <time>2020-08-30T07:29:10.000Z</time>
      </trkpt>
      <trkpt lat="47.27051" lon="-2.31012">
        <ele>-10.60000038147</ele>
        <time>2020-08-30T07:29:11.000Z</time>
      </trkpt>
      <trkpt lat="47.27053" lon="-2.31008">
        <ele>-11</ele>
        <time>2020-08-30T07:29:12.000Z</time>
      </trkpt>
      <trkpt lat="47.27058" lon="-2.30992">
        <ele>-11</ele>
        <time>2020-08-30T07:29:16.000Z</time>
      </trkpt>
      <trkpt lat="47.27059" lon="-2.3096">
        <ele>-11</ele>
        <time>2020-08-30T07:29:23.000Z</time>
      </trkpt>
      <trkpt lat="47.27055" lon="-2.30938">
        <ele>-11</ele>
        <time>2020-08-30T07:29:28.000Z</time>
      </trkpt>
      <trkpt lat="47.27046" lon="-2.30912">
        <ele>-11</ele>
        <time>2020-08-30T07:29:33.000Z</time>
      </trkpt>
      <trkpt lat="47.27041" lon="-2.30893">
        <ele>-11</ele>
        <time>2020-08-30T07:29:36.000Z</time>
      </trkpt>
      <trkpt lat="47.27036" lon="-2.3088">
        <ele>-11</ele>
        <time>2020-08-30T07:29:38.000Z</time>
      </trkpt>
      <trkpt lat="47.27018" lon="-2.30847">
        <ele>-11</ele>
        <time>2020-08-30T07:29:45.000Z</time>
      </trkpt>
      <trkpt lat="47.27" lon="-2.30819">
        <ele>-11</ele>
        <time>2020-08-30T07:29:51.000Z</time>
      </trkpt>
      <trkpt lat="47.26984" lon="-2.30791">
        <ele>-11</ele>
        <time>2020-08-30T07:29:58.000Z</time>
      </trkpt>
      <trkpt lat="47.26982" lon="-2.30788">
        <ele>-10.60000038147</ele>
        <time>2020-08-30T07:29:59.000Z</time>
      </trkpt>
      <trkpt lat="47.26979" lon="-2.30785">
        <ele>-10.199999809265</ele>
        <time>2020-08-30T07:30:00.000Z</time>
      </trkpt>
      <trkpt lat="47.26976" lon="-2.30781">
        <ele>-9.8000001907349</ele>
        <time>2020-08-30T07:30:01.000Z</time>
      </trkpt>
      <trkpt lat="47.26973" lon="-2.30778">
        <ele>-9.3999996185303</ele>
        <time>2020-08-30T07:30:02.000Z</time>
      </trkpt>
      <trkpt lat="47.26971" lon="-2.30775">
        <ele>-9</ele>
        <time>2020-08-30T07:30:03.000Z</time>
      </trkpt>
      <trkpt lat="47.26969" lon="-2.3077">
        <ele>-9</ele>
        <time>2020-08-30T07:30:04.000Z</time>
      </trkpt>
      <trkpt lat="47.26957" lon="-2.30755">
        <ele>-9</ele>
        <time>2020-08-30T07:30:09.000Z</time>
      </trkpt>
      <trkpt lat="47.26944" lon="-2.30738">
        <ele>-9</ele>
        <time>2020-08-30T07:30:14.000Z</time>
      </trkpt>
      <trkpt lat="47.26942" lon="-2.30734">
        <ele>-8.6000003814697</ele>
        <time>2020-08-30T07:30:15.000Z</time>
      </trkpt>
      <trkpt lat="47.26939" lon="-2.30731">
        <ele>-8.1999998092651</ele>
        <time>2020-08-30T07:30:16.000Z</time>
      </trkpt>
      <trkpt lat="47.26937" lon="-2.30727">
        <ele>-7.8000001907349</ele>
        <time>2020-08-30T07:30:17.000Z</time>
      </trkpt>
      <trkpt lat="47.26935" lon="-2.30723">
        <ele>-7.4000000953674</ele>
        <time>2020-08-30T07:30:18.000Z</time>
      </trkpt>
      <trkpt lat="47.26933" lon="-2.3072">
        <ele>-7</ele>
        <time>2020-08-30T07:30:19.000Z</time>
      </trkpt>
      <trkpt lat="47.26929" lon="-2.30713">
        <ele>-7</ele>
        <time>2020-08-30T07:30:21.000Z</time>
      </trkpt>
      <trkpt lat="47.26911" lon="-2.30687">
        <ele>-7</ele>
        <time>2020-08-30T07:30:28.000Z</time>
      </trkpt>
      <trkpt lat="47.269" lon="-2.30668">
        <ele>-7</ele>
        <time>2020-08-30T07:30:34.000Z</time>
      </trkpt>
      <trkpt lat="47.269" lon="-2.30664">
        <ele>-7</ele>
        <time>2020-08-30T07:30:35.000Z</time>
      </trkpt>
      <trkpt lat="47.26905" lon="-2.30654">
        <ele>-6.4000000953674</ele>
        <time>2020-08-30T07:30:38.000Z</time>
      </trkpt>
      <trkpt lat="47.26907" lon="-2.30651">
        <ele>-6</ele>
        <time>2020-08-30T07:30:39.000Z</time>
      </trkpt>
      <trkpt lat="47.26909" lon="-2.30648">
        <ele>-5.5999999046326</ele>
        <time>2020-08-30T07:30:40.000Z</time>
      </trkpt>
      <trkpt lat="47.26912" lon="-2.30646">
        <ele>-5.1999998092651</ele>
        <time>2020-08-30T07:30:41.000Z</time>
      </trkpt>
      <trkpt lat="47.26915" lon="-2.30643">
        <ele>-4.8000001907349</ele>
        <time>2020-08-30T07:30:42.000Z</time>
      </trkpt>
      <trkpt lat="47.26922" lon="-2.30638">
        <ele>-4.8000001907349</ele>
        <time>2020-08-30T07:30:44.000Z</time>
      </trkpt>
      <trkpt lat="47.26927" lon="-2.30637">
        <ele>-4.8000001907349</ele>
        <time>2020-08-30T07:30:45.000Z</time>
      </trkpt>
      <trkpt lat="47.26947" lon="-2.30631">
        <ele>-4.8000001907349</ele>
        <time>2020-08-30T07:30:49.000Z</time>
      </trkpt>
      <trkpt lat="47.2697" lon="-2.30622">
        <ele>-5.1999998092651</ele>
        <time>2020-08-30T07:30:53.000Z</time>
      </trkpt>
      <trkpt lat="47.26975" lon="-2.30619">
        <ele>-5.5999999046326</ele>
        <time>2020-08-30T07:30:54.000Z</time>
      </trkpt>
      <trkpt lat="47.26981" lon="-2.30615">
        <ele>-6.1999998092651</ele>
        <time>2020-08-30T07:30:55.000Z</time>
      </trkpt>
      <trkpt lat="47.26986" lon="-2.30612">
        <ele>-6.5999999046326</ele>
        <time>2020-08-30T07:30:56.000Z</time>
      </trkpt>
      <trkpt lat="47.26991" lon="-2.30609">
        <ele>-7</ele>
        <time>2020-08-30T07:30:57.000Z</time>
      </trkpt>
      <trkpt lat="47.27001" lon="-2.30602">
        <ele>-7</ele>
        <time>2020-08-30T07:30:59.000Z</time>
      </trkpt>
      <trkpt lat="47.27009" lon="-2.30592">
        <ele>-7</ele>
        <time>2020-08-30T07:31:01.000Z</time>
      </trkpt>
      <trkpt lat="47.27014" lon="-2.30578">
        <ele>-7</ele>
        <time>2020-08-30T07:31:03.000Z</time>
      </trkpt>
      <trkpt lat="47.27019" lon="-2.30558">
        <ele>-7</ele>
        <time>2020-08-30T07:31:06.000Z</time>
      </trkpt>
      <trkpt lat="47.27029" lon="-2.30516">
        <ele>-7</ele>
        <time>2020-08-30T07:31:12.000Z</time>
      </trkpt>
      <trkpt lat="47.27037" lon="-2.30487">
        <ele>-7</ele>
        <time>2020-08-30T07:31:17.000Z</time>
      </trkpt>
      <trkpt lat="47.27041" lon="-2.30474">
        <ele>-7</ele>
        <time>2020-08-30T07:31:21.000Z</time>
      </trkpt>
      <trkpt lat="47.27043" lon="-2.30473">
        <ele>-7</ele>
        <time>2020-08-30T07:31:23.000Z</time>
      </trkpt>
      <trkpt lat="47.27047" lon="-2.30474">
        <ele>-7</ele>
        <time>2020-08-30T07:31:25.000Z</time>
      </trkpt>
      <trkpt lat="47.2705" lon="-2.30477">
        <ele>-7.4000000953674</ele>
        <time>2020-08-30T07:31:27.000Z</time>
      </trkpt>
      <trkpt lat="47.27053" lon="-2.30478">
        <ele>-7.8000001907349</ele>
        <time>2020-08-30T07:31:28.000Z</time>
      </trkpt>
      <trkpt lat="47.27055" lon="-2.3048">
        <ele>-8.1999998092651</ele>
        <time>2020-08-30T07:31:29.000Z</time>
      </trkpt>
      <trkpt lat="47.2706" lon="-2.3048">
        <ele>-8.6000003814697</ele>
        <time>2020-08-30T07:31:30.000Z</time>
      </trkpt>
      <trkpt lat="47.27065" lon="-2.3048">
        <ele>-9</ele>
        <time>2020-08-30T07:31:31.000Z</time>
      </trkpt>
      <trkpt lat="47.27081" lon="-2.30486">
        <ele>-9</ele>
        <time>2020-08-30T07:31:35.000Z</time>
      </trkpt>
      <trkpt lat="47.27101" lon="-2.3049">
        <ele>-9</ele>
        <time>2020-08-30T07:31:40.000Z</time>
      </trkpt>
      <trkpt lat="47.2711" lon="-2.30493">
        <ele>-9.3999996185303</ele>
        <time>2020-08-30T07:31:42.000Z</time>
      </trkpt>
      <trkpt lat="47.27114" lon="-2.30495">
        <ele>-9.8000001907349</ele>
        <time>2020-08-30T07:31:43.000Z</time>
      </trkpt>
      <trkpt lat="47.27119" lon="-2.30496">
        <ele>-10.199999809265</ele>
        <time>2020-08-30T07:31:44.000Z</time>
      </trkpt>
      <trkpt lat="47.27124" lon="-2.30498">
        <ele>-10.800000190735</ele>
        <time>2020-08-30T07:31:45.000Z</time>
      </trkpt>
      <trkpt lat="47.27128" lon="-2.305">
        <ele>-11.199999809265</ele>
        <time>2020-08-30T07:31:46.000Z</time>
      </trkpt>
      <trkpt lat="47.27145" lon="-2.3051">
        <ele>-11.199999809265</ele>
        <time>2020-08-30T07:31:50.000Z</time>
      </trkpt>
      <trkpt lat="47.27151" lon="-2.30516">
        <ele>-11.60000038147</ele>
        <time>2020-08-30T07:31:52.000Z</time>
      </trkpt>
      <trkpt lat="47.27154" lon="-2.30519">
        <ele>-12</ele>
        <time>2020-08-30T07:31:53.000Z</time>
      </trkpt>
      <trkpt lat="47.27156" lon="-2.30522">
        <ele>-12.39999961853</ele>
        <time>2020-08-30T07:31:54.000Z</time>
      </trkpt>
      <trkpt lat="47.27159" lon="-2.30525">
        <ele>-12.800000190735</ele>
        <time>2020-08-30T07:31:55.000Z</time>
      </trkpt>
      <trkpt lat="47.27163" lon="-2.30527">
        <ele>-13.199999809265</ele>
        <time>2020-08-30T07:31:56.000Z</time>
      </trkpt>
      <trkpt lat="47.27181" lon="-2.30535">
        <ele>-13.199999809265</ele>
        <time>2020-08-30T07:32:02.000Z</time>
      </trkpt>
      <trkpt lat="47.272" lon="-2.30541">
        <ele>-13.199999809265</ele>
        <time>2020-08-30T07:32:10.000Z</time>
      </trkpt>
      <trkpt lat="47.27203" lon="-2.30542">
        <ele>-13.60000038147</ele>
        <time>2020-08-30T07:32:11.000Z</time>
      </trkpt>
      <trkpt lat="47.27204" lon="-2.30543">
        <ele>-14</ele>
        <time>2020-08-30T07:32:12.000Z</time>
      </trkpt>
      <trkpt lat="47.27207" lon="-2.30543">
        <ele>-14.39999961853</ele>
        <time>2020-08-30T07:32:13.000Z</time>
      </trkpt>
      <trkpt lat="47.27212" lon="-2.30544">
        <ele>-14.800000190735</ele>
        <time>2020-08-30T07:32:14.000Z</time>
      </trkpt>
      <trkpt lat="47.27214" lon="-2.30543">
        <ele>-15.199999809265</ele>
        <time>2020-08-30T07:32:15.000Z</time>
      </trkpt>
      <trkpt lat="47.27228" lon="-2.30542">
        <ele>-15.199999809265</ele>
        <time>2020-08-30T07:32:20.000Z</time>
      </trkpt>
      <trkpt lat="47.27247" lon="-2.30544">
        <ele>-15.199999809265</ele>
        <time>2020-08-30T07:32:26.000Z</time>
      </trkpt>
      <trkpt lat="47.27268" lon="-2.30543">
        <ele>-15.199999809265</ele>
        <time>2020-08-30T07:32:32.000Z</time>
      </trkpt>
      <trkpt lat="47.27279" lon="-2.30541">
        <ele>-15.60000038147</ele>
        <time>2020-08-30T07:32:35.000Z</time>
      </trkpt>
      <trkpt lat="47.27283" lon="-2.30539">
        <ele>-16.200000762939</ele>
        <time>2020-08-30T07:32:36.000Z</time>
      </trkpt>
      <trkpt lat="47.27286" lon="-2.30538">
        <ele>-16.60000038147</ele>
        <time>2020-08-30T07:32:37.000Z</time>
      </trkpt>
      <trkpt lat="47.2729" lon="-2.30536">
        <ele>-17</ele>
        <time>2020-08-30T07:32:38.000Z</time>
      </trkpt>
      <trkpt lat="47.27293" lon="-2.30535">
        <ele>-17.39999961853</ele>
        <time>2020-08-30T07:32:39.000Z</time>
      </trkpt>
      <trkpt lat="47.27296" lon="-2.30533">
        <ele>-17.39999961853</ele>
        <time>2020-08-30T07:32:40.000Z</time>
      </trkpt>
      <trkpt lat="47.27304" lon="-2.30527">
        <ele>-17.39999961853</ele>
        <time>2020-08-30T07:32:43.000Z</time>
      </trkpt>
      <trkpt lat="47.27322" lon="-2.30521">
        <ele>-17.39999961853</ele>
        <time>2020-08-30T07:32:49.000Z</time>
      </trkpt>
      <trkpt lat="47.27337" lon="-2.30516">
        <ele>-17.39999961853</ele>
        <time>2020-08-30T07:32:54.000Z</time>
      </trkpt>
      <trkpt lat="47.27351" lon="-2.3051">
        <ele>-17.39999961853</ele>
        <time>2020-08-30T07:32:59.000Z</time>
      </trkpt>
      <trkpt lat="47.27367" lon="-2.30501">
        <ele>-17.39999961853</ele>
        <time>2020-08-30T07:33:06.000Z</time>
      </trkpt>
      <trkpt lat="47.27384" lon="-2.30486">
        <ele>-17.39999961853</ele>
        <time>2020-08-30T07:33:11.000Z</time>
      </trkpt>
      <trkpt lat="47.27399" lon="-2.30471">
        <ele>-17.39999961853</ele>
        <time>2020-08-30T07:33:16.000Z</time>
      </trkpt>
      <trkpt lat="47.2741" lon="-2.30465">
        <ele>-17.39999961853</ele>
        <time>2020-08-30T07:33:21.000Z</time>
      </trkpt>
      <trkpt lat="47.27415" lon="-2.30464">
        <ele>-17.39999961853</ele>
        <time>2020-08-30T07:33:26.000Z</time>
      </trkpt>
      <trkpt lat="47.27417" lon="-2.3046">
        <ele>-17.39999961853</ele>
        <time>2020-08-30T07:33:29.000Z</time>
      </trkpt>
      <trkpt lat="47.27422" lon="-2.30454">
        <ele>-17.39999961853</ele>
        <time>2020-08-30T07:33:32.000Z</time>
      </trkpt>
      <trkpt lat="47.27428" lon="-2.30453">
        <ele>-17.39999961853</ele>
        <time>2020-08-30T07:33:34.000Z</time>
      </trkpt>
      <trkpt lat="47.27436" lon="-2.30452">
        <ele>-17.39999961853</ele>
        <time>2020-08-30T07:33:36.000Z</time>
      </trkpt>
      <trkpt lat="47.27464" lon="-2.30449">
        <ele>-17.39999961853</ele>
        <time>2020-08-30T07:33:42.000Z</time>
      </trkpt>
      <trkpt lat="47.27469" lon="-2.30448">
        <ele>-17.39999961853</ele>
        <time>2020-08-30T07:33:43.000Z</time>
      </trkpt>
      <trkpt lat="47.27493" lon="-2.3044">
        <ele>-17.39999961853</ele>
        <time>2020-08-30T07:33:48.000Z</time>
      </trkpt>
      <trkpt lat="47.27504" lon="-2.30426">
        <ele>-17.39999961853</ele>
        <time>2020-08-30T07:33:52.000Z</time>
      </trkpt>
      <trkpt lat="47.27502" lon="-2.3041">
        <ele>-17.39999961853</ele>
        <time>2020-08-30T07:33:55.000Z</time>
      </trkpt>
      <trkpt lat="47.27497" lon="-2.30373">
        <ele>-17.39999961853</ele>
        <time>2020-08-30T07:34:02.000Z</time>
      </trkpt>
      <trkpt lat="47.27489" lon="-2.30343">
        <ele>-17.39999961853</ele>
        <time>2020-08-30T07:34:09.000Z</time>
      </trkpt>
      <trkpt lat="47.27484" lon="-2.30323">
        <ele>-17</ele>
        <time>2020-08-30T07:34:14.000Z</time>
      </trkpt>
      <trkpt lat="47.27484" lon="-2.30319">
        <ele>-16.60000038147</ele>
        <time>2020-08-30T07:34:15.000Z</time>
      </trkpt>
      <trkpt lat="47.27483" lon="-2.30315">
        <ele>-16.200000762939</ele>
        <time>2020-08-30T07:34:16.000Z</time>
      </trkpt>
      <trkpt lat="47.27483" lon="-2.30311">
        <ele>-15.800000190735</ele>
        <time>2020-08-30T07:34:17.000Z</time>
      </trkpt>
      <trkpt lat="47.27482" lon="-2.30307">
        <ele>-15.39999961853</ele>
        <time>2020-08-30T07:34:18.000Z</time>
      </trkpt>
      <trkpt lat="47.27476" lon="-2.30286">
        <ele>-15.39999961853</ele>
        <time>2020-08-30T07:34:23.000Z</time>
      </trkpt>
      <trkpt lat="47.2747" lon="-2.30254">
        <ele>-15</ele>
        <time>2020-08-30T07:34:30.000Z</time>
      </trkpt>
      <trkpt lat="47.27469" lon="-2.3025">
        <ele>-14.60000038147</ele>
        <time>2020-08-30T07:34:31.000Z</time>
      </trkpt>
      <trkpt lat="47.27468" lon="-2.30247">
        <ele>-14.199999809265</ele>
        <time>2020-08-30T07:34:32.000Z</time>
      </trkpt>
      <trkpt lat="47.27467" lon="-2.30242">
        <ele>-13.800000190735</ele>
        <time>2020-08-30T07:34:33.000Z</time>
      </trkpt>
      <trkpt lat="47.27465" lon="-2.30238">
        <ele>-13.39999961853</ele>
        <time>2020-08-30T07:34:34.000Z</time>
      </trkpt>
      <trkpt lat="47.27465" lon="-2.30234">
        <ele>-13.39999961853</ele>
        <time>2020-08-30T07:34:35.000Z</time>
      </trkpt>
      <trkpt lat="47.27461" lon="-2.30221">
        <ele>-13.39999961853</ele>
        <time>2020-08-30T07:34:40.000Z</time>
      </trkpt>
      <trkpt lat="47.27459" lon="-2.30218">
        <ele>-13.39999961853</ele>
        <time>2020-08-30T07:34:42.000Z</time>
      </trkpt>
      <trkpt lat="47.27454" lon="-2.30218">
        <ele>-13.39999961853</ele>
        <time>2020-08-30T07:34:45.000Z</time>
      </trkpt>
      <trkpt lat="47.27452" lon="-2.30219">
        <ele>-13.39999961853</ele>
        <time>2020-08-30T07:34:46.000Z</time>
      </trkpt>
      <trkpt lat="47.27434" lon="-2.30227">
        <ele>-13.39999961853</ele>
        <time>2020-08-30T07:34:53.000Z</time>
      </trkpt>
      <trkpt lat="47.27409" lon="-2.30236">
        <ele>-13.39999961853</ele>
        <time>2020-08-30T07:35:00.000Z</time>
      </trkpt>
      <trkpt lat="47.27386" lon="-2.30248">
        <ele>-13.39999961853</ele>
        <time>2020-08-30T07:35:06.000Z</time>
      </trkpt>
      <trkpt lat="47.27363" lon="-2.30254">
        <ele>-13.39999961853</ele>
        <time>2020-08-30T07:35:11.000Z</time>
      </trkpt>
      <trkpt lat="47.27358" lon="-2.30254">
        <ele>-13.39999961853</ele>
        <time>2020-08-30T07:35:12.000Z</time>
      </trkpt>
      <trkpt lat="47.27317" lon="-2.30258">
        <ele>-13.39999961853</ele>
        <time>2020-08-30T07:35:20.000Z</time>
      </trkpt>
      <trkpt lat="47.27278" lon="-2.30257">
        <ele>-13.39999961853</ele>
        <time>2020-08-30T07:35:27.000Z</time>
      </trkpt>
      <trkpt lat="47.27256" lon="-2.30262">
        <ele>-13.39999961853</ele>
        <time>2020-08-30T07:35:31.000Z</time>
      </trkpt>
      <trkpt lat="47.27251" lon="-2.30263">
        <ele>-13.39999961853</ele>
        <time>2020-08-30T07:35:32.000Z</time>
      </trkpt>
      <trkpt lat="47.27237" lon="-2.3026">
        <ele>-13.39999961853</ele>
        <time>2020-08-30T07:35:36.000Z</time>
      </trkpt>
      <trkpt lat="47.27234" lon="-2.30259">
        <ele>-13.800000190735</ele>
        <time>2020-08-30T07:35:37.000Z</time>
      </trkpt>
      <trkpt lat="47.27231" lon="-2.30259">
        <ele>-14.199999809265</ele>
        <time>2020-08-30T07:35:38.000Z</time>
      </trkpt>
      <trkpt lat="47.27228" lon="-2.30259">
        <ele>-14.60000038147</ele>
        <time>2020-08-30T07:35:39.000Z</time>
      </trkpt>
      <trkpt lat="47.27226" lon="-2.30258">
        <ele>-15</ele>
        <time>2020-08-30T07:35:40.000Z</time>
      </trkpt>
      <trkpt lat="47.27223" lon="-2.30257">
        <ele>-15.39999961853</ele>
        <time>2020-08-30T07:35:41.000Z</time>
      </trkpt>
      <trkpt lat="47.27205" lon="-2.30258">
        <ele>-15.39999961853</ele>
        <time>2020-08-30T07:35:46.000Z</time>
      </trkpt>
      <trkpt lat="47.27193" lon="-2.30262">
        <ele>-15.39999961853</ele>
        <time>2020-08-30T07:35:50.000Z</time>
      </trkpt>
      <trkpt lat="47.27187" lon="-2.30259">
        <ele>-15.39999961853</ele>
        <time>2020-08-30T07:35:52.000Z</time>
      </trkpt>
      <trkpt lat="47.27182" lon="-2.30253">
        <ele>-15.39999961853</ele>
        <time>2020-08-30T07:35:54.000Z</time>
      </trkpt>
      <trkpt lat="47.27176" lon="-2.30248">
        <ele>-15.39999961853</ele>
        <time>2020-08-30T07:35:57.000Z</time>
      </trkpt>
      <trkpt lat="47.27174" lon="-2.30245">
        <ele>-15.39999961853</ele>
        <time>2020-08-30T07:35:58.000Z</time>
      </trkpt>
      <trkpt lat="47.27168" lon="-2.30231">
        <ele>-15.39999961853</ele>
        <time>2020-08-30T07:36:02.000Z</time>
      </trkpt>
      <trkpt lat="47.27163" lon="-2.30202">
        <ele>-15.39999961853</ele>
        <time>2020-08-30T07:36:07.000Z</time>
      </trkpt>
      <trkpt lat="47.2716" lon="-2.30175">
        <ele>-15</ele>
        <time>2020-08-30T07:36:12.000Z</time>
      </trkpt>
      <trkpt lat="47.27159" lon="-2.30171">
        <ele>-14.60000038147</ele>
        <time>2020-08-30T07:36:13.000Z</time>
      </trkpt>
      <trkpt lat="47.27159" lon="-2.30167">
        <ele>-14.199999809265</ele>
        <time>2020-08-30T07:36:14.000Z</time>
      </trkpt>
      <trkpt lat="47.27159" lon="-2.30162">
        <ele>-13.800000190735</ele>
        <time>2020-08-30T07:36:15.000Z</time>
      </trkpt>
      <trkpt lat="47.27159" lon="-2.30158">
        <ele>-13.199999809265</ele>
        <time>2020-08-30T07:36:16.000Z</time>
      </trkpt>
      <trkpt lat="47.27159" lon="-2.30146">
        <ele>-13.199999809265</ele>
        <time>2020-08-30T07:36:19.000Z</time>
      </trkpt>
      <trkpt lat="47.27158" lon="-2.30132">
        <ele>-12.800000190735</ele>
        <time>2020-08-30T07:36:22.000Z</time>
      </trkpt>
      <trkpt lat="47.27158" lon="-2.30128">
        <ele>-12</ele>
        <time>2020-08-30T07:36:23.000Z</time>
      </trkpt>
      <trkpt lat="47.27156" lon="-2.30125">
        <ele>-11.60000038147</ele>
        <time>2020-08-30T07:36:24.000Z</time>
      </trkpt>
      <trkpt lat="47.27153" lon="-2.30122">
        <ele>-11.199999809265</ele>
        <time>2020-08-30T07:36:25.000Z</time>
      </trkpt>
      <trkpt lat="47.27144" lon="-2.30117">
        <ele>-11.199999809265</ele>
        <time>2020-08-30T07:36:28.000Z</time>
      </trkpt>
      <trkpt lat="47.27141" lon="-2.30116">
        <ele>-11.199999809265</ele>
        <time>2020-08-30T07:36:29.000Z</time>
      </trkpt>
      <trkpt lat="47.2712" lon="-2.30108">
        <ele>-11.199999809265</ele>
        <time>2020-08-30T07:36:35.000Z</time>
      </trkpt>
      <trkpt lat="47.27101" lon="-2.30096">
        <ele>-11.199999809265</ele>
        <time>2020-08-30T07:36:41.000Z</time>
      </trkpt>
      <trkpt lat="47.27085" lon="-2.30081">
        <ele>-11.199999809265</ele>
        <time>2020-08-30T07:36:46.000Z</time>
      </trkpt>
      <trkpt lat="47.27078" lon="-2.30075">
        <ele>-10.800000190735</ele>
        <time>2020-08-30T07:36:48.000Z</time>
      </trkpt>
      <trkpt lat="47.27073" lon="-2.30072">
        <ele>-10.39999961853</ele>
        <time>2020-08-30T07:36:49.000Z</time>
      </trkpt>
      <trkpt lat="47.27069" lon="-2.30071">
        <ele>-10</ele>
        <time>2020-08-30T07:36:50.000Z</time>
      </trkpt>
      <trkpt lat="47.27063" lon="-2.30069">
        <ele>-9.6000003814697</ele>
        <time>2020-08-30T07:36:51.000Z</time>
      </trkpt>
      <trkpt lat="47.27058" lon="-2.30068">
        <ele>-9.1999998092651</ele>
        <time>2020-08-30T07:36:52.000Z</time>
      </trkpt>
      <trkpt lat="47.27032" lon="-2.30063">
        <ele>-9.1999998092651</ele>
        <time>2020-08-30T07:36:59.000Z</time>
      </trkpt>
      <trkpt lat="47.2702" lon="-2.30062">
        <ele>-9.1999998092651</ele>
        <time>2020-08-30T07:37:04.000Z</time>
      </trkpt>
      <trkpt lat="47.27015" lon="-2.3006">
        <ele>-9.1999998092651</ele>
        <time>2020-08-30T07:37:07.000Z</time>
      </trkpt>
      <trkpt lat="47.27014" lon="-2.30058">
        <ele>-9.1999998092651</ele>
        <time>2020-08-30T07:37:09.000Z</time>
      </trkpt>
      <trkpt lat="47.27014" lon="-2.30051">
        <ele>-9.1999998092651</ele>
        <time>2020-08-30T07:37:26.000Z</time>
      </trkpt>
      <trkpt lat="47.27016" lon="-2.30043">
        <ele>-9.1999998092651</ele>
        <time>2020-08-30T07:37:29.000Z</time>
      </trkpt>
      <trkpt lat="47.27024" lon="-2.30012">
        <ele>-9.1999998092651</ele>
        <time>2020-08-30T07:37:35.000Z</time>
      </trkpt>
      <trkpt lat="47.2703" lon="-2.29994">
        <ele>-9.1999998092651</ele>
        <time>2020-08-30T07:37:38.000Z</time>
      </trkpt>
      <trkpt lat="47.27035" lon="-2.29983">
        <ele>-9.1999998092651</ele>
        <time>2020-08-30T07:37:40.000Z</time>
      </trkpt>
      <trkpt lat="47.27051" lon="-2.29948">
        <ele>-9.1999998092651</ele>
        <time>2020-08-30T07:37:46.000Z</time>
      </trkpt>
      <trkpt lat="47.27058" lon="-2.29934">
        <ele>-9.1999998092651</ele>
        <time>2020-08-30T07:37:48.000Z</time>
      </trkpt>
      <trkpt lat="47.27077" lon="-2.29914">
        <ele>-9.1999998092651</ele>
        <time>2020-08-30T07:37:52.000Z</time>
      </trkpt>
      <trkpt lat="47.27086" lon="-2.29902">
        <ele>-9.1999998092651</ele>
        <time>2020-08-30T07:37:54.000Z</time>
      </trkpt>
      <trkpt lat="47.27093" lon="-2.29887">
        <ele>-9.1999998092651</ele>
        <time>2020-08-30T07:37:56.000Z</time>
      </trkpt>
      <trkpt lat="47.27106" lon="-2.29846">
        <ele>-9.1999998092651</ele>
        <time>2020-08-30T07:38:02.000Z</time>
      </trkpt>
      <trkpt lat="47.27112" lon="-2.29812">
        <ele>-9.1999998092651</ele>
        <time>2020-08-30T07:38:07.000Z</time>
      </trkpt>
      <trkpt lat="47.27113" lon="-2.29804">
        <ele>-9.1999998092651</ele>
        <time>2020-08-30T07:38:08.000Z</time>
      </trkpt>
      <trkpt lat="47.27112" lon="-2.29789">
        <ele>-8.8000001907349</ele>
        <time>2020-08-30T07:38:10.000Z</time>
      </trkpt>
      <trkpt lat="47.27111" lon="-2.29781">
        <ele>-8.1999998092651</ele>
        <time>2020-08-30T07:38:11.000Z</time>
      </trkpt>
      <trkpt lat="47.27111" lon="-2.29773">
        <ele>-7.8000001907349</ele>
        <time>2020-08-30T07:38:12.000Z</time>
      </trkpt>
      <trkpt lat="47.27111" lon="-2.29765">
        <ele>-7.4000000953674</ele>
        <time>2020-08-30T07:38:13.000Z</time>
      </trkpt>
      <trkpt lat="47.27112" lon="-2.29757">
        <ele>-7</ele>
        <time>2020-08-30T07:38:14.000Z</time>
      </trkpt>
      <trkpt lat="47.27112" lon="-2.29749">
        <ele>-7</ele>
        <time>2020-08-30T07:38:15.000Z</time>
      </trkpt>
      <trkpt lat="47.27117" lon="-2.29691">
        <ele>-7</ele>
        <time>2020-08-30T07:38:23.000Z</time>
      </trkpt>
      <trkpt lat="47.27116" lon="-2.29685">
        <ele>-7</ele>
        <time>2020-08-30T07:38:24.000Z</time>
      </trkpt>
      <trkpt lat="47.27117" lon="-2.29665">
        <ele>-7</ele>
        <time>2020-08-30T07:38:28.000Z</time>
      </trkpt>
      <trkpt lat="47.27129" lon="-2.29646">
        <ele>-7</ele>
        <time>2020-08-30T07:38:33.000Z</time>
      </trkpt>
      <trkpt lat="47.27146" lon="-2.29641">
        <ele>-7</ele>
        <time>2020-08-30T07:38:37.000Z</time>
      </trkpt>
      <trkpt lat="47.27164" lon="-2.29633">
        <ele>-7</ele>
        <time>2020-08-30T07:38:42.000Z</time>
      </trkpt>
      <trkpt lat="47.27194" lon="-2.2961">
        <ele>-7</ele>
        <time>2020-08-30T07:38:49.000Z</time>
      </trkpt>
      <trkpt lat="47.27211" lon="-2.29596">
        <ele>-7</ele>
        <time>2020-08-30T07:38:53.000Z</time>
      </trkpt>
      <trkpt lat="47.27219" lon="-2.29588">
        <ele>-7</ele>
        <time>2020-08-30T07:38:55.000Z</time>
      </trkpt>
      <trkpt lat="47.27232" lon="-2.29579">
        <ele>-7</ele>
        <time>2020-08-30T07:38:58.000Z</time>
      </trkpt>
      <trkpt lat="47.27236" lon="-2.29575">
        <ele>-7</ele>
        <time>2020-08-30T07:38:59.000Z</time>
      </trkpt>
      <trkpt lat="47.2724" lon="-2.29558">
        <ele>-7</ele>
        <time>2020-08-30T07:39:02.000Z</time>
      </trkpt>
      <trkpt lat="47.27238" lon="-2.29521">
        <ele>-7</ele>
        <time>2020-08-30T07:39:06.000Z</time>
      </trkpt>
      <trkpt lat="47.27235" lon="-2.29513">
        <ele>-7</ele>
        <time>2020-08-30T07:39:07.000Z</time>
      </trkpt>
      <trkpt lat="47.27216" lon="-2.29452">
        <ele>-7</ele>
        <time>2020-08-30T07:39:14.000Z</time>
      </trkpt>
      <trkpt lat="47.27199" lon="-2.294">
        <ele>-7</ele>
        <time>2020-08-30T07:39:20.000Z</time>
      </trkpt>
      <trkpt lat="47.27186" lon="-2.29369">
        <ele>-7</ele>
        <time>2020-08-30T07:39:24.000Z</time>
      </trkpt>
      <trkpt lat="47.27183" lon="-2.29362">
        <ele>-7</ele>
        <time>2020-08-30T07:39:25.000Z</time>
      </trkpt>
      <trkpt lat="47.27175" lon="-2.2935">
        <ele>-7.4000000953674</ele>
        <time>2020-08-30T07:39:27.000Z</time>
      </trkpt>
      <trkpt lat="47.27171" lon="-2.29344">
        <ele>-7.8000001907349</ele>
        <time>2020-08-30T07:39:28.000Z</time>
      </trkpt>
      <trkpt lat="47.27167" lon="-2.29339">
        <ele>-8.1999998092651</ele>
        <time>2020-08-30T07:39:29.000Z</time>
      </trkpt>
      <trkpt lat="47.27163" lon="-2.29333">
        <ele>-8.8000001907349</ele>
        <time>2020-08-30T07:39:30.000Z</time>
      </trkpt>
      <trkpt lat="47.2716" lon="-2.29327">
        <ele>-9.1999998092651</ele>
        <time>2020-08-30T07:39:31.000Z</time>
      </trkpt>
      <trkpt lat="47.27154" lon="-2.29315">
        <ele>-9.1999998092651</ele>
        <time>2020-08-30T07:39:33.000Z</time>
      </trkpt>
      <trkpt lat="47.27153" lon="-2.29303">
        <ele>-9.1999998092651</ele>
        <time>2020-08-30T07:39:35.000Z</time>
      </trkpt>
      <trkpt lat="47.2716" lon="-2.29275">
        <ele>-9.1999998092651</ele>
        <time>2020-08-30T07:39:39.000Z</time>
      </trkpt>
      <trkpt lat="47.27163" lon="-2.29267">
        <ele>-9.1999998092651</ele>
        <time>2020-08-30T07:39:40.000Z</time>
      </trkpt>
      <trkpt lat="47.27169" lon="-2.29249">
        <ele>-9.1999998092651</ele>
        <time>2020-08-30T07:39:42.000Z</time>
      </trkpt>
      <trkpt lat="47.27169" lon="-2.2924">
        <ele>-9.1999998092651</ele>
        <time>2020-08-30T07:39:43.000Z</time>
      </trkpt>
      <trkpt lat="47.27163" lon="-2.29218">
        <ele>-9.1999998092651</ele>
        <time>2020-08-30T07:39:46.000Z</time>
      </trkpt>
      <trkpt lat="47.27149" lon="-2.29197">
        <ele>-9.1999998092651</ele>
        <time>2020-08-30T07:39:50.000Z</time>
      </trkpt>
      <trkpt lat="47.27146" lon="-2.29196">
        <ele>-9.6000003814697</ele>
        <time>2020-08-30T07:39:51.000Z</time>
      </trkpt>
      <trkpt lat="47.27143" lon="-2.29196">
        <ele>-10</ele>
        <time>2020-08-30T07:39:52.000Z</time>
      </trkpt>
      <trkpt lat="47.27141" lon="-2.29195">
        <ele>-10.39999961853</ele>
        <time>2020-08-30T07:39:53.000Z</time>
      </trkpt>
      <trkpt lat="47.27139" lon="-2.29194">
        <ele>-10.800000190735</ele>
        <time>2020-08-30T07:39:54.000Z</time>
      </trkpt>
      <trkpt lat="47.27137" lon="-2.29193">
        <ele>-11.199999809265</ele>
        <time>2020-08-30T07:39:55.000Z</time>
      </trkpt>
      <trkpt lat="47.27134" lon="-2.29188">
        <ele>-11.199999809265</ele>
        <time>2020-08-30T07:39:57.000Z</time>
      </trkpt>
      <trkpt lat="47.2713" lon="-2.29183">
        <ele>-11.199999809265</ele>
        <time>2020-08-30T07:39:59.000Z</time>
      </trkpt>
      <trkpt lat="47.27124" lon="-2.29178">
        <ele>-11.199999809265</ele>
        <time>2020-08-30T07:40:03.000Z</time>
      </trkpt>
      <trkpt lat="47.27123" lon="-2.29175">
        <ele>-11.199999809265</ele>
        <time>2020-08-30T07:40:05.000Z</time>
      </trkpt>
      <trkpt lat="47.27122" lon="-2.29166">
        <ele>-11.199999809265</ele>
        <time>2020-08-30T07:40:08.000Z</time>
      </trkpt>
      <trkpt lat="47.27125" lon="-2.29155">
        <ele>-11.199999809265</ele>
        <time>2020-08-30T07:40:12.000Z</time>
      </trkpt>
      <trkpt lat="47.27128" lon="-2.29146">
        <ele>-11.199999809265</ele>
        <time>2020-08-30T07:40:14.000Z</time>
      </trkpt>
      <trkpt lat="47.27135" lon="-2.29136">
        <ele>-11.199999809265</ele>
        <time>2020-08-30T07:40:17.000Z</time>
      </trkpt>
      <trkpt lat="47.27143" lon="-2.29116">
        <ele>-11.199999809265</ele>
        <time>2020-08-30T07:40:21.000Z</time>
      </trkpt>
      <trkpt lat="47.27146" lon="-2.29112">
        <ele>-11.199999809265</ele>
        <time>2020-08-30T07:40:22.000Z</time>
      </trkpt>
      <trkpt lat="47.27154" lon="-2.2911">
        <ele>-11.199999809265</ele>
        <time>2020-08-30T07:40:24.000Z</time>
      </trkpt>
      <trkpt lat="47.2717" lon="-2.29115">
        <ele>-11.199999809265</ele>
        <time>2020-08-30T07:40:28.000Z</time>
      </trkpt>
      <trkpt lat="47.27174" lon="-2.29116">
        <ele>-11.199999809265</ele>
        <time>2020-08-30T07:40:29.000Z</time>
      </trkpt>
      <trkpt lat="47.27179" lon="-2.29116">
        <ele>-11.199999809265</ele>
        <time>2020-08-30T07:40:30.000Z</time>
      </trkpt>
      <trkpt lat="47.27194" lon="-2.29108">
        <ele>-11.199999809265</ele>
        <time>2020-08-30T07:40:33.000Z</time>
      </trkpt>
      <trkpt lat="47.27198" lon="-2.29105">
        <ele>-11.199999809265</ele>
        <time>2020-08-30T07:40:34.000Z</time>
      </trkpt>
      <trkpt lat="47.27207" lon="-2.29098">
        <ele>-11.199999809265</ele>
        <time>2020-08-30T07:40:36.000Z</time>
      </trkpt>
      <trkpt lat="47.27214" lon="-2.2909">
        <ele>-11.199999809265</ele>
        <time>2020-08-30T07:40:38.000Z</time>
      </trkpt>
      <trkpt lat="47.2723" lon="-2.29074">
        <ele>-11.199999809265</ele>
        <time>2020-08-30T07:40:43.000Z</time>
      </trkpt>
      <trkpt lat="47.27241" lon="-2.29067">
        <ele>-11.199999809265</ele>
        <time>2020-08-30T07:40:48.000Z</time>
      </trkpt>
      <trkpt lat="47.27243" lon="-2.29066">
        <ele>-11.60000038147</ele>
        <time>2020-08-30T07:40:49.000Z</time>
      </trkpt>
      <trkpt lat="47.27244" lon="-2.29064">
        <ele>-12</ele>
        <time>2020-08-30T07:40:50.000Z</time>
      </trkpt>
      <trkpt lat="47.27246" lon="-2.29062">
        <ele>-12.39999961853</ele>
        <time>2020-08-30T07:40:51.000Z</time>
      </trkpt>
      <trkpt lat="47.27248" lon="-2.2906">
        <ele>-12.800000190735</ele>
        <time>2020-08-30T07:40:52.000Z</time>
      </trkpt>
      <trkpt lat="47.2725" lon="-2.29058">
        <ele>-13.199999809265</ele>
        <time>2020-08-30T07:40:53.000Z</time>
      </trkpt>
      <trkpt lat="47.27251" lon="-2.29055">
        <ele>-13.199999809265</ele>
        <time>2020-08-30T07:40:54.000Z</time>
      </trkpt>
      <trkpt lat="47.2726" lon="-2.29042">
        <ele>-13.199999809265</ele>
        <time>2020-08-30T07:40:59.000Z</time>
      </trkpt>
      <trkpt lat="47.2727" lon="-2.29018">
        <ele>-13.199999809265</ele>
        <time>2020-08-30T07:41:05.000Z</time>
      </trkpt>
      <trkpt lat="47.27283" lon="-2.28995">
        <ele>-13.199999809265</ele>
        <time>2020-08-30T07:41:11.000Z</time>
      </trkpt>
      <trkpt lat="47.27297" lon="-2.28979">
        <ele>-13.199999809265</ele>
        <time>2020-08-30T07:41:15.000Z</time>
      </trkpt>
      <trkpt lat="47.27306" lon="-2.2896">
        <ele>-13.199999809265</ele>
        <time>2020-08-30T07:41:19.000Z</time>
      </trkpt>
      <trkpt lat="47.2731" lon="-2.28958">
        <ele>-13.199999809265</ele>
        <time>2020-08-30T07:41:20.000Z</time>
      </trkpt>
      <trkpt lat="47.2732" lon="-2.2896">
        <ele>-13.199999809265</ele>
        <time>2020-08-30T07:41:22.000Z</time>
      </trkpt>
      <trkpt lat="47.27334" lon="-2.28959">
        <ele>-13.199999809265</ele>
        <time>2020-08-30T07:41:26.000Z</time>
      </trkpt>
      <trkpt lat="47.27339" lon="-2.2894">
        <ele>-13.199999809265</ele>
        <time>2020-08-30T07:41:29.000Z</time>
      </trkpt>
      <trkpt lat="47.27343" lon="-2.28925">
        <ele>-13.199999809265</ele>
        <time>2020-08-30T07:41:31.000Z</time>
      </trkpt>
      <trkpt lat="47.2735" lon="-2.28878">
        <ele>-13.199999809265</ele>
        <time>2020-08-30T07:41:37.000Z</time>
      </trkpt>
      <trkpt lat="47.27358" lon="-2.28838">
        <ele>-13.199999809265</ele>
        <time>2020-08-30T07:41:42.000Z</time>
      </trkpt>
      <trkpt lat="47.2736" lon="-2.28819">
        <ele>-13.199999809265</ele>
        <time>2020-08-30T07:41:44.000Z</time>
      </trkpt>
      <trkpt lat="47.27353" lon="-2.28792">
        <ele>-13.199999809265</ele>
        <time>2020-08-30T07:41:48.000Z</time>
      </trkpt>
      <trkpt lat="47.2734" lon="-2.2878">
        <ele>-13.199999809265</ele>
        <time>2020-08-30T07:41:52.000Z</time>
      </trkpt>
      <trkpt lat="47.27326" lon="-2.28764">
        <ele>-13.199999809265</ele>
        <time>2020-08-30T07:41:57.000Z</time>
      </trkpt>
      <trkpt lat="47.27326" lon="-2.28758">
        <ele>-13.199999809265</ele>
        <time>2020-08-30T07:41:58.000Z</time>
      </trkpt>
      <trkpt lat="47.27331" lon="-2.28734">
        <ele>-13.199999809265</ele>
        <time>2020-08-30T07:42:02.000Z</time>
      </trkpt>
      <trkpt lat="47.2734" lon="-2.28692">
        <ele>-13.199999809265</ele>
        <time>2020-08-30T07:42:09.000Z</time>
      </trkpt>
      <trkpt lat="47.27349" lon="-2.28659">
        <ele>-13.199999809265</ele>
        <time>2020-08-30T07:42:15.000Z</time>
      </trkpt>
      <trkpt lat="47.27358" lon="-2.28628">
        <ele>-13.199999809265</ele>
        <time>2020-08-30T07:42:21.000Z</time>
      </trkpt>
      <trkpt lat="47.27356" lon="-2.28619">
        <ele>-13.199999809265</ele>
        <time>2020-08-30T07:42:23.000Z</time>
      </trkpt>
      <trkpt lat="47.27353" lon="-2.28616">
        <ele>-13.199999809265</ele>
        <time>2020-08-30T07:42:24.000Z</time>
      </trkpt>
      <trkpt lat="47.27343" lon="-2.2861">
        <ele>-13.199999809265</ele>
        <time>2020-08-30T07:42:27.000Z</time>
      </trkpt>
      <trkpt lat="47.27336" lon="-2.28608">
        <ele>-13.199999809265</ele>
        <time>2020-08-30T07:42:29.000Z</time>
      </trkpt>
      <trkpt lat="47.27307" lon="-2.28597">
        <ele>-13.199999809265</ele>
        <time>2020-08-30T07:42:36.000Z</time>
      </trkpt>
      <trkpt lat="47.27282" lon="-2.28589">
        <ele>-13.199999809265</ele>
        <time>2020-08-30T07:42:43.000Z</time>
      </trkpt>
      <trkpt lat="47.27261" lon="-2.28581">
        <ele>-13.199999809265</ele>
        <time>2020-08-30T07:42:48.000Z</time>
      </trkpt>
      <trkpt lat="47.27238" lon="-2.28584">
        <ele>-13.199999809265</ele>
        <time>2020-08-30T07:42:54.000Z</time>
      </trkpt>
      <trkpt lat="47.27226" lon="-2.28584">
        <ele>-12.800000190735</ele>
        <time>2020-08-30T07:42:57.000Z</time>
      </trkpt>
      <trkpt lat="47.27222" lon="-2.28584">
        <ele>-12.199999809265</ele>
        <time>2020-08-30T07:42:58.000Z</time>
      </trkpt>
      <trkpt lat="47.27219" lon="-2.28585">
        <ele>-11.800000190735</ele>
        <time>2020-08-30T07:42:59.000Z</time>
      </trkpt>
      <trkpt lat="47.27214" lon="-2.28585">
        <ele>-11.39999961853</ele>
        <time>2020-08-30T07:43:00.000Z</time>
      </trkpt>
      <trkpt lat="47.2721" lon="-2.28586">
        <ele>-11</ele>
        <time>2020-08-30T07:43:01.000Z</time>
      </trkpt>
      <trkpt lat="47.27187" lon="-2.28587">
        <ele>-11</ele>
        <time>2020-08-30T07:43:07.000Z</time>
      </trkpt>
      <trkpt lat="47.27179" lon="-2.28576">
        <ele>-11</ele>
        <time>2020-08-30T07:43:10.000Z</time>
      </trkpt>
      <trkpt lat="47.2717" lon="-2.28541">
        <ele>-11</ele>
        <time>2020-08-30T07:43:17.000Z</time>
      </trkpt>
      <trkpt lat="47.27167" lon="-2.28529">
        <ele>-10.60000038147</ele>
        <time>2020-08-30T07:43:19.000Z</time>
      </trkpt>
      <trkpt lat="47.27166" lon="-2.28524">
        <ele>-10.199999809265</ele>
        <time>2020-08-30T07:43:20.000Z</time>
      </trkpt>
      <trkpt lat="47.27164" lon="-2.28518">
        <ele>-9.3999996185303</ele>
        <time>2020-08-30T07:43:21.000Z</time>
      </trkpt>
      <trkpt lat="47.27163" lon="-2.28512">
        <ele>-9</ele>
        <time>2020-08-30T07:43:22.000Z</time>
      </trkpt>
      <trkpt lat="47.27162" lon="-2.28507">
        <ele>-9</ele>
        <time>2020-08-30T07:43:23.000Z</time>
      </trkpt>
      <trkpt lat="47.27155" lon="-2.28464">
        <ele>-9</ele>
        <time>2020-08-30T07:43:31.000Z</time>
      </trkpt>
      <trkpt lat="47.27151" lon="-2.28421">
        <ele>-9</ele>
        <time>2020-08-30T07:43:38.000Z</time>
      </trkpt>
      <trkpt lat="47.27149" lon="-2.28383">
        <ele>-9</ele>
        <time>2020-08-30T07:43:44.000Z</time>
      </trkpt>
      <trkpt lat="47.27147" lon="-2.28356">
        <ele>-8.6000003814697</ele>
        <time>2020-08-30T07:43:48.000Z</time>
      </trkpt>
      <trkpt lat="47.27146" lon="-2.28349">
        <ele>-8.1999998092651</ele>
        <time>2020-08-30T07:43:49.000Z</time>
      </trkpt>
      <trkpt lat="47.27145" lon="-2.28342">
        <ele>-7.8000001907349</ele>
        <time>2020-08-30T07:43:50.000Z</time>
      </trkpt>
      <trkpt lat="47.27144" lon="-2.28336">
        <ele>-7.1999998092651</ele>
        <time>2020-08-30T07:43:51.000Z</time>
      </trkpt>
      <trkpt lat="47.27143" lon="-2.28329">
        <ele>-6.8000001907349</ele>
        <time>2020-08-30T07:43:52.000Z</time>
      </trkpt>
      <trkpt lat="47.27131" lon="-2.2829">
        <ele>-6.8000001907349</ele>
        <time>2020-08-30T07:43:58.000Z</time>
      </trkpt>
      <trkpt lat="47.27118" lon="-2.28249">
        <ele>-6.8000001907349</ele>
        <time>2020-08-30T07:44:05.000Z</time>
      </trkpt>
      <trkpt lat="47.27117" lon="-2.28243">
        <ele>-6.8000001907349</ele>
        <time>2020-08-30T07:44:06.000Z</time>
      </trkpt>
      <trkpt lat="47.27119" lon="-2.28224">
        <ele>-6.8000001907349</ele>
        <time>2020-08-30T07:44:09.000Z</time>
      </trkpt>
      <trkpt lat="47.27125" lon="-2.28175">
        <ele>-6.8000001907349</ele>
        <time>2020-08-30T07:44:16.000Z</time>
      </trkpt>
      <trkpt lat="47.27126" lon="-2.28168">
        <ele>-6.8000001907349</ele>
        <time>2020-08-30T07:44:17.000Z</time>
      </trkpt>
      <trkpt lat="47.27126" lon="-2.28138">
        <ele>-6.8000001907349</ele>
        <time>2020-08-30T07:44:23.000Z</time>
      </trkpt>
      <trkpt lat="47.27124" lon="-2.28112">
        <ele>-6.8000001907349</ele>
        <time>2020-08-30T07:44:28.000Z</time>
      </trkpt>
      <trkpt lat="47.27124" lon="-2.28082">
        <ele>-6.8000001907349</ele>
        <time>2020-08-30T07:44:34.000Z</time>
      </trkpt>
      <trkpt lat="47.27124" lon="-2.28076">
        <ele>-6.4000000953674</ele>
        <time>2020-08-30T07:44:35.000Z</time>
      </trkpt>
      <trkpt lat="47.27124" lon="-2.28069">
        <ele>-5.5999999046326</ele>
        <time>2020-08-30T07:44:36.000Z</time>
      </trkpt>
      <trkpt lat="47.27124" lon="-2.28063">
        <ele>-5.1999998092651</ele>
        <time>2020-08-30T07:44:37.000Z</time>
      </trkpt>
      <trkpt lat="47.27123" lon="-2.28056">
        <ele>-4.8000001907349</ele>
        <time>2020-08-30T07:44:38.000Z</time>
      </trkpt>
      <trkpt lat="47.27122" lon="-2.28043">
        <ele>-4.8000001907349</ele>
        <time>2020-08-30T07:44:40.000Z</time>
      </trkpt>
      <trkpt lat="47.27116" lon="-2.2801">
        <ele>-4.8000001907349</ele>
        <time>2020-08-30T07:44:45.000Z</time>
      </trkpt>
      <trkpt lat="47.27111" lon="-2.27997">
        <ele>-4.8000001907349</ele>
        <time>2020-08-30T07:44:47.000Z</time>
      </trkpt>
      <trkpt lat="47.271" lon="-2.27987">
        <ele>-4.8000001907349</ele>
        <time>2020-08-30T07:44:50.000Z</time>
      </trkpt>
      <trkpt lat="47.27092" lon="-2.27984">
        <ele>-4.8000001907349</ele>
        <time>2020-08-30T07:44:52.000Z</time>
      </trkpt>
      <trkpt lat="47.27088" lon="-2.27982">
        <ele>-4.8000001907349</ele>
        <time>2020-08-30T07:44:53.000Z</time>
      </trkpt>
      <trkpt lat="47.27081" lon="-2.27976">
        <ele>-4.8000001907349</ele>
        <time>2020-08-30T07:44:55.000Z</time>
      </trkpt>
      <trkpt lat="47.27075" lon="-2.27967">
        <ele>-4.4000000953674</ele>
        <time>2020-08-30T07:44:57.000Z</time>
      </trkpt>
      <trkpt lat="47.27072" lon="-2.27962">
        <ele>-3.7999999523163</ele>
        <time>2020-08-30T07:44:58.000Z</time>
      </trkpt>
      <trkpt lat="47.2707" lon="-2.27956">
        <ele>-3.4000000953674</ele>
        <time>2020-08-30T07:44:59.000Z</time>
      </trkpt>
      <trkpt lat="47.27069" lon="-2.2795">
        <ele>-3</ele>
        <time>2020-08-30T07:45:00.000Z</time>
      </trkpt>
      <trkpt lat="47.27068" lon="-2.27944">
        <ele>-2.5999999046326</ele>
        <time>2020-08-30T07:45:01.000Z</time>
      </trkpt>
      <trkpt lat="47.2707" lon="-2.27922">
        <ele>-2.5999999046326</ele>
        <time>2020-08-30T07:45:04.000Z</time>
      </trkpt>
      <trkpt lat="47.27081" lon="-2.27899">
        <ele>-2.5999999046326</ele>
        <time>2020-08-30T07:45:08.000Z</time>
      </trkpt>
      <trkpt lat="47.27085" lon="-2.27895">
        <ele>-2.5999999046326</ele>
        <time>2020-08-30T07:45:09.000Z</time>
      </trkpt>
      <trkpt lat="47.27096" lon="-2.27881">
        <ele>-2.5999999046326</ele>
        <time>2020-08-30T07:45:12.000Z</time>
      </trkpt>
      <trkpt lat="47.27101" lon="-2.27866">
        <ele>-2.5999999046326</ele>
        <time>2020-08-30T07:45:14.000Z</time>
      </trkpt>
      <trkpt lat="47.27103" lon="-2.27858">
        <ele>-3</ele>
        <time>2020-08-30T07:45:15.000Z</time>
      </trkpt>
      <trkpt lat="47.27104" lon="-2.2785">
        <ele>-3.4000000953674</ele>
        <time>2020-08-30T07:45:16.000Z</time>
      </trkpt>
      <trkpt lat="47.27106" lon="-2.27841">
        <ele>-4</ele>
        <time>2020-08-30T07:45:17.000Z</time>
      </trkpt>
      <trkpt lat="47.27108" lon="-2.27831">
        <ele>-4.4000000953674</ele>
        <time>2020-08-30T07:45:18.000Z</time>
      </trkpt>
      <trkpt lat="47.27111" lon="-2.27822">
        <ele>-4.8000001907349</ele>
        <time>2020-08-30T07:45:19.000Z</time>
      </trkpt>
      <trkpt lat="47.27114" lon="-2.27807">
        <ele>-4.8000001907349</ele>
        <time>2020-08-30T07:45:21.000Z</time>
      </trkpt>
      <trkpt lat="47.27113" lon="-2.27799">
        <ele>-5.1999998092651</ele>
        <time>2020-08-30T07:45:22.000Z</time>
      </trkpt>
      <trkpt lat="47.27111" lon="-2.27793">
        <ele>-5.5999999046326</ele>
        <time>2020-08-30T07:45:23.000Z</time>
      </trkpt>
      <trkpt lat="47.27109" lon="-2.27787">
        <ele>-6</ele>
        <time>2020-08-30T07:45:24.000Z</time>
      </trkpt>
      <trkpt lat="47.27106" lon="-2.27781">
        <ele>-6.4000000953674</ele>
        <time>2020-08-30T07:45:25.000Z</time>
      </trkpt>
      <trkpt lat="47.27104" lon="-2.27774">
        <ele>-7</ele>
        <time>2020-08-30T07:45:26.000Z</time>
      </trkpt>
      <trkpt lat="47.27098" lon="-2.27761">
        <ele>-7</ele>
        <time>2020-08-30T07:45:28.000Z</time>
      </trkpt>
      <trkpt lat="47.27078" lon="-2.27745">
        <ele>-7</ele>
        <time>2020-08-30T07:45:32.000Z</time>
      </trkpt>
      <trkpt lat="47.27066" lon="-2.2774">
        <ele>-7</ele>
        <time>2020-08-30T07:45:34.000Z</time>
      </trkpt>
      <trkpt lat="47.27059" lon="-2.27738">
        <ele>-7.4000000953674</ele>
        <time>2020-08-30T07:45:35.000Z</time>
      </trkpt>
      <trkpt lat="47.27053" lon="-2.27735">
        <ele>-7.8000001907349</ele>
        <time>2020-08-30T07:45:36.000Z</time>
      </trkpt>
      <trkpt lat="47.27048" lon="-2.27733">
        <ele>-8.1999998092651</ele>
        <time>2020-08-30T07:45:37.000Z</time>
      </trkpt>
      <trkpt lat="47.27042" lon="-2.27731">
        <ele>-8.6000003814697</ele>
        <time>2020-08-30T07:45:38.000Z</time>
      </trkpt>
      <trkpt lat="47.27036" lon="-2.27728">
        <ele>-9</ele>
        <time>2020-08-30T07:45:39.000Z</time>
      </trkpt>
      <trkpt lat="47.27026" lon="-2.27721">
        <ele>-9</ele>
        <time>2020-08-30T07:45:41.000Z</time>
      </trkpt>
      <trkpt lat="47.27023" lon="-2.27715">
        <ele>-9</ele>
        <time>2020-08-30T07:45:42.000Z</time>
      </trkpt>
      <trkpt lat="47.27027" lon="-2.27695">
        <ele>-9</ele>
        <time>2020-08-30T07:45:45.000Z</time>
      </trkpt>
      <trkpt lat="47.27043" lon="-2.27673">
        <ele>-9</ele>
        <time>2020-08-30T07:45:49.000Z</time>
      </trkpt>
      <trkpt lat="47.27048" lon="-2.27668">
        <ele>-9</ele>
        <time>2020-08-30T07:45:50.000Z</time>
      </trkpt>
      <trkpt lat="47.27057" lon="-2.27658">
        <ele>-9</ele>
        <time>2020-08-30T07:45:52.000Z</time>
      </trkpt>
      <trkpt lat="47.27078" lon="-2.27642">
        <ele>-9</ele>
        <time>2020-08-30T07:45:56.000Z</time>
      </trkpt>
      <trkpt lat="47.27104" lon="-2.27625">
        <ele>-9</ele>
        <time>2020-08-30T07:46:01.000Z</time>
      </trkpt>
      <trkpt lat="47.27115" lon="-2.27619">
        <ele>-9</ele>
        <time>2020-08-30T07:46:03.000Z</time>
      </trkpt>
      <trkpt lat="47.2712" lon="-2.27616">
        <ele>-9.3999996185303</ele>
        <time>2020-08-30T07:46:04.000Z</time>
      </trkpt>
      <trkpt lat="47.27125" lon="-2.27613">
        <ele>-9.8000001907349</ele>
        <time>2020-08-30T07:46:05.000Z</time>
      </trkpt>
      <trkpt lat="47.2713" lon="-2.27609">
        <ele>-10.199999809265</ele>
        <time>2020-08-30T07:46:06.000Z</time>
      </trkpt>
      <trkpt lat="47.27134" lon="-2.27605">
        <ele>-10.60000038147</ele>
        <time>2020-08-30T07:46:07.000Z</time>
      </trkpt>
      <trkpt lat="47.27138" lon="-2.27598">
        <ele>-11.199999809265</ele>
        <time>2020-08-30T07:46:08.000Z</time>
      </trkpt>
      <trkpt lat="47.27146" lon="-2.27568">
        <ele>-11.199999809265</ele>
        <time>2020-08-30T07:46:12.000Z</time>
      </trkpt>
      <trkpt lat="47.27147" lon="-2.27542">
        <ele>-11.199999809265</ele>
        <time>2020-08-30T07:46:15.000Z</time>
      </trkpt>
      <trkpt lat="47.27148" lon="-2.27525">
        <ele>-11.199999809265</ele>
        <time>2020-08-30T07:46:17.000Z</time>
      </trkpt>
      <trkpt lat="47.27144" lon="-2.27457">
        <ele>-11.199999809265</ele>
        <time>2020-08-30T07:46:25.000Z</time>
      </trkpt>
      <trkpt lat="47.27142" lon="-2.2744">
        <ele>-11.199999809265</ele>
        <time>2020-08-30T07:46:27.000Z</time>
      </trkpt>
      <trkpt lat="47.27138" lon="-2.27416">
        <ele>-11.199999809265</ele>
        <time>2020-08-30T07:46:30.000Z</time>
      </trkpt>
      <trkpt lat="47.27137" lon="-2.27408">
        <ele>-11.199999809265</ele>
        <time>2020-08-30T07:46:31.000Z</time>
      </trkpt>
      <trkpt lat="47.27129" lon="-2.27359">
        <ele>-11.199999809265</ele>
        <time>2020-08-30T07:46:37.000Z</time>
      </trkpt>
      <trkpt lat="47.27122" lon="-2.27305">
        <ele>-11.199999809265</ele>
        <time>2020-08-30T07:46:43.000Z</time>
      </trkpt>
      <trkpt lat="47.27119" lon="-2.27287">
        <ele>-11.199999809265</ele>
        <time>2020-08-30T07:46:45.000Z</time>
      </trkpt>
      <trkpt lat="47.27113" lon="-2.2727">
        <ele>-11.60000038147</ele>
        <time>2020-08-30T07:46:47.000Z</time>
      </trkpt>
      <trkpt lat="47.27109" lon="-2.27261">
        <ele>-12</ele>
        <time>2020-08-30T07:46:48.000Z</time>
      </trkpt>
      <trkpt lat="47.27105" lon="-2.27252">
        <ele>-12.39999961853</ele>
        <time>2020-08-30T07:46:49.000Z</time>
      </trkpt>
      <trkpt lat="47.27101" lon="-2.27244">
        <ele>-12.800000190735</ele>
        <time>2020-08-30T07:46:50.000Z</time>
      </trkpt>
      <trkpt lat="47.27097" lon="-2.27237">
        <ele>-13.199999809265</ele>
        <time>2020-08-30T07:46:51.000Z</time>
      </trkpt>
      <trkpt lat="47.27088" lon="-2.27222">
        <ele>-13.60000038147</ele>
        <time>2020-08-30T07:46:53.000Z</time>
      </trkpt>
      <trkpt lat="47.27084" lon="-2.27215">
        <ele>-14</ele>
        <time>2020-08-30T07:46:54.000Z</time>
      </trkpt>
      <trkpt lat="47.2708" lon="-2.27209">
        <ele>-14.60000038147</ele>
        <time>2020-08-30T07:46:55.000Z</time>
      </trkpt>
      <trkpt lat="47.27075" lon="-2.27203">
        <ele>-15</ele>
        <time>2020-08-30T07:46:56.000Z</time>
      </trkpt>
      <trkpt lat="47.2707" lon="-2.27196">
        <ele>-15.39999961853</ele>
        <time>2020-08-30T07:46:57.000Z</time>
      </trkpt>
      <trkpt lat="47.27066" lon="-2.27189">
        <ele>-15.39999961853</ele>
        <time>2020-08-30T07:46:58.000Z</time>
      </trkpt>
      <trkpt lat="47.27062" lon="-2.27184">
        <ele>-15.800000190735</ele>
        <time>2020-08-30T07:46:59.000Z</time>
      </trkpt>
      <trkpt lat="47.27058" lon="-2.27178">
        <ele>-16.39999961853</ele>
        <time>2020-08-30T07:47:00.000Z</time>
      </trkpt>
      <trkpt lat="47.27055" lon="-2.27173">
        <ele>-16.799999237061</ele>
        <time>2020-08-30T07:47:01.000Z</time>
      </trkpt>
      <trkpt lat="47.27053" lon="-2.27168">
        <ele>-17.39999961853</ele>
        <time>2020-08-30T07:47:02.000Z</time>
      </trkpt>
      <trkpt lat="47.27051" lon="-2.27164">
        <ele>-17.799999237061</ele>
        <time>2020-08-30T07:47:03.000Z</time>
      </trkpt>
      <trkpt lat="47.27049" lon="-2.27161">
        <ele>-18.200000762939</ele>
        <time>2020-08-30T07:47:04.000Z</time>
      </trkpt>
      <trkpt lat="47.27047" lon="-2.27157">
        <ele>-19.200000762939</ele>
        <time>2020-08-30T07:47:05.000Z</time>
      </trkpt>
      <trkpt lat="47.27046" lon="-2.27154">
        <ele>-19.60000038147</ele>
        <time>2020-08-30T07:47:06.000Z</time>
      </trkpt>
      <trkpt lat="47.27044" lon="-2.27151">
        <ele>-20.200000762939</ele>
        <time>2020-08-30T07:47:07.000Z</time>
      </trkpt>
      <trkpt lat="47.27042" lon="-2.27149">
        <ele>-20.200000762939</ele>
        <time>2020-08-30T07:47:08.000Z</time>
      </trkpt>
      <trkpt lat="47.27038" lon="-2.27147">
        <ele>-20.200000762939</ele>
        <time>2020-08-30T07:47:11.000Z</time>
      </trkpt>
      <trkpt lat="47.27037" lon="-2.27148">
        <ele>-20.200000762939</ele>
        <time>2020-08-30T07:47:12.000Z</time>
      </trkpt>
      <trkpt lat="47.27036" lon="-2.2715">
        <ele>-20.200000762939</ele>
        <time>2020-08-30T07:47:13.000Z</time>
      </trkpt>
      <trkpt lat="47.2703" lon="-2.27151">
        <ele>-20.200000762939</ele>
        <time>2020-08-30T07:47:16.000Z</time>
      </trkpt>
      <trkpt lat="47.27028" lon="-2.27155">
        <ele>-20.200000762939</ele>
        <time>2020-08-30T07:47:20.000Z</time>
      </trkpt>
      <trkpt lat="47.27023" lon="-2.27163">
        <ele>-20.200000762939</ele>
        <time>2020-08-30T07:47:25.000Z</time>
      </trkpt>
      <trkpt lat="47.27018" lon="-2.27167">
        <ele>-19.39999961853</ele>
        <time>2020-08-30T07:47:31.000Z</time>
      </trkpt>
      <trkpt lat="47.27017" lon="-2.27167">
        <ele>-18.799999237061</ele>
        <time>2020-08-30T07:47:32.000Z</time>
      </trkpt>
      <trkpt lat="47.27017" lon="-2.27166">
        <ele>-18.200000762939</ele>
        <time>2020-08-30T07:47:33.000Z</time>
      </trkpt>
      <trkpt lat="47.27011" lon="-2.27166">
        <ele>-17</ele>
        <time>2020-08-30T07:47:39.000Z</time>
      </trkpt>
      <trkpt lat="47.27009" lon="-2.27167">
        <ele>-17</ele>
        <time>2020-08-30T07:47:40.000Z</time>
      </trkpt>
      <trkpt lat="47.27007" lon="-2.27168">
        <ele>-17</ele>
        <time>2020-08-30T07:47:41.000Z</time>
      </trkpt>
      <trkpt lat="47.27002" lon="-2.27172">
        <ele>-17</ele>
        <time>2020-08-30T07:47:44.000Z</time>
      </trkpt>
      <trkpt lat="47.27001" lon="-2.27174">
        <ele>-17</ele>
        <time>2020-08-30T07:47:45.000Z</time>
      </trkpt>
      <trkpt lat="47.26998" lon="-2.27174">
        <ele>-17</ele>
        <time>2020-08-30T07:47:46.000Z</time>
      </trkpt>
      <trkpt lat="47.2699" lon="-2.27174">
        <ele>-17</ele>
        <time>2020-08-30T07:47:50.000Z</time>
      </trkpt>
      <trkpt lat="47.26988" lon="-2.27174">
        <ele>-17</ele>
        <time>2020-08-30T07:47:51.000Z</time>
      </trkpt>
      <trkpt lat="47.26987" lon="-2.27177">
        <ele>-17</ele>
        <time>2020-08-30T07:47:52.000Z</time>
      </trkpt>
      <trkpt lat="47.26986" lon="-2.27184">
        <ele>-17</ele>
        <time>2020-08-30T07:47:55.000Z</time>
      </trkpt>
      <trkpt lat="47.26986" lon="-2.27186">
        <ele>-17</ele>
        <time>2020-08-30T07:47:57.000Z</time>
      </trkpt>
      <trkpt lat="47.26983" lon="-2.27191">
        <ele>-17</ele>
        <time>2020-08-30T07:48:00.000Z</time>
      </trkpt>
      <trkpt lat="47.26977" lon="-2.27196">
        <ele>-17</ele>
        <time>2020-08-30T07:48:02.000Z</time>
      </trkpt>
      <trkpt lat="47.26975" lon="-2.27207">
        <ele>-17</ele>
        <time>2020-08-30T07:48:05.000Z</time>
      </trkpt>
      <trkpt lat="47.26975" lon="-2.27211">
        <ele>-17</ele>
        <time>2020-08-30T07:48:06.000Z</time>
      </trkpt>
      <trkpt lat="47.26975" lon="-2.2723">
        <ele>-17</ele>
        <time>2020-08-30T07:48:11.000Z</time>
      </trkpt>
      <trkpt lat="47.26973" lon="-2.27234">
        <ele>-17</ele>
        <time>2020-08-30T07:48:12.000Z</time>
      </trkpt>
      <trkpt lat="47.26964" lon="-2.27254">
        <ele>-17</ele>
        <time>2020-08-30T07:48:18.000Z</time>
      </trkpt>
      <trkpt lat="47.26963" lon="-2.27256">
        <ele>-17.799999237061</ele>
        <time>2020-08-30T07:48:19.000Z</time>
      </trkpt>
      <trkpt lat="47.26961" lon="-2.27256">
        <ele>-18.200000762939</ele>
        <time>2020-08-30T07:48:20.000Z</time>
      </trkpt>
      <trkpt lat="47.26958" lon="-2.27256">
        <ele>-18.60000038147</ele>
        <time>2020-08-30T07:48:21.000Z</time>
      </trkpt>
      <trkpt lat="47.26956" lon="-2.27256">
        <ele>-19</ele>
        <time>2020-08-30T07:48:22.000Z</time>
      </trkpt>
      <trkpt lat="47.26942" lon="-2.27261">
        <ele>-19</ele>
        <time>2020-08-30T07:48:28.000Z</time>
      </trkpt>
      <trkpt lat="47.26939" lon="-2.27266">
        <ele>-19</ele>
        <time>2020-08-30T07:48:30.000Z</time>
      </trkpt>
      <trkpt lat="47.26938" lon="-2.27268">
        <ele>-18.60000038147</ele>
        <time>2020-08-30T07:48:31.000Z</time>
      </trkpt>
      <trkpt lat="47.26936" lon="-2.2727">
        <ele>-18.200000762939</ele>
        <time>2020-08-30T07:48:32.000Z</time>
      </trkpt>
      <trkpt lat="47.26935" lon="-2.27273">
        <ele>-17.799999237061</ele>
        <time>2020-08-30T07:48:33.000Z</time>
      </trkpt>
      <trkpt lat="47.26934" lon="-2.27276">
        <ele>-17.39999961853</ele>
        <time>2020-08-30T07:48:34.000Z</time>
      </trkpt>
      <trkpt lat="47.26934" lon="-2.27278">
        <ele>-17</ele>
        <time>2020-08-30T07:48:35.000Z</time>
      </trkpt>
      <trkpt lat="47.26934" lon="-2.27283">
        <ele>-17</ele>
        <time>2020-08-30T07:48:37.000Z</time>
      </trkpt>
      <trkpt lat="47.26934" lon="-2.27291">
        <ele>-17</ele>
        <time>2020-08-30T07:48:40.000Z</time>
      </trkpt>
      <trkpt lat="47.26934" lon="-2.27303">
        <ele>-17</ele>
        <time>2020-08-30T07:48:44.000Z</time>
      </trkpt>
      <trkpt lat="47.26933" lon="-2.27312">
        <ele>-17</ele>
        <time>2020-08-30T07:48:47.000Z</time>
      </trkpt>
      <trkpt lat="47.26927" lon="-2.27333">
        <ele>-17</ele>
        <time>2020-08-30T07:48:53.000Z</time>
      </trkpt>
      <trkpt lat="47.26923" lon="-2.27354">
        <ele>-17</ele>
        <time>2020-08-30T07:48:58.000Z</time>
      </trkpt>
      <trkpt lat="47.2691" lon="-2.27374">
        <ele>-17</ele>
        <time>2020-08-30T07:49:04.000Z</time>
      </trkpt>
      <trkpt lat="47.26887" lon="-2.27391">
        <ele>-17</ele>
        <time>2020-08-30T07:49:10.000Z</time>
      </trkpt>
      <trkpt lat="47.26868" lon="-2.27405">
        <ele>-17</ele>
        <time>2020-08-30T07:49:16.000Z</time>
      </trkpt>
      <trkpt lat="47.26843" lon="-2.27413">
        <ele>-16.39999961853</ele>
        <time>2020-08-30T07:49:22.000Z</time>
      </trkpt>
      <trkpt lat="47.26839" lon="-2.27414">
        <ele>-16</ele>
        <time>2020-08-30T07:49:23.000Z</time>
      </trkpt>
      <trkpt lat="47.26835" lon="-2.27416">
        <ele>-15.60000038147</ele>
        <time>2020-08-30T07:49:24.000Z</time>
      </trkpt>
      <trkpt lat="47.26831" lon="-2.27417">
        <ele>-15.199999809265</ele>
        <time>2020-08-30T07:49:25.000Z</time>
      </trkpt>
      <trkpt lat="47.26827" lon="-2.27417">
        <ele>-14.800000190735</ele>
        <time>2020-08-30T07:49:26.000Z</time>
      </trkpt>
      <trkpt lat="47.26814" lon="-2.27419">
        <ele>-14.800000190735</ele>
        <time>2020-08-30T07:49:29.000Z</time>
      </trkpt>
      <trkpt lat="47.26786" lon="-2.27422">
        <ele>-14.800000190735</ele>
        <time>2020-08-30T07:49:36.000Z</time>
      </trkpt>
      <trkpt lat="47.2676" lon="-2.27417">
        <ele>-14.800000190735</ele>
        <time>2020-08-30T07:49:43.000Z</time>
      </trkpt>
      <trkpt lat="47.26749" lon="-2.27404">
        <ele>-14.800000190735</ele>
        <time>2020-08-30T07:49:48.000Z</time>
      </trkpt>
      <trkpt lat="47.26748" lon="-2.27399">
        <ele>-14.39999961853</ele>
        <time>2020-08-30T07:49:49.000Z</time>
      </trkpt>
      <trkpt lat="47.26748" lon="-2.27394">
        <ele>-14</ele>
        <time>2020-08-30T07:49:50.000Z</time>
      </trkpt>
      <trkpt lat="47.26747" lon="-2.27389">
        <ele>-13.60000038147</ele>
        <time>2020-08-30T07:49:51.000Z</time>
      </trkpt>
      <trkpt lat="47.26746" lon="-2.27383">
        <ele>-13.199999809265</ele>
        <time>2020-08-30T07:49:52.000Z</time>
      </trkpt>
      <trkpt lat="47.26744" lon="-2.27378">
        <ele>-12.800000190735</ele>
        <time>2020-08-30T07:49:53.000Z</time>
      </trkpt>
      <trkpt lat="47.26742" lon="-2.27367">
        <ele>-12.800000190735</ele>
        <time>2020-08-30T07:49:55.000Z</time>
      </trkpt>
      <trkpt lat="47.26737" lon="-2.27333">
        <ele>-12.800000190735</ele>
        <time>2020-08-30T07:50:02.000Z</time>
      </trkpt>
      <trkpt lat="47.26733" lon="-2.27305">
        <ele>-12.800000190735</ele>
        <time>2020-08-30T07:50:08.000Z</time>
      </trkpt>
      <trkpt lat="47.26729" lon="-2.27279">
        <ele>-12.800000190735</ele>
        <time>2020-08-30T07:50:15.000Z</time>
      </trkpt>
      <trkpt lat="47.26725" lon="-2.27253">
        <ele>-12.800000190735</ele>
        <time>2020-08-30T07:50:22.000Z</time>
      </trkpt>
      <trkpt lat="47.26724" lon="-2.27238">
        <ele>-12.39999961853</ele>
        <time>2020-08-30T07:50:26.000Z</time>
      </trkpt>
      <trkpt lat="47.26725" lon="-2.27234">
        <ele>-12</ele>
        <time>2020-08-30T07:50:27.000Z</time>
      </trkpt>
      <trkpt lat="47.26725" lon="-2.2723">
        <ele>-11.60000038147</ele>
        <time>2020-08-30T07:50:28.000Z</time>
      </trkpt>
      <trkpt lat="47.26725" lon="-2.27225">
        <ele>-11.199999809265</ele>
        <time>2020-08-30T07:50:29.000Z</time>
      </trkpt>
      <trkpt lat="47.26724" lon="-2.27221">
        <ele>-10.800000190735</ele>
        <time>2020-08-30T07:50:30.000Z</time>
      </trkpt>
      <trkpt lat="47.26722" lon="-2.27211">
        <ele>-10.800000190735</ele>
        <time>2020-08-30T07:50:33.000Z</time>
      </trkpt>
      <trkpt lat="47.26721" lon="-2.27202">
        <ele>-10.800000190735</ele>
        <time>2020-08-30T07:50:36.000Z</time>
      </trkpt>
      <trkpt lat="47.26724" lon="-2.27193">
        <ele>-10.800000190735</ele>
        <time>2020-08-30T07:50:39.000Z</time>
      </trkpt>
      <trkpt lat="47.26726" lon="-2.2719">
        <ele>-10.800000190735</ele>
        <time>2020-08-30T07:50:40.000Z</time>
      </trkpt>
      <trkpt lat="47.26736" lon="-2.27178">
        <ele>-10.800000190735</ele>
        <time>2020-08-30T07:50:43.000Z</time>
      </trkpt>
      <trkpt lat="47.26762" lon="-2.27154">
        <ele>-10.800000190735</ele>
        <time>2020-08-30T07:50:48.000Z</time>
      </trkpt>
      <trkpt lat="47.26768" lon="-2.2715">
        <ele>-10.800000190735</ele>
        <time>2020-08-30T07:50:49.000Z</time>
      </trkpt>
      <trkpt lat="47.26774" lon="-2.27147">
        <ele>-11.199999809265</ele>
        <time>2020-08-30T07:50:50.000Z</time>
      </trkpt>
      <trkpt lat="47.2678" lon="-2.27144">
        <ele>-11.60000038147</ele>
        <time>2020-08-30T07:50:51.000Z</time>
      </trkpt>
      <trkpt lat="47.26787" lon="-2.27141">
        <ele>-12</ele>
        <time>2020-08-30T07:50:52.000Z</time>
      </trkpt>
      <trkpt lat="47.26794" lon="-2.27139">
        <ele>-12.39999961853</ele>
        <time>2020-08-30T07:50:53.000Z</time>
      </trkpt>
      <trkpt lat="47.26801" lon="-2.27137">
        <ele>-12.800000190735</ele>
        <time>2020-08-30T07:50:54.000Z</time>
      </trkpt>
      <trkpt lat="47.26842" lon="-2.27126">
        <ele>-12.800000190735</ele>
        <time>2020-08-30T07:51:00.000Z</time>
      </trkpt>
      <trkpt lat="47.26854" lon="-2.27119">
        <ele>-12.800000190735</ele>
        <time>2020-08-30T07:51:02.000Z</time>
      </trkpt>
      <trkpt lat="47.26871" lon="-2.27105">
        <ele>-12.800000190735</ele>
        <time>2020-08-30T07:51:05.000Z</time>
      </trkpt>
      <trkpt lat="47.26876" lon="-2.27099">
        <ele>-13.199999809265</ele>
        <time>2020-08-30T07:51:06.000Z</time>
      </trkpt>
      <trkpt lat="47.26882" lon="-2.27093">
        <ele>-13.60000038147</ele>
        <time>2020-08-30T07:51:07.000Z</time>
      </trkpt>
      <trkpt lat="47.26888" lon="-2.27086">
        <ele>-14</ele>
        <time>2020-08-30T07:51:08.000Z</time>
      </trkpt>
      <trkpt lat="47.26893" lon="-2.27078">
        <ele>-14.39999961853</ele>
        <time>2020-08-30T07:51:09.000Z</time>
      </trkpt>
      <trkpt lat="47.26899" lon="-2.2707">
        <ele>-15</ele>
        <time>2020-08-30T07:51:10.000Z</time>
      </trkpt>
      <trkpt lat="47.26917" lon="-2.27047">
        <ele>-15.39999961853</ele>
        <time>2020-08-30T07:51:13.000Z</time>
      </trkpt>
      <trkpt lat="47.26922" lon="-2.2704">
        <ele>-15.800000190735</ele>
        <time>2020-08-30T07:51:14.000Z</time>
      </trkpt>
      <trkpt lat="47.26926" lon="-2.27033">
        <ele>-16.200000762939</ele>
        <time>2020-08-30T07:51:15.000Z</time>
      </trkpt>
      <trkpt lat="47.2693" lon="-2.27028">
        <ele>-17</ele>
        <time>2020-08-30T07:51:16.000Z</time>
      </trkpt>
      <trkpt lat="47.26934" lon="-2.27022">
        <ele>-17.60000038147</ele>
        <time>2020-08-30T07:51:17.000Z</time>
      </trkpt>
      <trkpt lat="47.26937" lon="-2.27015">
        <ele>-18.39999961853</ele>
        <time>2020-08-30T07:51:18.000Z</time>
      </trkpt>
      <trkpt lat="47.26939" lon="-2.2701">
        <ele>-19</ele>
        <time>2020-08-30T07:51:19.000Z</time>
      </trkpt>
      <trkpt lat="47.26942" lon="-2.27005">
        <ele>-19.60000038147</ele>
        <time>2020-08-30T07:51:20.000Z</time>
      </trkpt>
      <trkpt lat="47.26951" lon="-2.26985">
        <ele>-19.60000038147</ele>
        <time>2020-08-30T07:51:23.000Z</time>
      </trkpt>
      <trkpt lat="47.26952" lon="-2.26976">
        <ele>-19.60000038147</ele>
        <time>2020-08-30T07:51:24.000Z</time>
      </trkpt>
      <trkpt lat="47.26957" lon="-2.26944">
        <ele>-20</ele>
        <time>2020-08-30T07:51:28.000Z</time>
      </trkpt>
      <trkpt lat="47.26958" lon="-2.26936">
        <ele>-20.39999961853</ele>
        <time>2020-08-30T07:51:29.000Z</time>
      </trkpt>
      <trkpt lat="47.26959" lon="-2.26928">
        <ele>-21</ele>
        <time>2020-08-30T07:51:30.000Z</time>
      </trkpt>
      <trkpt lat="47.26959" lon="-2.26918">
        <ele>-21.39999961853</ele>
        <time>2020-08-30T07:51:31.000Z</time>
      </trkpt>
      <trkpt lat="47.26959" lon="-2.26909">
        <ele>-21.799999237061</ele>
        <time>2020-08-30T07:51:32.000Z</time>
      </trkpt>
      <trkpt lat="47.26958" lon="-2.269">
        <ele>-21.799999237061</ele>
        <time>2020-08-30T07:51:33.000Z</time>
      </trkpt>
      <trkpt lat="47.26954" lon="-2.26874">
        <ele>-21.799999237061</ele>
        <time>2020-08-30T07:51:36.000Z</time>
      </trkpt>
      <trkpt lat="47.26954" lon="-2.26865">
        <ele>-21.799999237061</ele>
        <time>2020-08-30T07:51:37.000Z</time>
      </trkpt>
      <trkpt lat="47.26953" lon="-2.26832">
        <ele>-21.799999237061</ele>
        <time>2020-08-30T07:51:41.000Z</time>
      </trkpt>
      <trkpt lat="47.26955" lon="-2.26827">
        <ele>-21.799999237061</ele>
        <time>2020-08-30T07:51:42.000Z</time>
      </trkpt>
      <trkpt lat="47.26957" lon="-2.26822">
        <ele>-22.200000762939</ele>
        <time>2020-08-30T07:51:43.000Z</time>
      </trkpt>
      <trkpt lat="47.2696" lon="-2.26818">
        <ele>-22.60000038147</ele>
        <time>2020-08-30T07:51:44.000Z</time>
      </trkpt>
      <trkpt lat="47.26964" lon="-2.26814">
        <ele>-23</ele>
        <time>2020-08-30T07:51:45.000Z</time>
      </trkpt>
      <trkpt lat="47.26967" lon="-2.26811">
        <ele>-23.39999961853</ele>
        <time>2020-08-30T07:51:46.000Z</time>
      </trkpt>
      <trkpt lat="47.26971" lon="-2.26809">
        <ele>-23.799999237061</ele>
        <time>2020-08-30T07:51:47.000Z</time>
      </trkpt>
      <trkpt lat="47.26982" lon="-2.26799">
        <ele>-23.799999237061</ele>
        <time>2020-08-30T07:51:51.000Z</time>
      </trkpt>
      <trkpt lat="47.26997" lon="-2.26789">
        <ele>-23.799999237061</ele>
        <time>2020-08-30T07:51:57.000Z</time>
      </trkpt>
      <trkpt lat="47.27007" lon="-2.26777">
        <ele>-24.60000038147</ele>
        <time>2020-08-30T07:52:01.000Z</time>
      </trkpt>
      <trkpt lat="47.27009" lon="-2.26776">
        <ele>-25</ele>
        <time>2020-08-30T07:52:02.000Z</time>
      </trkpt>
      <trkpt lat="47.27011" lon="-2.26774">
        <ele>-25.60000038147</ele>
        <time>2020-08-30T07:52:03.000Z</time>
      </trkpt>
      <trkpt lat="47.27013" lon="-2.2677">
        <ele>-26</ele>
        <time>2020-08-30T07:52:04.000Z</time>
      </trkpt>
      <trkpt lat="47.27015" lon="-2.26765">
        <ele>-26</ele>
        <time>2020-08-30T07:52:06.000Z</time>
      </trkpt>
      <trkpt lat="47.27017" lon="-2.26764">
        <ele>-26</ele>
        <time>2020-08-30T07:52:07.000Z</time>
      </trkpt>
      <trkpt lat="47.27026" lon="-2.26756">
        <ele>-26</ele>
        <time>2020-08-30T07:52:11.000Z</time>
      </trkpt>
      <trkpt lat="47.27031" lon="-2.2675">
        <ele>-26</ele>
        <time>2020-08-30T07:52:14.000Z</time>
      </trkpt>
      <trkpt lat="47.27031" lon="-2.26747">
        <ele>-26</ele>
        <time>2020-08-30T07:52:15.000Z</time>
      </trkpt>
      <trkpt lat="47.27032" lon="-2.26744">
        <ele>-26</ele>
        <time>2020-08-30T07:52:16.000Z</time>
      </trkpt>
      <trkpt lat="47.27036" lon="-2.26714">
        <ele>-26</ele>
        <time>2020-08-30T07:52:22.000Z</time>
      </trkpt>
      <trkpt lat="47.27033" lon="-2.2668">
        <ele>-26</ele>
        <time>2020-08-30T07:52:28.000Z</time>
      </trkpt>
      <trkpt lat="47.2703" lon="-2.26651">
        <ele>-26</ele>
        <time>2020-08-30T07:52:32.000Z</time>
      </trkpt>
      <trkpt lat="47.27029" lon="-2.26645">
        <ele>-26</ele>
        <time>2020-08-30T07:52:33.000Z</time>
      </trkpt>
      <trkpt lat="47.27016" lon="-2.26624">
        <ele>-26</ele>
        <time>2020-08-30T07:52:37.000Z</time>
      </trkpt>
      <trkpt lat="47.27" lon="-2.266">
        <ele>-25.60000038147</ele>
        <time>2020-08-30T07:52:42.000Z</time>
      </trkpt>
      <trkpt lat="47.26996" lon="-2.26595">
        <ele>-25.200000762939</ele>
        <time>2020-08-30T07:52:43.000Z</time>
      </trkpt>
      <trkpt lat="47.26993" lon="-2.26589">
        <ele>-24.799999237061</ele>
        <time>2020-08-30T07:52:44.000Z</time>
      </trkpt>
      <trkpt lat="47.26989" lon="-2.26584">
        <ele>-24.39999961853</ele>
        <time>2020-08-30T07:52:45.000Z</time>
      </trkpt>
      <trkpt lat="47.26985" lon="-2.26578">
        <ele>-24</ele>
        <time>2020-08-30T07:52:46.000Z</time>
      </trkpt>
      <trkpt lat="47.26982" lon="-2.26573">
        <ele>-24</ele>
        <time>2020-08-30T07:52:47.000Z</time>
      </trkpt>
      <trkpt lat="47.2697" lon="-2.26541">
        <ele>-24</ele>
        <time>2020-08-30T07:52:51.000Z</time>
      </trkpt>
      <trkpt lat="47.26965" lon="-2.26513">
        <ele>-23.39999961853</ele>
        <time>2020-08-30T07:52:56.000Z</time>
      </trkpt>
      <trkpt lat="47.26967" lon="-2.2651">
        <ele>-23</ele>
        <time>2020-08-30T07:52:57.000Z</time>
      </trkpt>
      <trkpt lat="47.26968" lon="-2.26506">
        <ele>-22.60000038147</ele>
        <time>2020-08-30T07:52:58.000Z</time>
      </trkpt>
      <trkpt lat="47.26968" lon="-2.26503">
        <ele>-22.200000762939</ele>
        <time>2020-08-30T07:52:59.000Z</time>
      </trkpt>
      <trkpt lat="47.26969" lon="-2.26499">
        <ele>-21.799999237061</ele>
        <time>2020-08-30T07:53:00.000Z</time>
      </trkpt>
      <trkpt lat="47.26981" lon="-2.26484">
        <ele>-21.799999237061</ele>
        <time>2020-08-30T07:53:05.000Z</time>
      </trkpt>
      <trkpt lat="47.26987" lon="-2.26477">
        <ele>-21.799999237061</ele>
        <time>2020-08-30T07:53:10.000Z</time>
      </trkpt>
      <trkpt lat="47.26987" lon="-2.26477">
        <ele>-21.799999237061</ele>
        <time>2020-08-30T07:53:11.000Z</time>
      </trkpt>
      <trkpt lat="47.26989" lon="-2.26475">
        <ele>-21.799999237061</ele>
        <time>2020-08-30T07:53:49.000Z</time>
      </trkpt>
      <trkpt lat="47.26992" lon="-2.26473">
        <ele>-21.799999237061</ele>
        <time>2020-08-30T07:53:51.000Z</time>
      </trkpt>
      <trkpt lat="47.27006" lon="-2.26455">
        <ele>-21.799999237061</ele>
        <time>2020-08-30T07:53:56.000Z</time>
      </trkpt>
      <trkpt lat="47.27015" lon="-2.26441">
        <ele>-21.799999237061</ele>
        <time>2020-08-30T07:53:59.000Z</time>
      </trkpt>
      <trkpt lat="47.27022" lon="-2.26428">
        <ele>-21.799999237061</ele>
        <time>2020-08-30T07:54:02.000Z</time>
      </trkpt>
      <trkpt lat="47.27025" lon="-2.26424">
        <ele>-21.799999237061</ele>
        <time>2020-08-30T07:54:03.000Z</time>
      </trkpt>
      <trkpt lat="47.27049" lon="-2.26393">
        <ele>-21.799999237061</ele>
        <time>2020-08-30T07:54:10.000Z</time>
      </trkpt>
      <trkpt lat="47.27073" lon="-2.26359">
        <ele>-21.799999237061</ele>
        <time>2020-08-30T07:54:17.000Z</time>
      </trkpt>
      <trkpt lat="47.271" lon="-2.26324">
        <ele>-21.799999237061</ele>
        <time>2020-08-30T07:54:24.000Z</time>
      </trkpt>
      <trkpt lat="47.27127" lon="-2.26285">
        <ele>-21.799999237061</ele>
        <time>2020-08-30T07:54:30.000Z</time>
      </trkpt>
      <trkpt lat="47.27161" lon="-2.26236">
        <ele>-21.799999237061</ele>
        <time>2020-08-30T07:54:37.000Z</time>
      </trkpt>
      <trkpt lat="47.272" lon="-2.26195">
        <ele>-21.799999237061</ele>
        <time>2020-08-30T07:54:43.000Z</time>
      </trkpt>
      <trkpt lat="47.2725" lon="-2.26158">
        <ele>-21.799999237061</ele>
        <time>2020-08-30T07:54:50.000Z</time>
      </trkpt>
      <trkpt lat="47.27292" lon="-2.26139">
        <ele>-21.799999237061</ele>
        <time>2020-08-30T07:54:56.000Z</time>
      </trkpt>
      <trkpt lat="47.27299" lon="-2.26136">
        <ele>-22.200000762939</ele>
        <time>2020-08-30T07:54:57.000Z</time>
      </trkpt>
      <trkpt lat="47.27306" lon="-2.26134">
        <ele>-22.60000038147</ele>
        <time>2020-08-30T07:54:58.000Z</time>
      </trkpt>
      <trkpt lat="47.27313" lon="-2.26132">
        <ele>-23.200000762939</ele>
        <time>2020-08-30T07:54:59.000Z</time>
      </trkpt>
      <trkpt lat="47.2732" lon="-2.26129">
        <ele>-23.60000038147</ele>
        <time>2020-08-30T07:55:00.000Z</time>
      </trkpt>
      <trkpt lat="47.27326" lon="-2.26127">
        <ele>-24</ele>
        <time>2020-08-30T07:55:01.000Z</time>
      </trkpt>
      <trkpt lat="47.27353" lon="-2.26121">
        <ele>-24</ele>
        <time>2020-08-30T07:55:05.000Z</time>
      </trkpt>
      <trkpt lat="47.2737" lon="-2.26136">
        <ele>-24</ele>
        <time>2020-08-30T07:55:08.000Z</time>
      </trkpt>
      <trkpt lat="47.27379" lon="-2.2615">
        <ele>-24</ele>
        <time>2020-08-30T07:55:10.000Z</time>
      </trkpt>
      <trkpt lat="47.27394" lon="-2.26171">
        <ele>-24</ele>
        <time>2020-08-30T07:55:13.000Z</time>
      </trkpt>
      <trkpt lat="47.27425" lon="-2.26223">
        <ele>-24.39999961853</ele>
        <time>2020-08-30T07:55:20.000Z</time>
      </trkpt>
      <trkpt lat="47.2743" lon="-2.2623">
        <ele>-24.799999237061</ele>
        <time>2020-08-30T07:55:21.000Z</time>
      </trkpt>
      <trkpt lat="47.27434" lon="-2.26237">
        <ele>-25.200000762939</ele>
        <time>2020-08-30T07:55:22.000Z</time>
      </trkpt>
      <trkpt lat="47.27439" lon="-2.26243">
        <ele>-25.60000038147</ele>
        <time>2020-08-30T07:55:23.000Z</time>
      </trkpt>
      <trkpt lat="47.27445" lon="-2.2625">
        <ele>-26.200000762939</ele>
        <time>2020-08-30T07:55:24.000Z</time>
      </trkpt>
      <trkpt lat="47.27457" lon="-2.26262">
        <ele>-26.200000762939</ele>
        <time>2020-08-30T07:55:26.000Z</time>
      </trkpt>
      <trkpt lat="47.27493" lon="-2.26283">
        <ele>-26.200000762939</ele>
        <time>2020-08-30T07:55:31.000Z</time>
      </trkpt>
      <trkpt lat="47.27517" lon="-2.26286">
        <ele>-26.60000038147</ele>
        <time>2020-08-30T07:55:34.000Z</time>
      </trkpt>
      <trkpt lat="47.27525" lon="-2.26286">
        <ele>-27</ele>
        <time>2020-08-30T07:55:35.000Z</time>
      </trkpt>
      <trkpt lat="47.27532" lon="-2.26286">
        <ele>-27.39999961853</ele>
        <time>2020-08-30T07:55:36.000Z</time>
      </trkpt>
      <trkpt lat="47.2754" lon="-2.26286">
        <ele>-27.799999237061</ele>
        <time>2020-08-30T07:55:37.000Z</time>
      </trkpt>
      <trkpt lat="47.27547" lon="-2.26285">
        <ele>-28.200000762939</ele>
        <time>2020-08-30T07:55:38.000Z</time>
      </trkpt>
      <trkpt lat="47.27578" lon="-2.26284">
        <ele>-28.200000762939</ele>
        <time>2020-08-30T07:55:42.000Z</time>
      </trkpt>
      <trkpt lat="47.2762" lon="-2.26296">
        <ele>-28.200000762939</ele>
        <time>2020-08-30T07:55:48.000Z</time>
      </trkpt>
      <trkpt lat="47.27626" lon="-2.263">
        <ele>-28.200000762939</ele>
        <time>2020-08-30T07:55:49.000Z</time>
      </trkpt>
      <trkpt lat="47.27632" lon="-2.26305">
        <ele>-28.60000038147</ele>
        <time>2020-08-30T07:55:50.000Z</time>
      </trkpt>
      <trkpt lat="47.27637" lon="-2.2631">
        <ele>-29</ele>
        <time>2020-08-30T07:55:51.000Z</time>
      </trkpt>
      <trkpt lat="47.27642" lon="-2.26315">
        <ele>-29.39999961853</ele>
        <time>2020-08-30T07:55:52.000Z</time>
      </trkpt>
      <trkpt lat="47.27646" lon="-2.26321">
        <ele>-29.799999237061</ele>
        <time>2020-08-30T07:55:53.000Z</time>
      </trkpt>
      <trkpt lat="47.27651" lon="-2.26326">
        <ele>-30.200000762939</ele>
        <time>2020-08-30T07:55:54.000Z</time>
      </trkpt>
      <trkpt lat="47.27662" lon="-2.26337">
        <ele>-30.200000762939</ele>
        <time>2020-08-30T07:55:57.000Z</time>
      </trkpt>
      <trkpt lat="47.27665" lon="-2.26335">
        <ele>-30.799999237061</ele>
        <time>2020-08-30T07:55:58.000Z</time>
      </trkpt>
      <trkpt lat="47.27666" lon="-2.26332">
        <ele>-31.200000762939</ele>
        <time>2020-08-30T07:55:59.000Z</time>
      </trkpt>
      <trkpt lat="47.27667" lon="-2.26329">
        <ele>-31.60000038147</ele>
        <time>2020-08-30T07:56:00.000Z</time>
      </trkpt>
      <trkpt lat="47.27667" lon="-2.26326">
        <ele>-32</ele>
        <time>2020-08-30T07:56:01.000Z</time>
      </trkpt>
      <trkpt lat="47.27667" lon="-2.26323">
        <ele>-32.400001525879</ele>
        <time>2020-08-30T07:56:02.000Z</time>
      </trkpt>
      <trkpt lat="47.27666" lon="-2.2632">
        <ele>-32.400001525879</ele>
        <time>2020-08-30T07:56:03.000Z</time>
      </trkpt>
      <trkpt lat="47.27666" lon="-2.26318">
        <ele>-32.400001525879</ele>
        <time>2020-08-30T07:56:04.000Z</time>
      </trkpt>
      <trkpt lat="47.27665" lon="-2.26317">
        <ele>-32.400001525879</ele>
        <time>2020-08-30T07:56:07.000Z</time>
      </trkpt>
      <trkpt lat="47.27663" lon="-2.2631">
        <ele>-32.400001525879</ele>
        <time>2020-08-30T07:56:56.000Z</time>
      </trkpt>
      <trkpt lat="47.27659" lon="-2.26295">
        <ele>-32.400001525879</ele>
        <time>2020-08-30T07:57:02.000Z</time>
      </trkpt>
      <trkpt lat="47.27654" lon="-2.26275">
        <ele>-32.400001525879</ele>
        <time>2020-08-30T07:57:08.000Z</time>
      </trkpt>
      <trkpt lat="47.27648" lon="-2.26258">
        <ele>-32.400001525879</ele>
        <time>2020-08-30T07:57:12.000Z</time>
      </trkpt>
      <trkpt lat="47.27633" lon="-2.26229">
        <ele>-32.400001525879</ele>
        <time>2020-08-30T07:57:19.000Z</time>
      </trkpt>
      <trkpt lat="47.27631" lon="-2.26222">
        <ele>-32.400001525879</ele>
        <time>2020-08-30T07:57:20.000Z</time>
      </trkpt>
      <trkpt lat="47.27629" lon="-2.26204">
        <ele>-32.400001525879</ele>
        <time>2020-08-30T07:57:23.000Z</time>
      </trkpt>
      <trkpt lat="47.27624" lon="-2.26189">
        <ele>-32.400001525879</ele>
        <time>2020-08-30T07:57:27.000Z</time>
      </trkpt>
      <trkpt lat="47.27625" lon="-2.26182">
        <ele>-32.400001525879</ele>
        <time>2020-08-30T07:57:29.000Z</time>
      </trkpt>
      <trkpt lat="47.27629" lon="-2.26179">
        <ele>-32.400001525879</ele>
        <time>2020-08-30T07:57:30.000Z</time>
      </trkpt>
      <trkpt lat="47.27643" lon="-2.26169">
        <ele>-32.400001525879</ele>
        <time>2020-08-30T07:57:35.000Z</time>
      </trkpt>
      <trkpt lat="47.27661" lon="-2.26152">
        <ele>-32.400001525879</ele>
        <time>2020-08-30T07:57:40.000Z</time>
      </trkpt>
      <trkpt lat="47.27665" lon="-2.26147">
        <ele>-32.400001525879</ele>
        <time>2020-08-30T07:57:41.000Z</time>
      </trkpt>
      <trkpt lat="47.27685" lon="-2.2612">
        <ele>-32.400001525879</ele>
        <time>2020-08-30T07:57:46.000Z</time>
      </trkpt>
      <trkpt lat="47.27689" lon="-2.26116">
        <ele>-32.400001525879</ele>
        <time>2020-08-30T07:57:47.000Z</time>
      </trkpt>
      <trkpt lat="47.27706" lon="-2.26106">
        <ele>-32.400001525879</ele>
        <time>2020-08-30T07:57:51.000Z</time>
      </trkpt>
      <trkpt lat="47.2772" lon="-2.26089">
        <ele>-32.400001525879</ele>
        <time>2020-08-30T07:57:55.000Z</time>
      </trkpt>
      <trkpt lat="47.27734" lon="-2.26078">
        <ele>-32.400001525879</ele>
        <time>2020-08-30T07:57:59.000Z</time>
      </trkpt>
      <trkpt lat="47.27743" lon="-2.26054">
        <ele>-32.400001525879</ele>
        <time>2020-08-30T07:58:04.000Z</time>
      </trkpt>
      <trkpt lat="47.27755" lon="-2.26029">
        <ele>-32.400001525879</ele>
        <time>2020-08-30T07:58:10.000Z</time>
      </trkpt>
      <trkpt lat="47.27766" lon="-2.26006">
        <ele>-32.400001525879</ele>
        <time>2020-08-30T07:58:15.000Z</time>
      </trkpt>
      <trkpt lat="47.2778" lon="-2.25996">
        <ele>-32.400001525879</ele>
        <time>2020-08-30T07:58:20.000Z</time>
      </trkpt>
      <trkpt lat="47.27791" lon="-2.25984">
        <ele>-32.400001525879</ele>
        <time>2020-08-30T07:58:25.000Z</time>
      </trkpt>
      <trkpt lat="47.27795" lon="-2.25976">
        <ele>-32.400001525879</ele>
        <time>2020-08-30T07:58:28.000Z</time>
      </trkpt>
      <trkpt lat="47.27795" lon="-2.25971">
        <ele>-32.400001525879</ele>
        <time>2020-08-30T07:58:29.000Z</time>
      </trkpt>
      <trkpt lat="47.2779" lon="-2.25953">
        <ele>-32.400001525879</ele>
        <time>2020-08-30T07:58:32.000Z</time>
      </trkpt>
      <trkpt lat="47.27784" lon="-2.25934">
        <ele>-32.400001525879</ele>
        <time>2020-08-30T07:58:35.000Z</time>
      </trkpt>
      <trkpt lat="47.27778" lon="-2.25922">
        <ele>-32.400001525879</ele>
        <time>2020-08-30T07:58:37.000Z</time>
      </trkpt>
      <trkpt lat="47.27767" lon="-2.25907">
        <ele>-32.400001525879</ele>
        <time>2020-08-30T07:58:40.000Z</time>
      </trkpt>
      <trkpt lat="47.27762" lon="-2.25894">
        <ele>-32.400001525879</ele>
        <time>2020-08-30T07:58:42.000Z</time>
      </trkpt>
      <trkpt lat="47.27748" lon="-2.25866">
        <ele>-32.400001525879</ele>
        <time>2020-08-30T07:58:47.000Z</time>
      </trkpt>
      <trkpt lat="47.27744" lon="-2.25863">
        <ele>-32.400001525879</ele>
        <time>2020-08-30T07:58:48.000Z</time>
      </trkpt>
      <trkpt lat="47.27732" lon="-2.25861">
        <ele>-32.400001525879</ele>
        <time>2020-08-30T07:58:51.000Z</time>
      </trkpt>
      <trkpt lat="47.27709" lon="-2.25852">
        <ele>-32.400001525879</ele>
        <time>2020-08-30T07:58:57.000Z</time>
      </trkpt>
      <trkpt lat="47.27706" lon="-2.25849">
        <ele>-32.400001525879</ele>
        <time>2020-08-30T07:58:58.000Z</time>
      </trkpt>
      <trkpt lat="47.27697" lon="-2.25838">
        <ele>-32.400001525879</ele>
        <time>2020-08-30T07:59:01.000Z</time>
      </trkpt>
      <trkpt lat="47.27698" lon="-2.25834">
        <ele>-32.400001525879</ele>
        <time>2020-08-30T07:59:02.000Z</time>
      </trkpt>
      <trkpt lat="47.277" lon="-2.25827">
        <ele>-32.400001525879</ele>
        <time>2020-08-30T07:59:04.000Z</time>
      </trkpt>
      <trkpt lat="47.27705" lon="-2.25802">
        <ele>-32.400001525879</ele>
        <time>2020-08-30T07:59:11.000Z</time>
      </trkpt>
      <trkpt lat="47.27704" lon="-2.25798">
        <ele>-32.400001525879</ele>
        <time>2020-08-30T07:59:12.000Z</time>
      </trkpt>
      <trkpt lat="47.27698" lon="-2.25793">
        <ele>-32.400001525879</ele>
        <time>2020-08-30T07:59:15.000Z</time>
      </trkpt>
      <trkpt lat="47.27688" lon="-2.25797">
        <ele>-32.400001525879</ele>
        <time>2020-08-30T07:59:19.000Z</time>
      </trkpt>
      <trkpt lat="47.27688" lon="-2.25809">
        <ele>-32.400001525879</ele>
        <time>2020-08-30T07:59:22.000Z</time>
      </trkpt>
      <trkpt lat="47.27689" lon="-2.25813">
        <ele>-32.400001525879</ele>
        <time>2020-08-30T07:59:23.000Z</time>
      </trkpt>
      <trkpt lat="47.27687" lon="-2.25832">
        <ele>-32.400001525879</ele>
        <time>2020-08-30T07:59:28.000Z</time>
      </trkpt>
      <trkpt lat="47.2768" lon="-2.2583">
        <ele>-32.400001525879</ele>
        <time>2020-08-30T07:59:32.000Z</time>
      </trkpt>
      <trkpt lat="47.27679" lon="-2.25829">
        <ele>-32.400001525879</ele>
        <time>2020-08-30T07:59:33.000Z</time>
      </trkpt>
      <trkpt lat="47.27678" lon="-2.25824">
        <ele>-32.400001525879</ele>
        <time>2020-08-30T07:59:36.000Z</time>
      </trkpt>
      <trkpt lat="47.27679" lon="-2.25822">
        <ele>-32.400001525879</ele>
        <time>2020-08-30T07:59:37.000Z</time>
      </trkpt>
      <trkpt lat="47.27677" lon="-2.25817">
        <ele>-32.400001525879</ele>
        <time>2020-08-30T07:59:40.000Z</time>
      </trkpt>
      <trkpt lat="47.27675" lon="-2.25814">
        <ele>-32.400001525879</ele>
        <time>2020-08-30T07:59:42.000Z</time>
      </trkpt>
      <trkpt lat="47.27675" lon="-2.25799">
        <ele>-32.400001525879</ele>
        <time>2020-08-30T07:59:46.000Z</time>
      </trkpt>
      <trkpt lat="47.27671" lon="-2.25786">
        <ele>-32.400001525879</ele>
        <time>2020-08-30T07:59:51.000Z</time>
      </trkpt>
      <trkpt lat="47.27663" lon="-2.2577">
        <ele>-32.400001525879</ele>
        <time>2020-08-30T07:59:58.000Z</time>
      </trkpt>
      <trkpt lat="47.27662" lon="-2.25763">
        <ele>-32.400001525879</ele>
        <time>2020-08-30T08:00:00.000Z</time>
      </trkpt>
      <trkpt lat="47.27662" lon="-2.25756">
        <ele>-32.400001525879</ele>
        <time>2020-08-30T08:00:02.000Z</time>
      </trkpt>
      <trkpt lat="47.27657" lon="-2.25744">
        <ele>-32.400001525879</ele>
        <time>2020-08-30T08:00:06.000Z</time>
      </trkpt>
      <trkpt lat="47.27656" lon="-2.25734">
        <ele>-32.400001525879</ele>
        <time>2020-08-30T08:00:09.000Z</time>
      </trkpt>
      <trkpt lat="47.27652" lon="-2.25715">
        <ele>-32.400001525879</ele>
        <time>2020-08-30T08:00:13.000Z</time>
      </trkpt>
      <trkpt lat="47.2765" lon="-2.25697">
        <ele>-32.400001525879</ele>
        <time>2020-08-30T08:00:17.000Z</time>
      </trkpt>
      <trkpt lat="47.27649" lon="-2.25695">
        <ele>-32.400001525879</ele>
        <time>2020-08-30T08:00:18.000Z</time>
      </trkpt>
      <trkpt lat="47.27649" lon="-2.25689">
        <ele>-32.400001525879</ele>
        <time>2020-08-30T08:00:21.000Z</time>
      </trkpt>
      <trkpt lat="47.27646" lon="-2.25671">
        <ele>-32.400001525879</ele>
        <time>2020-08-30T08:00:26.000Z</time>
      </trkpt>
      <trkpt lat="47.27634" lon="-2.25658">
        <ele>-32.400001525879</ele>
        <time>2020-08-30T08:00:30.000Z</time>
      </trkpt>
      <trkpt lat="47.27626" lon="-2.25655">
        <ele>-32.400001525879</ele>
        <time>2020-08-30T08:00:32.000Z</time>
      </trkpt>
      <trkpt lat="47.27621" lon="-2.2565">
        <ele>-32.400001525879</ele>
        <time>2020-08-30T08:00:33.000Z</time>
      </trkpt>
      <trkpt lat="47.27618" lon="-2.25645">
        <ele>-32.400001525879</ele>
        <time>2020-08-30T08:00:34.000Z</time>
      </trkpt>
      <trkpt lat="47.27593" lon="-2.25621">
        <ele>-32.400001525879</ele>
        <time>2020-08-30T08:00:41.000Z</time>
      </trkpt>
      <trkpt lat="47.2759" lon="-2.25624">
        <ele>-32.400001525879</ele>
        <time>2020-08-30T08:00:42.000Z</time>
      </trkpt>
      <trkpt lat="47.27586" lon="-2.25629">
        <ele>-32.400001525879</ele>
        <time>2020-08-30T08:00:44.000Z</time>
      </trkpt>
      <trkpt lat="47.27584" lon="-2.25642">
        <ele>-32.400001525879</ele>
        <time>2020-08-30T08:00:48.000Z</time>
      </trkpt>
      <trkpt lat="47.27583" lon="-2.25645">
        <ele>-32.400001525879</ele>
        <time>2020-08-30T08:00:49.000Z</time>
      </trkpt>
      <trkpt lat="47.27581" lon="-2.2565">
        <ele>-32.400001525879</ele>
        <time>2020-08-30T08:00:51.000Z</time>
      </trkpt>
      <trkpt lat="47.27576" lon="-2.25653">
        <ele>-32.400001525879</ele>
        <time>2020-08-30T08:00:53.000Z</time>
      </trkpt>
      <trkpt lat="47.27569" lon="-2.25646">
        <ele>-32.400001525879</ele>
        <time>2020-08-30T08:00:56.000Z</time>
      </trkpt>
      <trkpt lat="47.27566" lon="-2.25623">
        <ele>-32.400001525879</ele>
        <time>2020-08-30T08:01:00.000Z</time>
      </trkpt>
      <trkpt lat="47.27566" lon="-2.25616">
        <ele>-32.400001525879</ele>
        <time>2020-08-30T08:01:01.000Z</time>
      </trkpt>
      <trkpt lat="47.27564" lon="-2.25579">
        <ele>-32.400001525879</ele>
        <time>2020-08-30T08:01:06.000Z</time>
      </trkpt>
      <trkpt lat="47.27552" lon="-2.25534">
        <ele>-32.400001525879</ele>
        <time>2020-08-30T08:01:12.000Z</time>
      </trkpt>
      <trkpt lat="47.27537" lon="-2.25498">
        <ele>-32.400001525879</ele>
        <time>2020-08-30T08:01:18.000Z</time>
      </trkpt>
      <trkpt lat="47.27524" lon="-2.25478">
        <ele>-32.400001525879</ele>
        <time>2020-08-30T08:01:22.000Z</time>
      </trkpt>
      <trkpt lat="47.27515" lon="-2.2547">
        <ele>-32.400001525879</ele>
        <time>2020-08-30T08:01:24.000Z</time>
      </trkpt>
      <trkpt lat="47.275" lon="-2.25463">
        <ele>-32.400001525879</ele>
        <time>2020-08-30T08:01:27.000Z</time>
      </trkpt>
      <trkpt lat="47.27489" lon="-2.25462">
        <ele>-32.400001525879</ele>
        <time>2020-08-30T08:01:29.000Z</time>
      </trkpt>
      <trkpt lat="47.27478" lon="-2.25461">
        <ele>-32.400001525879</ele>
        <time>2020-08-30T08:01:31.000Z</time>
      </trkpt>
      <trkpt lat="47.27472" lon="-2.25459">
        <ele>-32.400001525879</ele>
        <time>2020-08-30T08:01:32.000Z</time>
      </trkpt>
      <trkpt lat="47.27461" lon="-2.25455">
        <ele>-32.400001525879</ele>
        <time>2020-08-30T08:01:34.000Z</time>
      </trkpt>
      <trkpt lat="47.27438" lon="-2.25436">
        <ele>-32.400001525879</ele>
        <time>2020-08-30T08:01:39.000Z</time>
      </trkpt>
      <trkpt lat="47.27422" lon="-2.25419">
        <ele>-32.400001525879</ele>
        <time>2020-08-30T08:01:44.000Z</time>
      </trkpt>
      <trkpt lat="47.27421" lon="-2.25415">
        <ele>-32.400001525879</ele>
        <time>2020-08-30T08:01:45.000Z</time>
      </trkpt>
      <trkpt lat="47.27415" lon="-2.25402">
        <ele>-32.400001525879</ele>
        <time>2020-08-30T08:01:48.000Z</time>
      </trkpt>
      <trkpt lat="47.27404" lon="-2.25387">
        <ele>-32.400001525879</ele>
        <time>2020-08-30T08:01:53.000Z</time>
      </trkpt>
      <trkpt lat="47.27401" lon="-2.25372">
        <ele>-32.400001525879</ele>
        <time>2020-08-30T08:01:58.000Z</time>
      </trkpt>
      <trkpt lat="47.27401" lon="-2.2537">
        <ele>-32.400001525879</ele>
        <time>2020-08-30T08:01:59.000Z</time>
      </trkpt>
      <trkpt lat="47.27406" lon="-2.2537">
        <ele>-32.400001525879</ele>
        <time>2020-08-30T08:02:02.000Z</time>
      </trkpt>
      <trkpt lat="47.27412" lon="-2.25379">
        <ele>-32.400001525879</ele>
        <time>2020-08-30T08:02:07.000Z</time>
      </trkpt>
      <trkpt lat="47.27419" lon="-2.25389">
        <ele>-32.400001525879</ele>
        <time>2020-08-30T08:02:13.000Z</time>
      </trkpt>
      <trkpt lat="47.27419" lon="-2.25389">
        <ele>-32.400001525879</ele>
        <time>2020-08-30T08:02:14.000Z</time>
      </trkpt>
      <trkpt lat="47.2742" lon="-2.25384">
        <ele>-32.400001525879</ele>
        <time>2020-08-30T08:02:16.000Z</time>
      </trkpt>
      <trkpt lat="47.27419" lon="-2.25382">
        <ele>-32.400001525879</ele>
        <time>2020-08-30T08:02:17.000Z</time>
      </trkpt>
      <trkpt lat="47.27416" lon="-2.25371">
        <ele>-32.400001525879</ele>
        <time>2020-08-30T08:02:21.000Z</time>
      </trkpt>
      <trkpt lat="47.27415" lon="-2.25366">
        <ele>-32.400001525879</ele>
        <time>2020-08-30T08:02:23.000Z</time>
      </trkpt>
      <trkpt lat="47.27413" lon="-2.25357">
        <ele>-32.400001525879</ele>
        <time>2020-08-30T08:02:26.000Z</time>
      </trkpt>
      <trkpt lat="47.27413" lon="-2.25352">
        <ele>-32.400001525879</ele>
        <time>2020-08-30T08:02:28.000Z</time>
      </trkpt>
      <trkpt lat="47.27411" lon="-2.25331">
        <ele>-32.400001525879</ele>
        <time>2020-08-30T08:02:33.000Z</time>
      </trkpt>
      <trkpt lat="47.27412" lon="-2.25326">
        <ele>-32.400001525879</ele>
        <time>2020-08-30T08:02:34.000Z</time>
      </trkpt>
      <trkpt lat="47.27413" lon="-2.25323">
        <ele>-32.400001525879</ele>
        <time>2020-08-30T08:02:36.000Z</time>
      </trkpt>
      <trkpt lat="47.27416" lon="-2.25325">
        <ele>-32.400001525879</ele>
        <time>2020-08-30T08:02:38.000Z</time>
      </trkpt>
      <trkpt lat="47.2742" lon="-2.25333">
        <ele>-32.400001525879</ele>
        <time>2020-08-30T08:02:41.000Z</time>
      </trkpt>
      <trkpt lat="47.27424" lon="-2.25348">
        <ele>-32.400001525879</ele>
        <time>2020-08-30T08:02:45.000Z</time>
      </trkpt>
      <trkpt lat="47.27425" lon="-2.25356">
        <ele>-32.400001525879</ele>
        <time>2020-08-30T08:02:47.000Z</time>
      </trkpt>
      <trkpt lat="47.27426" lon="-2.25362">
        <ele>-32.400001525879</ele>
        <time>2020-08-30T08:02:49.000Z</time>
      </trkpt>
      <trkpt lat="47.27428" lon="-2.25369">
        <ele>-32.400001525879</ele>
        <time>2020-08-30T08:02:51.000Z</time>
      </trkpt>
      <trkpt lat="47.27429" lon="-2.25375">
        <ele>-32.400001525879</ele>
        <time>2020-08-30T08:02:53.000Z</time>
      </trkpt>
      <trkpt lat="47.27432" lon="-2.2538">
        <ele>-32.400001525879</ele>
        <time>2020-08-30T08:02:57.000Z</time>
      </trkpt>
      <trkpt lat="47.27428" lon="-2.25376">
        <ele>-32.400001525879</ele>
        <time>2020-08-30T08:03:01.000Z</time>
      </trkpt>
      <trkpt lat="47.27431" lon="-2.25377">
        <ele>-32.400001525879</ele>
        <time>2020-08-30T08:03:04.000Z</time>
      </trkpt>
      <trkpt lat="47.27432" lon="-2.25378">
        <ele>-32.400001525879</ele>
        <time>2020-08-30T08:03:05.000Z</time>
      </trkpt>
      <trkpt lat="47.27433" lon="-2.25378">
        <ele>-32.400001525879</ele>
        <time>2020-08-30T08:03:06.000Z</time>
      </trkpt>
      <trkpt lat="47.27434" lon="-2.2537">
        <ele>-34.400001525879</ele>
        <time>2020-08-30T08:03:12.000Z</time>
      </trkpt>
      <trkpt lat="47.27434" lon="-2.25368">
        <ele>-34.400001525879</ele>
        <time>2020-08-30T08:03:13.000Z</time>
      </trkpt>
      <trkpt lat="47.27432" lon="-2.25364">
        <ele>-34.400001525879</ele>
        <time>2020-08-30T08:03:16.000Z</time>
      </trkpt>
      <trkpt lat="47.2743" lon="-2.25361">
        <ele>-34.400001525879</ele>
        <time>2020-08-30T08:03:18.000Z</time>
      </trkpt>
      <trkpt lat="47.27428" lon="-2.25341">
        <ele>-34.400001525879</ele>
        <time>2020-08-30T08:03:23.000Z</time>
      </trkpt>
      <trkpt lat="47.27427" lon="-2.25338">
        <ele>-34.400001525879</ele>
        <time>2020-08-30T08:03:24.000Z</time>
      </trkpt>
      <trkpt lat="47.27425" lon="-2.25338">
        <ele>-34.400001525879</ele>
        <time>2020-08-30T08:03:26.000Z</time>
      </trkpt>
      <trkpt lat="47.27422" lon="-2.25337">
        <ele>-34.400001525879</ele>
        <time>2020-08-30T08:03:28.000Z</time>
      </trkpt>
      <trkpt lat="47.27421" lon="-2.25334">
        <ele>-34.400001525879</ele>
        <time>2020-08-30T08:03:30.000Z</time>
      </trkpt>
      <trkpt lat="47.27418" lon="-2.25325">
        <ele>-34.400001525879</ele>
        <time>2020-08-30T08:03:34.000Z</time>
      </trkpt>
      <trkpt lat="47.27416" lon="-2.25322">
        <ele>-34.400001525879</ele>
        <time>2020-08-30T08:03:35.000Z</time>
      </trkpt>
      <trkpt lat="47.27411" lon="-2.25304">
        <ele>-34.400001525879</ele>
        <time>2020-08-30T08:03:40.000Z</time>
      </trkpt>
      <trkpt lat="47.27406" lon="-2.25288">
        <ele>-34.400001525879</ele>
        <time>2020-08-30T08:03:44.000Z</time>
      </trkpt>
      <trkpt lat="47.27405" lon="-2.25283">
        <ele>-34.400001525879</ele>
        <time>2020-08-30T08:03:45.000Z</time>
      </trkpt>
      <trkpt lat="47.27395" lon="-2.2526">
        <ele>-34.400001525879</ele>
        <time>2020-08-30T08:03:51.000Z</time>
      </trkpt>
      <trkpt lat="47.27393" lon="-2.25233">
        <ele>-34.400001525879</ele>
        <time>2020-08-30T08:03:55.000Z</time>
      </trkpt>
      <trkpt lat="47.27397" lon="-2.25197">
        <ele>-34.400001525879</ele>
        <time>2020-08-30T08:04:00.000Z</time>
      </trkpt>
      <trkpt lat="47.27396" lon="-2.2519">
        <ele>-34.400001525879</ele>
        <time>2020-08-30T08:04:01.000Z</time>
      </trkpt>
      <trkpt lat="47.27387" lon="-2.25161">
        <ele>-34.400001525879</ele>
        <time>2020-08-30T08:04:05.000Z</time>
      </trkpt>
      <trkpt lat="47.27382" lon="-2.25147">
        <ele>-34</ele>
        <time>2020-08-30T08:04:07.000Z</time>
      </trkpt>
      <trkpt lat="47.2738" lon="-2.25139">
        <ele>-33.599998474121</ele>
        <time>2020-08-30T08:04:08.000Z</time>
      </trkpt>
      <trkpt lat="47.27377" lon="-2.25131">
        <ele>-33.200000762939</ele>
        <time>2020-08-30T08:04:09.000Z</time>
      </trkpt>
      <trkpt lat="47.27373" lon="-2.25123">
        <ele>-32.799999237061</ele>
        <time>2020-08-30T08:04:10.000Z</time>
      </trkpt>
      <trkpt lat="47.27369" lon="-2.25116">
        <ele>-32.400001525879</ele>
        <time>2020-08-30T08:04:11.000Z</time>
      </trkpt>
      <trkpt lat="47.27366" lon="-2.25109">
        <ele>-32.400001525879</ele>
        <time>2020-08-30T08:04:12.000Z</time>
      </trkpt>
      <trkpt lat="47.2735" lon="-2.25067">
        <ele>-32.400001525879</ele>
        <time>2020-08-30T08:04:18.000Z</time>
      </trkpt>
      <trkpt lat="47.27351" lon="-2.25038">
        <ele>-32.400001525879</ele>
        <time>2020-08-30T08:04:22.000Z</time>
      </trkpt>
      <trkpt lat="47.27355" lon="-2.25027">
        <ele>-32.400001525879</ele>
        <time>2020-08-30T08:04:24.000Z</time>
      </trkpt>
      <trkpt lat="47.27361" lon="-2.25012">
        <ele>-32.400001525879</ele>
        <time>2020-08-30T08:04:27.000Z</time>
      </trkpt>
      <trkpt lat="47.27369" lon="-2.24997">
        <ele>-32.400001525879</ele>
        <time>2020-08-30T08:04:32.000Z</time>
      </trkpt>
      <trkpt lat="47.27381" lon="-2.24981">
        <ele>-32.400001525879</ele>
        <time>2020-08-30T08:04:38.000Z</time>
      </trkpt>
      <trkpt lat="47.27387" lon="-2.24974">
        <ele>-32.400001525879</ele>
        <time>2020-08-30T08:04:44.000Z</time>
      </trkpt>
      <trkpt lat="47.27389" lon="-2.24971">
        <ele>-32.400001525879</ele>
        <time>2020-08-30T08:04:47.000Z</time>
      </trkpt>
      <trkpt lat="47.27391" lon="-2.24969">
        <ele>-32.400001525879</ele>
        <time>2020-08-30T08:05:11.000Z</time>
      </trkpt>
      <trkpt lat="47.27393" lon="-2.24969">
        <ele>-32.400001525879</ele>
        <time>2020-08-30T08:05:12.000Z</time>
      </trkpt>
      <trkpt lat="47.27406" lon="-2.24964">
        <ele>-32.400001525879</ele>
        <time>2020-08-30T08:05:19.000Z</time>
      </trkpt>
      <trkpt lat="47.27417" lon="-2.24958">
        <ele>-32.400001525879</ele>
        <time>2020-08-30T08:05:25.000Z</time>
      </trkpt>
      <trkpt lat="47.2743" lon="-2.24953">
        <ele>-32.400001525879</ele>
        <time>2020-08-30T08:05:31.000Z</time>
      </trkpt>
      <trkpt lat="47.27447" lon="-2.24957">
        <ele>-32.400001525879</ele>
        <time>2020-08-30T08:05:37.000Z</time>
      </trkpt>
      <trkpt lat="47.2747" lon="-2.2497">
        <ele>-32.400001525879</ele>
        <time>2020-08-30T08:05:43.000Z</time>
      </trkpt>
      <trkpt lat="47.27503" lon="-2.24998">
        <ele>-32.400001525879</ele>
        <time>2020-08-30T08:05:51.000Z</time>
      </trkpt>
      <trkpt lat="47.27522" lon="-2.25016">
        <ele>-32.400001525879</ele>
        <time>2020-08-30T08:05:57.000Z</time>
      </trkpt>
      <trkpt lat="47.27539" lon="-2.2504">
        <ele>-32.400001525879</ele>
        <time>2020-08-30T08:06:03.000Z</time>
      </trkpt>
      <trkpt lat="47.27565" lon="-2.25067">
        <ele>-32.400001525879</ele>
        <time>2020-08-30T08:06:10.000Z</time>
      </trkpt>
      <trkpt lat="47.27591" lon="-2.2508">
        <ele>-32.400001525879</ele>
        <time>2020-08-30T08:06:16.000Z</time>
      </trkpt>
      <trkpt lat="47.27622" lon="-2.25097">
        <ele>-32.400001525879</ele>
        <time>2020-08-30T08:06:23.000Z</time>
      </trkpt>
      <trkpt lat="47.27635" lon="-2.251">
        <ele>-32.400001525879</ele>
        <time>2020-08-30T08:06:26.000Z</time>
      </trkpt>
      <trkpt lat="47.27645" lon="-2.25098">
        <ele>-32.400001525879</ele>
        <time>2020-08-30T08:06:28.000Z</time>
      </trkpt>
      <trkpt lat="47.27675" lon="-2.25088">
        <ele>-32.400001525879</ele>
        <time>2020-08-30T08:06:34.000Z</time>
      </trkpt>
      <trkpt lat="47.27681" lon="-2.25087">
        <ele>-32.400001525879</ele>
        <time>2020-08-30T08:06:35.000Z</time>
      </trkpt>
      <trkpt lat="47.27696" lon="-2.25084">
        <ele>-32.400001525879</ele>
        <time>2020-08-30T08:06:38.000Z</time>
      </trkpt>
      <trkpt lat="47.27706" lon="-2.25078">
        <ele>-32.400001525879</ele>
        <time>2020-08-30T08:06:40.000Z</time>
      </trkpt>
      <trkpt lat="47.27741" lon="-2.25048">
        <ele>-32.400001525879</ele>
        <time>2020-08-30T08:06:48.000Z</time>
      </trkpt>
      <trkpt lat="47.2776" lon="-2.25034">
        <ele>-32.400001525879</ele>
        <time>2020-08-30T08:06:53.000Z</time>
      </trkpt>
      <trkpt lat="47.27768" lon="-2.25028">
        <ele>-32.400001525879</ele>
        <time>2020-08-30T08:06:55.000Z</time>
      </trkpt>
      <trkpt lat="47.27784" lon="-2.25023">
        <ele>-32.400001525879</ele>
        <time>2020-08-30T08:06:58.000Z</time>
      </trkpt>
      <trkpt lat="47.27802" lon="-2.25024">
        <ele>-32.400001525879</ele>
        <time>2020-08-30T08:07:02.000Z</time>
      </trkpt>
      <trkpt lat="47.27806" lon="-2.25026">
        <ele>-32.400001525879</ele>
        <time>2020-08-30T08:07:03.000Z</time>
      </trkpt>
      <trkpt lat="47.2782" lon="-2.25035">
        <ele>-32.400001525879</ele>
        <time>2020-08-30T08:07:06.000Z</time>
      </trkpt>
      <trkpt lat="47.27849" lon="-2.25054">
        <ele>-32.400001525879</ele>
        <time>2020-08-30T08:07:12.000Z</time>
      </trkpt>
      <trkpt lat="47.27874" lon="-2.25064">
        <ele>-32.400001525879</ele>
        <time>2020-08-30T08:07:17.000Z</time>
      </trkpt>
      <trkpt lat="47.27883" lon="-2.25069">
        <ele>-32.400001525879</ele>
        <time>2020-08-30T08:07:19.000Z</time>
      </trkpt>
      <trkpt lat="47.27895" lon="-2.25079">
        <ele>-32.400001525879</ele>
        <time>2020-08-30T08:07:22.000Z</time>
      </trkpt>
      <trkpt lat="47.27909" lon="-2.25078">
        <ele>-32.400001525879</ele>
        <time>2020-08-30T08:07:25.000Z</time>
      </trkpt>
      <trkpt lat="47.27913" lon="-2.25077">
        <ele>-32.400001525879</ele>
        <time>2020-08-30T08:07:26.000Z</time>
      </trkpt>
      <trkpt lat="47.27923" lon="-2.25074">
        <ele>-32.400001525879</ele>
        <time>2020-08-30T08:07:28.000Z</time>
      </trkpt>
      <trkpt lat="47.2794" lon="-2.25072">
        <ele>-32.400001525879</ele>
        <time>2020-08-30T08:07:31.000Z</time>
      </trkpt>
      <trkpt lat="47.27977" lon="-2.25068">
        <ele>-32.400001525879</ele>
        <time>2020-08-30T08:07:39.000Z</time>
      </trkpt>
      <trkpt lat="47.27982" lon="-2.25068">
        <ele>-32.400001525879</ele>
        <time>2020-08-30T08:07:40.000Z</time>
      </trkpt>
      <trkpt lat="47.2799" lon="-2.25074">
        <ele>-32.400001525879</ele>
        <time>2020-08-30T08:07:42.000Z</time>
      </trkpt>
      <trkpt lat="47.28015" lon="-2.25094">
        <ele>-32.400001525879</ele>
        <time>2020-08-30T08:07:48.000Z</time>
      </trkpt>
      <trkpt lat="47.28052" lon="-2.25123">
        <ele>-32.400001525879</ele>
        <time>2020-08-30T08:07:56.000Z</time>
      </trkpt>
      <trkpt lat="47.28088" lon="-2.25155">
        <ele>-32.400001525879</ele>
        <time>2020-08-30T08:08:04.000Z</time>
      </trkpt>
      <trkpt lat="47.28092" lon="-2.2516">
        <ele>-32.400001525879</ele>
        <time>2020-08-30T08:08:05.000Z</time>
      </trkpt>
      <trkpt lat="47.28095" lon="-2.25165">
        <ele>-32.400001525879</ele>
        <time>2020-08-30T08:08:06.000Z</time>
      </trkpt>
      <trkpt lat="47.281" lon="-2.25176">
        <ele>-32.400001525879</ele>
        <time>2020-08-30T08:08:08.000Z</time>
      </trkpt>
      <trkpt lat="47.28102" lon="-2.25182">
        <ele>-32.400001525879</ele>
        <time>2020-08-30T08:08:09.000Z</time>
      </trkpt>
      <trkpt lat="47.28099" lon="-2.2521">
        <ele>-32.400001525879</ele>
        <time>2020-08-30T08:08:13.000Z</time>
      </trkpt>
      <trkpt lat="47.28096" lon="-2.2523">
        <ele>-32.400001525879</ele>
        <time>2020-08-30T08:08:16.000Z</time>
      </trkpt>
      <trkpt lat="47.2809" lon="-2.25249">
        <ele>-32.400001525879</ele>
        <time>2020-08-30T08:08:19.000Z</time>
      </trkpt>
      <trkpt lat="47.28086" lon="-2.25265">
        <ele>-32.400001525879</ele>
        <time>2020-08-30T08:08:21.000Z</time>
      </trkpt>
      <trkpt lat="47.28084" lon="-2.25283">
        <ele>-32.400001525879</ele>
        <time>2020-08-30T08:08:23.000Z</time>
      </trkpt>
      <trkpt lat="47.28083" lon="-2.25342">
        <ele>-32.400001525879</ele>
        <time>2020-08-30T08:08:30.000Z</time>
      </trkpt>
      <trkpt lat="47.28083" lon="-2.25398">
        <ele>-32.400001525879</ele>
        <time>2020-08-30T08:08:37.000Z</time>
      </trkpt>
      <trkpt lat="47.28086" lon="-2.25436">
        <ele>-32.400001525879</ele>
        <time>2020-08-30T08:08:42.000Z</time>
      </trkpt>
      <trkpt lat="47.28089" lon="-2.2545">
        <ele>-32.400001525879</ele>
        <time>2020-08-30T08:08:44.000Z</time>
      </trkpt>
      <trkpt lat="47.28098" lon="-2.25469">
        <ele>-32.400001525879</ele>
        <time>2020-08-30T08:08:48.000Z</time>
      </trkpt>
      <trkpt lat="47.28106" lon="-2.25473">
        <ele>-32.400001525879</ele>
        <time>2020-08-30T08:08:52.000Z</time>
      </trkpt>
      <trkpt lat="47.28115" lon="-2.25467">
        <ele>-32.400001525879</ele>
        <time>2020-08-30T08:08:56.000Z</time>
      </trkpt>
      <trkpt lat="47.28126" lon="-2.25458">
        <ele>-32.400001525879</ele>
        <time>2020-08-30T08:08:59.000Z</time>
      </trkpt>
      <trkpt lat="47.2813" lon="-2.25455">
        <ele>-32.400001525879</ele>
        <time>2020-08-30T08:09:00.000Z</time>
      </trkpt>
      <trkpt lat="47.28151" lon="-2.25441">
        <ele>-32.400001525879</ele>
        <time>2020-08-30T08:09:06.000Z</time>
      </trkpt>
      <trkpt lat="47.28155" lon="-2.25439">
        <ele>-32.400001525879</ele>
        <time>2020-08-30T08:09:07.000Z</time>
      </trkpt>
      <trkpt lat="47.28165" lon="-2.25434">
        <ele>-32.400001525879</ele>
        <time>2020-08-30T08:09:10.000Z</time>
      </trkpt>
      <trkpt lat="47.2818" lon="-2.25422">
        <ele>-32.400001525879</ele>
        <time>2020-08-30T08:09:15.000Z</time>
      </trkpt>
      <trkpt lat="47.28192" lon="-2.25412">
        <ele>-32</ele>
        <time>2020-08-30T08:09:19.000Z</time>
      </trkpt>
      <trkpt lat="47.28195" lon="-2.2541">
        <ele>-31.60000038147</ele>
        <time>2020-08-30T08:09:20.000Z</time>
      </trkpt>
      <trkpt lat="47.28198" lon="-2.25408">
        <ele>-31.200000762939</ele>
        <time>2020-08-30T08:09:21.000Z</time>
      </trkpt>
      <trkpt lat="47.28201" lon="-2.25406">
        <ele>-30.60000038147</ele>
        <time>2020-08-30T08:09:22.000Z</time>
      </trkpt>
      <trkpt lat="47.28204" lon="-2.25404">
        <ele>-30.200000762939</ele>
        <time>2020-08-30T08:09:23.000Z</time>
      </trkpt>
      <trkpt lat="47.28222" lon="-2.25392">
        <ele>-30.200000762939</ele>
        <time>2020-08-30T08:09:29.000Z</time>
      </trkpt>
      <trkpt lat="47.28228" lon="-2.25388">
        <ele>-29.799999237061</ele>
        <time>2020-08-30T08:09:31.000Z</time>
      </trkpt>
      <trkpt lat="47.2823" lon="-2.25386">
        <ele>-29.39999961853</ele>
        <time>2020-08-30T08:09:32.000Z</time>
      </trkpt>
      <trkpt lat="47.28233" lon="-2.25384">
        <ele>-29</ele>
        <time>2020-08-30T08:09:33.000Z</time>
      </trkpt>
      <trkpt lat="47.28235" lon="-2.25381">
        <ele>-28.39999961853</ele>
        <time>2020-08-30T08:09:34.000Z</time>
      </trkpt>
      <trkpt lat="47.28238" lon="-2.25379">
        <ele>-28</ele>
        <time>2020-08-30T08:09:35.000Z</time>
      </trkpt>
      <trkpt lat="47.28241" lon="-2.25377">
        <ele>-28</ele>
        <time>2020-08-30T08:09:36.000Z</time>
      </trkpt>
      <trkpt lat="47.28254" lon="-2.25367">
        <ele>-27.60000038147</ele>
        <time>2020-08-30T08:09:41.000Z</time>
      </trkpt>
      <trkpt lat="47.28257" lon="-2.25365">
        <ele>-27.200000762939</ele>
        <time>2020-08-30T08:09:42.000Z</time>
      </trkpt>
      <trkpt lat="47.2826" lon="-2.25364">
        <ele>-26.799999237061</ele>
        <time>2020-08-30T08:09:43.000Z</time>
      </trkpt>
      <trkpt lat="47.28263" lon="-2.25363">
        <ele>-26</ele>
        <time>2020-08-30T08:09:44.000Z</time>
      </trkpt>
      <trkpt lat="47.28276" lon="-2.25361">
        <ele>-26</ele>
        <time>2020-08-30T08:09:47.000Z</time>
      </trkpt>
      <trkpt lat="47.28296" lon="-2.25361">
        <ele>-26</ele>
        <time>2020-08-30T08:09:53.000Z</time>
      </trkpt>
      <trkpt lat="47.28302" lon="-2.25358">
        <ele>-25.60000038147</ele>
        <time>2020-08-30T08:09:55.000Z</time>
      </trkpt>
      <trkpt lat="47.28305" lon="-2.25356">
        <ele>-25.200000762939</ele>
        <time>2020-08-30T08:09:56.000Z</time>
      </trkpt>
      <trkpt lat="47.28308" lon="-2.25355">
        <ele>-24.60000038147</ele>
        <time>2020-08-30T08:09:57.000Z</time>
      </trkpt>
      <trkpt lat="47.28311" lon="-2.25354">
        <ele>-24.200000762939</ele>
        <time>2020-08-30T08:09:58.000Z</time>
      </trkpt>
      <trkpt lat="47.28315" lon="-2.25353">
        <ele>-23.799999237061</ele>
        <time>2020-08-30T08:09:59.000Z</time>
      </trkpt>
      <trkpt lat="47.2833" lon="-2.25344">
        <ele>-23.799999237061</ele>
        <time>2020-08-30T08:10:04.000Z</time>
      </trkpt>
      <trkpt lat="47.28348" lon="-2.25331">
        <ele>-23.799999237061</ele>
        <time>2020-08-30T08:10:10.000Z</time>
      </trkpt>
      <trkpt lat="47.28366" lon="-2.2532">
        <ele>-23.799999237061</ele>
        <time>2020-08-30T08:10:16.000Z</time>
      </trkpt>
      <trkpt lat="47.28383" lon="-2.25318">
        <ele>-23.799999237061</ele>
        <time>2020-08-30T08:10:21.000Z</time>
      </trkpt>
      <trkpt lat="47.28384" lon="-2.2532">
        <ele>-23.799999237061</ele>
        <time>2020-08-30T08:10:22.000Z</time>
      </trkpt>
      <trkpt lat="47.28385" lon="-2.25329">
        <ele>-23.799999237061</ele>
        <time>2020-08-30T08:10:25.000Z</time>
      </trkpt>
      <trkpt lat="47.28385" lon="-2.25334">
        <ele>-23.799999237061</ele>
        <time>2020-08-30T08:10:27.000Z</time>
      </trkpt>
      <trkpt lat="47.28385" lon="-2.25349">
        <ele>-23.799999237061</ele>
        <time>2020-08-30T08:10:32.000Z</time>
      </trkpt>
      <trkpt lat="47.28384" lon="-2.25374">
        <ele>-23.799999237061</ele>
        <time>2020-08-30T08:10:38.000Z</time>
      </trkpt>
      <trkpt lat="47.28383" lon="-2.25403">
        <ele>-23.799999237061</ele>
        <time>2020-08-30T08:10:44.000Z</time>
      </trkpt>
      <trkpt lat="47.28382" lon="-2.25437">
        <ele>-23.799999237061</ele>
        <time>2020-08-30T08:10:50.000Z</time>
      </trkpt>
      <trkpt lat="47.28378" lon="-2.25478">
        <ele>-23.799999237061</ele>
        <time>2020-08-30T08:10:57.000Z</time>
      </trkpt>
      <trkpt lat="47.28377" lon="-2.25501">
        <ele>-23.799999237061</ele>
        <time>2020-08-30T08:11:02.000Z</time>
      </trkpt>
      <trkpt lat="47.28375" lon="-2.2552">
        <ele>-23.799999237061</ele>
        <time>2020-08-30T08:11:08.000Z</time>
      </trkpt>
      <trkpt lat="47.28372" lon="-2.25538">
        <ele>-23.799999237061</ele>
        <time>2020-08-30T08:11:15.000Z</time>
      </trkpt>
      <trkpt lat="47.28371" lon="-2.25555">
        <ele>-23.799999237061</ele>
        <time>2020-08-30T08:11:22.000Z</time>
      </trkpt>
      <trkpt lat="47.28369" lon="-2.25576">
        <ele>-23.799999237061</ele>
        <time>2020-08-30T08:11:30.000Z</time>
      </trkpt>
      <trkpt lat="47.28369" lon="-2.2559">
        <ele>-23.799999237061</ele>
        <time>2020-08-30T08:11:36.000Z</time>
      </trkpt>
      <trkpt lat="47.28367" lon="-2.25611">
        <ele>-23.799999237061</ele>
        <time>2020-08-30T08:11:43.000Z</time>
      </trkpt>
      <trkpt lat="47.28368" lon="-2.25632">
        <ele>-23.799999237061</ele>
        <time>2020-08-30T08:11:50.000Z</time>
      </trkpt>
      <trkpt lat="47.2837" lon="-2.25634">
        <ele>-23.799999237061</ele>
        <time>2020-08-30T08:11:51.000Z</time>
      </trkpt>
      <trkpt lat="47.28377" lon="-2.2564">
        <ele>-23.39999961853</ele>
        <time>2020-08-30T08:11:54.000Z</time>
      </trkpt>
      <trkpt lat="47.28379" lon="-2.25642">
        <ele>-23</ele>
        <time>2020-08-30T08:11:55.000Z</time>
      </trkpt>
      <trkpt lat="47.28382" lon="-2.25645">
        <ele>-22.60000038147</ele>
        <time>2020-08-30T08:11:56.000Z</time>
      </trkpt>
      <trkpt lat="47.28383" lon="-2.25648">
        <ele>-22.200000762939</ele>
        <time>2020-08-30T08:11:57.000Z</time>
      </trkpt>
      <trkpt lat="47.28383" lon="-2.25653">
        <ele>-21.799999237061</ele>
        <time>2020-08-30T08:11:58.000Z</time>
      </trkpt>
      <trkpt lat="47.28384" lon="-2.25662">
        <ele>-21.799999237061</ele>
        <time>2020-08-30T08:12:00.000Z</time>
      </trkpt>
      <trkpt lat="47.28382" lon="-2.25687">
        <ele>-21.799999237061</ele>
        <time>2020-08-30T08:12:06.000Z</time>
      </trkpt>
      <trkpt lat="47.28384" lon="-2.25711">
        <ele>-21.799999237061</ele>
        <time>2020-08-30T08:12:12.000Z</time>
      </trkpt>
      <trkpt lat="47.28385" lon="-2.25721">
        <ele>-21.799999237061</ele>
        <time>2020-08-30T08:12:17.000Z</time>
      </trkpt>
      <trkpt lat="47.28383" lon="-2.25726">
        <ele>-21.799999237061</ele>
        <time>2020-08-30T08:12:20.000Z</time>
      </trkpt>
      <trkpt lat="47.28383" lon="-2.2573">
        <ele>-21.799999237061</ele>
        <time>2020-08-30T08:12:22.000Z</time>
      </trkpt>
      <trkpt lat="47.28383" lon="-2.25743">
        <ele>-21.799999237061</ele>
        <time>2020-08-30T08:12:25.000Z</time>
      </trkpt>
      <trkpt lat="47.28382" lon="-2.25748">
        <ele>-21.799999237061</ele>
        <time>2020-08-30T08:12:26.000Z</time>
      </trkpt>
      <trkpt lat="47.28379" lon="-2.25783">
        <ele>-21.799999237061</ele>
        <time>2020-08-30T08:12:33.000Z</time>
      </trkpt>
      <trkpt lat="47.28377" lon="-2.25803">
        <ele>-21.799999237061</ele>
        <time>2020-08-30T08:12:39.000Z</time>
      </trkpt>
      <trkpt lat="47.28378" lon="-2.25809">
        <ele>-21.799999237061</ele>
        <time>2020-08-30T08:12:41.000Z</time>
      </trkpt>
      <trkpt lat="47.2838" lon="-2.25812">
        <ele>-21.799999237061</ele>
        <time>2020-08-30T08:12:42.000Z</time>
      </trkpt>
      <trkpt lat="47.2839" lon="-2.25818">
        <ele>-21.799999237061</ele>
        <time>2020-08-30T08:12:45.000Z</time>
      </trkpt>
      <trkpt lat="47.28396" lon="-2.25824">
        <ele>-21.799999237061</ele>
        <time>2020-08-30T08:12:47.000Z</time>
      </trkpt>
      <trkpt lat="47.28405" lon="-2.2584">
        <ele>-21.799999237061</ele>
        <time>2020-08-30T08:12:51.000Z</time>
      </trkpt>
      <trkpt lat="47.28407" lon="-2.25864">
        <ele>-21.799999237061</ele>
        <time>2020-08-30T08:12:55.000Z</time>
      </trkpt>
      <trkpt lat="47.28409" lon="-2.25888">
        <ele>-21.799999237061</ele>
        <time>2020-08-30T08:12:59.000Z</time>
      </trkpt>
      <trkpt lat="47.28404" lon="-2.25937">
        <ele>-21.799999237061</ele>
        <time>2020-08-30T08:13:07.000Z</time>
      </trkpt>
      <trkpt lat="47.28407" lon="-2.25954">
        <ele>-21.799999237061</ele>
        <time>2020-08-30T08:13:11.000Z</time>
      </trkpt>
      <trkpt lat="47.28415" lon="-2.25954">
        <ele>-21.799999237061</ele>
        <time>2020-08-30T08:13:15.000Z</time>
      </trkpt>
      <trkpt lat="47.28417" lon="-2.25955">
        <ele>-21.799999237061</ele>
        <time>2020-08-30T08:13:16.000Z</time>
      </trkpt>
      <trkpt lat="47.2843" lon="-2.25957">
        <ele>-21.799999237061</ele>
        <time>2020-08-30T08:13:20.000Z</time>
      </trkpt>
      <trkpt lat="47.28459" lon="-2.2596">
        <ele>-21.799999237061</ele>
        <time>2020-08-30T08:13:27.000Z</time>
      </trkpt>
      <trkpt lat="47.28468" lon="-2.25961">
        <ele>-21.799999237061</ele>
        <time>2020-08-30T08:13:29.000Z</time>
      </trkpt>
      <trkpt lat="47.28482" lon="-2.25963">
        <ele>-21.799999237061</ele>
        <time>2020-08-30T08:13:32.000Z</time>
      </trkpt>
      <trkpt lat="47.28487" lon="-2.25964">
        <ele>-21.799999237061</ele>
        <time>2020-08-30T08:13:33.000Z</time>
      </trkpt>
      <trkpt lat="47.28517" lon="-2.25968">
        <ele>-21.799999237061</ele>
        <time>2020-08-30T08:13:39.000Z</time>
      </trkpt>
      <trkpt lat="47.28549" lon="-2.25971">
        <ele>-21.799999237061</ele>
        <time>2020-08-30T08:13:45.000Z</time>
      </trkpt>
      <trkpt lat="47.28555" lon="-2.25971">
        <ele>-22.200000762939</ele>
        <time>2020-08-30T08:13:46.000Z</time>
      </trkpt>
      <trkpt lat="47.2856" lon="-2.25971">
        <ele>-22.60000038147</ele>
        <time>2020-08-30T08:13:47.000Z</time>
      </trkpt>
      <trkpt lat="47.28566" lon="-2.25972">
        <ele>-23</ele>
        <time>2020-08-30T08:13:48.000Z</time>
      </trkpt>
      <trkpt lat="47.28571" lon="-2.25973">
        <ele>-23.39999961853</ele>
        <time>2020-08-30T08:13:49.000Z</time>
      </trkpt>
      <trkpt lat="47.28577" lon="-2.25974">
        <ele>-23.799999237061</ele>
        <time>2020-08-30T08:13:50.000Z</time>
      </trkpt>
      <trkpt lat="47.28594" lon="-2.25977">
        <ele>-23.799999237061</ele>
        <time>2020-08-30T08:13:53.000Z</time>
      </trkpt>
      <trkpt lat="47.28604" lon="-2.25981">
        <ele>-23.799999237061</ele>
        <time>2020-08-30T08:13:55.000Z</time>
      </trkpt>
      <trkpt lat="47.28607" lon="-2.25986">
        <ele>-23.799999237061</ele>
        <time>2020-08-30T08:13:56.000Z</time>
      </trkpt>
      <trkpt lat="47.28609" lon="-2.26007">
        <ele>-23.799999237061</ele>
        <time>2020-08-30T08:13:59.000Z</time>
      </trkpt>
      <trkpt lat="47.28609" lon="-2.26014">
        <ele>-23.799999237061</ele>
        <time>2020-08-30T08:14:00.000Z</time>
      </trkpt>
      <trkpt lat="47.28607" lon="-2.2605">
        <ele>-23.799999237061</ele>
        <time>2020-08-30T08:14:05.000Z</time>
      </trkpt>
      <trkpt lat="47.28607" lon="-2.26081">
        <ele>-23.799999237061</ele>
        <time>2020-08-30T08:14:10.000Z</time>
      </trkpt>
      <trkpt lat="47.28604" lon="-2.26135">
        <ele>-23.799999237061</ele>
        <time>2020-08-30T08:14:18.000Z</time>
      </trkpt>
      <trkpt lat="47.28603" lon="-2.26181">
        <ele>-23.799999237061</ele>
        <time>2020-08-30T08:14:24.000Z</time>
      </trkpt>
      <trkpt lat="47.28607" lon="-2.26213">
        <ele>-23.799999237061</ele>
        <time>2020-08-30T08:14:28.000Z</time>
      </trkpt>
      <trkpt lat="47.2861" lon="-2.26219">
        <ele>-24.200000762939</ele>
        <time>2020-08-30T08:14:29.000Z</time>
      </trkpt>
      <trkpt lat="47.28613" lon="-2.26225">
        <ele>-24.60000038147</ele>
        <time>2020-08-30T08:14:30.000Z</time>
      </trkpt>
      <trkpt lat="47.28616" lon="-2.26231">
        <ele>-25.200000762939</ele>
        <time>2020-08-30T08:14:31.000Z</time>
      </trkpt>
      <trkpt lat="47.28618" lon="-2.26235">
        <ele>-25.60000038147</ele>
        <time>2020-08-30T08:14:32.000Z</time>
      </trkpt>
      <trkpt lat="47.28621" lon="-2.26239">
        <ele>-26</ele>
        <time>2020-08-30T08:14:33.000Z</time>
      </trkpt>
      <trkpt lat="47.28629" lon="-2.26254">
        <ele>-26</ele>
        <time>2020-08-30T08:14:37.000Z</time>
      </trkpt>
      <trkpt lat="47.28641" lon="-2.26285">
        <ele>-26</ele>
        <time>2020-08-30T08:14:44.000Z</time>
      </trkpt>
      <trkpt lat="47.28654" lon="-2.26322">
        <ele>-26</ele>
        <time>2020-08-30T08:14:51.000Z</time>
      </trkpt>
      <trkpt lat="47.28656" lon="-2.26328">
        <ele>-26</ele>
        <time>2020-08-30T08:14:52.000Z</time>
      </trkpt>
      <trkpt lat="47.28667" lon="-2.26355">
        <ele>-26</ele>
        <time>2020-08-30T08:14:57.000Z</time>
      </trkpt>
      <trkpt lat="47.28669" lon="-2.2636">
        <ele>-26</ele>
        <time>2020-08-30T08:14:58.000Z</time>
      </trkpt>
      <trkpt lat="47.28676" lon="-2.26368">
        <ele>-26</ele>
        <time>2020-08-30T08:15:00.000Z</time>
      </trkpt>
      <trkpt lat="47.28687" lon="-2.26378">
        <ele>-26</ele>
        <time>2020-08-30T08:15:03.000Z</time>
      </trkpt>
      <trkpt lat="47.28703" lon="-2.26389">
        <ele>-26</ele>
        <time>2020-08-30T08:15:08.000Z</time>
      </trkpt>
      <trkpt lat="47.28712" lon="-2.26401">
        <ele>-26</ele>
        <time>2020-08-30T08:15:14.000Z</time>
      </trkpt>
      <trkpt lat="47.28716" lon="-2.26402">
        <ele>-26</ele>
        <time>2020-08-30T08:15:16.000Z</time>
      </trkpt>
      <trkpt lat="47.28718" lon="-2.26397">
        <ele>-26</ele>
        <time>2020-08-30T08:15:18.000Z</time>
      </trkpt>
      <trkpt lat="47.28719" lon="-2.26387">
        <ele>-26</ele>
        <time>2020-08-30T08:15:20.000Z</time>
      </trkpt>
      <trkpt lat="47.2872" lon="-2.26381">
        <ele>-26</ele>
        <time>2020-08-30T08:15:21.000Z</time>
      </trkpt>
      <trkpt lat="47.28721" lon="-2.26376">
        <ele>-26</ele>
        <time>2020-08-30T08:15:22.000Z</time>
      </trkpt>
      <trkpt lat="47.28731" lon="-2.26361">
        <ele>-26</ele>
        <time>2020-08-30T08:15:26.000Z</time>
      </trkpt>
      <trkpt lat="47.28745" lon="-2.26364">
        <ele>-26</ele>
        <time>2020-08-30T08:15:30.000Z</time>
      </trkpt>
      <trkpt lat="47.28749" lon="-2.26364">
        <ele>-26</ele>
        <time>2020-08-30T08:15:31.000Z</time>
      </trkpt>
      <trkpt lat="47.28764" lon="-2.26366">
        <ele>-26</ele>
        <time>2020-08-30T08:15:35.000Z</time>
      </trkpt>
      <trkpt lat="47.2877" lon="-2.26366">
        <ele>-25.60000038147</ele>
        <time>2020-08-30T08:15:37.000Z</time>
      </trkpt>
      <trkpt lat="47.28774" lon="-2.26365">
        <ele>-25.200000762939</ele>
        <time>2020-08-30T08:15:38.000Z</time>
      </trkpt>
      <trkpt lat="47.28777" lon="-2.26365">
        <ele>-24.799999237061</ele>
        <time>2020-08-30T08:15:39.000Z</time>
      </trkpt>
      <trkpt lat="47.28781" lon="-2.26365">
        <ele>-24.39999961853</ele>
        <time>2020-08-30T08:15:40.000Z</time>
      </trkpt>
      <trkpt lat="47.28784" lon="-2.26366">
        <ele>-24</ele>
        <time>2020-08-30T08:15:41.000Z</time>
      </trkpt>
      <trkpt lat="47.28788" lon="-2.26367">
        <ele>-24</ele>
        <time>2020-08-30T08:15:42.000Z</time>
      </trkpt>
      <trkpt lat="47.28814" lon="-2.26367">
        <ele>-24</ele>
        <time>2020-08-30T08:15:48.000Z</time>
      </trkpt>
      <trkpt lat="47.28834" lon="-2.2637">
        <ele>-23.200000762939</ele>
        <time>2020-08-30T08:15:53.000Z</time>
      </trkpt>
      <trkpt lat="47.28838" lon="-2.26372">
        <ele>-22.799999237061</ele>
        <time>2020-08-30T08:15:54.000Z</time>
      </trkpt>
      <trkpt lat="47.28842" lon="-2.26371">
        <ele>-22.39999961853</ele>
        <time>2020-08-30T08:15:55.000Z</time>
      </trkpt>
      <trkpt lat="47.28846" lon="-2.26371">
        <ele>-22</ele>
        <time>2020-08-30T08:15:56.000Z</time>
      </trkpt>
      <trkpt lat="47.2885" lon="-2.2637">
        <ele>-22</ele>
        <time>2020-08-30T08:15:57.000Z</time>
      </trkpt>
      <trkpt lat="47.28854" lon="-2.26369">
        <ele>-22</ele>
        <time>2020-08-30T08:15:58.000Z</time>
      </trkpt>
      <trkpt lat="47.28876" lon="-2.26362">
        <ele>-22</ele>
        <time>2020-08-30T08:16:04.000Z</time>
      </trkpt>
      <trkpt lat="47.28882" lon="-2.26365">
        <ele>-22</ele>
        <time>2020-08-30T08:16:07.000Z</time>
      </trkpt>
      <trkpt lat="47.28884" lon="-2.26367">
        <ele>-22</ele>
        <time>2020-08-30T08:16:08.000Z</time>
      </trkpt>
      <trkpt lat="47.28887" lon="-2.26388">
        <ele>-22</ele>
        <time>2020-08-30T08:16:12.000Z</time>
      </trkpt>
      <trkpt lat="47.28888" lon="-2.264">
        <ele>-22</ele>
        <time>2020-08-30T08:16:14.000Z</time>
      </trkpt>
      <trkpt lat="47.28891" lon="-2.26426">
        <ele>-22</ele>
        <time>2020-08-30T08:16:18.000Z</time>
      </trkpt>
      <trkpt lat="47.28892" lon="-2.26432">
        <ele>-22</ele>
        <time>2020-08-30T08:16:19.000Z</time>
      </trkpt>
      <trkpt lat="47.28896" lon="-2.26463">
        <ele>-22</ele>
        <time>2020-08-30T08:16:24.000Z</time>
      </trkpt>
      <trkpt lat="47.28897" lon="-2.26478">
        <ele>-22</ele>
        <time>2020-08-30T08:16:28.000Z</time>
      </trkpt>
      <trkpt lat="47.28909" lon="-2.26481">
        <ele>-22</ele>
        <time>2020-08-30T08:16:33.000Z</time>
      </trkpt>
      <trkpt lat="47.28913" lon="-2.2648">
        <ele>-22</ele>
        <time>2020-08-30T08:16:34.000Z</time>
      </trkpt>
      <trkpt lat="47.28926" lon="-2.26478">
        <ele>-22</ele>
        <time>2020-08-30T08:16:37.000Z</time>
      </trkpt>
      <trkpt lat="47.28935" lon="-2.26488">
        <ele>-22</ele>
        <time>2020-08-30T08:16:40.000Z</time>
      </trkpt>
      <trkpt lat="47.28937" lon="-2.26506">
        <ele>-22</ele>
        <time>2020-08-30T08:16:43.000Z</time>
      </trkpt>
      <trkpt lat="47.28937" lon="-2.26513">
        <ele>-22</ele>
        <time>2020-08-30T08:16:44.000Z</time>
      </trkpt>
      <trkpt lat="47.28943" lon="-2.26528">
        <ele>-22</ele>
        <time>2020-08-30T08:16:47.000Z</time>
      </trkpt>
      <trkpt lat="47.28947" lon="-2.26529">
        <ele>-22</ele>
        <time>2020-08-30T08:16:48.000Z</time>
      </trkpt>
      <trkpt lat="47.28965" lon="-2.2653">
        <ele>-22</ele>
        <time>2020-08-30T08:16:52.000Z</time>
      </trkpt>
      <trkpt lat="47.28969" lon="-2.2653">
        <ele>-22</ele>
        <time>2020-08-30T08:16:53.000Z</time>
      </trkpt>
      <trkpt lat="47.2898" lon="-2.26529">
        <ele>-22.39999961853</ele>
        <time>2020-08-30T08:16:55.000Z</time>
      </trkpt>
      <trkpt lat="47.28986" lon="-2.26529">
        <ele>-22.799999237061</ele>
        <time>2020-08-30T08:16:56.000Z</time>
      </trkpt>
      <trkpt lat="47.28992" lon="-2.26528">
        <ele>-23.200000762939</ele>
        <time>2020-08-30T08:16:57.000Z</time>
      </trkpt>
      <trkpt lat="47.28998" lon="-2.26528">
        <ele>-23.60000038147</ele>
        <time>2020-08-30T08:16:58.000Z</time>
      </trkpt>
      <trkpt lat="47.29004" lon="-2.26528">
        <ele>-24</ele>
        <time>2020-08-30T08:16:59.000Z</time>
      </trkpt>
      <trkpt lat="47.29015" lon="-2.26529">
        <ele>-24.39999961853</ele>
        <time>2020-08-30T08:17:01.000Z</time>
      </trkpt>
      <trkpt lat="47.29019" lon="-2.26529">
        <ele>-25</ele>
        <time>2020-08-30T08:17:02.000Z</time>
      </trkpt>
      <trkpt lat="47.29023" lon="-2.2653">
        <ele>-25.39999961853</ele>
        <time>2020-08-30T08:17:03.000Z</time>
      </trkpt>
      <trkpt lat="47.29027" lon="-2.26531">
        <ele>-25.799999237061</ele>
        <time>2020-08-30T08:17:04.000Z</time>
      </trkpt>
      <trkpt lat="47.2903" lon="-2.26534">
        <ele>-26.200000762939</ele>
        <time>2020-08-30T08:17:05.000Z</time>
      </trkpt>
      <trkpt lat="47.29035" lon="-2.26544">
        <ele>-26.60000038147</ele>
        <time>2020-08-30T08:17:07.000Z</time>
      </trkpt>
      <trkpt lat="47.29036" lon="-2.2655">
        <ele>-27.200000762939</ele>
        <time>2020-08-30T08:17:08.000Z</time>
      </trkpt>
      <trkpt lat="47.29037" lon="-2.26555">
        <ele>-27.60000038147</ele>
        <time>2020-08-30T08:17:09.000Z</time>
      </trkpt>
      <trkpt lat="47.29038" lon="-2.26561">
        <ele>-28</ele>
        <time>2020-08-30T08:17:10.000Z</time>
      </trkpt>
      <trkpt lat="47.29039" lon="-2.26566">
        <ele>-28.39999961853</ele>
        <time>2020-08-30T08:17:11.000Z</time>
      </trkpt>
      <trkpt lat="47.29042" lon="-2.26581">
        <ele>-28.39999961853</ele>
        <time>2020-08-30T08:17:14.000Z</time>
      </trkpt>
      <trkpt lat="47.29045" lon="-2.2661">
        <ele>-28.39999961853</ele>
        <time>2020-08-30T08:17:20.000Z</time>
      </trkpt>
      <trkpt lat="47.29048" lon="-2.26655">
        <ele>-28.39999961853</ele>
        <time>2020-08-30T08:17:27.000Z</time>
      </trkpt>
      <trkpt lat="47.29052" lon="-2.267">
        <ele>-28.39999961853</ele>
        <time>2020-08-30T08:17:33.000Z</time>
      </trkpt>
      <trkpt lat="47.29054" lon="-2.26709">
        <ele>-28.799999237061</ele>
        <time>2020-08-30T08:17:34.000Z</time>
      </trkpt>
      <trkpt lat="47.29055" lon="-2.26718">
        <ele>-29.200000762939</ele>
        <time>2020-08-30T08:17:35.000Z</time>
      </trkpt>
      <trkpt lat="47.29057" lon="-2.26728">
        <ele>-29.60000038147</ele>
        <time>2020-08-30T08:17:36.000Z</time>
      </trkpt>
      <trkpt lat="47.29058" lon="-2.26739">
        <ele>-30</ele>
        <time>2020-08-30T08:17:37.000Z</time>
      </trkpt>
      <trkpt lat="47.2906" lon="-2.2675">
        <ele>-30.60000038147</ele>
        <time>2020-08-30T08:17:38.000Z</time>
      </trkpt>
      <trkpt lat="47.29061" lon="-2.26761">
        <ele>-31</ele>
        <time>2020-08-30T08:17:39.000Z</time>
      </trkpt>
      <trkpt lat="47.29062" lon="-2.26771">
        <ele>-31.60000038147</ele>
        <time>2020-08-30T08:17:40.000Z</time>
      </trkpt>
      <trkpt lat="47.29063" lon="-2.26781">
        <ele>-32</ele>
        <time>2020-08-30T08:17:41.000Z</time>
      </trkpt>
      <trkpt lat="47.29064" lon="-2.2679">
        <ele>-32.599998474121</ele>
        <time>2020-08-30T08:17:42.000Z</time>
      </trkpt>
      <trkpt lat="47.29064" lon="-2.26798">
        <ele>-33</ele>
        <time>2020-08-30T08:17:43.000Z</time>
      </trkpt>
      <trkpt lat="47.29064" lon="-2.26805">
        <ele>-33</ele>
        <time>2020-08-30T08:17:44.000Z</time>
      </trkpt>
      <trkpt lat="47.29064" lon="-2.26813">
        <ele>-33.400001525879</ele>
        <time>2020-08-30T08:17:45.000Z</time>
      </trkpt>
      <trkpt lat="47.29064" lon="-2.26821">
        <ele>-33.799999237061</ele>
        <time>2020-08-30T08:17:46.000Z</time>
      </trkpt>
      <trkpt lat="47.29064" lon="-2.26828">
        <ele>-34.200000762939</ele>
        <time>2020-08-30T08:17:47.000Z</time>
      </trkpt>
      <trkpt lat="47.29064" lon="-2.26836">
        <ele>-34.599998474121</ele>
        <time>2020-08-30T08:17:48.000Z</time>
      </trkpt>
      <trkpt lat="47.29064" lon="-2.26843">
        <ele>-35.200000762939</ele>
        <time>2020-08-30T08:17:49.000Z</time>
      </trkpt>
      <trkpt lat="47.29062" lon="-2.26865">
        <ele>-35.200000762939</ele>
        <time>2020-08-30T08:17:52.000Z</time>
      </trkpt>
      <trkpt lat="47.29062" lon="-2.26891">
        <ele>-35.200000762939</ele>
        <time>2020-08-30T08:17:56.000Z</time>
      </trkpt>
      <trkpt lat="47.29064" lon="-2.26896">
        <ele>-35.200000762939</ele>
        <time>2020-08-30T08:17:57.000Z</time>
      </trkpt>
      <trkpt lat="47.29072" lon="-2.26906">
        <ele>-35.200000762939</ele>
        <time>2020-08-30T08:18:01.000Z</time>
      </trkpt>
      <trkpt lat="47.29073" lon="-2.26909">
        <ele>-35.200000762939</ele>
        <time>2020-08-30T08:18:02.000Z</time>
      </trkpt>
      <trkpt lat="47.29077" lon="-2.26916">
        <ele>-35.200000762939</ele>
        <time>2020-08-30T08:18:06.000Z</time>
      </trkpt>
      <trkpt lat="47.29078" lon="-2.26923">
        <ele>-35.200000762939</ele>
        <time>2020-08-30T08:18:09.000Z</time>
      </trkpt>
      <trkpt lat="47.29077" lon="-2.26929">
        <ele>-35.200000762939</ele>
        <time>2020-08-30T08:18:11.000Z</time>
      </trkpt>
      <trkpt lat="47.29076" lon="-2.2695">
        <ele>-35.200000762939</ele>
        <time>2020-08-30T08:18:17.000Z</time>
      </trkpt>
      <trkpt lat="47.29076" lon="-2.2698">
        <ele>-35.200000762939</ele>
        <time>2020-08-30T08:18:23.000Z</time>
      </trkpt>
      <trkpt lat="47.29074" lon="-2.27003">
        <ele>-35.200000762939</ele>
        <time>2020-08-30T08:18:28.000Z</time>
      </trkpt>
      <trkpt lat="47.29075" lon="-2.27019">
        <ele>-35.200000762939</ele>
        <time>2020-08-30T08:18:32.000Z</time>
      </trkpt>
      <trkpt lat="47.29074" lon="-2.27042">
        <ele>-35.200000762939</ele>
        <time>2020-08-30T08:18:36.000Z</time>
      </trkpt>
      <trkpt lat="47.29073" lon="-2.27048">
        <ele>-35.200000762939</ele>
        <time>2020-08-30T08:18:37.000Z</time>
      </trkpt>
      <trkpt lat="47.29071" lon="-2.27064">
        <ele>-35.200000762939</ele>
        <time>2020-08-30T08:18:40.000Z</time>
      </trkpt>
      <trkpt lat="47.29069" lon="-2.2709">
        <ele>-35.200000762939</ele>
        <time>2020-08-30T08:18:45.000Z</time>
      </trkpt>
      <trkpt lat="47.29067" lon="-2.27111">
        <ele>-35.200000762939</ele>
        <time>2020-08-30T08:18:49.000Z</time>
      </trkpt>
      <trkpt lat="47.29066" lon="-2.27139">
        <ele>-35.200000762939</ele>
        <time>2020-08-30T08:18:55.000Z</time>
      </trkpt>
      <trkpt lat="47.29064" lon="-2.27163">
        <ele>-35.200000762939</ele>
        <time>2020-08-30T08:19:00.000Z</time>
      </trkpt>
      <trkpt lat="47.29067" lon="-2.27178">
        <ele>-35.200000762939</ele>
        <time>2020-08-30T08:19:04.000Z</time>
      </trkpt>
      <trkpt lat="47.29078" lon="-2.27188">
        <ele>-35.200000762939</ele>
        <time>2020-08-30T08:19:07.000Z</time>
      </trkpt>
      <trkpt lat="47.29083" lon="-2.27189">
        <ele>-35.200000762939</ele>
        <time>2020-08-30T08:19:08.000Z</time>
      </trkpt>
      <trkpt lat="47.29099" lon="-2.27192">
        <ele>-35.200000762939</ele>
        <time>2020-08-30T08:19:13.000Z</time>
      </trkpt>
      <trkpt lat="47.29106" lon="-2.27195">
        <ele>-35.200000762939</ele>
        <time>2020-08-30T08:19:17.000Z</time>
      </trkpt>
      <trkpt lat="47.29107" lon="-2.27196">
        <ele>-35.200000762939</ele>
        <time>2020-08-30T08:19:18.000Z</time>
      </trkpt>
      <trkpt lat="47.29109" lon="-2.27198">
        <ele>-35.200000762939</ele>
        <time>2020-08-30T08:19:20.000Z</time>
      </trkpt>
      <trkpt lat="47.29115" lon="-2.27214">
        <ele>-37.200000762939</ele>
        <time>2020-08-30T08:21:09.000Z</time>
      </trkpt>
      <trkpt lat="47.29115" lon="-2.27221">
        <ele>-37.200000762939</ele>
        <time>2020-08-30T08:21:11.000Z</time>
      </trkpt>
      <trkpt lat="47.29112" lon="-2.27242">
        <ele>-37.200000762939</ele>
        <time>2020-08-30T08:21:17.000Z</time>
      </trkpt>
      <trkpt lat="47.29111" lon="-2.27249">
        <ele>-37.200000762939</ele>
        <time>2020-08-30T08:21:19.000Z</time>
      </trkpt>
      <trkpt lat="47.2911" lon="-2.27258">
        <ele>-37.200000762939</ele>
        <time>2020-08-30T08:21:21.000Z</time>
      </trkpt>
      <trkpt lat="47.29106" lon="-2.27285">
        <ele>-37.200000762939</ele>
        <time>2020-08-30T08:21:26.000Z</time>
      </trkpt>
      <trkpt lat="47.29101" lon="-2.2731">
        <ele>-37.200000762939</ele>
        <time>2020-08-30T08:21:31.000Z</time>
      </trkpt>
      <trkpt lat="47.29097" lon="-2.27331">
        <ele>-37.200000762939</ele>
        <time>2020-08-30T08:21:36.000Z</time>
      </trkpt>
      <trkpt lat="47.29101" lon="-2.27356">
        <ele>-37.200000762939</ele>
        <time>2020-08-30T08:21:41.000Z</time>
      </trkpt>
      <trkpt lat="47.29108" lon="-2.27393">
        <ele>-37.200000762939</ele>
        <time>2020-08-30T08:21:47.000Z</time>
      </trkpt>
      <trkpt lat="47.2911" lon="-2.27408">
        <ele>-37.200000762939</ele>
        <time>2020-08-30T08:21:49.000Z</time>
      </trkpt>
      <trkpt lat="47.29109" lon="-2.27423">
        <ele>-37.200000762939</ele>
        <time>2020-08-30T08:21:51.000Z</time>
      </trkpt>
      <trkpt lat="47.29106" lon="-2.2748">
        <ele>-37.200000762939</ele>
        <time>2020-08-30T08:21:58.000Z</time>
      </trkpt>
      <trkpt lat="47.29106" lon="-2.27515">
        <ele>-37.200000762939</ele>
        <time>2020-08-30T08:22:04.000Z</time>
      </trkpt>
      <trkpt lat="47.2911" lon="-2.27521">
        <ele>-37.200000762939</ele>
        <time>2020-08-30T08:22:06.000Z</time>
      </trkpt>
      <trkpt lat="47.29112" lon="-2.27522">
        <ele>-37.200000762939</ele>
        <time>2020-08-30T08:22:07.000Z</time>
      </trkpt>
      <trkpt lat="47.29123" lon="-2.27525">
        <ele>-36.799999237061</ele>
        <time>2020-08-30T08:22:10.000Z</time>
      </trkpt>
      <trkpt lat="47.29128" lon="-2.27525">
        <ele>-36.400001525879</ele>
        <time>2020-08-30T08:22:11.000Z</time>
      </trkpt>
      <trkpt lat="47.29132" lon="-2.27525">
        <ele>-35.799999237061</ele>
        <time>2020-08-30T08:22:12.000Z</time>
      </trkpt>
      <trkpt lat="47.29137" lon="-2.27525">
        <ele>-35.400001525879</ele>
        <time>2020-08-30T08:22:13.000Z</time>
      </trkpt>
      <trkpt lat="47.29141" lon="-2.27526">
        <ele>-35</ele>
        <time>2020-08-30T08:22:14.000Z</time>
      </trkpt>
      <trkpt lat="47.29155" lon="-2.27527">
        <ele>-35</ele>
        <time>2020-08-30T08:22:17.000Z</time>
      </trkpt>
      <trkpt lat="47.29184" lon="-2.27526">
        <ele>-35</ele>
        <time>2020-08-30T08:22:23.000Z</time>
      </trkpt>
      <trkpt lat="47.292" lon="-2.27526">
        <ele>-35</ele>
        <time>2020-08-30T08:22:26.000Z</time>
      </trkpt>
      <trkpt lat="47.29213" lon="-2.27526">
        <ele>-35</ele>
        <time>2020-08-30T08:22:29.000Z</time>
      </trkpt>
      <trkpt lat="47.29238" lon="-2.27528">
        <ele>-35</ele>
        <time>2020-08-30T08:22:35.000Z</time>
      </trkpt>
      <trkpt lat="47.29252" lon="-2.27527">
        <ele>-35</ele>
        <time>2020-08-30T08:22:38.000Z</time>
      </trkpt>
      <trkpt lat="47.29265" lon="-2.27522">
        <ele>-35</ele>
        <time>2020-08-30T08:22:41.000Z</time>
      </trkpt>
      <trkpt lat="47.29274" lon="-2.2752">
        <ele>-35</ele>
        <time>2020-08-30T08:22:43.000Z</time>
      </trkpt>
      <trkpt lat="47.29288" lon="-2.27526">
        <ele>-35</ele>
        <time>2020-08-30T08:22:46.000Z</time>
      </trkpt>
      <trkpt lat="47.29293" lon="-2.27529">
        <ele>-35</ele>
        <time>2020-08-30T08:22:47.000Z</time>
      </trkpt>
      <trkpt lat="47.29298" lon="-2.27531">
        <ele>-35</ele>
        <time>2020-08-30T08:22:48.000Z</time>
      </trkpt>
      <trkpt lat="47.29315" lon="-2.27534">
        <ele>-35</ele>
        <time>2020-08-30T08:22:51.000Z</time>
      </trkpt>
      <trkpt lat="47.29355" lon="-2.2753">
        <ele>-35</ele>
        <time>2020-08-30T08:22:58.000Z</time>
      </trkpt>
      <trkpt lat="47.29393" lon="-2.2752">
        <ele>-35</ele>
        <time>2020-08-30T08:23:05.000Z</time>
      </trkpt>
      <trkpt lat="47.29436" lon="-2.27514">
        <ele>-35</ele>
        <time>2020-08-30T08:23:13.000Z</time>
      </trkpt>
      <trkpt lat="47.29452" lon="-2.27514">
        <ele>-35</ele>
        <time>2020-08-30T08:23:16.000Z</time>
      </trkpt>
      <trkpt lat="47.29473" lon="-2.2752">
        <ele>-35</ele>
        <time>2020-08-30T08:23:20.000Z</time>
      </trkpt>
      <trkpt lat="47.29498" lon="-2.27529">
        <ele>-35</ele>
        <time>2020-08-30T08:23:26.000Z</time>
      </trkpt>
      <trkpt lat="47.2953" lon="-2.27538">
        <ele>-35</ele>
        <time>2020-08-30T08:23:34.000Z</time>
      </trkpt>
      <trkpt lat="47.29558" lon="-2.27549">
        <ele>-35</ele>
        <time>2020-08-30T08:23:41.000Z</time>
      </trkpt>
      <trkpt lat="47.29595" lon="-2.27566">
        <ele>-35.400001525879</ele>
        <time>2020-08-30T08:23:50.000Z</time>
      </trkpt>
      <trkpt lat="47.296" lon="-2.27569">
        <ele>-36</ele>
        <time>2020-08-30T08:23:51.000Z</time>
      </trkpt>
      <trkpt lat="47.29604" lon="-2.27573">
        <ele>-36.400001525879</ele>
        <time>2020-08-30T08:23:52.000Z</time>
      </trkpt>
      <trkpt lat="47.29608" lon="-2.27576">
        <ele>-36.799999237061</ele>
        <time>2020-08-30T08:23:53.000Z</time>
      </trkpt>
      <trkpt lat="47.29612" lon="-2.27579">
        <ele>-37.200000762939</ele>
        <time>2020-08-30T08:23:54.000Z</time>
      </trkpt>
      <trkpt lat="47.29617" lon="-2.27582">
        <ele>-37.200000762939</ele>
        <time>2020-08-30T08:23:55.000Z</time>
      </trkpt>
      <trkpt lat="47.29654" lon="-2.27606">
        <ele>-37.200000762939</ele>
        <time>2020-08-30T08:24:03.000Z</time>
      </trkpt>
      <trkpt lat="47.29671" lon="-2.27613">
        <ele>-37.599998474121</ele>
        <time>2020-08-30T08:24:06.000Z</time>
      </trkpt>
      <trkpt lat="47.29676" lon="-2.27615">
        <ele>-38.200000762939</ele>
        <time>2020-08-30T08:24:07.000Z</time>
      </trkpt>
      <trkpt lat="47.29681" lon="-2.27616">
        <ele>-39</ele>
        <time>2020-08-30T08:24:08.000Z</time>
      </trkpt>
      <trkpt lat="47.29687" lon="-2.27617">
        <ele>-39.599998474121</ele>
        <time>2020-08-30T08:24:09.000Z</time>
      </trkpt>
      <trkpt lat="47.29692" lon="-2.27617">
        <ele>-39.599998474121</ele>
        <time>2020-08-30T08:24:10.000Z</time>
      </trkpt>
      <trkpt lat="47.29728" lon="-2.2761">
        <ele>-39.599998474121</ele>
        <time>2020-08-30T08:24:17.000Z</time>
      </trkpt>
      <trkpt lat="47.29752" lon="-2.276">
        <ele>-39.599998474121</ele>
        <time>2020-08-30T08:24:23.000Z</time>
      </trkpt>
      <trkpt lat="47.29777" lon="-2.27596">
        <ele>-39.599998474121</ele>
        <time>2020-08-30T08:24:28.000Z</time>
      </trkpt>
      <trkpt lat="47.29782" lon="-2.27597">
        <ele>-39.599998474121</ele>
        <time>2020-08-30T08:24:29.000Z</time>
      </trkpt>
      <trkpt lat="47.29809" lon="-2.27606">
        <ele>-39.599998474121</ele>
        <time>2020-08-30T08:24:34.000Z</time>
      </trkpt>
      <trkpt lat="47.29845" lon="-2.27623">
        <ele>-39.599998474121</ele>
        <time>2020-08-30T08:24:41.000Z</time>
      </trkpt>
      <trkpt lat="47.2985" lon="-2.27624">
        <ele>-39.599998474121</ele>
        <time>2020-08-30T08:24:42.000Z</time>
      </trkpt>
      <trkpt lat="47.29871" lon="-2.2762">
        <ele>-39.599998474121</ele>
        <time>2020-08-30T08:24:46.000Z</time>
      </trkpt>
      <trkpt lat="47.29882" lon="-2.27614">
        <ele>-39.599998474121</ele>
        <time>2020-08-30T08:24:48.000Z</time>
      </trkpt>
      <trkpt lat="47.29893" lon="-2.27606">
        <ele>-39.599998474121</ele>
        <time>2020-08-30T08:24:50.000Z</time>
      </trkpt>
      <trkpt lat="47.29897" lon="-2.27603">
        <ele>-39.599998474121</ele>
        <time>2020-08-30T08:24:51.000Z</time>
      </trkpt>
      <trkpt lat="47.29912" lon="-2.27598">
        <ele>-39.599998474121</ele>
        <time>2020-08-30T08:24:54.000Z</time>
      </trkpt>
      <trkpt lat="47.29917" lon="-2.27597">
        <ele>-39.599998474121</ele>
        <time>2020-08-30T08:24:55.000Z</time>
      </trkpt>
      <trkpt lat="47.29944" lon="-2.27597">
        <ele>-40</ele>
        <time>2020-08-30T08:25:00.000Z</time>
      </trkpt>
      <trkpt lat="47.29949" lon="-2.27599">
        <ele>-40.400001525879</ele>
        <time>2020-08-30T08:25:01.000Z</time>
      </trkpt>
      <trkpt lat="47.29953" lon="-2.27604">
        <ele>-40.799999237061</ele>
        <time>2020-08-30T08:25:02.000Z</time>
      </trkpt>
      <trkpt lat="47.29955" lon="-2.27609">
        <ele>-41.400001525879</ele>
        <time>2020-08-30T08:25:03.000Z</time>
      </trkpt>
      <trkpt lat="47.29957" lon="-2.27614">
        <ele>-41.799999237061</ele>
        <time>2020-08-30T08:25:04.000Z</time>
      </trkpt>
      <trkpt lat="47.29957" lon="-2.2764">
        <ele>-41.799999237061</ele>
        <time>2020-08-30T08:25:08.000Z</time>
      </trkpt>
      <trkpt lat="47.29956" lon="-2.27647">
        <ele>-41.799999237061</ele>
        <time>2020-08-30T08:25:09.000Z</time>
      </trkpt>
      <trkpt lat="47.29953" lon="-2.27694">
        <ele>-41.799999237061</ele>
        <time>2020-08-30T08:25:15.000Z</time>
      </trkpt>
      <trkpt lat="47.29949" lon="-2.27759">
        <ele>-41.799999237061</ele>
        <time>2020-08-30T08:25:23.000Z</time>
      </trkpt>
      <trkpt lat="47.29945" lon="-2.27812">
        <ele>-41.799999237061</ele>
        <time>2020-08-30T08:25:30.000Z</time>
      </trkpt>
      <trkpt lat="47.29941" lon="-2.27862">
        <ele>-41.799999237061</ele>
        <time>2020-08-30T08:25:37.000Z</time>
      </trkpt>
      <trkpt lat="47.2994" lon="-2.27869">
        <ele>-41.799999237061</ele>
        <time>2020-08-30T08:25:38.000Z</time>
      </trkpt>
      <trkpt lat="47.29935" lon="-2.27928">
        <ele>-41.799999237061</ele>
        <time>2020-08-30T08:25:46.000Z</time>
      </trkpt>
      <trkpt lat="47.29931" lon="-2.27969">
        <ele>-41.799999237061</ele>
        <time>2020-08-30T08:25:52.000Z</time>
      </trkpt>
      <trkpt lat="47.29932" lon="-2.2799">
        <ele>-41.799999237061</ele>
        <time>2020-08-30T08:25:55.000Z</time>
      </trkpt>
      <trkpt lat="47.29936" lon="-2.28011">
        <ele>-41.799999237061</ele>
        <time>2020-08-30T08:25:58.000Z</time>
      </trkpt>
      <trkpt lat="47.2994" lon="-2.28024">
        <ele>-41.799999237061</ele>
        <time>2020-08-30T08:26:00.000Z</time>
      </trkpt>
      <trkpt lat="47.29947" lon="-2.28041">
        <ele>-41.799999237061</ele>
        <time>2020-08-30T08:26:03.000Z</time>
      </trkpt>
      <trkpt lat="47.2995" lon="-2.28045">
        <ele>-41.799999237061</ele>
        <time>2020-08-30T08:26:04.000Z</time>
      </trkpt>
      <trkpt lat="47.29962" lon="-2.28045">
        <ele>-41.799999237061</ele>
        <time>2020-08-30T08:26:07.000Z</time>
      </trkpt>
      <trkpt lat="47.2997" lon="-2.28041">
        <ele>-41.799999237061</ele>
        <time>2020-08-30T08:26:09.000Z</time>
      </trkpt>
      <trkpt lat="47.29981" lon="-2.28036">
        <ele>-41.799999237061</ele>
        <time>2020-08-30T08:26:12.000Z</time>
      </trkpt>
      <trkpt lat="47.29993" lon="-2.28036">
        <ele>-41.799999237061</ele>
        <time>2020-08-30T08:26:16.000Z</time>
      </trkpt>
      <trkpt lat="47.29993" lon="-2.28046">
        <ele>-41.799999237061</ele>
        <time>2020-08-30T08:26:19.000Z</time>
      </trkpt>
      <trkpt lat="47.29989" lon="-2.28055">
        <ele>-41.799999237061</ele>
        <time>2020-08-30T08:26:21.000Z</time>
      </trkpt>
      <trkpt lat="47.29986" lon="-2.28066">
        <ele>-41.799999237061</ele>
        <time>2020-08-30T08:26:23.000Z</time>
      </trkpt>
      <trkpt lat="47.29971" lon="-2.28116">
        <ele>-41.799999237061</ele>
        <time>2020-08-30T08:26:31.000Z</time>
      </trkpt>
      <trkpt lat="47.29964" lon="-2.28142">
        <ele>-41.799999237061</ele>
        <time>2020-08-30T08:26:35.000Z</time>
      </trkpt>
      <trkpt lat="47.29952" lon="-2.28183">
        <ele>-41.799999237061</ele>
        <time>2020-08-30T08:26:41.000Z</time>
      </trkpt>
      <trkpt lat="47.29947" lon="-2.28207">
        <ele>-41.799999237061</ele>
        <time>2020-08-30T08:26:44.000Z</time>
      </trkpt>
      <trkpt lat="47.29948" lon="-2.2822">
        <ele>-41.799999237061</ele>
        <time>2020-08-30T08:26:46.000Z</time>
      </trkpt>
      <trkpt lat="47.29949" lon="-2.28244">
        <ele>-41.799999237061</ele>
        <time>2020-08-30T08:26:49.000Z</time>
      </trkpt>
      <trkpt lat="47.29949" lon="-2.2826">
        <ele>-41.799999237061</ele>
        <time>2020-08-30T08:26:51.000Z</time>
      </trkpt>
      <trkpt lat="47.29951" lon="-2.28278">
        <ele>-41.799999237061</ele>
        <time>2020-08-30T08:26:53.000Z</time>
      </trkpt>
      <trkpt lat="47.2995" lon="-2.28306">
        <ele>-41.799999237061</ele>
        <time>2020-08-30T08:26:56.000Z</time>
      </trkpt>
      <trkpt lat="47.29949" lon="-2.2834">
        <ele>-41.799999237061</ele>
        <time>2020-08-30T08:27:00.000Z</time>
      </trkpt>
      <trkpt lat="47.29949" lon="-2.28349">
        <ele>-41.799999237061</ele>
        <time>2020-08-30T08:27:01.000Z</time>
      </trkpt>
      <trkpt lat="47.29948" lon="-2.28374">
        <ele>-41.799999237061</ele>
        <time>2020-08-30T08:27:04.000Z</time>
      </trkpt>
      <trkpt lat="47.29949" lon="-2.28383">
        <ele>-41.799999237061</ele>
        <time>2020-08-30T08:27:05.000Z</time>
      </trkpt>
      <trkpt lat="47.29949" lon="-2.28409">
        <ele>-41.799999237061</ele>
        <time>2020-08-30T08:27:08.000Z</time>
      </trkpt>
      <trkpt lat="47.29947" lon="-2.28416">
        <ele>-41.799999237061</ele>
        <time>2020-08-30T08:27:09.000Z</time>
      </trkpt>
      <trkpt lat="47.2994" lon="-2.28432">
        <ele>-41.799999237061</ele>
        <time>2020-08-30T08:27:12.000Z</time>
      </trkpt>
      <trkpt lat="47.29938" lon="-2.28459">
        <ele>-41.799999237061</ele>
        <time>2020-08-30T08:27:16.000Z</time>
      </trkpt>
      <trkpt lat="47.29938" lon="-2.28467">
        <ele>-41.799999237061</ele>
        <time>2020-08-30T08:27:17.000Z</time>
      </trkpt>
      <trkpt lat="47.29935" lon="-2.28495">
        <ele>-41.799999237061</ele>
        <time>2020-08-30T08:27:20.000Z</time>
      </trkpt>
      <trkpt lat="47.29932" lon="-2.28507">
        <ele>-41.799999237061</ele>
        <time>2020-08-30T08:27:21.000Z</time>
      </trkpt>
      <trkpt lat="47.29927" lon="-2.28534">
        <ele>-41.799999237061</ele>
        <time>2020-08-30T08:27:24.000Z</time>
      </trkpt>
      <trkpt lat="47.29929" lon="-2.28542">
        <ele>-41.799999237061</ele>
        <time>2020-08-30T08:27:25.000Z</time>
      </trkpt>
      <trkpt lat="47.29938" lon="-2.28557">
        <ele>-41.799999237061</ele>
        <time>2020-08-30T08:27:28.000Z</time>
      </trkpt>
      <trkpt lat="47.29942" lon="-2.28574">
        <ele>-41.799999237061</ele>
        <time>2020-08-30T08:27:31.000Z</time>
      </trkpt>
      <trkpt lat="47.29938" lon="-2.28597">
        <ele>-41.799999237061</ele>
        <time>2020-08-30T08:27:34.000Z</time>
      </trkpt>
      <trkpt lat="47.29936" lon="-2.28605">
        <ele>-41.799999237061</ele>
        <time>2020-08-30T08:27:35.000Z</time>
      </trkpt>
      <trkpt lat="47.29931" lon="-2.28635">
        <ele>-41.799999237061</ele>
        <time>2020-08-30T08:27:38.000Z</time>
      </trkpt>
      <trkpt lat="47.29928" lon="-2.28645">
        <ele>-41.799999237061</ele>
        <time>2020-08-30T08:27:39.000Z</time>
      </trkpt>
      <trkpt lat="47.29913" lon="-2.28706">
        <ele>-41.799999237061</ele>
        <time>2020-08-30T08:27:45.000Z</time>
      </trkpt>
      <trkpt lat="47.29904" lon="-2.28749">
        <ele>-41.799999237061</ele>
        <time>2020-08-30T08:27:49.000Z</time>
      </trkpt>
      <trkpt lat="47.29901" lon="-2.28771">
        <ele>-41.799999237061</ele>
        <time>2020-08-30T08:27:51.000Z</time>
      </trkpt>
      <trkpt lat="47.29897" lon="-2.28793">
        <ele>-41.799999237061</ele>
        <time>2020-08-30T08:27:53.000Z</time>
      </trkpt>
      <trkpt lat="47.29894" lon="-2.28821">
        <ele>-41.799999237061</ele>
        <time>2020-08-30T08:27:56.000Z</time>
      </trkpt>
      <trkpt lat="47.29887" lon="-2.28855">
        <ele>-42.200000762939</ele>
        <time>2020-08-30T08:28:00.000Z</time>
      </trkpt>
      <trkpt lat="47.29886" lon="-2.28864">
        <ele>-42.599998474121</ele>
        <time>2020-08-30T08:28:01.000Z</time>
      </trkpt>
      <trkpt lat="47.29885" lon="-2.28872">
        <ele>-43.200000762939</ele>
        <time>2020-08-30T08:28:02.000Z</time>
      </trkpt>
      <trkpt lat="47.29884" lon="-2.2888">
        <ele>-43.599998474121</ele>
        <time>2020-08-30T08:28:03.000Z</time>
      </trkpt>
      <trkpt lat="47.29881" lon="-2.28887">
        <ele>-44</ele>
        <time>2020-08-30T08:28:04.000Z</time>
      </trkpt>
      <trkpt lat="47.29875" lon="-2.289">
        <ele>-44</ele>
        <time>2020-08-30T08:28:06.000Z</time>
      </trkpt>
      <trkpt lat="47.29875" lon="-2.28921">
        <ele>-44</ele>
        <time>2020-08-30T08:28:09.000Z</time>
      </trkpt>
      <trkpt lat="47.29871" lon="-2.28935">
        <ele>-44</ele>
        <time>2020-08-30T08:28:12.000Z</time>
      </trkpt>
      <trkpt lat="47.29872" lon="-2.28939">
        <ele>-44.400001525879</ele>
        <time>2020-08-30T08:28:14.000Z</time>
      </trkpt>
      <trkpt lat="47.29873" lon="-2.2894">
        <ele>-44.799999237061</ele>
        <time>2020-08-30T08:28:15.000Z</time>
      </trkpt>
      <trkpt lat="47.29874" lon="-2.28941">
        <ele>-45.200000762939</ele>
        <time>2020-08-30T08:28:16.000Z</time>
      </trkpt>
      <trkpt lat="47.29874" lon="-2.28943">
        <ele>-45.599998474121</ele>
        <time>2020-08-30T08:28:17.000Z</time>
      </trkpt>
      <trkpt lat="47.29874" lon="-2.28945">
        <ele>-46</ele>
        <time>2020-08-30T08:28:18.000Z</time>
      </trkpt>
      <trkpt lat="47.29871" lon="-2.28945">
        <ele>-46</ele>
        <time>2020-08-30T08:28:20.000Z</time>
      </trkpt>
      <trkpt lat="47.29872" lon="-2.28941">
        <ele>-46</ele>
        <time>2020-08-30T08:28:23.000Z</time>
      </trkpt>
      <trkpt lat="47.29886" lon="-2.28946">
        <ele>-46</ele>
        <time>2020-08-30T08:28:27.000Z</time>
      </trkpt>
      <trkpt lat="47.29911" lon="-2.28951">
        <ele>-46</ele>
        <time>2020-08-30T08:28:32.000Z</time>
      </trkpt>
      <trkpt lat="47.29915" lon="-2.28953">
        <ele>-46</ele>
        <time>2020-08-30T08:28:33.000Z</time>
      </trkpt>
      <trkpt lat="47.29919" lon="-2.28956">
        <ele>-46</ele>
        <time>2020-08-30T08:28:34.000Z</time>
      </trkpt>
      <trkpt lat="47.29928" lon="-2.2897">
        <ele>-46</ele>
        <time>2020-08-30T08:28:37.000Z</time>
      </trkpt>
      <trkpt lat="47.29935" lon="-2.28981">
        <ele>-46</ele>
        <time>2020-08-30T08:28:39.000Z</time>
      </trkpt>
      <trkpt lat="47.29947" lon="-2.29">
        <ele>-46</ele>
        <time>2020-08-30T08:28:42.000Z</time>
      </trkpt>
      <trkpt lat="47.29976" lon="-2.29051">
        <ele>-46</ele>
        <time>2020-08-30T08:28:49.000Z</time>
      </trkpt>
      <trkpt lat="47.29984" lon="-2.29063">
        <ele>-46</ele>
        <time>2020-08-30T08:28:51.000Z</time>
      </trkpt>
      <trkpt lat="47.2999" lon="-2.29076">
        <ele>-46</ele>
        <time>2020-08-30T08:28:53.000Z</time>
      </trkpt>
      <trkpt lat="47.29994" lon="-2.29082">
        <ele>-46</ele>
        <time>2020-08-30T08:28:54.000Z</time>
      </trkpt>
      <trkpt lat="47.30009" lon="-2.29097">
        <ele>-46</ele>
        <time>2020-08-30T08:28:57.000Z</time>
      </trkpt>
      <trkpt lat="47.30046" lon="-2.29126">
        <ele>-46</ele>
        <time>2020-08-30T08:29:04.000Z</time>
      </trkpt>
      <trkpt lat="47.30051" lon="-2.29129">
        <ele>-46</ele>
        <time>2020-08-30T08:29:05.000Z</time>
      </trkpt>
      <trkpt lat="47.30061" lon="-2.29126">
        <ele>-46</ele>
        <time>2020-08-30T08:29:07.000Z</time>
      </trkpt>
      <trkpt lat="47.30072" lon="-2.29113">
        <ele>-46</ele>
        <time>2020-08-30T08:29:10.000Z</time>
      </trkpt>
      <trkpt lat="47.30085" lon="-2.291">
        <ele>-46</ele>
        <time>2020-08-30T08:29:15.000Z</time>
      </trkpt>
      <trkpt lat="47.30098" lon="-2.29088">
        <ele>-46</ele>
        <time>2020-08-30T08:29:21.000Z</time>
      </trkpt>
      <trkpt lat="47.3011" lon="-2.29074">
        <ele>-46</ele>
        <time>2020-08-30T08:29:27.000Z</time>
      </trkpt>
      <trkpt lat="47.30121" lon="-2.29062">
        <ele>-46</ele>
        <time>2020-08-30T08:29:33.000Z</time>
      </trkpt>
      <trkpt lat="47.30134" lon="-2.29052">
        <ele>-46</ele>
        <time>2020-08-30T08:29:39.000Z</time>
      </trkpt>
      <trkpt lat="47.30142" lon="-2.29042">
        <ele>-46</ele>
        <time>2020-08-30T08:29:43.000Z</time>
      </trkpt>
      <trkpt lat="47.30144" lon="-2.29039">
        <ele>-46</ele>
        <time>2020-08-30T08:29:44.000Z</time>
      </trkpt>
      <trkpt lat="47.30158" lon="-2.29024">
        <ele>-46</ele>
        <time>2020-08-30T08:29:49.000Z</time>
      </trkpt>
      <trkpt lat="47.3017" lon="-2.29009">
        <ele>-46</ele>
        <time>2020-08-30T08:29:55.000Z</time>
      </trkpt>
      <trkpt lat="47.30186" lon="-2.28983">
        <ele>-46</ele>
        <time>2020-08-30T08:30:02.000Z</time>
      </trkpt>
      <trkpt lat="47.30207" lon="-2.28958">
        <ele>-46</ele>
        <time>2020-08-30T08:30:08.000Z</time>
      </trkpt>
      <trkpt lat="47.30226" lon="-2.28942">
        <ele>-46</ele>
        <time>2020-08-30T08:30:13.000Z</time>
      </trkpt>
      <trkpt lat="47.30234" lon="-2.28938">
        <ele>-46</ele>
        <time>2020-08-30T08:30:15.000Z</time>
      </trkpt>
      <trkpt lat="47.30266" lon="-2.28926">
        <ele>-46</ele>
        <time>2020-08-30T08:30:22.000Z</time>
      </trkpt>
      <trkpt lat="47.30295" lon="-2.28916">
        <ele>-46</ele>
        <time>2020-08-30T08:30:28.000Z</time>
      </trkpt>
      <trkpt lat="47.30332" lon="-2.28903">
        <ele>-46</ele>
        <time>2020-08-30T08:30:35.000Z</time>
      </trkpt>
      <trkpt lat="47.30344" lon="-2.28903">
        <ele>-46</ele>
        <time>2020-08-30T08:30:37.000Z</time>
      </trkpt>
      <trkpt lat="47.30355" lon="-2.28905">
        <ele>-46</ele>
        <time>2020-08-30T08:30:39.000Z</time>
      </trkpt>
      <trkpt lat="47.30366" lon="-2.2891">
        <ele>-46</ele>
        <time>2020-08-30T08:30:41.000Z</time>
      </trkpt>
      <trkpt lat="47.30376" lon="-2.28915">
        <ele>-46.799999237061</ele>
        <time>2020-08-30T08:30:43.000Z</time>
      </trkpt>
      <trkpt lat="47.30382" lon="-2.28917">
        <ele>-47.400001525879</ele>
        <time>2020-08-30T08:30:44.000Z</time>
      </trkpt>
      <trkpt lat="47.30387" lon="-2.2892">
        <ele>-47.799999237061</ele>
        <time>2020-08-30T08:30:45.000Z</time>
      </trkpt>
      <trkpt lat="47.30391" lon="-2.28923">
        <ele>-48.200000762939</ele>
        <time>2020-08-30T08:30:46.000Z</time>
      </trkpt>
      <trkpt lat="47.3042" lon="-2.28938">
        <ele>-48.200000762939</ele>
        <time>2020-08-30T08:30:52.000Z</time>
      </trkpt>
      <trkpt lat="47.30454" lon="-2.28959">
        <ele>-48.200000762939</ele>
        <time>2020-08-30T08:30:59.000Z</time>
      </trkpt>
      <trkpt lat="47.30481" lon="-2.28985">
        <ele>-48.599998474121</ele>
        <time>2020-08-30T08:31:05.000Z</time>
      </trkpt>
      <trkpt lat="47.30485" lon="-2.28989">
        <ele>-49</ele>
        <time>2020-08-30T08:31:06.000Z</time>
      </trkpt>
      <trkpt lat="47.3049" lon="-2.28993">
        <ele>-49.799999237061</ele>
        <time>2020-08-30T08:31:07.000Z</time>
      </trkpt>
      <trkpt lat="47.30494" lon="-2.28993">
        <ele>-50.200000762939</ele>
        <time>2020-08-30T08:31:08.000Z</time>
      </trkpt>
      <trkpt lat="47.30498" lon="-2.28991">
        <ele>-50.200000762939</ele>
        <time>2020-08-30T08:31:09.000Z</time>
      </trkpt>
      <trkpt lat="47.30511" lon="-2.28976">
        <ele>-50.200000762939</ele>
        <time>2020-08-30T08:31:13.000Z</time>
      </trkpt>
      <trkpt lat="47.30514" lon="-2.28972">
        <ele>-50.200000762939</ele>
        <time>2020-08-30T08:31:14.000Z</time>
      </trkpt>
      <trkpt lat="47.30528" lon="-2.28964">
        <ele>-50.200000762939</ele>
        <time>2020-08-30T08:31:17.000Z</time>
      </trkpt>
      <trkpt lat="47.30533" lon="-2.28962">
        <ele>-50.200000762939</ele>
        <time>2020-08-30T08:31:18.000Z</time>
      </trkpt>
      <trkpt lat="47.30537" lon="-2.28959">
        <ele>-50.200000762939</ele>
        <time>2020-08-30T08:31:19.000Z</time>
      </trkpt>
      <trkpt lat="47.30549" lon="-2.28949">
        <ele>-50.200000762939</ele>
        <time>2020-08-30T08:31:22.000Z</time>
      </trkpt>
      <trkpt lat="47.30557" lon="-2.28941">
        <ele>-50.200000762939</ele>
        <time>2020-08-30T08:31:24.000Z</time>
      </trkpt>
      <trkpt lat="47.30567" lon="-2.28931">
        <ele>-50.200000762939</ele>
        <time>2020-08-30T08:31:27.000Z</time>
      </trkpt>
      <trkpt lat="47.30587" lon="-2.28915">
        <ele>-50.200000762939</ele>
        <time>2020-08-30T08:31:33.000Z</time>
      </trkpt>
      <trkpt lat="47.30612" lon="-2.289">
        <ele>-50.200000762939</ele>
        <time>2020-08-30T08:31:39.000Z</time>
      </trkpt>
      <trkpt lat="47.30624" lon="-2.28893">
        <ele>-49.799999237061</ele>
        <time>2020-08-30T08:31:42.000Z</time>
      </trkpt>
      <trkpt lat="47.30628" lon="-2.2889">
        <ele>-49.400001525879</ele>
        <time>2020-08-30T08:31:43.000Z</time>
      </trkpt>
      <trkpt lat="47.30632" lon="-2.28887">
        <ele>-49</ele>
        <time>2020-08-30T08:31:44.000Z</time>
      </trkpt>
      <trkpt lat="47.30636" lon="-2.28885">
        <ele>-48.599998474121</ele>
        <time>2020-08-30T08:31:45.000Z</time>
      </trkpt>
      <trkpt lat="47.3064" lon="-2.28883">
        <ele>-48.200000762939</ele>
        <time>2020-08-30T08:31:46.000Z</time>
      </trkpt>
      <trkpt lat="47.30672" lon="-2.28863">
        <ele>-48.200000762939</ele>
        <time>2020-08-30T08:31:54.000Z</time>
      </trkpt>
      <trkpt lat="47.30684" lon="-2.28854">
        <ele>-47.599998474121</ele>
        <time>2020-08-30T08:31:57.000Z</time>
      </trkpt>
      <trkpt lat="47.30688" lon="-2.2885">
        <ele>-47.200000762939</ele>
        <time>2020-08-30T08:31:58.000Z</time>
      </trkpt>
      <trkpt lat="47.30692" lon="-2.28847">
        <ele>-46.799999237061</ele>
        <time>2020-08-30T08:31:59.000Z</time>
      </trkpt>
      <trkpt lat="47.30696" lon="-2.28844">
        <ele>-46.200000762939</ele>
        <time>2020-08-30T08:32:00.000Z</time>
      </trkpt>
      <trkpt lat="47.30701" lon="-2.28841">
        <ele>-45.799999237061</ele>
        <time>2020-08-30T08:32:01.000Z</time>
      </trkpt>
      <trkpt lat="47.30716" lon="-2.28833">
        <ele>-45.799999237061</ele>
        <time>2020-08-30T08:32:04.000Z</time>
      </trkpt>
      <trkpt lat="47.30726" lon="-2.2883">
        <ele>-45.799999237061</ele>
        <time>2020-08-30T08:32:06.000Z</time>
      </trkpt>
      <trkpt lat="47.30768" lon="-2.28821">
        <ele>-45.799999237061</ele>
        <time>2020-08-30T08:32:13.000Z</time>
      </trkpt>
      <trkpt lat="47.30817" lon="-2.28815">
        <ele>-46.200000762939</ele>
        <time>2020-08-30T08:32:20.000Z</time>
      </trkpt>
      <trkpt lat="47.30824" lon="-2.28817">
        <ele>-47</ele>
        <time>2020-08-30T08:32:21.000Z</time>
      </trkpt>
      <trkpt lat="47.30832" lon="-2.28818">
        <ele>-47.400001525879</ele>
        <time>2020-08-30T08:32:22.000Z</time>
      </trkpt>
      <trkpt lat="47.3084" lon="-2.28819">
        <ele>-47.799999237061</ele>
        <time>2020-08-30T08:32:23.000Z</time>
      </trkpt>
      <trkpt lat="47.30863" lon="-2.28822">
        <ele>-47.799999237061</ele>
        <time>2020-08-30T08:32:26.000Z</time>
      </trkpt>
      <trkpt lat="47.30906" lon="-2.28821">
        <ele>-48.400001525879</ele>
        <time>2020-08-30T08:32:31.000Z</time>
      </trkpt>
      <trkpt lat="47.30914" lon="-2.2882">
        <ele>-48.799999237061</ele>
        <time>2020-08-30T08:32:32.000Z</time>
      </trkpt>
      <trkpt lat="47.30922" lon="-2.2882">
        <ele>-49.200000762939</ele>
        <time>2020-08-30T08:32:33.000Z</time>
      </trkpt>
      <trkpt lat="47.30929" lon="-2.28821">
        <ele>-49.599998474121</ele>
        <time>2020-08-30T08:32:34.000Z</time>
      </trkpt>
      <trkpt lat="47.30936" lon="-2.28821">
        <ele>-50</ele>
        <time>2020-08-30T08:32:35.000Z</time>
      </trkpt>
      <trkpt lat="47.30948" lon="-2.28822">
        <ele>-50</ele>
        <time>2020-08-30T08:32:37.000Z</time>
      </trkpt>
      <trkpt lat="47.30963" lon="-2.2882">
        <ele>-50</ele>
        <time>2020-08-30T08:32:40.000Z</time>
      </trkpt>
      <trkpt lat="47.30968" lon="-2.28818">
        <ele>-50</ele>
        <time>2020-08-30T08:32:41.000Z</time>
      </trkpt>
      <trkpt lat="47.30977" lon="-2.28815">
        <ele>-49.599998474121</ele>
        <time>2020-08-30T08:32:43.000Z</time>
      </trkpt>
      <trkpt lat="47.30982" lon="-2.28813">
        <ele>-49.200000762939</ele>
        <time>2020-08-30T08:32:44.000Z</time>
      </trkpt>
      <trkpt lat="47.30987" lon="-2.2881">
        <ele>-48.799999237061</ele>
        <time>2020-08-30T08:32:45.000Z</time>
      </trkpt>
      <trkpt lat="47.30992" lon="-2.28809">
        <ele>-47.799999237061</ele>
        <time>2020-08-30T08:32:46.000Z</time>
      </trkpt>
      <trkpt lat="47.31007" lon="-2.28808">
        <ele>-47.400001525879</ele>
        <time>2020-08-30T08:32:49.000Z</time>
      </trkpt>
      <trkpt lat="47.31012" lon="-2.2881">
        <ele>-47</ele>
        <time>2020-08-30T08:32:50.000Z</time>
      </trkpt>
      <trkpt lat="47.31016" lon="-2.28813">
        <ele>-46.599998474121</ele>
        <time>2020-08-30T08:32:51.000Z</time>
      </trkpt>
      <trkpt lat="47.3102" lon="-2.28817">
        <ele>-46.200000762939</ele>
        <time>2020-08-30T08:32:52.000Z</time>
      </trkpt>
      <trkpt lat="47.31024" lon="-2.28821">
        <ele>-45.799999237061</ele>
        <time>2020-08-30T08:32:53.000Z</time>
      </trkpt>
      <trkpt lat="47.31028" lon="-2.28825">
        <ele>-45.799999237061</ele>
        <time>2020-08-30T08:32:54.000Z</time>
      </trkpt>
      <trkpt lat="47.31038" lon="-2.28834">
        <ele>-45.799999237061</ele>
        <time>2020-08-30T08:32:56.000Z</time>
      </trkpt>
      <trkpt lat="47.31064" lon="-2.28853">
        <ele>-45.799999237061</ele>
        <time>2020-08-30T08:33:01.000Z</time>
      </trkpt>
      <trkpt lat="47.31103" lon="-2.28883">
        <ele>-45.799999237061</ele>
        <time>2020-08-30T08:33:08.000Z</time>
      </trkpt>
      <trkpt lat="47.31114" lon="-2.28893">
        <ele>-46.200000762939</ele>
        <time>2020-08-30T08:33:10.000Z</time>
      </trkpt>
      <trkpt lat="47.31119" lon="-2.28898">
        <ele>-47.200000762939</ele>
        <time>2020-08-30T08:33:11.000Z</time>
      </trkpt>
      <trkpt lat="47.31124" lon="-2.28903">
        <ele>-47.599998474121</ele>
        <time>2020-08-30T08:33:12.000Z</time>
      </trkpt>
      <trkpt lat="47.3113" lon="-2.28906">
        <ele>-48</ele>
        <time>2020-08-30T08:33:13.000Z</time>
      </trkpt>
      <trkpt lat="47.31136" lon="-2.28908">
        <ele>-48</ele>
        <time>2020-08-30T08:33:14.000Z</time>
      </trkpt>
      <trkpt lat="47.31153" lon="-2.28901">
        <ele>-48</ele>
        <time>2020-08-30T08:33:17.000Z</time>
      </trkpt>
      <trkpt lat="47.31167" lon="-2.28894">
        <ele>-48.400001525879</ele>
        <time>2020-08-30T08:33:20.000Z</time>
      </trkpt>
      <trkpt lat="47.31171" lon="-2.28894">
        <ele>-48.799999237061</ele>
        <time>2020-08-30T08:33:21.000Z</time>
      </trkpt>
      <trkpt lat="47.31175" lon="-2.28895">
        <ele>-49.200000762939</ele>
        <time>2020-08-30T08:33:22.000Z</time>
      </trkpt>
      <trkpt lat="47.31177" lon="-2.28899">
        <ele>-49.599998474121</ele>
        <time>2020-08-30T08:33:23.000Z</time>
      </trkpt>
      <trkpt lat="47.31179" lon="-2.28904">
        <ele>-50</ele>
        <time>2020-08-30T08:33:24.000Z</time>
      </trkpt>
      <trkpt lat="47.31181" lon="-2.2891">
        <ele>-50</ele>
        <time>2020-08-30T08:33:25.000Z</time>
      </trkpt>
      <trkpt lat="47.31185" lon="-2.28925">
        <ele>-50</ele>
        <time>2020-08-30T08:33:27.000Z</time>
      </trkpt>
      <trkpt lat="47.31189" lon="-2.28941">
        <ele>-50</ele>
        <time>2020-08-30T08:33:29.000Z</time>
      </trkpt>
      <trkpt lat="47.31193" lon="-2.28966">
        <ele>-50</ele>
        <time>2020-08-30T08:33:32.000Z</time>
      </trkpt>
      <trkpt lat="47.31197" lon="-2.28991">
        <ele>-50</ele>
        <time>2020-08-30T08:33:35.000Z</time>
      </trkpt>
      <trkpt lat="47.31204" lon="-2.2905">
        <ele>-50</ele>
        <time>2020-08-30T08:33:42.000Z</time>
      </trkpt>
      <trkpt lat="47.31205" lon="-2.29059">
        <ele>-49.599998474121</ele>
        <time>2020-08-30T08:33:43.000Z</time>
      </trkpt>
      <trkpt lat="47.31206" lon="-2.29067">
        <ele>-49.200000762939</ele>
        <time>2020-08-30T08:33:44.000Z</time>
      </trkpt>
      <trkpt lat="47.31206" lon="-2.29075">
        <ele>-48.799999237061</ele>
        <time>2020-08-30T08:33:45.000Z</time>
      </trkpt>
      <trkpt lat="47.31207" lon="-2.29084">
        <ele>-48.400001525879</ele>
        <time>2020-08-30T08:33:46.000Z</time>
      </trkpt>
      <trkpt lat="47.31209" lon="-2.29092">
        <ele>-47.799999237061</ele>
        <time>2020-08-30T08:33:47.000Z</time>
      </trkpt>
      <trkpt lat="47.31212" lon="-2.29119">
        <ele>-47.799999237061</ele>
        <time>2020-08-30T08:33:50.000Z</time>
      </trkpt>
      <trkpt lat="47.31224" lon="-2.29186">
        <ele>-47.799999237061</ele>
        <time>2020-08-30T08:33:57.000Z</time>
      </trkpt>
      <trkpt lat="47.31242" lon="-2.29253">
        <ele>-47.799999237061</ele>
        <time>2020-08-30T08:34:04.000Z</time>
      </trkpt>
      <trkpt lat="47.31255" lon="-2.29304">
        <ele>-47.799999237061</ele>
        <time>2020-08-30T08:34:10.000Z</time>
      </trkpt>
      <trkpt lat="47.31259" lon="-2.29319">
        <ele>-47.799999237061</ele>
        <time>2020-08-30T08:34:12.000Z</time>
      </trkpt>
      <trkpt lat="47.31264" lon="-2.29339">
        <ele>-47.799999237061</ele>
        <time>2020-08-30T08:34:15.000Z</time>
      </trkpt>
      <trkpt lat="47.31274" lon="-2.29338">
        <ele>-47.799999237061</ele>
        <time>2020-08-30T08:34:18.000Z</time>
      </trkpt>
      <trkpt lat="47.31283" lon="-2.29321">
        <ele>-47.799999237061</ele>
        <time>2020-08-30T08:34:21.000Z</time>
      </trkpt>
      <trkpt lat="47.31286" lon="-2.29316">
        <ele>-47.799999237061</ele>
        <time>2020-08-30T08:34:22.000Z</time>
      </trkpt>
      <trkpt lat="47.31302" lon="-2.29298">
        <ele>-47.799999237061</ele>
        <time>2020-08-30T08:34:26.000Z</time>
      </trkpt>
      <trkpt lat="47.31307" lon="-2.29296">
        <ele>-47.799999237061</ele>
        <time>2020-08-30T08:34:27.000Z</time>
      </trkpt>
      <trkpt lat="47.31321" lon="-2.29293">
        <ele>-47.799999237061</ele>
        <time>2020-08-30T08:34:30.000Z</time>
      </trkpt>
      <trkpt lat="47.31332" lon="-2.29296">
        <ele>-47.799999237061</ele>
        <time>2020-08-30T08:34:32.000Z</time>
      </trkpt>
      <trkpt lat="47.31374" lon="-2.29315">
        <ele>-47.400001525879</ele>
        <time>2020-08-30T08:34:40.000Z</time>
      </trkpt>
      <trkpt lat="47.3138" lon="-2.29317">
        <ele>-47</ele>
        <time>2020-08-30T08:34:41.000Z</time>
      </trkpt>
      <trkpt lat="47.31385" lon="-2.29319">
        <ele>-46.599998474121</ele>
        <time>2020-08-30T08:34:42.000Z</time>
      </trkpt>
      <trkpt lat="47.3139" lon="-2.29322">
        <ele>-46.200000762939</ele>
        <time>2020-08-30T08:34:43.000Z</time>
      </trkpt>
      <trkpt lat="47.31395" lon="-2.29325">
        <ele>-45.799999237061</ele>
        <time>2020-08-30T08:34:44.000Z</time>
      </trkpt>
      <trkpt lat="47.3141" lon="-2.29337">
        <ele>-45.799999237061</ele>
        <time>2020-08-30T08:34:47.000Z</time>
      </trkpt>
      <trkpt lat="47.31418" lon="-2.29347">
        <ele>-45.799999237061</ele>
        <time>2020-08-30T08:34:49.000Z</time>
      </trkpt>
      <trkpt lat="47.31433" lon="-2.29371">
        <ele>-45.799999237061</ele>
        <time>2020-08-30T08:34:53.000Z</time>
      </trkpt>
      <trkpt lat="47.31447" lon="-2.29392">
        <ele>-45.799999237061</ele>
        <time>2020-08-30T08:34:57.000Z</time>
      </trkpt>
      <trkpt lat="47.3146" lon="-2.29402">
        <ele>-45.799999237061</ele>
        <time>2020-08-30T08:35:00.000Z</time>
      </trkpt>
      <trkpt lat="47.31469" lon="-2.29401">
        <ele>-45.400001525879</ele>
        <time>2020-08-30T08:35:02.000Z</time>
      </trkpt>
      <trkpt lat="47.31474" lon="-2.29398">
        <ele>-45</ele>
        <time>2020-08-30T08:35:03.000Z</time>
      </trkpt>
      <trkpt lat="47.31479" lon="-2.29397">
        <ele>-44.599998474121</ele>
        <time>2020-08-30T08:35:04.000Z</time>
      </trkpt>
      <trkpt lat="47.31484" lon="-2.29396">
        <ele>-44.200000762939</ele>
        <time>2020-08-30T08:35:05.000Z</time>
      </trkpt>
      <trkpt lat="47.31489" lon="-2.29394">
        <ele>-43.799999237061</ele>
        <time>2020-08-30T08:35:06.000Z</time>
      </trkpt>
      <trkpt lat="47.31494" lon="-2.29394">
        <ele>-43.799999237061</ele>
        <time>2020-08-30T08:35:07.000Z</time>
      </trkpt>
      <trkpt lat="47.31503" lon="-2.29397">
        <ele>-43.799999237061</ele>
        <time>2020-08-30T08:35:09.000Z</time>
      </trkpt>
      <trkpt lat="47.31512" lon="-2.2941">
        <ele>-43.799999237061</ele>
        <time>2020-08-30T08:35:12.000Z</time>
      </trkpt>
      <trkpt lat="47.31515" lon="-2.29416">
        <ele>-43.799999237061</ele>
        <time>2020-08-30T08:35:13.000Z</time>
      </trkpt>
      <trkpt lat="47.3152" lon="-2.29429">
        <ele>-43.400001525879</ele>
        <time>2020-08-30T08:35:15.000Z</time>
      </trkpt>
      <trkpt lat="47.31523" lon="-2.29436">
        <ele>-43</ele>
        <time>2020-08-30T08:35:16.000Z</time>
      </trkpt>
      <trkpt lat="47.31525" lon="-2.29442">
        <ele>-42.599998474121</ele>
        <time>2020-08-30T08:35:17.000Z</time>
      </trkpt>
      <trkpt lat="47.31528" lon="-2.29449">
        <ele>-42.200000762939</ele>
        <time>2020-08-30T08:35:18.000Z</time>
      </trkpt>
      <trkpt lat="47.31531" lon="-2.29454">
        <ele>-41.799999237061</ele>
        <time>2020-08-30T08:35:19.000Z</time>
      </trkpt>
      <trkpt lat="47.3154" lon="-2.29489">
        <ele>-41.799999237061</ele>
        <time>2020-08-30T08:35:24.000Z</time>
      </trkpt>
      <trkpt lat="47.31549" lon="-2.29527">
        <ele>-41.799999237061</ele>
        <time>2020-08-30T08:35:29.000Z</time>
      </trkpt>
      <trkpt lat="47.31552" lon="-2.29534">
        <ele>-41.799999237061</ele>
        <time>2020-08-30T08:35:30.000Z</time>
      </trkpt>
      <trkpt lat="47.31561" lon="-2.29553">
        <ele>-41.799999237061</ele>
        <time>2020-08-30T08:35:33.000Z</time>
      </trkpt>
      <trkpt lat="47.31568" lon="-2.29565">
        <ele>-41.799999237061</ele>
        <time>2020-08-30T08:35:35.000Z</time>
      </trkpt>
      <trkpt lat="47.31584" lon="-2.2959">
        <ele>-41.400001525879</ele>
        <time>2020-08-30T08:35:39.000Z</time>
      </trkpt>
      <trkpt lat="47.31588" lon="-2.29592">
        <ele>-40.599998474121</ele>
        <time>2020-08-30T08:35:40.000Z</time>
      </trkpt>
      <trkpt lat="47.31592" lon="-2.29594">
        <ele>-40.200000762939</ele>
        <time>2020-08-30T08:35:41.000Z</time>
      </trkpt>
      <trkpt lat="47.31595" lon="-2.29595">
        <ele>-39.799999237061</ele>
        <time>2020-08-30T08:35:42.000Z</time>
      </trkpt>
      <trkpt lat="47.31602" lon="-2.296">
        <ele>-39.799999237061</ele>
        <time>2020-08-30T08:35:44.000Z</time>
      </trkpt>
      <trkpt lat="47.31606" lon="-2.29605">
        <ele>-39.799999237061</ele>
        <time>2020-08-30T08:35:45.000Z</time>
      </trkpt>
      <trkpt lat="47.3161" lon="-2.29608">
        <ele>-39.799999237061</ele>
        <time>2020-08-30T08:35:46.000Z</time>
      </trkpt>
      <trkpt lat="47.31614" lon="-2.29614">
        <ele>-39.799999237061</ele>
        <time>2020-08-30T08:35:47.000Z</time>
      </trkpt>
      <trkpt lat="47.31624" lon="-2.29633">
        <ele>-39.799999237061</ele>
        <time>2020-08-30T08:35:50.000Z</time>
      </trkpt>
      <trkpt lat="47.31627" lon="-2.2964">
        <ele>-39.799999237061</ele>
        <time>2020-08-30T08:35:51.000Z</time>
      </trkpt>
      <trkpt lat="47.3165" lon="-2.29696">
        <ele>-39.799999237061</ele>
        <time>2020-08-30T08:35:59.000Z</time>
      </trkpt>
      <trkpt lat="47.31661" lon="-2.29727">
        <ele>-39.799999237061</ele>
        <time>2020-08-30T08:36:03.000Z</time>
      </trkpt>
      <trkpt lat="47.31665" lon="-2.29733">
        <ele>-39.799999237061</ele>
        <time>2020-08-30T08:36:04.000Z</time>
      </trkpt>
      <trkpt lat="47.31681" lon="-2.29734">
        <ele>-39.799999237061</ele>
        <time>2020-08-30T08:36:07.000Z</time>
      </trkpt>
      <trkpt lat="47.31696" lon="-2.2973">
        <ele>-39.799999237061</ele>
        <time>2020-08-30T08:36:10.000Z</time>
      </trkpt>
      <trkpt lat="47.31701" lon="-2.29729">
        <ele>-39.799999237061</ele>
        <time>2020-08-30T08:36:11.000Z</time>
      </trkpt>
      <trkpt lat="47.31705" lon="-2.29727">
        <ele>-39.799999237061</ele>
        <time>2020-08-30T08:36:12.000Z</time>
      </trkpt>
      <trkpt lat="47.31711" lon="-2.29724">
        <ele>-39.400001525879</ele>
        <time>2020-08-30T08:36:13.000Z</time>
      </trkpt>
      <trkpt lat="47.31716" lon="-2.29721">
        <ele>-38.799999237061</ele>
        <time>2020-08-30T08:36:14.000Z</time>
      </trkpt>
      <trkpt lat="47.31721" lon="-2.29717">
        <ele>-38.400001525879</ele>
        <time>2020-08-30T08:36:15.000Z</time>
      </trkpt>
      <trkpt lat="47.31726" lon="-2.29713">
        <ele>-38</ele>
        <time>2020-08-30T08:36:16.000Z</time>
      </trkpt>
      <trkpt lat="47.31732" lon="-2.29708">
        <ele>-37.599998474121</ele>
        <time>2020-08-30T08:36:17.000Z</time>
      </trkpt>
      <trkpt lat="47.31766" lon="-2.29683">
        <ele>-37.599998474121</ele>
        <time>2020-08-30T08:36:23.000Z</time>
      </trkpt>
      <trkpt lat="47.31803" lon="-2.29656">
        <ele>-37.599998474121</ele>
        <time>2020-08-30T08:36:30.000Z</time>
      </trkpt>
      <trkpt lat="47.31831" lon="-2.29639">
        <ele>-37.599998474121</ele>
        <time>2020-08-30T08:36:36.000Z</time>
      </trkpt>
      <trkpt lat="47.31836" lon="-2.29637">
        <ele>-38</ele>
        <time>2020-08-30T08:36:37.000Z</time>
      </trkpt>
      <trkpt lat="47.3184" lon="-2.29635">
        <ele>-38.599998474121</ele>
        <time>2020-08-30T08:36:38.000Z</time>
      </trkpt>
      <trkpt lat="47.31843" lon="-2.29633">
        <ele>-39</ele>
        <time>2020-08-30T08:36:39.000Z</time>
      </trkpt>
      <trkpt lat="47.31845" lon="-2.29631">
        <ele>-39.400001525879</ele>
        <time>2020-08-30T08:36:40.000Z</time>
      </trkpt>
      <trkpt lat="47.31848" lon="-2.2963">
        <ele>-39.799999237061</ele>
        <time>2020-08-30T08:36:41.000Z</time>
      </trkpt>
      <trkpt lat="47.31851" lon="-2.29629">
        <ele>-39.799999237061</ele>
        <time>2020-08-30T08:36:42.000Z</time>
      </trkpt>
      <trkpt lat="47.31861" lon="-2.29617">
        <ele>-39.799999237061</ele>
        <time>2020-08-30T08:36:47.000Z</time>
      </trkpt>
      <trkpt lat="47.31874" lon="-2.29606">
        <ele>-39.799999237061</ele>
        <time>2020-08-30T08:36:54.000Z</time>
      </trkpt>
      <trkpt lat="47.3188" lon="-2.29602">
        <ele>-39.799999237061</ele>
        <time>2020-08-30T08:36:57.000Z</time>
      </trkpt>
      <trkpt lat="47.31881" lon="-2.29603">
        <ele>-40.200000762939</ele>
        <time>2020-08-30T08:36:58.000Z</time>
      </trkpt>
      <trkpt lat="47.31881" lon="-2.29603">
        <ele>-40.599998474121</ele>
        <time>2020-08-30T08:36:59.000Z</time>
      </trkpt>
      <trkpt lat="47.3188" lon="-2.29601">
        <ele>-41.799999237061</ele>
        <time>2020-08-30T08:38:41.000Z</time>
      </trkpt>
      <trkpt lat="47.3188" lon="-2.29599">
        <ele>-41.799999237061</ele>
        <time>2020-08-30T08:38:42.000Z</time>
      </trkpt>
      <trkpt lat="47.31876" lon="-2.29582">
        <ele>-41.799999237061</ele>
        <time>2020-08-30T08:38:48.000Z</time>
      </trkpt>
      <trkpt lat="47.31871" lon="-2.29564">
        <ele>-41.799999237061</ele>
        <time>2020-08-30T08:38:53.000Z</time>
      </trkpt>
      <trkpt lat="47.31862" lon="-2.29537">
        <ele>-41.799999237061</ele>
        <time>2020-08-30T08:38:59.000Z</time>
      </trkpt>
      <trkpt lat="47.31852" lon="-2.29506">
        <ele>-41.799999237061</ele>
        <time>2020-08-30T08:39:05.000Z</time>
      </trkpt>
      <trkpt lat="47.31846" lon="-2.29476">
        <ele>-41.799999237061</ele>
        <time>2020-08-30T08:39:11.000Z</time>
      </trkpt>
      <trkpt lat="47.3185" lon="-2.29439">
        <ele>-41.799999237061</ele>
        <time>2020-08-30T08:39:17.000Z</time>
      </trkpt>
      <trkpt lat="47.31851" lon="-2.29432">
        <ele>-41.799999237061</ele>
        <time>2020-08-30T08:39:18.000Z</time>
      </trkpt>
      <trkpt lat="47.31851" lon="-2.29409">
        <ele>-41.799999237061</ele>
        <time>2020-08-30T08:39:21.000Z</time>
      </trkpt>
      <trkpt lat="47.3185" lon="-2.29401">
        <ele>-41.799999237061</ele>
        <time>2020-08-30T08:39:22.000Z</time>
      </trkpt>
      <trkpt lat="47.31848" lon="-2.29386">
        <ele>-41.799999237061</ele>
        <time>2020-08-30T08:39:24.000Z</time>
      </trkpt>
      <trkpt lat="47.31841" lon="-2.2936">
        <ele>-41.799999237061</ele>
        <time>2020-08-30T08:39:28.000Z</time>
      </trkpt>
      <trkpt lat="47.31839" lon="-2.29353">
        <ele>-41.799999237061</ele>
        <time>2020-08-30T08:39:29.000Z</time>
      </trkpt>
      <trkpt lat="47.31834" lon="-2.29321">
        <ele>-41.799999237061</ele>
        <time>2020-08-30T08:39:34.000Z</time>
      </trkpt>
      <trkpt lat="47.31829" lon="-2.29271">
        <ele>-41.799999237061</ele>
        <time>2020-08-30T08:39:41.000Z</time>
      </trkpt>
      <trkpt lat="47.31826" lon="-2.29247">
        <ele>-42.400001525879</ele>
        <time>2020-08-30T08:39:45.000Z</time>
      </trkpt>
      <trkpt lat="47.31825" lon="-2.29244">
        <ele>-42.799999237061</ele>
        <time>2020-08-30T08:39:46.000Z</time>
      </trkpt>
      <trkpt lat="47.31824" lon="-2.29242">
        <ele>-43.799999237061</ele>
        <time>2020-08-30T08:39:47.000Z</time>
      </trkpt>
      <trkpt lat="47.31824" lon="-2.2924">
        <ele>-44.200000762939</ele>
        <time>2020-08-30T08:39:48.000Z</time>
      </trkpt>
      <trkpt lat="47.31824" lon="-2.2924">
        <ele>-44.200000762939</ele>
        <time>2020-08-30T08:39:49.000Z</time>
      </trkpt>
      <trkpt lat="47.31824" lon="-2.29231">
        <ele>-46.400001525879</ele>
        <time>2020-08-30T08:51:58.000Z</time>
      </trkpt>
      <trkpt lat="47.31824" lon="-2.29223">
        <ele>-46.400001525879</ele>
        <time>2020-08-30T08:52:01.000Z</time>
      </trkpt>
      <trkpt lat="47.31824" lon="-2.29197">
        <ele>-46.400001525879</ele>
        <time>2020-08-30T08:52:07.000Z</time>
      </trkpt>
      <trkpt lat="47.31828" lon="-2.29158">
        <ele>-46.400001525879</ele>
        <time>2020-08-30T08:52:13.000Z</time>
      </trkpt>
      <trkpt lat="47.31829" lon="-2.29151">
        <ele>-46.400001525879</ele>
        <time>2020-08-30T08:52:14.000Z</time>
      </trkpt>
      <trkpt lat="47.31835" lon="-2.29106">
        <ele>-46.799999237061</ele>
        <time>2020-08-30T08:52:20.000Z</time>
      </trkpt>
      <trkpt lat="47.31836" lon="-2.29099">
        <ele>-47.200000762939</ele>
        <time>2020-08-30T08:52:21.000Z</time>
      </trkpt>
      <trkpt lat="47.31837" lon="-2.29091">
        <ele>-47.599998474121</ele>
        <time>2020-08-30T08:52:22.000Z</time>
      </trkpt>
      <trkpt lat="47.31838" lon="-2.29083">
        <ele>-48</ele>
        <time>2020-08-30T08:52:23.000Z</time>
      </trkpt>
      <trkpt lat="47.31839" lon="-2.29076">
        <ele>-48.400001525879</ele>
        <time>2020-08-30T08:52:24.000Z</time>
      </trkpt>
      <trkpt lat="47.31844" lon="-2.29055">
        <ele>-48.400001525879</ele>
        <time>2020-08-30T08:52:27.000Z</time>
      </trkpt>
      <trkpt lat="47.31855" lon="-2.28999">
        <ele>-48.400001525879</ele>
        <time>2020-08-30T08:52:35.000Z</time>
      </trkpt>
      <trkpt lat="47.31858" lon="-2.28979">
        <ele>-48.400001525879</ele>
        <time>2020-08-30T08:52:38.000Z</time>
      </trkpt>
      <trkpt lat="47.31859" lon="-2.28966">
        <ele>-48.400001525879</ele>
        <time>2020-08-30T08:52:40.000Z</time>
      </trkpt>
      <trkpt lat="47.31861" lon="-2.28949">
        <ele>-48.799999237061</ele>
        <time>2020-08-30T08:52:43.000Z</time>
      </trkpt>
      <trkpt lat="47.31863" lon="-2.28947">
        <ele>-49.200000762939</ele>
        <time>2020-08-30T08:52:44.000Z</time>
      </trkpt>
      <trkpt lat="47.31866" lon="-2.28946">
        <ele>-49.599998474121</ele>
        <time>2020-08-30T08:52:45.000Z</time>
      </trkpt>
      <trkpt lat="47.31869" lon="-2.28944">
        <ele>-50</ele>
        <time>2020-08-30T08:52:46.000Z</time>
      </trkpt>
      <trkpt lat="47.31872" lon="-2.28944">
        <ele>-50.400001525879</ele>
        <time>2020-08-30T08:52:47.000Z</time>
      </trkpt>
      <trkpt lat="47.31875" lon="-2.28944">
        <ele>-50.400001525879</ele>
        <time>2020-08-30T08:52:48.000Z</time>
      </trkpt>
      <trkpt lat="47.31883" lon="-2.28943">
        <ele>-50.400001525879</ele>
        <time>2020-08-30T08:52:50.000Z</time>
      </trkpt>
      <trkpt lat="47.31901" lon="-2.28937">
        <ele>-50.400001525879</ele>
        <time>2020-08-30T08:52:54.000Z</time>
      </trkpt>
      <trkpt lat="47.31909" lon="-2.2893">
        <ele>-50.400001525879</ele>
        <time>2020-08-30T08:52:56.000Z</time>
      </trkpt>
      <trkpt lat="47.3193" lon="-2.2891">
        <ele>-50.400001525879</ele>
        <time>2020-08-30T08:53:02.000Z</time>
      </trkpt>
      <trkpt lat="47.31943" lon="-2.289">
        <ele>-50.400001525879</ele>
        <time>2020-08-30T08:53:07.000Z</time>
      </trkpt>
      <trkpt lat="47.31945" lon="-2.28897">
        <ele>-51</ele>
        <time>2020-08-30T08:53:09.000Z</time>
      </trkpt>
      <trkpt lat="47.31947" lon="-2.28896">
        <ele>-51.400001525879</ele>
        <time>2020-08-30T08:53:10.000Z</time>
      </trkpt>
      <trkpt lat="47.31949" lon="-2.28895">
        <ele>-51.799999237061</ele>
        <time>2020-08-30T08:53:11.000Z</time>
      </trkpt>
      <trkpt lat="47.31952" lon="-2.28894">
        <ele>-52.200000762939</ele>
        <time>2020-08-30T08:53:12.000Z</time>
      </trkpt>
      <trkpt lat="47.31955" lon="-2.28893">
        <ele>-52.599998474121</ele>
        <time>2020-08-30T08:53:13.000Z</time>
      </trkpt>
      <trkpt lat="47.31976" lon="-2.28887">
        <ele>-52.599998474121</ele>
        <time>2020-08-30T08:53:18.000Z</time>
      </trkpt>
      <trkpt lat="47.31996" lon="-2.28883">
        <ele>-52.599998474121</ele>
        <time>2020-08-30T08:53:22.000Z</time>
      </trkpt>
      <trkpt lat="47.32006" lon="-2.28879">
        <ele>-52.599998474121</ele>
        <time>2020-08-30T08:53:24.000Z</time>
      </trkpt>
      <trkpt lat="47.32033" lon="-2.28869">
        <ele>-52.599998474121</ele>
        <time>2020-08-30T08:53:30.000Z</time>
      </trkpt>
      <trkpt lat="47.32037" lon="-2.28871">
        <ele>-52.599998474121</ele>
        <time>2020-08-30T08:53:31.000Z</time>
      </trkpt>
      <trkpt lat="47.32042" lon="-2.28887">
        <ele>-52.599998474121</ele>
        <time>2020-08-30T08:53:34.000Z</time>
      </trkpt>
      <trkpt lat="47.32042" lon="-2.28894">
        <ele>-52.599998474121</ele>
        <time>2020-08-30T08:53:35.000Z</time>
      </trkpt>
      <trkpt lat="47.32047" lon="-2.28927">
        <ele>-52.599998474121</ele>
        <time>2020-08-30T08:53:40.000Z</time>
      </trkpt>
      <trkpt lat="47.32048" lon="-2.28933">
        <ele>-52.599998474121</ele>
        <time>2020-08-30T08:53:41.000Z</time>
      </trkpt>
      <trkpt lat="47.32059" lon="-2.28945">
        <ele>-52.599998474121</ele>
        <time>2020-08-30T08:53:44.000Z</time>
      </trkpt>
      <trkpt lat="47.32062" lon="-2.28947">
        <ele>-52.599998474121</ele>
        <time>2020-08-30T08:53:45.000Z</time>
      </trkpt>
      <trkpt lat="47.32077" lon="-2.28956">
        <ele>-52.599998474121</ele>
        <time>2020-08-30T08:53:49.000Z</time>
      </trkpt>
      <trkpt lat="47.32094" lon="-2.28968">
        <ele>-52.599998474121</ele>
        <time>2020-08-30T08:53:53.000Z</time>
      </trkpt>
      <trkpt lat="47.32106" lon="-2.28981">
        <ele>-52.599998474121</ele>
        <time>2020-08-30T08:53:56.000Z</time>
      </trkpt>
      <trkpt lat="47.32109" lon="-2.28986">
        <ele>-52.599998474121</ele>
        <time>2020-08-30T08:53:57.000Z</time>
      </trkpt>
      <trkpt lat="47.32112" lon="-2.28991">
        <ele>-52.200000762939</ele>
        <time>2020-08-30T08:53:58.000Z</time>
      </trkpt>
      <trkpt lat="47.32115" lon="-2.28995">
        <ele>-51.599998474121</ele>
        <time>2020-08-30T08:53:59.000Z</time>
      </trkpt>
      <trkpt lat="47.32117" lon="-2.29">
        <ele>-51.200000762939</ele>
        <time>2020-08-30T08:54:00.000Z</time>
      </trkpt>
      <trkpt lat="47.3212" lon="-2.29004">
        <ele>-50.799999237061</ele>
        <time>2020-08-30T08:54:01.000Z</time>
      </trkpt>
      <trkpt lat="47.32122" lon="-2.29009">
        <ele>-50.400001525879</ele>
        <time>2020-08-30T08:54:02.000Z</time>
      </trkpt>
      <trkpt lat="47.32125" lon="-2.29015">
        <ele>-50.400001525879</ele>
        <time>2020-08-30T08:54:03.000Z</time>
      </trkpt>
      <trkpt lat="47.32133" lon="-2.29034">
        <ele>-50.400001525879</ele>
        <time>2020-08-30T08:54:06.000Z</time>
      </trkpt>
      <trkpt lat="47.32147" lon="-2.29069">
        <ele>-50.400001525879</ele>
        <time>2020-08-30T08:54:12.000Z</time>
      </trkpt>
      <trkpt lat="47.32159" lon="-2.29094">
        <ele>-50.400001525879</ele>
        <time>2020-08-30T08:54:17.000Z</time>
      </trkpt>
      <trkpt lat="47.32167" lon="-2.29104">
        <ele>-50.400001525879</ele>
        <time>2020-08-30T08:54:19.000Z</time>
      </trkpt>
      <trkpt lat="47.3219" lon="-2.2913">
        <ele>-50.400001525879</ele>
        <time>2020-08-30T08:54:24.000Z</time>
      </trkpt>
      <trkpt lat="47.32195" lon="-2.29136">
        <ele>-50.400001525879</ele>
        <time>2020-08-30T08:54:25.000Z</time>
      </trkpt>
      <trkpt lat="47.32227" lon="-2.29176">
        <ele>-50.400001525879</ele>
        <time>2020-08-30T08:54:32.000Z</time>
      </trkpt>
      <trkpt lat="47.32237" lon="-2.29194">
        <ele>-50.400001525879</ele>
        <time>2020-08-30T08:54:35.000Z</time>
      </trkpt>
      <trkpt lat="47.32247" lon="-2.29212">
        <ele>-50.400001525879</ele>
        <time>2020-08-30T08:54:38.000Z</time>
      </trkpt>
      <trkpt lat="47.32256" lon="-2.29219">
        <ele>-50.400001525879</ele>
        <time>2020-08-30T08:54:41.000Z</time>
      </trkpt>
      <trkpt lat="47.32274" lon="-2.29217">
        <ele>-50.400001525879</ele>
        <time>2020-08-30T08:54:45.000Z</time>
      </trkpt>
      <trkpt lat="47.32289" lon="-2.29214">
        <ele>-50.400001525879</ele>
        <time>2020-08-30T08:54:48.000Z</time>
      </trkpt>
      <trkpt lat="47.32299" lon="-2.29214">
        <ele>-50.400001525879</ele>
        <time>2020-08-30T08:54:50.000Z</time>
      </trkpt>
      <trkpt lat="47.32304" lon="-2.29215">
        <ele>-50.400001525879</ele>
        <time>2020-08-30T08:54:51.000Z</time>
      </trkpt>
      <trkpt lat="47.32314" lon="-2.29218">
        <ele>-50.400001525879</ele>
        <time>2020-08-30T08:54:53.000Z</time>
      </trkpt>
      <trkpt lat="47.32333" lon="-2.29228">
        <ele>-50.400001525879</ele>
        <time>2020-08-30T08:54:57.000Z</time>
      </trkpt>
      <trkpt lat="47.32377" lon="-2.2925">
        <ele>-50.400001525879</ele>
        <time>2020-08-30T08:55:05.000Z</time>
      </trkpt>
      <trkpt lat="47.32407" lon="-2.2927">
        <ele>-50.400001525879</ele>
        <time>2020-08-30T08:55:11.000Z</time>
      </trkpt>
      <trkpt lat="47.3241" lon="-2.29277">
        <ele>-50.400001525879</ele>
        <time>2020-08-30T08:55:12.000Z</time>
      </trkpt>
      <trkpt lat="47.32418" lon="-2.2931">
        <ele>-50.400001525879</ele>
        <time>2020-08-30T08:55:16.000Z</time>
      </trkpt>
      <trkpt lat="47.32419" lon="-2.29318">
        <ele>-50.400001525879</ele>
        <time>2020-08-30T08:55:17.000Z</time>
      </trkpt>
      <trkpt lat="47.32424" lon="-2.29363">
        <ele>-50.400001525879</ele>
        <time>2020-08-30T08:55:22.000Z</time>
      </trkpt>
      <trkpt lat="47.32431" lon="-2.29412">
        <ele>-50.400001525879</ele>
        <time>2020-08-30T08:55:28.000Z</time>
      </trkpt>
      <trkpt lat="47.32437" lon="-2.2944">
        <ele>-50.400001525879</ele>
        <time>2020-08-30T08:55:32.000Z</time>
      </trkpt>
      <trkpt lat="47.32439" lon="-2.29456">
        <ele>-50.400001525879</ele>
        <time>2020-08-30T08:55:34.000Z</time>
      </trkpt>
      <trkpt lat="47.32441" lon="-2.29472">
        <ele>-50</ele>
        <time>2020-08-30T08:55:36.000Z</time>
      </trkpt>
      <trkpt lat="47.32443" lon="-2.29479">
        <ele>-49.599998474121</ele>
        <time>2020-08-30T08:55:37.000Z</time>
      </trkpt>
      <trkpt lat="47.32445" lon="-2.29487">
        <ele>-49.200000762939</ele>
        <time>2020-08-30T08:55:38.000Z</time>
      </trkpt>
      <trkpt lat="47.32447" lon="-2.29494">
        <ele>-48.599998474121</ele>
        <time>2020-08-30T08:55:39.000Z</time>
      </trkpt>
      <trkpt lat="47.32449" lon="-2.29501">
        <ele>-48.200000762939</ele>
        <time>2020-08-30T08:55:40.000Z</time>
      </trkpt>
      <trkpt lat="47.32463" lon="-2.2954">
        <ele>-48.200000762939</ele>
        <time>2020-08-30T08:55:46.000Z</time>
      </trkpt>
      <trkpt lat="47.32465" lon="-2.29547">
        <ele>-47.799999237061</ele>
        <time>2020-08-30T08:55:47.000Z</time>
      </trkpt>
      <trkpt lat="47.32466" lon="-2.29553">
        <ele>-47.400001525879</ele>
        <time>2020-08-30T08:55:48.000Z</time>
      </trkpt>
      <trkpt lat="47.32468" lon="-2.29559">
        <ele>-47</ele>
        <time>2020-08-30T08:55:49.000Z</time>
      </trkpt>
      <trkpt lat="47.3247" lon="-2.29565">
        <ele>-46.599998474121</ele>
        <time>2020-08-30T08:55:50.000Z</time>
      </trkpt>
      <trkpt lat="47.32472" lon="-2.29571">
        <ele>-46.200000762939</ele>
        <time>2020-08-30T08:55:51.000Z</time>
      </trkpt>
      <trkpt lat="47.32477" lon="-2.29582">
        <ele>-46.200000762939</ele>
        <time>2020-08-30T08:55:53.000Z</time>
      </trkpt>
      <trkpt lat="47.32479" lon="-2.29587">
        <ele>-46.200000762939</ele>
        <time>2020-08-30T08:55:54.000Z</time>
      </trkpt>
      <trkpt lat="47.32481" lon="-2.29592">
        <ele>-45.799999237061</ele>
        <time>2020-08-30T08:55:55.000Z</time>
      </trkpt>
      <trkpt lat="47.32483" lon="-2.29598">
        <ele>-45.400001525879</ele>
        <time>2020-08-30T08:55:56.000Z</time>
      </trkpt>
      <trkpt lat="47.32484" lon="-2.29603">
        <ele>-44.799999237061</ele>
        <time>2020-08-30T08:55:57.000Z</time>
      </trkpt>
      <trkpt lat="47.32486" lon="-2.2961">
        <ele>-44.400001525879</ele>
        <time>2020-08-30T08:55:58.000Z</time>
      </trkpt>
      <trkpt lat="47.32487" lon="-2.29616">
        <ele>-44</ele>
        <time>2020-08-30T08:55:59.000Z</time>
      </trkpt>
      <trkpt lat="47.32493" lon="-2.2964">
        <ele>-43.599998474121</ele>
        <time>2020-08-30T08:56:03.000Z</time>
      </trkpt>
      <trkpt lat="47.32495" lon="-2.29646">
        <ele>-43</ele>
        <time>2020-08-30T08:56:04.000Z</time>
      </trkpt>
      <trkpt lat="47.32496" lon="-2.29652">
        <ele>-42.599998474121</ele>
        <time>2020-08-30T08:56:05.000Z</time>
      </trkpt>
      <trkpt lat="47.32497" lon="-2.29658">
        <ele>-42.200000762939</ele>
        <time>2020-08-30T08:56:06.000Z</time>
      </trkpt>
      <trkpt lat="47.32499" lon="-2.29664">
        <ele>-41.799999237061</ele>
        <time>2020-08-30T08:56:07.000Z</time>
      </trkpt>
      <trkpt lat="47.32506" lon="-2.29693">
        <ele>-41.799999237061</ele>
        <time>2020-08-30T08:56:12.000Z</time>
      </trkpt>
      <trkpt lat="47.32509" lon="-2.29705">
        <ele>-41.400001525879</ele>
        <time>2020-08-30T08:56:14.000Z</time>
      </trkpt>
      <trkpt lat="47.3251" lon="-2.29711">
        <ele>-41</ele>
        <time>2020-08-30T08:56:15.000Z</time>
      </trkpt>
      <trkpt lat="47.32512" lon="-2.29718">
        <ele>-40.200000762939</ele>
        <time>2020-08-30T08:56:16.000Z</time>
      </trkpt>
      <trkpt lat="47.32513" lon="-2.29724">
        <ele>-39.799999237061</ele>
        <time>2020-08-30T08:56:17.000Z</time>
      </trkpt>
      <trkpt lat="47.32515" lon="-2.29731">
        <ele>-39.799999237061</ele>
        <time>2020-08-30T08:56:18.000Z</time>
      </trkpt>
      <trkpt lat="47.32523" lon="-2.29764">
        <ele>-39.799999237061</ele>
        <time>2020-08-30T08:56:24.000Z</time>
      </trkpt>
      <trkpt lat="47.32526" lon="-2.29786">
        <ele>-39.799999237061</ele>
        <time>2020-08-30T08:56:29.000Z</time>
      </trkpt>
      <trkpt lat="47.32517" lon="-2.29801">
        <ele>-39.799999237061</ele>
        <time>2020-08-30T08:56:33.000Z</time>
      </trkpt>
      <trkpt lat="47.32514" lon="-2.29804">
        <ele>-39.799999237061</ele>
        <time>2020-08-30T08:56:34.000Z</time>
      </trkpt>
      <trkpt lat="47.32496" lon="-2.29821">
        <ele>-39.799999237061</ele>
        <time>2020-08-30T08:56:39.000Z</time>
      </trkpt>
      <trkpt lat="47.32485" lon="-2.29829">
        <ele>-39.799999237061</ele>
        <time>2020-08-30T08:56:42.000Z</time>
      </trkpt>
      <trkpt lat="47.32482" lon="-2.29833">
        <ele>-39.799999237061</ele>
        <time>2020-08-30T08:56:43.000Z</time>
      </trkpt>
      <trkpt lat="47.32458" lon="-2.29854">
        <ele>-39.799999237061</ele>
        <time>2020-08-30T08:56:50.000Z</time>
      </trkpt>
      <trkpt lat="47.32443" lon="-2.29874">
        <ele>-39.799999237061</ele>
        <time>2020-08-30T08:56:55.000Z</time>
      </trkpt>
      <trkpt lat="47.32442" lon="-2.2988">
        <ele>-39.799999237061</ele>
        <time>2020-08-30T08:56:56.000Z</time>
      </trkpt>
      <trkpt lat="47.32444" lon="-2.29898">
        <ele>-39.799999237061</ele>
        <time>2020-08-30T08:57:00.000Z</time>
      </trkpt>
      <trkpt lat="47.32445" lon="-2.29903">
        <ele>-39.799999237061</ele>
        <time>2020-08-30T08:57:01.000Z</time>
      </trkpt>
      <trkpt lat="47.3245" lon="-2.29927">
        <ele>-39.799999237061</ele>
        <time>2020-08-30T08:57:08.000Z</time>
      </trkpt>
      <trkpt lat="47.32451" lon="-2.29935">
        <ele>-39.799999237061</ele>
        <time>2020-08-30T08:57:13.000Z</time>
      </trkpt>
      <trkpt lat="47.32452" lon="-2.2994">
        <ele>-39.799999237061</ele>
        <time>2020-08-30T08:57:15.000Z</time>
      </trkpt>
      <trkpt lat="47.3245" lon="-2.29944">
        <ele>-39.799999237061</ele>
        <time>2020-08-30T08:57:18.000Z</time>
      </trkpt>
      <trkpt lat="47.32449" lon="-2.29946">
        <ele>-39.799999237061</ele>
        <time>2020-08-30T08:57:19.000Z</time>
      </trkpt>
      <trkpt lat="47.32446" lon="-2.2995">
        <ele>-39.799999237061</ele>
        <time>2020-08-30T08:57:21.000Z</time>
      </trkpt>
      <trkpt lat="47.32446" lon="-2.29957">
        <ele>-39.799999237061</ele>
        <time>2020-08-30T08:57:23.000Z</time>
      </trkpt>
      <trkpt lat="47.32455" lon="-2.29973">
        <ele>-39.799999237061</ele>
        <time>2020-08-30T08:57:27.000Z</time>
      </trkpt>
      <trkpt lat="47.32457" lon="-2.29977">
        <ele>-39.799999237061</ele>
        <time>2020-08-30T08:57:28.000Z</time>
      </trkpt>
      <trkpt lat="47.32473" lon="-2.30006">
        <ele>-39.799999237061</ele>
        <time>2020-08-30T08:57:34.000Z</time>
      </trkpt>
      <trkpt lat="47.32481" lon="-2.3003">
        <ele>-39.799999237061</ele>
        <time>2020-08-30T08:57:38.000Z</time>
      </trkpt>
      <trkpt lat="47.32483" lon="-2.30036">
        <ele>-39.799999237061</ele>
        <time>2020-08-30T08:57:39.000Z</time>
      </trkpt>
      <trkpt lat="47.32489" lon="-2.30053">
        <ele>-39.799999237061</ele>
        <time>2020-08-30T08:57:42.000Z</time>
      </trkpt>
      <trkpt lat="47.32492" lon="-2.30064">
        <ele>-39.799999237061</ele>
        <time>2020-08-30T08:57:44.000Z</time>
      </trkpt>
      <trkpt lat="47.32495" lon="-2.30077">
        <ele>-39.799999237061</ele>
        <time>2020-08-30T08:57:46.000Z</time>
      </trkpt>
      <trkpt lat="47.32496" lon="-2.30098">
        <ele>-39.799999237061</ele>
        <time>2020-08-30T08:57:49.000Z</time>
      </trkpt>
      <trkpt lat="47.32497" lon="-2.30117">
        <ele>-39.799999237061</ele>
        <time>2020-08-30T08:57:52.000Z</time>
      </trkpt>
      <trkpt lat="47.32498" lon="-2.30131">
        <ele>-39.799999237061</ele>
        <time>2020-08-30T08:57:54.000Z</time>
      </trkpt>
      <trkpt lat="47.32504" lon="-2.30176">
        <ele>-39.799999237061</ele>
        <time>2020-08-30T08:58:00.000Z</time>
      </trkpt>
      <trkpt lat="47.32512" lon="-2.30231">
        <ele>-39.799999237061</ele>
        <time>2020-08-30T08:58:07.000Z</time>
      </trkpt>
      <trkpt lat="47.3252" lon="-2.30288">
        <ele>-39.799999237061</ele>
        <time>2020-08-30T08:58:14.000Z</time>
      </trkpt>
      <trkpt lat="47.32531" lon="-2.30341">
        <ele>-39.799999237061</ele>
        <time>2020-08-30T08:58:21.000Z</time>
      </trkpt>
      <trkpt lat="47.32535" lon="-2.30363">
        <ele>-39.799999237061</ele>
        <time>2020-08-30T08:58:24.000Z</time>
      </trkpt>
      <trkpt lat="47.32539" lon="-2.30382">
        <ele>-39.799999237061</ele>
        <time>2020-08-30T08:58:27.000Z</time>
      </trkpt>
      <trkpt lat="47.32541" lon="-2.30395">
        <ele>-39.799999237061</ele>
        <time>2020-08-30T08:58:29.000Z</time>
      </trkpt>
      <trkpt lat="47.32535" lon="-2.30404">
        <ele>-40.200000762939</ele>
        <time>2020-08-30T08:58:31.000Z</time>
      </trkpt>
      <trkpt lat="47.32532" lon="-2.30406">
        <ele>-40.599998474121</ele>
        <time>2020-08-30T08:58:32.000Z</time>
      </trkpt>
      <trkpt lat="47.32527" lon="-2.30409">
        <ele>-41</ele>
        <time>2020-08-30T08:58:33.000Z</time>
      </trkpt>
      <trkpt lat="47.32523" lon="-2.3041">
        <ele>-41.400001525879</ele>
        <time>2020-08-30T08:58:34.000Z</time>
      </trkpt>
      <trkpt lat="47.32518" lon="-2.30412">
        <ele>-42</ele>
        <time>2020-08-30T08:58:35.000Z</time>
      </trkpt>
      <trkpt lat="47.32504" lon="-2.30418">
        <ele>-42</ele>
        <time>2020-08-30T08:58:38.000Z</time>
      </trkpt>
      <trkpt lat="47.32499" lon="-2.30429">
        <ele>-42</ele>
        <time>2020-08-30T08:58:40.000Z</time>
      </trkpt>
      <trkpt lat="47.32501" lon="-2.3045">
        <ele>-42</ele>
        <time>2020-08-30T08:58:43.000Z</time>
      </trkpt>
      <trkpt lat="47.32502" lon="-2.30458">
        <ele>-42</ele>
        <time>2020-08-30T08:58:44.000Z</time>
      </trkpt>
      <trkpt lat="47.32512" lon="-2.30499">
        <ele>-42</ele>
        <time>2020-08-30T08:58:49.000Z</time>
      </trkpt>
      <trkpt lat="47.32522" lon="-2.30557">
        <ele>-42</ele>
        <time>2020-08-30T08:58:56.000Z</time>
      </trkpt>
      <trkpt lat="47.3253" lon="-2.30607">
        <ele>-42</ele>
        <time>2020-08-30T08:59:03.000Z</time>
      </trkpt>
      <trkpt lat="47.32533" lon="-2.30621">
        <ele>-42</ele>
        <time>2020-08-30T08:59:05.000Z</time>
      </trkpt>
      <trkpt lat="47.32537" lon="-2.30639">
        <ele>-42</ele>
        <time>2020-08-30T08:59:08.000Z</time>
      </trkpt>
      <trkpt lat="47.32539" lon="-2.30647">
        <ele>-42.799999237061</ele>
        <time>2020-08-30T08:59:10.000Z</time>
      </trkpt>
      <trkpt lat="47.3254" lon="-2.30652">
        <ele>-43.200000762939</ele>
        <time>2020-08-30T08:59:11.000Z</time>
      </trkpt>
      <trkpt lat="47.32541" lon="-2.30657">
        <ele>-43.599998474121</ele>
        <time>2020-08-30T08:59:12.000Z</time>
      </trkpt>
      <trkpt lat="47.32542" lon="-2.30662">
        <ele>-44</ele>
        <time>2020-08-30T08:59:13.000Z</time>
      </trkpt>
      <trkpt lat="47.32543" lon="-2.30674">
        <ele>-44</ele>
        <time>2020-08-30T08:59:15.000Z</time>
      </trkpt>
      <trkpt lat="47.32545" lon="-2.30694">
        <ele>-44</ele>
        <time>2020-08-30T08:59:18.000Z</time>
      </trkpt>
      <trkpt lat="47.32552" lon="-2.30737">
        <ele>-44</ele>
        <time>2020-08-30T08:59:23.000Z</time>
      </trkpt>
      <trkpt lat="47.3256" lon="-2.30788">
        <ele>-44</ele>
        <time>2020-08-30T08:59:29.000Z</time>
      </trkpt>
      <trkpt lat="47.32564" lon="-2.30853">
        <ele>-44</ele>
        <time>2020-08-30T08:59:37.000Z</time>
      </trkpt>
      <trkpt lat="47.32565" lon="-2.30909">
        <ele>-44</ele>
        <time>2020-08-30T08:59:44.000Z</time>
      </trkpt>
      <trkpt lat="47.32565" lon="-2.30969">
        <ele>-44</ele>
        <time>2020-08-30T08:59:52.000Z</time>
      </trkpt>
      <trkpt lat="47.32565" lon="-2.31013">
        <ele>-44</ele>
        <time>2020-08-30T08:59:58.000Z</time>
      </trkpt>
      <trkpt lat="47.32569" lon="-2.31033">
        <ele>-44</ele>
        <time>2020-08-30T09:00:01.000Z</time>
      </trkpt>
      <trkpt lat="47.32572" lon="-2.31046">
        <ele>-44</ele>
        <time>2020-08-30T09:00:03.000Z</time>
      </trkpt>
      <trkpt lat="47.32576" lon="-2.31075">
        <ele>-44</ele>
        <time>2020-08-30T09:00:07.000Z</time>
      </trkpt>
      <trkpt lat="47.32576" lon="-2.3109">
        <ele>-44</ele>
        <time>2020-08-30T09:00:09.000Z</time>
      </trkpt>
      <trkpt lat="47.32571" lon="-2.31144">
        <ele>-44</ele>
        <time>2020-08-30T09:00:15.000Z</time>
      </trkpt>
      <trkpt lat="47.32563" lon="-2.31181">
        <ele>-44</ele>
        <time>2020-08-30T09:00:19.000Z</time>
      </trkpt>
      <trkpt lat="47.32567" lon="-2.31198">
        <ele>-44</ele>
        <time>2020-08-30T09:00:21.000Z</time>
      </trkpt>
      <trkpt lat="47.32574" lon="-2.31233">
        <ele>-44</ele>
        <time>2020-08-30T09:00:25.000Z</time>
      </trkpt>
      <trkpt lat="47.32572" lon="-2.31253">
        <ele>-44</ele>
        <time>2020-08-30T09:00:27.000Z</time>
      </trkpt>
      <trkpt lat="47.3257" lon="-2.3129">
        <ele>-44</ele>
        <time>2020-08-30T09:00:31.000Z</time>
      </trkpt>
      <trkpt lat="47.3257" lon="-2.31307">
        <ele>-44</ele>
        <time>2020-08-30T09:00:33.000Z</time>
      </trkpt>
      <trkpt lat="47.32566" lon="-2.31323">
        <ele>-44</ele>
        <time>2020-08-30T09:00:35.000Z</time>
      </trkpt>
      <trkpt lat="47.3256" lon="-2.31337">
        <ele>-44</ele>
        <time>2020-08-30T09:00:37.000Z</time>
      </trkpt>
      <trkpt lat="47.32559" lon="-2.31345">
        <ele>-44</ele>
        <time>2020-08-30T09:00:38.000Z</time>
      </trkpt>
      <trkpt lat="47.32556" lon="-2.31361">
        <ele>-44</ele>
        <time>2020-08-30T09:00:40.000Z</time>
      </trkpt>
      <trkpt lat="47.32554" lon="-2.31395">
        <ele>-44</ele>
        <time>2020-08-30T09:00:45.000Z</time>
      </trkpt>
      <trkpt lat="47.32551" lon="-2.31412">
        <ele>-44</ele>
        <time>2020-08-30T09:00:49.000Z</time>
      </trkpt>
      <trkpt lat="47.32552" lon="-2.31419">
        <ele>-44</ele>
        <time>2020-08-30T09:00:50.000Z</time>
      </trkpt>
      <trkpt lat="47.32555" lon="-2.31436">
        <ele>-44</ele>
        <time>2020-08-30T09:00:53.000Z</time>
      </trkpt>
      <trkpt lat="47.3256" lon="-2.31476">
        <ele>-44</ele>
        <time>2020-08-30T09:00:59.000Z</time>
      </trkpt>
      <trkpt lat="47.3256" lon="-2.31482">
        <ele>-44</ele>
        <time>2020-08-30T09:01:00.000Z</time>
      </trkpt>
      <trkpt lat="47.3256" lon="-2.31514">
        <ele>-44</ele>
        <time>2020-08-30T09:01:04.000Z</time>
      </trkpt>
      <trkpt lat="47.32558" lon="-2.31523">
        <ele>-44</ele>
        <time>2020-08-30T09:01:05.000Z</time>
      </trkpt>
      <trkpt lat="47.32556" lon="-2.31549">
        <ele>-44</ele>
        <time>2020-08-30T09:01:08.000Z</time>
      </trkpt>
      <trkpt lat="47.32556" lon="-2.31557">
        <ele>-44</ele>
        <time>2020-08-30T09:01:09.000Z</time>
      </trkpt>
      <trkpt lat="47.32556" lon="-2.3158">
        <ele>-44</ele>
        <time>2020-08-30T09:01:12.000Z</time>
      </trkpt>
      <trkpt lat="47.32553" lon="-2.31593">
        <ele>-44</ele>
        <time>2020-08-30T09:01:14.000Z</time>
      </trkpt>
      <trkpt lat="47.32541" lon="-2.3161">
        <ele>-44</ele>
        <time>2020-08-30T09:01:17.000Z</time>
      </trkpt>
      <trkpt lat="47.32516" lon="-2.31642">
        <ele>-44</ele>
        <time>2020-08-30T09:01:23.000Z</time>
      </trkpt>
      <trkpt lat="47.32513" lon="-2.31648">
        <ele>-44</ele>
        <time>2020-08-30T09:01:24.000Z</time>
      </trkpt>
      <trkpt lat="47.32507" lon="-2.31669">
        <ele>-44</ele>
        <time>2020-08-30T09:01:27.000Z</time>
      </trkpt>
      <trkpt lat="47.32506" lon="-2.31676">
        <ele>-44</ele>
        <time>2020-08-30T09:01:28.000Z</time>
      </trkpt>
      <trkpt lat="47.32506" lon="-2.31684">
        <ele>-44</ele>
        <time>2020-08-30T09:01:29.000Z</time>
      </trkpt>
      <trkpt lat="47.32508" lon="-2.31706">
        <ele>-44</ele>
        <time>2020-08-30T09:01:32.000Z</time>
      </trkpt>
      <trkpt lat="47.32513" lon="-2.31764">
        <ele>-44</ele>
        <time>2020-08-30T09:01:39.000Z</time>
      </trkpt>
      <trkpt lat="47.32517" lon="-2.31808">
        <ele>-44</ele>
        <time>2020-08-30T09:01:45.000Z</time>
      </trkpt>
      <trkpt lat="47.32519" lon="-2.31858">
        <ele>-44</ele>
        <time>2020-08-30T09:01:50.000Z</time>
      </trkpt>
      <trkpt lat="47.32514" lon="-2.31914">
        <ele>-44</ele>
        <time>2020-08-30T09:01:56.000Z</time>
      </trkpt>
      <trkpt lat="47.32506" lon="-2.31981">
        <ele>-44</ele>
        <time>2020-08-30T09:02:03.000Z</time>
      </trkpt>
      <trkpt lat="47.32504" lon="-2.32034">
        <ele>-44</ele>
        <time>2020-08-30T09:02:09.000Z</time>
      </trkpt>
      <trkpt lat="47.32498" lon="-2.32079">
        <ele>-44</ele>
        <time>2020-08-30T09:02:15.000Z</time>
      </trkpt>
      <trkpt lat="47.325" lon="-2.32093">
        <ele>-44</ele>
        <time>2020-08-30T09:02:18.000Z</time>
      </trkpt>
      <trkpt lat="47.32503" lon="-2.32095">
        <ele>-44</ele>
        <time>2020-08-30T09:02:19.000Z</time>
      </trkpt>
      <trkpt lat="47.32514" lon="-2.32095">
        <ele>-44</ele>
        <time>2020-08-30T09:02:22.000Z</time>
      </trkpt>
      <trkpt lat="47.3252" lon="-2.32095">
        <ele>-44.400001525879</ele>
        <time>2020-08-30T09:02:24.000Z</time>
      </trkpt>
      <trkpt lat="47.32522" lon="-2.32096">
        <ele>-44.799999237061</ele>
        <time>2020-08-30T09:02:25.000Z</time>
      </trkpt>
      <trkpt lat="47.32524" lon="-2.32096">
        <ele>-45.200000762939</ele>
        <time>2020-08-30T09:02:26.000Z</time>
      </trkpt>
      <trkpt lat="47.32526" lon="-2.32097">
        <ele>-45.799999237061</ele>
        <time>2020-08-30T09:02:27.000Z</time>
      </trkpt>
      <trkpt lat="47.32529" lon="-2.32097">
        <ele>-46.200000762939</ele>
        <time>2020-08-30T09:02:28.000Z</time>
      </trkpt>
      <trkpt lat="47.3254" lon="-2.32096">
        <ele>-46.200000762939</ele>
        <time>2020-08-30T09:02:34.000Z</time>
      </trkpt>
      <trkpt lat="47.32551" lon="-2.32097">
        <ele>-46.200000762939</ele>
        <time>2020-08-30T09:02:39.000Z</time>
      </trkpt>
      <trkpt lat="47.32567" lon="-2.32096">
        <ele>-46.200000762939</ele>
        <time>2020-08-30T09:02:47.000Z</time>
      </trkpt>
      <trkpt lat="47.32576" lon="-2.32098">
        <ele>-46.200000762939</ele>
        <time>2020-08-30T09:02:52.000Z</time>
      </trkpt>
      <trkpt lat="47.32577" lon="-2.321">
        <ele>-46.200000762939</ele>
        <time>2020-08-30T09:02:53.000Z</time>
      </trkpt>
      <trkpt lat="47.3258" lon="-2.32112">
        <ele>-46.200000762939</ele>
        <time>2020-08-30T09:02:58.000Z</time>
      </trkpt>
      <trkpt lat="47.32581" lon="-2.3213">
        <ele>-46.599998474121</ele>
        <time>2020-08-30T09:03:02.000Z</time>
      </trkpt>
      <trkpt lat="47.32581" lon="-2.32136">
        <ele>-47</ele>
        <time>2020-08-30T09:03:03.000Z</time>
      </trkpt>
      <trkpt lat="47.3258" lon="-2.32141">
        <ele>-47.799999237061</ele>
        <time>2020-08-30T09:03:04.000Z</time>
      </trkpt>
      <trkpt lat="47.3258" lon="-2.32145">
        <ele>-48.200000762939</ele>
        <time>2020-08-30T09:03:05.000Z</time>
      </trkpt>
      <trkpt lat="47.32578" lon="-2.32167">
        <ele>-48.200000762939</ele>
        <time>2020-08-30T09:03:09.000Z</time>
      </trkpt>
      <trkpt lat="47.32576" lon="-2.32174">
        <ele>-48.599998474121</ele>
        <time>2020-08-30T09:03:10.000Z</time>
      </trkpt>
      <trkpt lat="47.32575" lon="-2.32181">
        <ele>-49</ele>
        <time>2020-08-30T09:03:11.000Z</time>
      </trkpt>
      <trkpt lat="47.32573" lon="-2.32189">
        <ele>-49.400001525879</ele>
        <time>2020-08-30T09:03:12.000Z</time>
      </trkpt>
      <trkpt lat="47.32571" lon="-2.32197">
        <ele>-49.799999237061</ele>
        <time>2020-08-30T09:03:13.000Z</time>
      </trkpt>
      <trkpt lat="47.32569" lon="-2.32207">
        <ele>-50.200000762939</ele>
        <time>2020-08-30T09:03:14.000Z</time>
      </trkpt>
      <trkpt lat="47.32552" lon="-2.32257">
        <ele>-50.200000762939</ele>
        <time>2020-08-30T09:03:20.000Z</time>
      </trkpt>
      <trkpt lat="47.32542" lon="-2.3229">
        <ele>-49.799999237061</ele>
        <time>2020-08-30T09:03:25.000Z</time>
      </trkpt>
      <trkpt lat="47.3254" lon="-2.32296">
        <ele>-49.400001525879</ele>
        <time>2020-08-30T09:03:26.000Z</time>
      </trkpt>
      <trkpt lat="47.32539" lon="-2.32301">
        <ele>-49</ele>
        <time>2020-08-30T09:03:27.000Z</time>
      </trkpt>
      <trkpt lat="47.3254" lon="-2.32307">
        <ele>-48.599998474121</ele>
        <time>2020-08-30T09:03:28.000Z</time>
      </trkpt>
      <trkpt lat="47.32541" lon="-2.3231">
        <ele>-48.200000762939</ele>
        <time>2020-08-30T09:03:29.000Z</time>
      </trkpt>
      <trkpt lat="47.32544" lon="-2.32312">
        <ele>-47.799999237061</ele>
        <time>2020-08-30T09:03:30.000Z</time>
      </trkpt>
      <trkpt lat="47.32557" lon="-2.32314">
        <ele>-46.400001525879</ele>
        <time>2020-08-30T09:03:31.000Z</time>
      </trkpt>
      <trkpt lat="47.32557" lon="-2.32314">
        <ele>-46.400001525879</ele>
        <time>2020-08-30T09:03:34.000Z</time>
      </trkpt>
      <trkpt lat="47.32563" lon="-2.32314">
        <ele>-46</ele>
        <time>2020-08-30T09:03:35.000Z</time>
      </trkpt>
      <trkpt lat="47.3259" lon="-2.32312">
        <ele>-46</ele>
        <time>2020-08-30T09:03:40.000Z</time>
      </trkpt>
      <trkpt lat="47.3263" lon="-2.3231">
        <ele>-46</ele>
        <time>2020-08-30T09:03:46.000Z</time>
      </trkpt>
      <trkpt lat="47.32673" lon="-2.32316">
        <ele>-46</ele>
        <time>2020-08-30T09:03:52.000Z</time>
      </trkpt>
      <trkpt lat="47.32726" lon="-2.32336">
        <ele>-46</ele>
        <time>2020-08-30T09:03:59.000Z</time>
      </trkpt>
      <trkpt lat="47.32733" lon="-2.3234">
        <ele>-46</ele>
        <time>2020-08-30T09:04:00.000Z</time>
      </trkpt>
      <trkpt lat="47.32783" lon="-2.32371">
        <ele>-46</ele>
        <time>2020-08-30T09:04:07.000Z</time>
      </trkpt>
      <trkpt lat="47.3279" lon="-2.32375">
        <ele>-46</ele>
        <time>2020-08-30T09:04:08.000Z</time>
      </trkpt>
      <trkpt lat="47.32797" lon="-2.32381">
        <ele>-46</ele>
        <time>2020-08-30T09:04:09.000Z</time>
      </trkpt>
      <trkpt lat="47.32809" lon="-2.32392">
        <ele>-46.599998474121</ele>
        <time>2020-08-30T09:04:11.000Z</time>
      </trkpt>
      <trkpt lat="47.32815" lon="-2.32399">
        <ele>-47</ele>
        <time>2020-08-30T09:04:12.000Z</time>
      </trkpt>
      <trkpt lat="47.32821" lon="-2.32405">
        <ele>-47.400001525879</ele>
        <time>2020-08-30T09:04:13.000Z</time>
      </trkpt>
      <trkpt lat="47.32827" lon="-2.32411">
        <ele>-47.799999237061</ele>
        <time>2020-08-30T09:04:14.000Z</time>
      </trkpt>
      <trkpt lat="47.32833" lon="-2.32417">
        <ele>-48.200000762939</ele>
        <time>2020-08-30T09:04:15.000Z</time>
      </trkpt>
      <trkpt lat="47.32864" lon="-2.32439">
        <ele>-48.200000762939</ele>
        <time>2020-08-30T09:04:20.000Z</time>
      </trkpt>
      <trkpt lat="47.3287" lon="-2.32442">
        <ele>-48.200000762939</ele>
        <time>2020-08-30T09:04:21.000Z</time>
      </trkpt>
      <trkpt lat="47.32889" lon="-2.32452">
        <ele>-48.200000762939</ele>
        <time>2020-08-30T09:04:24.000Z</time>
      </trkpt>
      <trkpt lat="47.32894" lon="-2.32457">
        <ele>-48.200000762939</ele>
        <time>2020-08-30T09:04:25.000Z</time>
      </trkpt>
      <trkpt lat="47.32909" lon="-2.32486">
        <ele>-48.200000762939</ele>
        <time>2020-08-30T09:04:29.000Z</time>
      </trkpt>
      <trkpt lat="47.32911" lon="-2.32495">
        <ele>-48.200000762939</ele>
        <time>2020-08-30T09:04:30.000Z</time>
      </trkpt>
      <trkpt lat="47.32921" lon="-2.32532">
        <ele>-48.200000762939</ele>
        <time>2020-08-30T09:04:34.000Z</time>
      </trkpt>
      <trkpt lat="47.32922" lon="-2.32581">
        <ele>-48.200000762939</ele>
        <time>2020-08-30T09:04:39.000Z</time>
      </trkpt>
      <trkpt lat="47.32922" lon="-2.3263">
        <ele>-48.200000762939</ele>
        <time>2020-08-30T09:04:44.000Z</time>
      </trkpt>
      <trkpt lat="47.32933" lon="-2.32644">
        <ele>-48.200000762939</ele>
        <time>2020-08-30T09:04:47.000Z</time>
      </trkpt>
      <trkpt lat="47.32947" lon="-2.32642">
        <ele>-48.200000762939</ele>
        <time>2020-08-30T09:04:49.000Z</time>
      </trkpt>
      <trkpt lat="47.32954" lon="-2.3264">
        <ele>-48.200000762939</ele>
        <time>2020-08-30T09:04:50.000Z</time>
      </trkpt>
      <trkpt lat="47.32968" lon="-2.32634">
        <ele>-48.200000762939</ele>
        <time>2020-08-30T09:04:52.000Z</time>
      </trkpt>
      <trkpt lat="47.32982" lon="-2.32626">
        <ele>-48.599998474121</ele>
        <time>2020-08-30T09:04:54.000Z</time>
      </trkpt>
      <trkpt lat="47.32989" lon="-2.32623">
        <ele>-49</ele>
        <time>2020-08-30T09:04:55.000Z</time>
      </trkpt>
      <trkpt lat="47.32996" lon="-2.32623">
        <ele>-49.400001525879</ele>
        <time>2020-08-30T09:04:56.000Z</time>
      </trkpt>
      <trkpt lat="47.33002" lon="-2.32625">
        <ele>-49.799999237061</ele>
        <time>2020-08-30T09:04:57.000Z</time>
      </trkpt>
      <trkpt lat="47.33009" lon="-2.32629">
        <ele>-50.200000762939</ele>
        <time>2020-08-30T09:04:58.000Z</time>
      </trkpt>
      <trkpt lat="47.33015" lon="-2.32632">
        <ele>-50.200000762939</ele>
        <time>2020-08-30T09:04:59.000Z</time>
      </trkpt>
      <trkpt lat="47.33021" lon="-2.32635">
        <ele>-50.200000762939</ele>
        <time>2020-08-30T09:05:00.000Z</time>
      </trkpt>
      <trkpt lat="47.33033" lon="-2.3263">
        <ele>-50.200000762939</ele>
        <time>2020-08-30T09:05:02.000Z</time>
      </trkpt>
      <trkpt lat="47.33058" lon="-2.32611">
        <ele>-50.200000762939</ele>
        <time>2020-08-30T09:05:06.000Z</time>
      </trkpt>
      <trkpt lat="47.33069" lon="-2.32604">
        <ele>-50.200000762939</ele>
        <time>2020-08-30T09:05:08.000Z</time>
      </trkpt>
      <trkpt lat="47.33085" lon="-2.32592">
        <ele>-50.200000762939</ele>
        <time>2020-08-30T09:05:11.000Z</time>
      </trkpt>
      <trkpt lat="47.33101" lon="-2.32579">
        <ele>-50.200000762939</ele>
        <time>2020-08-30T09:05:14.000Z</time>
      </trkpt>
      <trkpt lat="47.33117" lon="-2.32564">
        <ele>-50.200000762939</ele>
        <time>2020-08-30T09:05:17.000Z</time>
      </trkpt>
      <trkpt lat="47.33134" lon="-2.32552">
        <ele>-50.200000762939</ele>
        <time>2020-08-30T09:05:20.000Z</time>
      </trkpt>
      <trkpt lat="47.3315" lon="-2.32538">
        <ele>-49.799999237061</ele>
        <time>2020-08-30T09:05:23.000Z</time>
      </trkpt>
      <trkpt lat="47.33155" lon="-2.32534">
        <ele>-49.400001525879</ele>
        <time>2020-08-30T09:05:24.000Z</time>
      </trkpt>
      <trkpt lat="47.3316" lon="-2.3253">
        <ele>-49</ele>
        <time>2020-08-30T09:05:25.000Z</time>
      </trkpt>
      <trkpt lat="47.33166" lon="-2.32527">
        <ele>-48.599998474121</ele>
        <time>2020-08-30T09:05:26.000Z</time>
      </trkpt>
      <trkpt lat="47.33171" lon="-2.32523">
        <ele>-48.200000762939</ele>
        <time>2020-08-30T09:05:27.000Z</time>
      </trkpt>
      <trkpt lat="47.33176" lon="-2.32521">
        <ele>-48.200000762939</ele>
        <time>2020-08-30T09:05:28.000Z</time>
      </trkpt>
      <trkpt lat="47.33189" lon="-2.32517">
        <ele>-48.200000762939</ele>
        <time>2020-08-30T09:05:30.000Z</time>
      </trkpt>
      <trkpt lat="47.33239" lon="-2.32495">
        <ele>-47.799999237061</ele>
        <time>2020-08-30T09:05:38.000Z</time>
      </trkpt>
      <trkpt lat="47.33246" lon="-2.32492">
        <ele>-47.400001525879</ele>
        <time>2020-08-30T09:05:39.000Z</time>
      </trkpt>
      <trkpt lat="47.33252" lon="-2.32489">
        <ele>-47</ele>
        <time>2020-08-30T09:05:40.000Z</time>
      </trkpt>
      <trkpt lat="47.33258" lon="-2.32486">
        <ele>-46.599998474121</ele>
        <time>2020-08-30T09:05:41.000Z</time>
      </trkpt>
      <trkpt lat="47.33265" lon="-2.32483">
        <ele>-46.200000762939</ele>
        <time>2020-08-30T09:05:42.000Z</time>
      </trkpt>
      <trkpt lat="47.33284" lon="-2.32474">
        <ele>-46.200000762939</ele>
        <time>2020-08-30T09:05:45.000Z</time>
      </trkpt>
      <trkpt lat="47.33321" lon="-2.32458">
        <ele>-46.200000762939</ele>
        <time>2020-08-30T09:05:51.000Z</time>
      </trkpt>
      <trkpt lat="47.33327" lon="-2.32455">
        <ele>-46.200000762939</ele>
        <time>2020-08-30T09:05:52.000Z</time>
      </trkpt>
      <trkpt lat="47.33344" lon="-2.32438">
        <ele>-46.200000762939</ele>
        <time>2020-08-30T09:05:55.000Z</time>
      </trkpt>
      <trkpt lat="47.3335" lon="-2.3243">
        <ele>-46.200000762939</ele>
        <time>2020-08-30T09:05:56.000Z</time>
      </trkpt>
      <trkpt lat="47.33379" lon="-2.32401">
        <ele>-46.200000762939</ele>
        <time>2020-08-30T09:06:01.000Z</time>
      </trkpt>
      <trkpt lat="47.3341" lon="-2.32375">
        <ele>-46.599998474121</ele>
        <time>2020-08-30T09:06:06.000Z</time>
      </trkpt>
      <trkpt lat="47.33416" lon="-2.3237">
        <ele>-47</ele>
        <time>2020-08-30T09:06:07.000Z</time>
      </trkpt>
      <trkpt lat="47.33422" lon="-2.32365">
        <ele>-47.400001525879</ele>
        <time>2020-08-30T09:06:08.000Z</time>
      </trkpt>
      <trkpt lat="47.33429" lon="-2.3236">
        <ele>-47.799999237061</ele>
        <time>2020-08-30T09:06:09.000Z</time>
      </trkpt>
      <trkpt lat="47.33435" lon="-2.32355">
        <ele>-48.200000762939</ele>
        <time>2020-08-30T09:06:10.000Z</time>
      </trkpt>
      <trkpt lat="47.33466" lon="-2.32334">
        <ele>-48.200000762939</ele>
        <time>2020-08-30T09:06:15.000Z</time>
      </trkpt>
      <trkpt lat="47.33505" lon="-2.32314">
        <ele>-48.200000762939</ele>
        <time>2020-08-30T09:06:21.000Z</time>
      </trkpt>
      <trkpt lat="47.33529" lon="-2.32304">
        <ele>-48.200000762939</ele>
        <time>2020-08-30T09:06:25.000Z</time>
      </trkpt>
      <trkpt lat="47.33535" lon="-2.32304">
        <ele>-48.200000762939</ele>
        <time>2020-08-30T09:06:26.000Z</time>
      </trkpt>
      <trkpt lat="47.33559" lon="-2.32301">
        <ele>-48.200000762939</ele>
        <time>2020-08-30T09:06:30.000Z</time>
      </trkpt>
      <trkpt lat="47.33565" lon="-2.32299">
        <ele>-48.200000762939</ele>
        <time>2020-08-30T09:06:31.000Z</time>
      </trkpt>
      <trkpt lat="47.33582" lon="-2.32291">
        <ele>-48.200000762939</ele>
        <time>2020-08-30T09:06:34.000Z</time>
      </trkpt>
      <trkpt lat="47.33594" lon="-2.32289">
        <ele>-48.200000762939</ele>
        <time>2020-08-30T09:06:36.000Z</time>
      </trkpt>
      <trkpt lat="47.3363" lon="-2.32285">
        <ele>-48.200000762939</ele>
        <time>2020-08-30T09:06:42.000Z</time>
      </trkpt>
      <trkpt lat="47.33667" lon="-2.32272">
        <ele>-48.200000762939</ele>
        <time>2020-08-30T09:06:48.000Z</time>
      </trkpt>
      <trkpt lat="47.33711" lon="-2.32244">
        <ele>-48.200000762939</ele>
        <time>2020-08-30T09:06:55.000Z</time>
      </trkpt>
      <trkpt lat="47.33747" lon="-2.32223">
        <ele>-48.200000762939</ele>
        <time>2020-08-30T09:07:01.000Z</time>
      </trkpt>
      <trkpt lat="47.33785" lon="-2.32209">
        <ele>-48.200000762939</ele>
        <time>2020-08-30T09:07:07.000Z</time>
      </trkpt>
      <trkpt lat="47.33825" lon="-2.32202">
        <ele>-48.200000762939</ele>
        <time>2020-08-30T09:07:13.000Z</time>
      </trkpt>
      <trkpt lat="47.33884" lon="-2.32197">
        <ele>-48.200000762939</ele>
        <time>2020-08-30T09:07:22.000Z</time>
      </trkpt>
      <trkpt lat="47.33912" lon="-2.32197">
        <ele>-48.200000762939</ele>
        <time>2020-08-30T09:07:26.000Z</time>
      </trkpt>
      <trkpt lat="47.33926" lon="-2.32196">
        <ele>-48.200000762939</ele>
        <time>2020-08-30T09:07:28.000Z</time>
      </trkpt>
      <trkpt lat="47.33947" lon="-2.32208">
        <ele>-48.200000762939</ele>
        <time>2020-08-30T09:07:31.000Z</time>
      </trkpt>
      <trkpt lat="47.33975" lon="-2.32217">
        <ele>-48.200000762939</ele>
        <time>2020-08-30T09:07:35.000Z</time>
      </trkpt>
      <trkpt lat="47.34027" lon="-2.32215">
        <ele>-48.200000762939</ele>
        <time>2020-08-30T09:07:42.000Z</time>
      </trkpt>
      <trkpt lat="47.34061" lon="-2.32218">
        <ele>-48.200000762939</ele>
        <time>2020-08-30T09:07:47.000Z</time>
      </trkpt>
      <trkpt lat="47.34067" lon="-2.32222">
        <ele>-48.200000762939</ele>
        <time>2020-08-30T09:07:48.000Z</time>
      </trkpt>
      <trkpt lat="47.34086" lon="-2.32244">
        <ele>-48.200000762939</ele>
        <time>2020-08-30T09:07:52.000Z</time>
      </trkpt>
      <trkpt lat="47.34092" lon="-2.32259">
        <ele>-48.200000762939</ele>
        <time>2020-08-30T09:07:54.000Z</time>
      </trkpt>
      <trkpt lat="47.34101" lon="-2.32289">
        <ele>-48.200000762939</ele>
        <time>2020-08-30T09:07:58.000Z</time>
      </trkpt>
      <trkpt lat="47.34107" lon="-2.32312">
        <ele>-47.799999237061</ele>
        <time>2020-08-30T09:08:01.000Z</time>
      </trkpt>
      <trkpt lat="47.34109" lon="-2.3232">
        <ele>-47.200000762939</ele>
        <time>2020-08-30T09:08:02.000Z</time>
      </trkpt>
      <trkpt lat="47.34111" lon="-2.32326">
        <ele>-46.400001525879</ele>
        <time>2020-08-30T09:08:03.000Z</time>
      </trkpt>
      <trkpt lat="47.34113" lon="-2.32333">
        <ele>-46</ele>
        <time>2020-08-30T09:08:04.000Z</time>
      </trkpt>
      <trkpt lat="47.34115" lon="-2.3234">
        <ele>-46</ele>
        <time>2020-08-30T09:08:05.000Z</time>
      </trkpt>
      <trkpt lat="47.34131" lon="-2.32389">
        <ele>-45.599998474121</ele>
        <time>2020-08-30T09:08:12.000Z</time>
      </trkpt>
      <trkpt lat="47.34133" lon="-2.32397">
        <ele>-45.200000762939</ele>
        <time>2020-08-30T09:08:13.000Z</time>
      </trkpt>
      <trkpt lat="47.34135" lon="-2.32406">
        <ele>-44.799999237061</ele>
        <time>2020-08-30T09:08:14.000Z</time>
      </trkpt>
      <trkpt lat="47.34137" lon="-2.32414">
        <ele>-44.200000762939</ele>
        <time>2020-08-30T09:08:15.000Z</time>
      </trkpt>
      <trkpt lat="47.34139" lon="-2.32422">
        <ele>-43.799999237061</ele>
        <time>2020-08-30T09:08:16.000Z</time>
      </trkpt>
      <trkpt lat="47.34146" lon="-2.32456">
        <ele>-43.799999237061</ele>
        <time>2020-08-30T09:08:20.000Z</time>
      </trkpt>
      <trkpt lat="47.34158" lon="-2.32512">
        <ele>-43.799999237061</ele>
        <time>2020-08-30T09:08:27.000Z</time>
      </trkpt>
      <trkpt lat="47.3416" lon="-2.32549">
        <ele>-43.799999237061</ele>
        <time>2020-08-30T09:08:33.000Z</time>
      </trkpt>
      <trkpt lat="47.34162" lon="-2.32574">
        <ele>-43.799999237061</ele>
        <time>2020-08-30T09:08:39.000Z</time>
      </trkpt>
      <trkpt lat="47.34162" lon="-2.32575">
        <ele>-43.799999237061</ele>
        <time>2020-08-30T09:08:40.000Z</time>
      </trkpt>
      <trkpt lat="47.34161" lon="-2.32578">
        <ele>-43.799999237061</ele>
        <time>2020-08-30T09:11:08.000Z</time>
      </trkpt>
      <trkpt lat="47.3416" lon="-2.32581">
        <ele>-43.799999237061</ele>
        <time>2020-08-30T09:11:09.000Z</time>
      </trkpt>
      <trkpt lat="47.34155" lon="-2.32593">
        <ele>-43.799999237061</ele>
        <time>2020-08-30T09:11:13.000Z</time>
      </trkpt>
      <trkpt lat="47.34154" lon="-2.32598">
        <ele>-43.799999237061</ele>
        <time>2020-08-30T09:11:14.000Z</time>
      </trkpt>
      <trkpt lat="47.34154" lon="-2.32616">
        <ele>-43.799999237061</ele>
        <time>2020-08-30T09:11:17.000Z</time>
      </trkpt>
      <trkpt lat="47.34155" lon="-2.32628">
        <ele>-43.799999237061</ele>
        <time>2020-08-30T09:11:19.000Z</time>
      </trkpt>
      <trkpt lat="47.34159" lon="-2.3266">
        <ele>-43.799999237061</ele>
        <time>2020-08-30T09:11:25.000Z</time>
      </trkpt>
      <trkpt lat="47.34164" lon="-2.32702">
        <ele>-43.799999237061</ele>
        <time>2020-08-30T09:11:31.000Z</time>
      </trkpt>
      <trkpt lat="47.34164" lon="-2.3275">
        <ele>-43.799999237061</ele>
        <time>2020-08-30T09:11:38.000Z</time>
      </trkpt>
      <trkpt lat="47.34168" lon="-2.32775">
        <ele>-43.799999237061</ele>
        <time>2020-08-30T09:11:43.000Z</time>
      </trkpt>
      <trkpt lat="47.34174" lon="-2.3279">
        <ele>-43.799999237061</ele>
        <time>2020-08-30T09:11:48.000Z</time>
      </trkpt>
      <trkpt lat="47.34176" lon="-2.32795">
        <ele>-44.400001525879</ele>
        <time>2020-08-30T09:11:50.000Z</time>
      </trkpt>
      <trkpt lat="47.34177" lon="-2.32798">
        <ele>-44.799999237061</ele>
        <time>2020-08-30T09:11:51.000Z</time>
      </trkpt>
      <trkpt lat="47.34178" lon="-2.328">
        <ele>-45.200000762939</ele>
        <time>2020-08-30T09:11:52.000Z</time>
      </trkpt>
      <trkpt lat="47.3418" lon="-2.32803">
        <ele>-45.599998474121</ele>
        <time>2020-08-30T09:11:53.000Z</time>
      </trkpt>
      <trkpt lat="47.34182" lon="-2.32807">
        <ele>-46</ele>
        <time>2020-08-30T09:11:54.000Z</time>
      </trkpt>
      <trkpt lat="47.34188" lon="-2.32827">
        <ele>-46</ele>
        <time>2020-08-30T09:11:59.000Z</time>
      </trkpt>
      <trkpt lat="47.34197" lon="-2.32843">
        <ele>-46</ele>
        <time>2020-08-30T09:12:04.000Z</time>
      </trkpt>
      <trkpt lat="47.34206" lon="-2.32855">
        <ele>-46</ele>
        <time>2020-08-30T09:12:07.000Z</time>
      </trkpt>
      <trkpt lat="47.34212" lon="-2.32867">
        <ele>-46</ele>
        <time>2020-08-30T09:12:09.000Z</time>
      </trkpt>
      <trkpt lat="47.34222" lon="-2.32887">
        <ele>-46.400001525879</ele>
        <time>2020-08-30T09:12:13.000Z</time>
      </trkpt>
      <trkpt lat="47.34224" lon="-2.32891">
        <ele>-46.799999237061</ele>
        <time>2020-08-30T09:12:14.000Z</time>
      </trkpt>
      <trkpt lat="47.34225" lon="-2.32894">
        <ele>-47.200000762939</ele>
        <time>2020-08-30T09:12:15.000Z</time>
      </trkpt>
      <trkpt lat="47.34227" lon="-2.32898">
        <ele>-47.599998474121</ele>
        <time>2020-08-30T09:12:16.000Z</time>
      </trkpt>
      <trkpt lat="47.34228" lon="-2.32901">
        <ele>-48</ele>
        <time>2020-08-30T09:12:17.000Z</time>
      </trkpt>
      <trkpt lat="47.34237" lon="-2.32916">
        <ele>-48</ele>
        <time>2020-08-30T09:12:21.000Z</time>
      </trkpt>
      <trkpt lat="47.34245" lon="-2.32933">
        <ele>-48.599998474121</ele>
        <time>2020-08-30T09:12:24.000Z</time>
      </trkpt>
      <trkpt lat="47.34248" lon="-2.32938">
        <ele>-49</ele>
        <time>2020-08-30T09:12:25.000Z</time>
      </trkpt>
      <trkpt lat="47.3425" lon="-2.32944">
        <ele>-49.400001525879</ele>
        <time>2020-08-30T09:12:26.000Z</time>
      </trkpt>
      <trkpt lat="47.34252" lon="-2.32949">
        <ele>-49.799999237061</ele>
        <time>2020-08-30T09:12:27.000Z</time>
      </trkpt>
      <trkpt lat="47.34255" lon="-2.32954">
        <ele>-50.400001525879</ele>
        <time>2020-08-30T09:12:28.000Z</time>
      </trkpt>
      <trkpt lat="47.34272" lon="-2.32989">
        <ele>-50.400001525879</ele>
        <time>2020-08-30T09:12:34.000Z</time>
      </trkpt>
      <trkpt lat="47.34288" lon="-2.33023">
        <ele>-50.400001525879</ele>
        <time>2020-08-30T09:12:40.000Z</time>
      </trkpt>
      <trkpt lat="47.34299" lon="-2.33039">
        <ele>-50.400001525879</ele>
        <time>2020-08-30T09:12:44.000Z</time>
      </trkpt>
      <trkpt lat="47.34328" lon="-2.33044">
        <ele>-50.400001525879</ele>
        <time>2020-08-30T09:12:51.000Z</time>
      </trkpt>
      <trkpt lat="47.34352" lon="-2.33041">
        <ele>-50.400001525879</ele>
        <time>2020-08-30T09:12:57.000Z</time>
      </trkpt>
      <trkpt lat="47.34362" lon="-2.3304">
        <ele>-50.400001525879</ele>
        <time>2020-08-30T09:13:00.000Z</time>
      </trkpt>
      <trkpt lat="47.34365" lon="-2.33043">
        <ele>-50.799999237061</ele>
        <time>2020-08-30T09:13:01.000Z</time>
      </trkpt>
      <trkpt lat="47.34368" lon="-2.33046">
        <ele>-51.200000762939</ele>
        <time>2020-08-30T09:13:02.000Z</time>
      </trkpt>
      <trkpt lat="47.34371" lon="-2.33049">
        <ele>-51.599998474121</ele>
        <time>2020-08-30T09:13:03.000Z</time>
      </trkpt>
      <trkpt lat="47.34373" lon="-2.33052">
        <ele>-52</ele>
        <time>2020-08-30T09:13:04.000Z</time>
      </trkpt>
      <trkpt lat="47.34375" lon="-2.33055">
        <ele>-52.400001525879</ele>
        <time>2020-08-30T09:13:05.000Z</time>
      </trkpt>
      <trkpt lat="47.34377" lon="-2.33059">
        <ele>-52.400001525879</ele>
        <time>2020-08-30T09:13:06.000Z</time>
      </trkpt>
      <trkpt lat="47.34379" lon="-2.33063">
        <ele>-52.400001525879</ele>
        <time>2020-08-30T09:13:07.000Z</time>
      </trkpt>
      <trkpt lat="47.34384" lon="-2.33081">
        <ele>-52.400001525879</ele>
        <time>2020-08-30T09:13:12.000Z</time>
      </trkpt>
      <trkpt lat="47.34388" lon="-2.331">
        <ele>-52.400001525879</ele>
        <time>2020-08-30T09:13:17.000Z</time>
      </trkpt>
      <trkpt lat="47.34397" lon="-2.33135">
        <ele>-52.400001525879</ele>
        <time>2020-08-30T09:13:25.000Z</time>
      </trkpt>
      <trkpt lat="47.34404" lon="-2.3317">
        <ele>-52.400001525879</ele>
        <time>2020-08-30T09:13:32.000Z</time>
      </trkpt>
      <trkpt lat="47.34411" lon="-2.332">
        <ele>-52.400001525879</ele>
        <time>2020-08-30T09:13:38.000Z</time>
      </trkpt>
      <trkpt lat="47.34413" lon="-2.33216">
        <ele>-52</ele>
        <time>2020-08-30T09:13:41.000Z</time>
      </trkpt>
      <trkpt lat="47.34414" lon="-2.33221">
        <ele>-51.599998474121</ele>
        <time>2020-08-30T09:13:42.000Z</time>
      </trkpt>
      <trkpt lat="47.34415" lon="-2.33227">
        <ele>-51.200000762939</ele>
        <time>2020-08-30T09:13:43.000Z</time>
      </trkpt>
      <trkpt lat="47.34417" lon="-2.33232">
        <ele>-50.799999237061</ele>
        <time>2020-08-30T09:13:44.000Z</time>
      </trkpt>
      <trkpt lat="47.34418" lon="-2.33237">
        <ele>-50.400001525879</ele>
        <time>2020-08-30T09:13:45.000Z</time>
      </trkpt>
      <trkpt lat="47.3443" lon="-2.33277">
        <ele>-50.400001525879</ele>
        <time>2020-08-30T09:13:52.000Z</time>
      </trkpt>
      <trkpt lat="47.34437" lon="-2.33289">
        <ele>-50</ele>
        <time>2020-08-30T09:13:54.000Z</time>
      </trkpt>
      <trkpt lat="47.34442" lon="-2.33295">
        <ele>-49.599998474121</ele>
        <time>2020-08-30T09:13:55.000Z</time>
      </trkpt>
      <trkpt lat="47.34447" lon="-2.33301">
        <ele>-49.200000762939</ele>
        <time>2020-08-30T09:13:56.000Z</time>
      </trkpt>
      <trkpt lat="47.34451" lon="-2.33307">
        <ele>-48.799999237061</ele>
        <time>2020-08-30T09:13:57.000Z</time>
      </trkpt>
      <trkpt lat="47.34454" lon="-2.33313">
        <ele>-48.400001525879</ele>
        <time>2020-08-30T09:13:58.000Z</time>
      </trkpt>
      <trkpt lat="47.34458" lon="-2.33324">
        <ele>-48.400001525879</ele>
        <time>2020-08-30T09:14:00.000Z</time>
      </trkpt>
      <trkpt lat="47.34462" lon="-2.33355">
        <ele>-48.400001525879</ele>
        <time>2020-08-30T09:14:05.000Z</time>
      </trkpt>
      <trkpt lat="47.34467" lon="-2.33401">
        <ele>-48.400001525879</ele>
        <time>2020-08-30T09:14:13.000Z</time>
      </trkpt>
      <trkpt lat="47.34473" lon="-2.33434">
        <ele>-48.400001525879</ele>
        <time>2020-08-30T09:14:20.000Z</time>
      </trkpt>
      <trkpt lat="47.34477" lon="-2.3346">
        <ele>-48.400001525879</ele>
        <time>2020-08-30T09:14:25.000Z</time>
      </trkpt>
      <trkpt lat="47.3448" lon="-2.33484">
        <ele>-48.400001525879</ele>
        <time>2020-08-30T09:14:30.000Z</time>
      </trkpt>
      <trkpt lat="47.34483" lon="-2.33516">
        <ele>-48.400001525879</ele>
        <time>2020-08-30T09:14:37.000Z</time>
      </trkpt>
      <trkpt lat="47.34486" lon="-2.33543">
        <ele>-48.400001525879</ele>
        <time>2020-08-30T09:14:43.000Z</time>
      </trkpt>
      <trkpt lat="47.34489" lon="-2.33562">
        <ele>-48.400001525879</ele>
        <time>2020-08-30T09:14:48.000Z</time>
      </trkpt>
      <trkpt lat="47.34489" lon="-2.33568">
        <ele>-48.400001525879</ele>
        <time>2020-08-30T09:14:52.000Z</time>
      </trkpt>
      <trkpt lat="47.34491" lon="-2.33576">
        <ele>-48.400001525879</ele>
        <time>2020-08-30T09:15:07.000Z</time>
      </trkpt>
      <trkpt lat="47.34499" lon="-2.33588">
        <ele>-48.400001525879</ele>
        <time>2020-08-30T09:15:12.000Z</time>
      </trkpt>
      <trkpt lat="47.34499" lon="-2.33588">
        <ele>-48.400001525879</ele>
        <time>2020-08-30T09:15:14.000Z</time>
      </trkpt>
      <trkpt lat="47.345" lon="-2.33594">
        <ele>-48.400001525879</ele>
        <time>2020-08-30T09:15:57.000Z</time>
      </trkpt>
      <trkpt lat="47.34501" lon="-2.33597">
        <ele>-48.400001525879</ele>
        <time>2020-08-30T09:15:58.000Z</time>
      </trkpt>
      <trkpt lat="47.34506" lon="-2.3362">
        <ele>-48</ele>
        <time>2020-08-30T09:16:03.000Z</time>
      </trkpt>
      <trkpt lat="47.34507" lon="-2.33624">
        <ele>-47.400001525879</ele>
        <time>2020-08-30T09:16:04.000Z</time>
      </trkpt>
      <trkpt lat="47.34508" lon="-2.33629">
        <ele>-47</ele>
        <time>2020-08-30T09:16:05.000Z</time>
      </trkpt>
      <trkpt lat="47.34509" lon="-2.33632">
        <ele>-46.599998474121</ele>
        <time>2020-08-30T09:16:06.000Z</time>
      </trkpt>
      <trkpt lat="47.3451" lon="-2.33635">
        <ele>-46.200000762939</ele>
        <time>2020-08-30T09:16:07.000Z</time>
      </trkpt>
      <trkpt lat="47.34511" lon="-2.33637">
        <ele>-46.200000762939</ele>
        <time>2020-08-30T09:16:08.000Z</time>
      </trkpt>
      <trkpt lat="47.34514" lon="-2.33657">
        <ele>-46.200000762939</ele>
        <time>2020-08-30T09:16:14.000Z</time>
      </trkpt>
      <trkpt lat="47.34519" lon="-2.33679">
        <ele>-46.200000762939</ele>
        <time>2020-08-30T09:16:20.000Z</time>
      </trkpt>
      <trkpt lat="47.34524" lon="-2.33702">
        <ele>-46.200000762939</ele>
        <time>2020-08-30T09:16:27.000Z</time>
      </trkpt>
      <trkpt lat="47.3453" lon="-2.33734">
        <ele>-46.200000762939</ele>
        <time>2020-08-30T09:16:33.000Z</time>
      </trkpt>
      <trkpt lat="47.34535" lon="-2.33763">
        <ele>-46.200000762939</ele>
        <time>2020-08-30T09:16:38.000Z</time>
      </trkpt>
      <trkpt lat="47.3454" lon="-2.33782">
        <ele>-45.799999237061</ele>
        <time>2020-08-30T09:16:41.000Z</time>
      </trkpt>
      <trkpt lat="47.34541" lon="-2.33788">
        <ele>-45.400001525879</ele>
        <time>2020-08-30T09:16:42.000Z</time>
      </trkpt>
      <trkpt lat="47.34542" lon="-2.33794">
        <ele>-45</ele>
        <time>2020-08-30T09:16:43.000Z</time>
      </trkpt>
      <trkpt lat="47.34544" lon="-2.338">
        <ele>-44.599998474121</ele>
        <time>2020-08-30T09:16:44.000Z</time>
      </trkpt>
      <trkpt lat="47.34544" lon="-2.33806">
        <ele>-44.200000762939</ele>
        <time>2020-08-30T09:16:45.000Z</time>
      </trkpt>
      <trkpt lat="47.34547" lon="-2.33825">
        <ele>-44.200000762939</ele>
        <time>2020-08-30T09:16:48.000Z</time>
      </trkpt>
      <trkpt lat="47.34551" lon="-2.33847">
        <ele>-44.200000762939</ele>
        <time>2020-08-30T09:16:51.000Z</time>
      </trkpt>
      <trkpt lat="47.34561" lon="-2.33877">
        <ele>-44.200000762939</ele>
        <time>2020-08-30T09:16:55.000Z</time>
      </trkpt>
      <trkpt lat="47.34563" lon="-2.33883">
        <ele>-44.200000762939</ele>
        <time>2020-08-30T09:16:56.000Z</time>
      </trkpt>
      <trkpt lat="47.34579" lon="-2.33929">
        <ele>-44.200000762939</ele>
        <time>2020-08-30T09:17:02.000Z</time>
      </trkpt>
      <trkpt lat="47.34597" lon="-2.33986">
        <ele>-44.200000762939</ele>
        <time>2020-08-30T09:17:09.000Z</time>
      </trkpt>
      <trkpt lat="47.34604" lon="-2.34011">
        <ele>-44.599998474121</ele>
        <time>2020-08-30T09:17:12.000Z</time>
      </trkpt>
      <trkpt lat="47.34607" lon="-2.34019">
        <ele>-45</ele>
        <time>2020-08-30T09:17:13.000Z</time>
      </trkpt>
      <trkpt lat="47.34609" lon="-2.34027">
        <ele>-45.400001525879</ele>
        <time>2020-08-30T09:17:14.000Z</time>
      </trkpt>
      <trkpt lat="47.34611" lon="-2.34034">
        <ele>-45.799999237061</ele>
        <time>2020-08-30T09:17:15.000Z</time>
      </trkpt>
      <trkpt lat="47.34612" lon="-2.34042">
        <ele>-46.200000762939</ele>
        <time>2020-08-30T09:17:16.000Z</time>
      </trkpt>
      <trkpt lat="47.3462" lon="-2.34086">
        <ele>-46.200000762939</ele>
        <time>2020-08-30T09:17:22.000Z</time>
      </trkpt>
      <trkpt lat="47.34632" lon="-2.34123">
        <ele>-46.200000762939</ele>
        <time>2020-08-30T09:17:28.000Z</time>
      </trkpt>
      <trkpt lat="47.34635" lon="-2.34128">
        <ele>-45.799999237061</ele>
        <time>2020-08-30T09:17:29.000Z</time>
      </trkpt>
      <trkpt lat="47.34638" lon="-2.34132">
        <ele>-45</ele>
        <time>2020-08-30T09:17:30.000Z</time>
      </trkpt>
      <trkpt lat="47.34642" lon="-2.34137">
        <ele>-44.599998474121</ele>
        <time>2020-08-30T09:17:31.000Z</time>
      </trkpt>
      <trkpt lat="47.34646" lon="-2.34142">
        <ele>-44</ele>
        <time>2020-08-30T09:17:32.000Z</time>
      </trkpt>
      <trkpt lat="47.34657" lon="-2.3415">
        <ele>-44</ele>
        <time>2020-08-30T09:17:35.000Z</time>
      </trkpt>
      <trkpt lat="47.34661" lon="-2.34151">
        <ele>-44</ele>
        <time>2020-08-30T09:17:36.000Z</time>
      </trkpt>
      <trkpt lat="47.34668" lon="-2.34151">
        <ele>-44</ele>
        <time>2020-08-30T09:17:39.000Z</time>
      </trkpt>
      <trkpt lat="47.3467" lon="-2.34152">
        <ele>-44</ele>
        <time>2020-08-30T09:17:40.000Z</time>
      </trkpt>
      <trkpt lat="47.34672" lon="-2.34155">
        <ele>-44</ele>
        <time>2020-08-30T09:17:41.000Z</time>
      </trkpt>
      <trkpt lat="47.34676" lon="-2.34169">
        <ele>-44</ele>
        <time>2020-08-30T09:17:44.000Z</time>
      </trkpt>
      <trkpt lat="47.34671" lon="-2.34186">
        <ele>-44</ele>
        <time>2020-08-30T09:17:47.000Z</time>
      </trkpt>
      <trkpt lat="47.3467" lon="-2.34192">
        <ele>-44</ele>
        <time>2020-08-30T09:17:48.000Z</time>
      </trkpt>
      <trkpt lat="47.34668" lon="-2.34198">
        <ele>-44</ele>
        <time>2020-08-30T09:17:49.000Z</time>
      </trkpt>
      <trkpt lat="47.34667" lon="-2.3421">
        <ele>-44</ele>
        <time>2020-08-30T09:17:51.000Z</time>
      </trkpt>
      <trkpt lat="47.34666" lon="-2.34221">
        <ele>-44</ele>
        <time>2020-08-30T09:17:53.000Z</time>
      </trkpt>
      <trkpt lat="47.34666" lon="-2.34227">
        <ele>-44</ele>
        <time>2020-08-30T09:17:54.000Z</time>
      </trkpt>
      <trkpt lat="47.34665" lon="-2.3425">
        <ele>-44</ele>
        <time>2020-08-30T09:17:58.000Z</time>
      </trkpt>
      <trkpt lat="47.34666" lon="-2.34261">
        <ele>-44</ele>
        <time>2020-08-30T09:18:00.000Z</time>
      </trkpt>
      <trkpt lat="47.34673" lon="-2.34264">
        <ele>-44</ele>
        <time>2020-08-30T09:18:02.000Z</time>
      </trkpt>
      <trkpt lat="47.34679" lon="-2.34263">
        <ele>-44</ele>
        <time>2020-08-30T09:18:04.000Z</time>
      </trkpt>
      <trkpt lat="47.34688" lon="-2.34261">
        <ele>-44</ele>
        <time>2020-08-30T09:18:07.000Z</time>
      </trkpt>
      <trkpt lat="47.34704" lon="-2.34256">
        <ele>-44</ele>
        <time>2020-08-30T09:18:13.000Z</time>
      </trkpt>
      <trkpt lat="47.34714" lon="-2.34254">
        <ele>-43.599998474121</ele>
        <time>2020-08-30T09:18:18.000Z</time>
      </trkpt>
      <trkpt lat="47.34717" lon="-2.34254">
        <ele>-43.200000762939</ele>
        <time>2020-08-30T09:18:19.000Z</time>
      </trkpt>
      <trkpt lat="47.3472" lon="-2.34254">
        <ele>-42.400001525879</ele>
        <time>2020-08-30T09:18:20.000Z</time>
      </trkpt>
      <trkpt lat="47.34723" lon="-2.34254">
        <ele>-42</ele>
        <time>2020-08-30T09:18:21.000Z</time>
      </trkpt>
      <trkpt lat="47.34739" lon="-2.34251">
        <ele>-42</ele>
        <time>2020-08-30T09:18:25.000Z</time>
      </trkpt>
      <trkpt lat="47.34768" lon="-2.34245">
        <ele>-41.599998474121</ele>
        <time>2020-08-30T09:18:32.000Z</time>
      </trkpt>
      <trkpt lat="47.34772" lon="-2.34244">
        <ele>-41.200000762939</ele>
        <time>2020-08-30T09:18:33.000Z</time>
      </trkpt>
      <trkpt lat="47.34776" lon="-2.34243">
        <ele>-40.799999237061</ele>
        <time>2020-08-30T09:18:34.000Z</time>
      </trkpt>
      <trkpt lat="47.3478" lon="-2.34242">
        <ele>-40.400001525879</ele>
        <time>2020-08-30T09:18:35.000Z</time>
      </trkpt>
      <trkpt lat="47.34784" lon="-2.34241">
        <ele>-40</ele>
        <time>2020-08-30T09:18:36.000Z</time>
      </trkpt>
      <trkpt lat="47.34793" lon="-2.34237">
        <ele>-40</ele>
        <time>2020-08-30T09:18:38.000Z</time>
      </trkpt>
      <trkpt lat="47.34802" lon="-2.34234">
        <ele>-40</ele>
        <time>2020-08-30T09:18:40.000Z</time>
      </trkpt>
      <trkpt lat="47.34816" lon="-2.34233">
        <ele>-40</ele>
        <time>2020-08-30T09:18:43.000Z</time>
      </trkpt>
      <trkpt lat="47.3482" lon="-2.34233">
        <ele>-40</ele>
        <time>2020-08-30T09:18:44.000Z</time>
      </trkpt>
      <trkpt lat="47.34829" lon="-2.34232">
        <ele>-39.599998474121</ele>
        <time>2020-08-30T09:18:46.000Z</time>
      </trkpt>
      <trkpt lat="47.34833" lon="-2.34232">
        <ele>-39</ele>
        <time>2020-08-30T09:18:47.000Z</time>
      </trkpt>
      <trkpt lat="47.34836" lon="-2.34231">
        <ele>-38.599998474121</ele>
        <time>2020-08-30T09:18:48.000Z</time>
      </trkpt>
      <trkpt lat="47.3484" lon="-2.34231">
        <ele>-38.200000762939</ele>
        <time>2020-08-30T09:18:49.000Z</time>
      </trkpt>
      <trkpt lat="47.34844" lon="-2.34231">
        <ele>-37.799999237061</ele>
        <time>2020-08-30T09:18:50.000Z</time>
      </trkpt>
      <trkpt lat="47.34855" lon="-2.34236">
        <ele>-37.400001525879</ele>
        <time>2020-08-30T09:18:54.000Z</time>
      </trkpt>
      <trkpt lat="47.34857" lon="-2.34237">
        <ele>-36.799999237061</ele>
        <time>2020-08-30T09:18:55.000Z</time>
      </trkpt>
      <trkpt lat="47.3486" lon="-2.34236">
        <ele>-36.400001525879</ele>
        <time>2020-08-30T09:18:56.000Z</time>
      </trkpt>
      <trkpt lat="47.34863" lon="-2.34234">
        <ele>-36</ele>
        <time>2020-08-30T09:18:57.000Z</time>
      </trkpt>
      <trkpt lat="47.34864" lon="-2.34232">
        <ele>-35.599998474121</ele>
        <time>2020-08-30T09:18:58.000Z</time>
      </trkpt>
      <trkpt lat="47.34866" lon="-2.3423">
        <ele>-35.599998474121</ele>
        <time>2020-08-30T09:18:59.000Z</time>
      </trkpt>
      <trkpt lat="47.3487" lon="-2.34223">
        <ele>-35</ele>
        <time>2020-08-30T09:19:02.000Z</time>
      </trkpt>
      <trkpt lat="47.34872" lon="-2.3422">
        <ele>-34.599998474121</ele>
        <time>2020-08-30T09:19:03.000Z</time>
      </trkpt>
      <trkpt lat="47.34874" lon="-2.34217">
        <ele>-34.200000762939</ele>
        <time>2020-08-30T09:19:04.000Z</time>
      </trkpt>
      <trkpt lat="47.34875" lon="-2.34215">
        <ele>-33.799999237061</ele>
        <time>2020-08-30T09:19:05.000Z</time>
      </trkpt>
      <trkpt lat="47.34877" lon="-2.34213">
        <ele>-33.200000762939</ele>
        <time>2020-08-30T09:19:06.000Z</time>
      </trkpt>
      <trkpt lat="47.34884" lon="-2.34211">
        <ele>-32.400001525879</ele>
        <time>2020-08-30T09:19:10.000Z</time>
      </trkpt>
      <trkpt lat="47.34885" lon="-2.3421">
        <ele>-32</ele>
        <time>2020-08-30T09:19:11.000Z</time>
      </trkpt>
      <trkpt lat="47.34887" lon="-2.3421">
        <ele>-31.60000038147</ele>
        <time>2020-08-30T09:19:12.000Z</time>
      </trkpt>
      <trkpt lat="47.34888" lon="-2.3421">
        <ele>-31.200000762939</ele>
        <time>2020-08-30T09:19:13.000Z</time>
      </trkpt>
      <trkpt lat="47.34889" lon="-2.3421">
        <ele>-31.200000762939</ele>
        <time>2020-08-30T09:19:15.000Z</time>
      </trkpt>
      <trkpt lat="47.34892" lon="-2.34208">
        <ele>-31.200000762939</ele>
        <time>2020-08-30T09:21:00.000Z</time>
      </trkpt>
      <trkpt lat="47.34904" lon="-2.34209">
        <ele>-31.200000762939</ele>
        <time>2020-08-30T09:21:04.000Z</time>
      </trkpt>
      <trkpt lat="47.34916" lon="-2.34218">
        <ele>-31.200000762939</ele>
        <time>2020-08-30T09:21:09.000Z</time>
      </trkpt>
      <trkpt lat="47.3492" lon="-2.34218">
        <ele>-31.60000038147</ele>
        <time>2020-08-30T09:21:11.000Z</time>
      </trkpt>
      <trkpt lat="47.34923" lon="-2.34216">
        <ele>-32</ele>
        <time>2020-08-30T09:21:12.000Z</time>
      </trkpt>
      <trkpt lat="47.34926" lon="-2.34213">
        <ele>-32.599998474121</ele>
        <time>2020-08-30T09:21:13.000Z</time>
      </trkpt>
      <trkpt lat="47.34929" lon="-2.3421">
        <ele>-33.400001525879</ele>
        <time>2020-08-30T09:21:14.000Z</time>
      </trkpt>
      <trkpt lat="47.34933" lon="-2.34207">
        <ele>-33.400001525879</ele>
        <time>2020-08-30T09:21:15.000Z</time>
      </trkpt>
      <trkpt lat="47.34943" lon="-2.342">
        <ele>-33.400001525879</ele>
        <time>2020-08-30T09:21:17.000Z</time>
      </trkpt>
      <trkpt lat="47.34948" lon="-2.34198">
        <ele>-33.400001525879</ele>
        <time>2020-08-30T09:21:18.000Z</time>
      </trkpt>
      <trkpt lat="47.34963" lon="-2.34195">
        <ele>-33.799999237061</ele>
        <time>2020-08-30T09:21:21.000Z</time>
      </trkpt>
      <trkpt lat="47.34967" lon="-2.34195">
        <ele>-34.200000762939</ele>
        <time>2020-08-30T09:21:22.000Z</time>
      </trkpt>
      <trkpt lat="47.3497" lon="-2.34198">
        <ele>-34.599998474121</ele>
        <time>2020-08-30T09:21:23.000Z</time>
      </trkpt>
      <trkpt lat="47.34973" lon="-2.34201">
        <ele>-35</ele>
        <time>2020-08-30T09:21:24.000Z</time>
      </trkpt>
      <trkpt lat="47.34976" lon="-2.34205">
        <ele>-35.400001525879</ele>
        <time>2020-08-30T09:21:25.000Z</time>
      </trkpt>
      <trkpt lat="47.34981" lon="-2.34213">
        <ele>-35.400001525879</ele>
        <time>2020-08-30T09:21:27.000Z</time>
      </trkpt>
      <trkpt lat="47.34983" lon="-2.34219">
        <ele>-35.799999237061</ele>
        <time>2020-08-30T09:21:28.000Z</time>
      </trkpt>
      <trkpt lat="47.34985" lon="-2.34226">
        <ele>-36.400001525879</ele>
        <time>2020-08-30T09:21:29.000Z</time>
      </trkpt>
      <trkpt lat="47.34987" lon="-2.34232">
        <ele>-36.799999237061</ele>
        <time>2020-08-30T09:21:30.000Z</time>
      </trkpt>
      <trkpt lat="47.34989" lon="-2.3424">
        <ele>-37.200000762939</ele>
        <time>2020-08-30T09:21:31.000Z</time>
      </trkpt>
      <trkpt lat="47.3499" lon="-2.34248">
        <ele>-37.599998474121</ele>
        <time>2020-08-30T09:21:32.000Z</time>
      </trkpt>
      <trkpt lat="47.34995" lon="-2.34264">
        <ele>-37.599998474121</ele>
        <time>2020-08-30T09:21:34.000Z</time>
      </trkpt>
      <trkpt lat="47.34999" lon="-2.34278">
        <ele>-38.200000762939</ele>
        <time>2020-08-30T09:21:36.000Z</time>
      </trkpt>
      <trkpt lat="47.35003" lon="-2.34287">
        <ele>-38.599998474121</ele>
        <time>2020-08-30T09:21:37.000Z</time>
      </trkpt>
      <trkpt lat="47.35006" lon="-2.34296">
        <ele>-39</ele>
        <time>2020-08-30T09:21:38.000Z</time>
      </trkpt>
      <trkpt lat="47.35009" lon="-2.34305">
        <ele>-40</ele>
        <time>2020-08-30T09:21:39.000Z</time>
      </trkpt>
      <trkpt lat="47.35016" lon="-2.34321">
        <ele>-40.400001525879</ele>
        <time>2020-08-30T09:21:41.000Z</time>
      </trkpt>
      <trkpt lat="47.35018" lon="-2.34328">
        <ele>-40.799999237061</ele>
        <time>2020-08-30T09:21:42.000Z</time>
      </trkpt>
      <trkpt lat="47.35021" lon="-2.34334">
        <ele>-41.200000762939</ele>
        <time>2020-08-30T09:21:43.000Z</time>
      </trkpt>
      <trkpt lat="47.35022" lon="-2.34339">
        <ele>-41.799999237061</ele>
        <time>2020-08-30T09:21:44.000Z</time>
      </trkpt>
      <trkpt lat="47.35024" lon="-2.34343">
        <ele>-42.400001525879</ele>
        <time>2020-08-30T09:21:45.000Z</time>
      </trkpt>
      <trkpt lat="47.35025" lon="-2.34346">
        <ele>-42.799999237061</ele>
        <time>2020-08-30T09:21:46.000Z</time>
      </trkpt>
      <trkpt lat="47.35026" lon="-2.34349">
        <ele>-43.400001525879</ele>
        <time>2020-08-30T09:21:47.000Z</time>
      </trkpt>
      <trkpt lat="47.35027" lon="-2.3435">
        <ele>-44</ele>
        <time>2020-08-30T09:21:48.000Z</time>
      </trkpt>
      <trkpt lat="47.35027" lon="-2.3435">
        <ele>-44.599998474121</ele>
        <time>2020-08-30T09:21:49.000Z</time>
      </trkpt>
      <trkpt lat="47.35027" lon="-2.3435">
        <ele>-44.599998474121</ele>
        <time>2020-08-30T09:21:50.000Z</time>
      </trkpt>
      <trkpt lat="47.35026" lon="-2.34354">
        <ele>-44.599998474121</ele>
        <time>2020-08-30T09:21:52.000Z</time>
      </trkpt>
      <trkpt lat="47.35016" lon="-2.34357">
        <ele>-44.599998474121</ele>
        <time>2020-08-30T09:21:55.000Z</time>
      </trkpt>
      <trkpt lat="47.34996" lon="-2.34369">
        <ele>-44.599998474121</ele>
        <time>2020-08-30T09:22:01.000Z</time>
      </trkpt>
      <trkpt lat="47.3498" lon="-2.34371">
        <ele>-44.599998474121</ele>
        <time>2020-08-30T09:22:06.000Z</time>
      </trkpt>
      <trkpt lat="47.34962" lon="-2.34371">
        <ele>-44.599998474121</ele>
        <time>2020-08-30T09:22:12.000Z</time>
      </trkpt>
      <trkpt lat="47.34942" lon="-2.3437">
        <ele>-44.599998474121</ele>
        <time>2020-08-30T09:22:19.000Z</time>
      </trkpt>
      <trkpt lat="47.34927" lon="-2.34367">
        <ele>-44.599998474121</ele>
        <time>2020-08-30T09:22:26.000Z</time>
      </trkpt>
      <trkpt lat="47.34925" lon="-2.34367">
        <ele>-44.200000762939</ele>
        <time>2020-08-30T09:22:27.000Z</time>
      </trkpt>
      <trkpt lat="47.34923" lon="-2.34368">
        <ele>-43.400001525879</ele>
        <time>2020-08-30T09:22:28.000Z</time>
      </trkpt>
      <trkpt lat="47.3492" lon="-2.34369">
        <ele>-43</ele>
        <time>2020-08-30T09:22:29.000Z</time>
      </trkpt>
      <trkpt lat="47.34916" lon="-2.3437">
        <ele>-42.599998474121</ele>
        <time>2020-08-30T09:22:30.000Z</time>
      </trkpt>
      <trkpt lat="47.34914" lon="-2.34371">
        <ele>-42.599998474121</ele>
        <time>2020-08-30T09:22:31.000Z</time>
      </trkpt>
      <trkpt lat="47.34901" lon="-2.34374">
        <ele>-42.599998474121</ele>
        <time>2020-08-30T09:22:36.000Z</time>
      </trkpt>
      <trkpt lat="47.34885" lon="-2.34373">
        <ele>-42.599998474121</ele>
        <time>2020-08-30T09:22:42.000Z</time>
      </trkpt>
      <trkpt lat="47.3487" lon="-2.34373">
        <ele>-42.200000762939</ele>
        <time>2020-08-30T09:22:47.000Z</time>
      </trkpt>
      <trkpt lat="47.34867" lon="-2.34374">
        <ele>-41.599998474121</ele>
        <time>2020-08-30T09:22:48.000Z</time>
      </trkpt>
      <trkpt lat="47.34863" lon="-2.34374">
        <ele>-41.200000762939</ele>
        <time>2020-08-30T09:22:49.000Z</time>
      </trkpt>
      <trkpt lat="47.3486" lon="-2.34375">
        <ele>-40.799999237061</ele>
        <time>2020-08-30T09:22:50.000Z</time>
      </trkpt>
      <trkpt lat="47.34857" lon="-2.34375">
        <ele>-40.400001525879</ele>
        <time>2020-08-30T09:22:51.000Z</time>
      </trkpt>
      <trkpt lat="47.34855" lon="-2.34375">
        <ele>-40.400001525879</ele>
        <time>2020-08-30T09:22:52.000Z</time>
      </trkpt>
      <trkpt lat="47.34837" lon="-2.34377">
        <ele>-40.400001525879</ele>
        <time>2020-08-30T09:22:58.000Z</time>
      </trkpt>
      <trkpt lat="47.34815" lon="-2.34381">
        <ele>-40.400001525879</ele>
        <time>2020-08-30T09:23:04.000Z</time>
      </trkpt>
      <trkpt lat="47.34791" lon="-2.34385">
        <ele>-40.400001525879</ele>
        <time>2020-08-30T09:23:10.000Z</time>
      </trkpt>
      <trkpt lat="47.34783" lon="-2.34392">
        <ele>-40.400001525879</ele>
        <time>2020-08-30T09:23:13.000Z</time>
      </trkpt>
      <trkpt lat="47.34781" lon="-2.34398">
        <ele>-40.400001525879</ele>
        <time>2020-08-30T09:23:15.000Z</time>
      </trkpt>
      <trkpt lat="47.34776" lon="-2.34408">
        <ele>-40.400001525879</ele>
        <time>2020-08-30T09:23:18.000Z</time>
      </trkpt>
      <trkpt lat="47.3477" lon="-2.34419">
        <ele>-40.400001525879</ele>
        <time>2020-08-30T09:23:21.000Z</time>
      </trkpt>
      <trkpt lat="47.34756" lon="-2.34453">
        <ele>-40.799999237061</ele>
        <time>2020-08-30T09:23:28.000Z</time>
      </trkpt>
      <trkpt lat="47.34754" lon="-2.34457">
        <ele>-41.200000762939</ele>
        <time>2020-08-30T09:23:29.000Z</time>
      </trkpt>
      <trkpt lat="47.34752" lon="-2.34461">
        <ele>-41.599998474121</ele>
        <time>2020-08-30T09:23:30.000Z</time>
      </trkpt>
      <trkpt lat="47.3475" lon="-2.34465">
        <ele>-42.200000762939</ele>
        <time>2020-08-30T09:23:31.000Z</time>
      </trkpt>
      <trkpt lat="47.34749" lon="-2.34468">
        <ele>-42.599998474121</ele>
        <time>2020-08-30T09:23:32.000Z</time>
      </trkpt>
      <trkpt lat="47.34749" lon="-2.34472">
        <ele>-42.599998474121</ele>
        <time>2020-08-30T09:23:33.000Z</time>
      </trkpt>
      <trkpt lat="47.34747" lon="-2.34481">
        <ele>-42.599998474121</ele>
        <time>2020-08-30T09:23:36.000Z</time>
      </trkpt>
      <trkpt lat="47.34743" lon="-2.34481">
        <ele>-42.599998474121</ele>
        <time>2020-08-30T09:23:38.000Z</time>
      </trkpt>
      <trkpt lat="47.34731" lon="-2.34486">
        <ele>-42.599998474121</ele>
        <time>2020-08-30T09:23:42.000Z</time>
      </trkpt>
      <trkpt lat="47.34712" lon="-2.34494">
        <ele>-42.599998474121</ele>
        <time>2020-08-30T09:23:48.000Z</time>
      </trkpt>
      <trkpt lat="47.34699" lon="-2.34501">
        <ele>-42.599998474121</ele>
        <time>2020-08-30T09:23:54.000Z</time>
      </trkpt>
      <trkpt lat="47.34684" lon="-2.34507">
        <ele>-42.599998474121</ele>
        <time>2020-08-30T09:24:01.000Z</time>
      </trkpt>
      <trkpt lat="47.34668" lon="-2.34512">
        <ele>-42.599998474121</ele>
        <time>2020-08-30T09:24:08.000Z</time>
      </trkpt>
      <trkpt lat="47.34648" lon="-2.34519">
        <ele>-42.599998474121</ele>
        <time>2020-08-30T09:24:15.000Z</time>
      </trkpt>
      <trkpt lat="47.34642" lon="-2.34521">
        <ele>-42.200000762939</ele>
        <time>2020-08-30T09:24:17.000Z</time>
      </trkpt>
      <trkpt lat="47.34638" lon="-2.34522">
        <ele>-41.799999237061</ele>
        <time>2020-08-30T09:24:18.000Z</time>
      </trkpt>
      <trkpt lat="47.34635" lon="-2.34523">
        <ele>-41.200000762939</ele>
        <time>2020-08-30T09:24:19.000Z</time>
      </trkpt>
      <trkpt lat="47.34631" lon="-2.34524">
        <ele>-40.799999237061</ele>
        <time>2020-08-30T09:24:20.000Z</time>
      </trkpt>
      <trkpt lat="47.34628" lon="-2.34525">
        <ele>-40.400001525879</ele>
        <time>2020-08-30T09:24:21.000Z</time>
      </trkpt>
      <trkpt lat="47.34626" lon="-2.34526">
        <ele>-40.400001525879</ele>
        <time>2020-08-30T09:24:22.000Z</time>
      </trkpt>
      <trkpt lat="47.34612" lon="-2.3453">
        <ele>-40.400001525879</ele>
        <time>2020-08-30T09:24:27.000Z</time>
      </trkpt>
      <trkpt lat="47.34612" lon="-2.3454">
        <ele>-40.400001525879</ele>
        <time>2020-08-30T09:24:31.000Z</time>
      </trkpt>
      <trkpt lat="47.34616" lon="-2.34546">
        <ele>-40.400001525879</ele>
        <time>2020-08-30T09:24:34.000Z</time>
      </trkpt>
      <trkpt lat="47.34615" lon="-2.34548">
        <ele>-40.400001525879</ele>
        <time>2020-08-30T09:24:35.000Z</time>
      </trkpt>
      <trkpt lat="47.34614" lon="-2.34556">
        <ele>-40.400001525879</ele>
        <time>2020-08-30T09:24:38.000Z</time>
      </trkpt>
      <trkpt lat="47.34616" lon="-2.34563">
        <ele>-40.400001525879</ele>
        <time>2020-08-30T09:24:40.000Z</time>
      </trkpt>
      <trkpt lat="47.34619" lon="-2.34587">
        <ele>-40.400001525879</ele>
        <time>2020-08-30T09:24:47.000Z</time>
      </trkpt>
      <trkpt lat="47.34625" lon="-2.34614">
        <ele>-40.400001525879</ele>
        <time>2020-08-30T09:24:53.000Z</time>
      </trkpt>
      <trkpt lat="47.34627" lon="-2.3464">
        <ele>-40.799999237061</ele>
        <time>2020-08-30T09:24:57.000Z</time>
      </trkpt>
      <trkpt lat="47.34629" lon="-2.34647">
        <ele>-41.200000762939</ele>
        <time>2020-08-30T09:24:58.000Z</time>
      </trkpt>
      <trkpt lat="47.34631" lon="-2.34656">
        <ele>-41.599998474121</ele>
        <time>2020-08-30T09:24:59.000Z</time>
      </trkpt>
      <trkpt lat="47.34632" lon="-2.34665">
        <ele>-42</ele>
        <time>2020-08-30T09:25:00.000Z</time>
      </trkpt>
      <trkpt lat="47.34634" lon="-2.34674">
        <ele>-42.599998474121</ele>
        <time>2020-08-30T09:25:01.000Z</time>
      </trkpt>
      <trkpt lat="47.34637" lon="-2.34693">
        <ele>-42.599998474121</ele>
        <time>2020-08-30T09:25:03.000Z</time>
      </trkpt>
      <trkpt lat="47.34639" lon="-2.34741">
        <ele>-42.599998474121</ele>
        <time>2020-08-30T09:25:08.000Z</time>
      </trkpt>
      <trkpt lat="47.34638" lon="-2.34749">
        <ele>-42.599998474121</ele>
        <time>2020-08-30T09:25:09.000Z</time>
      </trkpt>
      <trkpt lat="47.3463" lon="-2.34781">
        <ele>-43</ele>
        <time>2020-08-30T09:25:13.000Z</time>
      </trkpt>
      <trkpt lat="47.34628" lon="-2.34787">
        <ele>-43.400001525879</ele>
        <time>2020-08-30T09:25:14.000Z</time>
      </trkpt>
      <trkpt lat="47.34625" lon="-2.34794">
        <ele>-43.799999237061</ele>
        <time>2020-08-30T09:25:15.000Z</time>
      </trkpt>
      <trkpt lat="47.34622" lon="-2.348">
        <ele>-44.200000762939</ele>
        <time>2020-08-30T09:25:16.000Z</time>
      </trkpt>
      <trkpt lat="47.34619" lon="-2.34807">
        <ele>-44.599998474121</ele>
        <time>2020-08-30T09:25:17.000Z</time>
      </trkpt>
      <trkpt lat="47.34611" lon="-2.34826">
        <ele>-44.599998474121</ele>
        <time>2020-08-30T09:25:20.000Z</time>
      </trkpt>
      <trkpt lat="47.34595" lon="-2.34866">
        <ele>-44.599998474121</ele>
        <time>2020-08-30T09:25:27.000Z</time>
      </trkpt>
      <trkpt lat="47.34587" lon="-2.34892">
        <ele>-44.599998474121</ele>
        <time>2020-08-30T09:25:33.000Z</time>
      </trkpt>
      <trkpt lat="47.34585" lon="-2.34905">
        <ele>-44.599998474121</ele>
        <time>2020-08-30T09:25:36.000Z</time>
      </trkpt>
      <trkpt lat="47.34587" lon="-2.34909">
        <ele>-44.599998474121</ele>
        <time>2020-08-30T09:25:37.000Z</time>
      </trkpt>
      <trkpt lat="47.34596" lon="-2.3493">
        <ele>-44.599998474121</ele>
        <time>2020-08-30T09:25:41.000Z</time>
      </trkpt>
      <trkpt lat="47.34615" lon="-2.34962">
        <ele>-44.599998474121</ele>
        <time>2020-08-30T09:25:47.000Z</time>
      </trkpt>
      <trkpt lat="47.34629" lon="-2.34985">
        <ele>-44.599998474121</ele>
        <time>2020-08-30T09:25:51.000Z</time>
      </trkpt>
      <trkpt lat="47.34636" lon="-2.34996">
        <ele>-44.599998474121</ele>
        <time>2020-08-30T09:25:53.000Z</time>
      </trkpt>
      <trkpt lat="47.3465" lon="-2.3502">
        <ele>-44.599998474121</ele>
        <time>2020-08-30T09:25:58.000Z</time>
      </trkpt>
      <trkpt lat="47.34656" lon="-2.35024">
        <ele>-44.599998474121</ele>
        <time>2020-08-30T09:26:01.000Z</time>
      </trkpt>
      <trkpt lat="47.34658" lon="-2.35025">
        <ele>-44.599998474121</ele>
        <time>2020-08-30T09:26:02.000Z</time>
      </trkpt>
      <trkpt lat="47.3467" lon="-2.35027">
        <ele>-44.599998474121</ele>
        <time>2020-08-30T09:26:08.000Z</time>
      </trkpt>
      <trkpt lat="47.34684" lon="-2.35041">
        <ele>-44.599998474121</ele>
        <time>2020-08-30T09:26:13.000Z</time>
      </trkpt>
      <trkpt lat="47.34706" lon="-2.35067">
        <ele>-44.599998474121</ele>
        <time>2020-08-30T09:26:19.000Z</time>
      </trkpt>
      <trkpt lat="47.34718" lon="-2.35082">
        <ele>-44.599998474121</ele>
        <time>2020-08-30T09:26:22.000Z</time>
      </trkpt>
      <trkpt lat="47.34725" lon="-2.35093">
        <ele>-44.599998474121</ele>
        <time>2020-08-30T09:26:24.000Z</time>
      </trkpt>
      <trkpt lat="47.34728" lon="-2.351">
        <ele>-44.599998474121</ele>
        <time>2020-08-30T09:26:25.000Z</time>
      </trkpt>
      <trkpt lat="47.34741" lon="-2.3512">
        <ele>-44.599998474121</ele>
        <time>2020-08-30T09:26:30.000Z</time>
      </trkpt>
      <trkpt lat="47.34752" lon="-2.35144">
        <ele>-44.599998474121</ele>
        <time>2020-08-30T09:26:35.000Z</time>
      </trkpt>
      <trkpt lat="47.34753" lon="-2.35168">
        <ele>-44.599998474121</ele>
        <time>2020-08-30T09:26:40.000Z</time>
      </trkpt>
      <trkpt lat="47.34754" lon="-2.35195">
        <ele>-44.599998474121</ele>
        <time>2020-08-30T09:26:45.000Z</time>
      </trkpt>
      <trkpt lat="47.34752" lon="-2.35229">
        <ele>-44.599998474121</ele>
        <time>2020-08-30T09:26:50.000Z</time>
      </trkpt>
      <trkpt lat="47.3475" lon="-2.35244">
        <ele>-44.599998474121</ele>
        <time>2020-08-30T09:26:52.000Z</time>
      </trkpt>
      <trkpt lat="47.34745" lon="-2.35262">
        <ele>-44.599998474121</ele>
        <time>2020-08-30T09:26:55.000Z</time>
      </trkpt>
      <trkpt lat="47.34742" lon="-2.35275">
        <ele>-44.599998474121</ele>
        <time>2020-08-30T09:26:58.000Z</time>
      </trkpt>
      <trkpt lat="47.34738" lon="-2.35282">
        <ele>-44.599998474121</ele>
        <time>2020-08-30T09:27:00.000Z</time>
      </trkpt>
      <trkpt lat="47.34732" lon="-2.35295">
        <ele>-44.599998474121</ele>
        <time>2020-08-30T09:27:04.000Z</time>
      </trkpt>
      <trkpt lat="47.3473" lon="-2.35307">
        <ele>-44.599998474121</ele>
        <time>2020-08-30T09:27:07.000Z</time>
      </trkpt>
      <trkpt lat="47.3473" lon="-2.35315">
        <ele>-44.599998474121</ele>
        <time>2020-08-30T09:27:09.000Z</time>
      </trkpt>
      <trkpt lat="47.34728" lon="-2.35338">
        <ele>-44.599998474121</ele>
        <time>2020-08-30T09:27:15.000Z</time>
      </trkpt>
      <trkpt lat="47.34726" lon="-2.35355">
        <ele>-44.599998474121</ele>
        <time>2020-08-30T09:27:20.000Z</time>
      </trkpt>
      <trkpt lat="47.34716" lon="-2.35374">
        <ele>-44.599998474121</ele>
        <time>2020-08-30T09:27:26.000Z</time>
      </trkpt>
      <trkpt lat="47.34706" lon="-2.35386">
        <ele>-44.599998474121</ele>
        <time>2020-08-30T09:27:30.000Z</time>
      </trkpt>
      <trkpt lat="47.34688" lon="-2.3539">
        <ele>-44.599998474121</ele>
        <time>2020-08-30T09:27:34.000Z</time>
      </trkpt>
      <trkpt lat="47.34663" lon="-2.35398">
        <ele>-44.599998474121</ele>
        <time>2020-08-30T09:27:40.000Z</time>
      </trkpt>
      <trkpt lat="47.34654" lon="-2.35401">
        <ele>-44.599998474121</ele>
        <time>2020-08-30T09:27:44.000Z</time>
      </trkpt>
      <trkpt lat="47.34653" lon="-2.35403">
        <ele>-44.599998474121</ele>
        <time>2020-08-30T09:27:45.000Z</time>
      </trkpt>
      <trkpt lat="47.34655" lon="-2.35414">
        <ele>-44.599998474121</ele>
        <time>2020-08-30T09:27:48.000Z</time>
      </trkpt>
      <trkpt lat="47.34665" lon="-2.35426">
        <ele>-44.599998474121</ele>
        <time>2020-08-30T09:27:51.000Z</time>
      </trkpt>
      <trkpt lat="47.34668" lon="-2.3543">
        <ele>-44.599998474121</ele>
        <time>2020-08-30T09:27:52.000Z</time>
      </trkpt>
      <trkpt lat="47.34682" lon="-2.35446">
        <ele>-44.599998474121</ele>
        <time>2020-08-30T09:27:56.000Z</time>
      </trkpt>
      <trkpt lat="47.34688" lon="-2.35456">
        <ele>-44.599998474121</ele>
        <time>2020-08-30T09:27:58.000Z</time>
      </trkpt>
      <trkpt lat="47.34708" lon="-2.35491">
        <ele>-44.599998474121</ele>
        <time>2020-08-30T09:28:06.000Z</time>
      </trkpt>
      <trkpt lat="47.34718" lon="-2.35507">
        <ele>-44.599998474121</ele>
        <time>2020-08-30T09:28:12.000Z</time>
      </trkpt>
      <trkpt lat="47.34728" lon="-2.35526">
        <ele>-44.599998474121</ele>
        <time>2020-08-30T09:28:20.000Z</time>
      </trkpt>
      <trkpt lat="47.3474" lon="-2.35545">
        <ele>-44.599998474121</ele>
        <time>2020-08-30T09:28:25.000Z</time>
      </trkpt>
      <trkpt lat="47.34763" lon="-2.35575">
        <ele>-44.599998474121</ele>
        <time>2020-08-30T09:28:33.000Z</time>
      </trkpt>
      <trkpt lat="47.34788" lon="-2.35606">
        <ele>-44.599998474121</ele>
        <time>2020-08-30T09:28:42.000Z</time>
      </trkpt>
      <trkpt lat="47.34815" lon="-2.35631">
        <ele>-44.599998474121</ele>
        <time>2020-08-30T09:28:50.000Z</time>
      </trkpt>
      <trkpt lat="47.34829" lon="-2.35644">
        <ele>-44.599998474121</ele>
        <time>2020-08-30T09:28:55.000Z</time>
      </trkpt>
      <trkpt lat="47.34851" lon="-2.35656">
        <ele>-44.200000762939</ele>
        <time>2020-08-30T09:29:01.000Z</time>
      </trkpt>
      <trkpt lat="47.34854" lon="-2.35658">
        <ele>-43.799999237061</ele>
        <time>2020-08-30T09:29:02.000Z</time>
      </trkpt>
      <trkpt lat="47.34857" lon="-2.3566">
        <ele>-43</ele>
        <time>2020-08-30T09:29:03.000Z</time>
      </trkpt>
      <trkpt lat="47.34859" lon="-2.35661">
        <ele>-42.599998474121</ele>
        <time>2020-08-30T09:29:04.000Z</time>
      </trkpt>
      <trkpt lat="47.3486" lon="-2.35664">
        <ele>-42.599998474121</ele>
        <time>2020-08-30T09:29:05.000Z</time>
      </trkpt>
      <trkpt lat="47.34861" lon="-2.35667">
        <ele>-42.599998474121</ele>
        <time>2020-08-30T09:29:06.000Z</time>
      </trkpt>
      <trkpt lat="47.34858" lon="-2.35669">
        <ele>-42.599998474121</ele>
        <time>2020-08-30T09:29:07.000Z</time>
      </trkpt>
      <trkpt lat="47.34855" lon="-2.35678">
        <ele>-42.599998474121</ele>
        <time>2020-08-30T09:29:09.000Z</time>
      </trkpt>
      <trkpt lat="47.34853" lon="-2.35684">
        <ele>-42.599998474121</ele>
        <time>2020-08-30T09:29:10.000Z</time>
      </trkpt>
      <trkpt lat="47.34845" lon="-2.35706">
        <ele>-42.599998474121</ele>
        <time>2020-08-30T09:29:14.000Z</time>
      </trkpt>
      <trkpt lat="47.34836" lon="-2.35719">
        <ele>-42.599998474121</ele>
        <time>2020-08-30T09:29:19.000Z</time>
      </trkpt>
      <trkpt lat="47.34834" lon="-2.35719">
        <ele>-42.599998474121</ele>
        <time>2020-08-30T09:29:20.000Z</time>
      </trkpt>
      <trkpt lat="47.34823" lon="-2.35719">
        <ele>-42.599998474121</ele>
        <time>2020-08-30T09:29:24.000Z</time>
      </trkpt>
      <trkpt lat="47.34821" lon="-2.35721">
        <ele>-42.599998474121</ele>
        <time>2020-08-30T09:29:25.000Z</time>
      </trkpt>
      <trkpt lat="47.34811" lon="-2.35725">
        <ele>-42.599998474121</ele>
        <time>2020-08-30T09:29:28.000Z</time>
      </trkpt>
      <trkpt lat="47.34794" lon="-2.35735">
        <ele>-42.599998474121</ele>
        <time>2020-08-30T09:29:33.000Z</time>
      </trkpt>
      <trkpt lat="47.34773" lon="-2.35745">
        <ele>-42.599998474121</ele>
        <time>2020-08-30T09:29:39.000Z</time>
      </trkpt>
      <trkpt lat="47.34764" lon="-2.35749">
        <ele>-42.599998474121</ele>
        <time>2020-08-30T09:29:41.000Z</time>
      </trkpt>
      <trkpt lat="47.34746" lon="-2.35758">
        <ele>-42.599998474121</ele>
        <time>2020-08-30T09:29:45.000Z</time>
      </trkpt>
      <trkpt lat="47.34738" lon="-2.35764">
        <ele>-42.599998474121</ele>
        <time>2020-08-30T09:29:47.000Z</time>
      </trkpt>
      <trkpt lat="47.34712" lon="-2.35784">
        <ele>-42.599998474121</ele>
        <time>2020-08-30T09:29:53.000Z</time>
      </trkpt>
      <trkpt lat="47.34695" lon="-2.358">
        <ele>-43</ele>
        <time>2020-08-30T09:29:57.000Z</time>
      </trkpt>
      <trkpt lat="47.3469" lon="-2.35804">
        <ele>-43.400001525879</ele>
        <time>2020-08-30T09:29:58.000Z</time>
      </trkpt>
      <trkpt lat="47.34686" lon="-2.35807">
        <ele>-43.799999237061</ele>
        <time>2020-08-30T09:29:59.000Z</time>
      </trkpt>
      <trkpt lat="47.34681" lon="-2.35811">
        <ele>-44.200000762939</ele>
        <time>2020-08-30T09:30:00.000Z</time>
      </trkpt>
      <trkpt lat="47.34676" lon="-2.35816">
        <ele>-44.599998474121</ele>
        <time>2020-08-30T09:30:01.000Z</time>
      </trkpt>
      <trkpt lat="47.34643" lon="-2.35841">
        <ele>-44.599998474121</ele>
        <time>2020-08-30T09:30:07.000Z</time>
      </trkpt>
      <trkpt lat="47.34622" lon="-2.35859">
        <ele>-44.599998474121</ele>
        <time>2020-08-30T09:30:12.000Z</time>
      </trkpt>
      <trkpt lat="47.34592" lon="-2.35884">
        <ele>-44.599998474121</ele>
        <time>2020-08-30T09:30:19.000Z</time>
      </trkpt>
      <trkpt lat="47.34587" lon="-2.35888">
        <ele>-44.599998474121</ele>
        <time>2020-08-30T09:30:20.000Z</time>
      </trkpt>
      <trkpt lat="47.34566" lon="-2.359">
        <ele>-44.599998474121</ele>
        <time>2020-08-30T09:30:24.000Z</time>
      </trkpt>
      <trkpt lat="47.34541" lon="-2.3591">
        <ele>-44.599998474121</ele>
        <time>2020-08-30T09:30:29.000Z</time>
      </trkpt>
      <trkpt lat="47.34537" lon="-2.35913">
        <ele>-44.599998474121</ele>
        <time>2020-08-30T09:30:30.000Z</time>
      </trkpt>
      <trkpt lat="47.34517" lon="-2.35921">
        <ele>-44.599998474121</ele>
        <time>2020-08-30T09:30:34.000Z</time>
      </trkpt>
      <trkpt lat="47.34492" lon="-2.35932">
        <ele>-44.200000762939</ele>
        <time>2020-08-30T09:30:39.000Z</time>
      </trkpt>
      <trkpt lat="47.34488" lon="-2.35934">
        <ele>-43.799999237061</ele>
        <time>2020-08-30T09:30:40.000Z</time>
      </trkpt>
      <trkpt lat="47.34483" lon="-2.35936">
        <ele>-43.400001525879</ele>
        <time>2020-08-30T09:30:41.000Z</time>
      </trkpt>
      <trkpt lat="47.34479" lon="-2.35938">
        <ele>-42.599998474121</ele>
        <time>2020-08-30T09:30:42.000Z</time>
      </trkpt>
      <trkpt lat="47.34475" lon="-2.35941">
        <ele>-42.599998474121</ele>
        <time>2020-08-30T09:30:43.000Z</time>
      </trkpt>
      <trkpt lat="47.34444" lon="-2.35965">
        <ele>-42.599998474121</ele>
        <time>2020-08-30T09:30:50.000Z</time>
      </trkpt>
      <trkpt lat="47.3444" lon="-2.35968">
        <ele>-42</ele>
        <time>2020-08-30T09:30:51.000Z</time>
      </trkpt>
      <trkpt lat="47.34436" lon="-2.35972">
        <ele>-41.599998474121</ele>
        <time>2020-08-30T09:30:52.000Z</time>
      </trkpt>
      <trkpt lat="47.34433" lon="-2.35975">
        <ele>-41.200000762939</ele>
        <time>2020-08-30T09:30:53.000Z</time>
      </trkpt>
      <trkpt lat="47.34429" lon="-2.35977">
        <ele>-40.799999237061</ele>
        <time>2020-08-30T09:30:54.000Z</time>
      </trkpt>
      <trkpt lat="47.34426" lon="-2.35979">
        <ele>-40.400001525879</ele>
        <time>2020-08-30T09:30:55.000Z</time>
      </trkpt>
      <trkpt lat="47.34423" lon="-2.35981">
        <ele>-40.400001525879</ele>
        <time>2020-08-30T09:30:56.000Z</time>
      </trkpt>
      <trkpt lat="47.34412" lon="-2.3599">
        <ele>-40.400001525879</ele>
        <time>2020-08-30T09:31:01.000Z</time>
      </trkpt>
      <trkpt lat="47.34408" lon="-2.35999">
        <ele>-40.400001525879</ele>
        <time>2020-08-30T09:31:04.000Z</time>
      </trkpt>
      <trkpt lat="47.34409" lon="-2.36007">
        <ele>-40.400001525879</ele>
        <time>2020-08-30T09:31:06.000Z</time>
      </trkpt>
      <trkpt lat="47.34415" lon="-2.36018">
        <ele>-40.400001525879</ele>
        <time>2020-08-30T09:31:10.000Z</time>
      </trkpt>
      <trkpt lat="47.3442" lon="-2.36034">
        <ele>-40.400001525879</ele>
        <time>2020-08-30T09:31:15.000Z</time>
      </trkpt>
      <trkpt lat="47.34426" lon="-2.36062">
        <ele>-40.400001525879</ele>
        <time>2020-08-30T09:31:21.000Z</time>
      </trkpt>
      <trkpt lat="47.34438" lon="-2.36101">
        <ele>-40.400001525879</ele>
        <time>2020-08-30T09:31:28.000Z</time>
      </trkpt>
      <trkpt lat="47.34451" lon="-2.36135">
        <ele>-40.400001525879</ele>
        <time>2020-08-30T09:31:33.000Z</time>
      </trkpt>
      <trkpt lat="47.34461" lon="-2.36158">
        <ele>-40.400001525879</ele>
        <time>2020-08-30T09:31:36.000Z</time>
      </trkpt>
      <trkpt lat="47.34469" lon="-2.36172">
        <ele>-40.400001525879</ele>
        <time>2020-08-30T09:31:38.000Z</time>
      </trkpt>
      <trkpt lat="47.34498" lon="-2.36223">
        <ele>-40.400001525879</ele>
        <time>2020-08-30T09:31:46.000Z</time>
      </trkpt>
      <trkpt lat="47.34504" lon="-2.36238">
        <ele>-40.400001525879</ele>
        <time>2020-08-30T09:31:48.000Z</time>
      </trkpt>
      <trkpt lat="47.34507" lon="-2.36252">
        <ele>-40.400001525879</ele>
        <time>2020-08-30T09:31:50.000Z</time>
      </trkpt>
      <trkpt lat="47.34509" lon="-2.36259">
        <ele>-40.400001525879</ele>
        <time>2020-08-30T09:31:51.000Z</time>
      </trkpt>
      <trkpt lat="47.3452" lon="-2.36291">
        <ele>-40.400001525879</ele>
        <time>2020-08-30T09:31:56.000Z</time>
      </trkpt>
      <trkpt lat="47.34532" lon="-2.3632">
        <ele>-40.400001525879</ele>
        <time>2020-08-30T09:32:02.000Z</time>
      </trkpt>
      <trkpt lat="47.34543" lon="-2.36356">
        <ele>-40.400001525879</ele>
        <time>2020-08-30T09:32:08.000Z</time>
      </trkpt>
      <trkpt lat="47.34553" lon="-2.36379">
        <ele>-40.400001525879</ele>
        <time>2020-08-30T09:32:12.000Z</time>
      </trkpt>
      <trkpt lat="47.34557" lon="-2.36384">
        <ele>-40.400001525879</ele>
        <time>2020-08-30T09:32:13.000Z</time>
      </trkpt>
      <trkpt lat="47.34575" lon="-2.3641">
        <ele>-40.400001525879</ele>
        <time>2020-08-30T09:32:19.000Z</time>
      </trkpt>
      <trkpt lat="47.34587" lon="-2.36431">
        <ele>-40.400001525879</ele>
        <time>2020-08-30T09:32:25.000Z</time>
      </trkpt>
      <trkpt lat="47.34591" lon="-2.36442">
        <ele>-40.400001525879</ele>
        <time>2020-08-30T09:32:29.000Z</time>
      </trkpt>
      <trkpt lat="47.3459" lon="-2.36445">
        <ele>-40.400001525879</ele>
        <time>2020-08-30T09:32:30.000Z</time>
      </trkpt>
      <trkpt lat="47.34588" lon="-2.36456">
        <ele>-40.400001525879</ele>
        <time>2020-08-30T09:32:35.000Z</time>
      </trkpt>
      <trkpt lat="47.34587" lon="-2.3646">
        <ele>-40.400001525879</ele>
        <time>2020-08-30T09:32:37.000Z</time>
      </trkpt>
      <trkpt lat="47.34584" lon="-2.36469">
        <ele>-40.400001525879</ele>
        <time>2020-08-30T09:32:43.000Z</time>
      </trkpt>
      <trkpt lat="47.34582" lon="-2.36481">
        <ele>-40.400001525879</ele>
        <time>2020-08-30T09:32:49.000Z</time>
      </trkpt>
      <trkpt lat="47.34578" lon="-2.36501">
        <ele>-40.400001525879</ele>
        <time>2020-08-30T09:32:57.000Z</time>
      </trkpt>
      <trkpt lat="47.34577" lon="-2.36506">
        <ele>-40.400001525879</ele>
        <time>2020-08-30T09:32:59.000Z</time>
      </trkpt>
      <trkpt lat="47.34576" lon="-2.36507">
        <ele>-40.400001525879</ele>
        <time>2020-08-30T09:33:00.000Z</time>
      </trkpt>
      <trkpt lat="47.34575" lon="-2.3651">
        <ele>-40.400001525879</ele>
        <time>2020-08-30T09:33:08.000Z</time>
      </trkpt>
      <trkpt lat="47.34575" lon="-2.36512">
        <ele>-40.400001525879</ele>
        <time>2020-08-30T09:33:09.000Z</time>
      </trkpt>
      <trkpt lat="47.34572" lon="-2.36523">
        <ele>-40</ele>
        <time>2020-08-30T09:33:12.000Z</time>
      </trkpt>
      <trkpt lat="47.34571" lon="-2.36528">
        <ele>-39.599998474121</ele>
        <time>2020-08-30T09:33:13.000Z</time>
      </trkpt>
      <trkpt lat="47.34569" lon="-2.36532">
        <ele>-39.200000762939</ele>
        <time>2020-08-30T09:33:14.000Z</time>
      </trkpt>
      <trkpt lat="47.34567" lon="-2.36536">
        <ele>-38.799999237061</ele>
        <time>2020-08-30T09:33:15.000Z</time>
      </trkpt>
      <trkpt lat="47.34565" lon="-2.36541">
        <ele>-38.400001525879</ele>
        <time>2020-08-30T09:33:16.000Z</time>
      </trkpt>
      <trkpt lat="47.34561" lon="-2.36551">
        <ele>-38.400001525879</ele>
        <time>2020-08-30T09:33:18.000Z</time>
      </trkpt>
      <trkpt lat="47.34542" lon="-2.36595">
        <ele>-38.400001525879</ele>
        <time>2020-08-30T09:33:26.000Z</time>
      </trkpt>
      <trkpt lat="47.34528" lon="-2.36631">
        <ele>-38.400001525879</ele>
        <time>2020-08-30T09:33:32.000Z</time>
      </trkpt>
      <trkpt lat="47.34526" lon="-2.36637">
        <ele>-38</ele>
        <time>2020-08-30T09:33:33.000Z</time>
      </trkpt>
      <trkpt lat="47.34523" lon="-2.36644">
        <ele>-37.599998474121</ele>
        <time>2020-08-30T09:33:34.000Z</time>
      </trkpt>
      <trkpt lat="47.3452" lon="-2.3665">
        <ele>-36.799999237061</ele>
        <time>2020-08-30T09:33:35.000Z</time>
      </trkpt>
      <trkpt lat="47.34517" lon="-2.36657">
        <ele>-36.400001525879</ele>
        <time>2020-08-30T09:33:36.000Z</time>
      </trkpt>
      <trkpt lat="47.34507" lon="-2.36676">
        <ele>-36.400001525879</ele>
        <time>2020-08-30T09:33:39.000Z</time>
      </trkpt>
      <trkpt lat="47.34488" lon="-2.36713">
        <ele>-36.400001525879</ele>
        <time>2020-08-30T09:33:45.000Z</time>
      </trkpt>
      <trkpt lat="47.34484" lon="-2.3672">
        <ele>-36</ele>
        <time>2020-08-30T09:33:46.000Z</time>
      </trkpt>
      <trkpt lat="47.34481" lon="-2.36726">
        <ele>-35.400001525879</ele>
        <time>2020-08-30T09:33:47.000Z</time>
      </trkpt>
      <trkpt lat="47.34477" lon="-2.36731">
        <ele>-35</ele>
        <time>2020-08-30T09:33:48.000Z</time>
      </trkpt>
      <trkpt lat="47.34473" lon="-2.36737">
        <ele>-34.599998474121</ele>
        <time>2020-08-30T09:33:49.000Z</time>
      </trkpt>
      <trkpt lat="47.3447" lon="-2.36743">
        <ele>-34.200000762939</ele>
        <time>2020-08-30T09:33:50.000Z</time>
      </trkpt>
      <trkpt lat="47.34466" lon="-2.36749">
        <ele>-34.200000762939</ele>
        <time>2020-08-30T09:33:51.000Z</time>
      </trkpt>
      <trkpt lat="47.34459" lon="-2.36759">
        <ele>-34.200000762939</ele>
        <time>2020-08-30T09:33:53.000Z</time>
      </trkpt>
      <trkpt lat="47.34449" lon="-2.36774">
        <ele>-33.799999237061</ele>
        <time>2020-08-30T09:33:56.000Z</time>
      </trkpt>
      <trkpt lat="47.34445" lon="-2.3678">
        <ele>-33.400001525879</ele>
        <time>2020-08-30T09:33:57.000Z</time>
      </trkpt>
      <trkpt lat="47.34441" lon="-2.36785">
        <ele>-33</ele>
        <time>2020-08-30T09:33:58.000Z</time>
      </trkpt>
      <trkpt lat="47.34437" lon="-2.36791">
        <ele>-32.599998474121</ele>
        <time>2020-08-30T09:33:59.000Z</time>
      </trkpt>
      <trkpt lat="47.34434" lon="-2.36797">
        <ele>-32</ele>
        <time>2020-08-30T09:34:00.000Z</time>
      </trkpt>
      <trkpt lat="47.34419" lon="-2.36821">
        <ele>-32</ele>
        <time>2020-08-30T09:34:04.000Z</time>
      </trkpt>
      <trkpt lat="47.34396" lon="-2.36858">
        <ele>-32</ele>
        <time>2020-08-30T09:34:10.000Z</time>
      </trkpt>
      <trkpt lat="47.3437" lon="-2.36901">
        <ele>-32</ele>
        <time>2020-08-30T09:34:17.000Z</time>
      </trkpt>
      <trkpt lat="47.34343" lon="-2.36944">
        <ele>-32</ele>
        <time>2020-08-30T09:34:24.000Z</time>
      </trkpt>
      <trkpt lat="47.34316" lon="-2.36983">
        <ele>-32</ele>
        <time>2020-08-30T09:34:31.000Z</time>
      </trkpt>
      <trkpt lat="47.34304" lon="-2.36998">
        <ele>-32</ele>
        <time>2020-08-30T09:34:34.000Z</time>
      </trkpt>
      <trkpt lat="47.343" lon="-2.37004">
        <ele>-31.60000038147</ele>
        <time>2020-08-30T09:34:35.000Z</time>
      </trkpt>
      <trkpt lat="47.34296" lon="-2.37009">
        <ele>-31.200000762939</ele>
        <time>2020-08-30T09:34:36.000Z</time>
      </trkpt>
      <trkpt lat="47.34292" lon="-2.37014">
        <ele>-30.799999237061</ele>
        <time>2020-08-30T09:34:37.000Z</time>
      </trkpt>
      <trkpt lat="47.34288" lon="-2.37019">
        <ele>-30.39999961853</ele>
        <time>2020-08-30T09:34:38.000Z</time>
      </trkpt>
      <trkpt lat="47.34284" lon="-2.37024">
        <ele>-30</ele>
        <time>2020-08-30T09:34:39.000Z</time>
      </trkpt>
      <trkpt lat="47.34276" lon="-2.37033">
        <ele>-30</ele>
        <time>2020-08-30T09:34:41.000Z</time>
      </trkpt>
      <trkpt lat="47.34267" lon="-2.37041">
        <ele>-30</ele>
        <time>2020-08-30T09:34:43.000Z</time>
      </trkpt>
      <trkpt lat="47.34246" lon="-2.37059">
        <ele>-30</ele>
        <time>2020-08-30T09:34:48.000Z</time>
      </trkpt>
      <trkpt lat="47.34242" lon="-2.37062">
        <ele>-30</ele>
        <time>2020-08-30T09:34:49.000Z</time>
      </trkpt>
      <trkpt lat="47.34231" lon="-2.37056">
        <ele>-30</ele>
        <time>2020-08-30T09:34:52.000Z</time>
      </trkpt>
      <trkpt lat="47.34216" lon="-2.37029">
        <ele>-30</ele>
        <time>2020-08-30T09:34:56.000Z</time>
      </trkpt>
      <trkpt lat="47.34187" lon="-2.36982">
        <ele>-30</ele>
        <time>2020-08-30T09:35:02.000Z</time>
      </trkpt>
      <trkpt lat="47.34176" lon="-2.36967">
        <ele>-30.39999961853</ele>
        <time>2020-08-30T09:35:04.000Z</time>
      </trkpt>
      <trkpt lat="47.3417" lon="-2.3696">
        <ele>-30.799999237061</ele>
        <time>2020-08-30T09:35:05.000Z</time>
      </trkpt>
      <trkpt lat="47.34165" lon="-2.36952">
        <ele>-31.200000762939</ele>
        <time>2020-08-30T09:35:06.000Z</time>
      </trkpt>
      <trkpt lat="47.34159" lon="-2.36944">
        <ele>-31.60000038147</ele>
        <time>2020-08-30T09:35:07.000Z</time>
      </trkpt>
      <trkpt lat="47.34154" lon="-2.36936">
        <ele>-32</ele>
        <time>2020-08-30T09:35:08.000Z</time>
      </trkpt>
      <trkpt lat="47.34136" lon="-2.36901">
        <ele>-32.599998474121</ele>
        <time>2020-08-30T09:35:12.000Z</time>
      </trkpt>
      <trkpt lat="47.34131" lon="-2.36893">
        <ele>-33</ele>
        <time>2020-08-30T09:35:13.000Z</time>
      </trkpt>
      <trkpt lat="47.34127" lon="-2.36884">
        <ele>-34</ele>
        <time>2020-08-30T09:35:14.000Z</time>
      </trkpt>
      <trkpt lat="47.34122" lon="-2.36876">
        <ele>-34.400001525879</ele>
        <time>2020-08-30T09:35:15.000Z</time>
      </trkpt>
      <trkpt lat="47.34118" lon="-2.36867">
        <ele>-34.400001525879</ele>
        <time>2020-08-30T09:35:16.000Z</time>
      </trkpt>
      <trkpt lat="47.34112" lon="-2.36849">
        <ele>-34.400001525879</ele>
        <time>2020-08-30T09:35:18.000Z</time>
      </trkpt>
      <trkpt lat="47.34108" lon="-2.36831">
        <ele>-34.400001525879</ele>
        <time>2020-08-30T09:35:20.000Z</time>
      </trkpt>
      <trkpt lat="47.34103" lon="-2.36805">
        <ele>-34.400001525879</ele>
        <time>2020-08-30T09:35:23.000Z</time>
      </trkpt>
      <trkpt lat="47.3409" lon="-2.36741">
        <ele>-34.400001525879</ele>
        <time>2020-08-30T09:35:31.000Z</time>
      </trkpt>
      <trkpt lat="47.34084" lon="-2.36713">
        <ele>-34.400001525879</ele>
        <time>2020-08-30T09:35:35.000Z</time>
      </trkpt>
      <trkpt lat="47.34081" lon="-2.36708">
        <ele>-34.400001525879</ele>
        <time>2020-08-30T09:35:36.000Z</time>
      </trkpt>
      <trkpt lat="47.34068" lon="-2.36709">
        <ele>-34.400001525879</ele>
        <time>2020-08-30T09:35:39.000Z</time>
      </trkpt>
      <trkpt lat="47.34063" lon="-2.36711">
        <ele>-34.400001525879</ele>
        <time>2020-08-30T09:35:40.000Z</time>
      </trkpt>
      <trkpt lat="47.34037" lon="-2.36725">
        <ele>-34.400001525879</ele>
        <time>2020-08-30T09:35:46.000Z</time>
      </trkpt>
      <trkpt lat="47.34006" lon="-2.36737">
        <ele>-34.400001525879</ele>
        <time>2020-08-30T09:35:53.000Z</time>
      </trkpt>
      <trkpt lat="47.33984" lon="-2.36743">
        <ele>-34.400001525879</ele>
        <time>2020-08-30T09:35:59.000Z</time>
      </trkpt>
      <trkpt lat="47.33978" lon="-2.36745">
        <ele>-34</ele>
        <time>2020-08-30T09:36:01.000Z</time>
      </trkpt>
      <trkpt lat="47.33975" lon="-2.36746">
        <ele>-33.599998474121</ele>
        <time>2020-08-30T09:36:02.000Z</time>
      </trkpt>
      <trkpt lat="47.33972" lon="-2.36747">
        <ele>-33.200000762939</ele>
        <time>2020-08-30T09:36:03.000Z</time>
      </trkpt>
      <trkpt lat="47.33969" lon="-2.36748">
        <ele>-32.400001525879</ele>
        <time>2020-08-30T09:36:04.000Z</time>
      </trkpt>
      <trkpt lat="47.33964" lon="-2.3675">
        <ele>-32.400001525879</ele>
        <time>2020-08-30T09:36:06.000Z</time>
      </trkpt>
      <trkpt lat="47.33949" lon="-2.36754">
        <ele>-32.400001525879</ele>
        <time>2020-08-30T09:36:11.000Z</time>
      </trkpt>
      <trkpt lat="47.33936" lon="-2.36758">
        <ele>-32.400001525879</ele>
        <time>2020-08-30T09:36:16.000Z</time>
      </trkpt>
      <trkpt lat="47.33923" lon="-2.36763">
        <ele>-32.400001525879</ele>
        <time>2020-08-30T09:36:23.000Z</time>
      </trkpt>
      <trkpt lat="47.33919" lon="-2.36763">
        <ele>-32.400001525879</ele>
        <time>2020-08-30T09:36:25.000Z</time>
      </trkpt>
      <trkpt lat="47.33917" lon="-2.36762">
        <ele>-32</ele>
        <time>2020-08-30T09:36:26.000Z</time>
      </trkpt>
      <trkpt lat="47.33915" lon="-2.3676">
        <ele>-31.60000038147</ele>
        <time>2020-08-30T09:36:27.000Z</time>
      </trkpt>
      <trkpt lat="47.33913" lon="-2.36758">
        <ele>-30.799999237061</ele>
        <time>2020-08-30T09:36:28.000Z</time>
      </trkpt>
      <trkpt lat="47.33911" lon="-2.36757">
        <ele>-30.39999961853</ele>
        <time>2020-08-30T09:36:29.000Z</time>
      </trkpt>
      <trkpt lat="47.33905" lon="-2.36757">
        <ele>-30.39999961853</ele>
        <time>2020-08-30T09:36:32.000Z</time>
      </trkpt>
      <trkpt lat="47.33887" lon="-2.36762">
        <ele>-30.39999961853</ele>
        <time>2020-08-30T09:36:41.000Z</time>
      </trkpt>
      <trkpt lat="47.33868" lon="-2.36766">
        <ele>-30.39999961853</ele>
        <time>2020-08-30T09:36:48.000Z</time>
      </trkpt>
      <trkpt lat="47.3385" lon="-2.36772">
        <ele>-30.39999961853</ele>
        <time>2020-08-30T09:36:54.000Z</time>
      </trkpt>
      <trkpt lat="47.33828" lon="-2.36778">
        <ele>-30.39999961853</ele>
        <time>2020-08-30T09:37:00.000Z</time>
      </trkpt>
      <trkpt lat="47.33824" lon="-2.3678">
        <ele>-30.39999961853</ele>
        <time>2020-08-30T09:37:01.000Z</time>
      </trkpt>
      <trkpt lat="47.33796" lon="-2.36789">
        <ele>-30.39999961853</ele>
        <time>2020-08-30T09:37:08.000Z</time>
      </trkpt>
      <trkpt lat="47.33763" lon="-2.36801">
        <ele>-30.39999961853</ele>
        <time>2020-08-30T09:37:16.000Z</time>
      </trkpt>
      <trkpt lat="47.33746" lon="-2.36808">
        <ele>-30</ele>
        <time>2020-08-30T09:37:21.000Z</time>
      </trkpt>
      <trkpt lat="47.33743" lon="-2.3681">
        <ele>-29.60000038147</ele>
        <time>2020-08-30T09:37:22.000Z</time>
      </trkpt>
      <trkpt lat="47.33739" lon="-2.36811">
        <ele>-29.200000762939</ele>
        <time>2020-08-30T09:37:23.000Z</time>
      </trkpt>
      <trkpt lat="47.33736" lon="-2.36812">
        <ele>-28.799999237061</ele>
        <time>2020-08-30T09:37:24.000Z</time>
      </trkpt>
      <trkpt lat="47.33733" lon="-2.36813">
        <ele>-28.200000762939</ele>
        <time>2020-08-30T09:37:25.000Z</time>
      </trkpt>
      <trkpt lat="47.33724" lon="-2.36818">
        <ele>-28.200000762939</ele>
        <time>2020-08-30T09:37:28.000Z</time>
      </trkpt>
      <trkpt lat="47.33706" lon="-2.3683">
        <ele>-28.200000762939</ele>
        <time>2020-08-30T09:37:34.000Z</time>
      </trkpt>
      <trkpt lat="47.33687" lon="-2.36849">
        <ele>-28.200000762939</ele>
        <time>2020-08-30T09:37:39.000Z</time>
      </trkpt>
      <trkpt lat="47.3368" lon="-2.36858">
        <ele>-28.200000762939</ele>
        <time>2020-08-30T09:37:41.000Z</time>
      </trkpt>
      <trkpt lat="47.33646" lon="-2.36898">
        <ele>-28.200000762939</ele>
        <time>2020-08-30T09:37:50.000Z</time>
      </trkpt>
      <trkpt lat="47.33643" lon="-2.36903">
        <ele>-28.200000762939</ele>
        <time>2020-08-30T09:37:51.000Z</time>
      </trkpt>
      <trkpt lat="47.33625" lon="-2.36926">
        <ele>-28.200000762939</ele>
        <time>2020-08-30T09:37:56.000Z</time>
      </trkpt>
      <trkpt lat="47.3361" lon="-2.3695">
        <ele>-28.200000762939</ele>
        <time>2020-08-30T09:38:01.000Z</time>
      </trkpt>
      <trkpt lat="47.33606" lon="-2.36961">
        <ele>-28.200000762939</ele>
        <time>2020-08-30T09:38:03.000Z</time>
      </trkpt>
      <trkpt lat="47.33602" lon="-2.36985">
        <ele>-28.200000762939</ele>
        <time>2020-08-30T09:38:08.000Z</time>
      </trkpt>
      <trkpt lat="47.33602" lon="-2.37012">
        <ele>-28.200000762939</ele>
        <time>2020-08-30T09:38:15.000Z</time>
      </trkpt>
      <trkpt lat="47.33602" lon="-2.37049">
        <ele>-28.200000762939</ele>
        <time>2020-08-30T09:38:22.000Z</time>
      </trkpt>
      <trkpt lat="47.33603" lon="-2.37101">
        <ele>-28.200000762939</ele>
        <time>2020-08-30T09:38:30.000Z</time>
      </trkpt>
      <trkpt lat="47.33604" lon="-2.37139">
        <ele>-28.200000762939</ele>
        <time>2020-08-30T09:38:36.000Z</time>
      </trkpt>
      <trkpt lat="47.33603" lon="-2.37152">
        <ele>-28.200000762939</ele>
        <time>2020-08-30T09:38:38.000Z</time>
      </trkpt>
      <trkpt lat="47.33597" lon="-2.37194">
        <ele>-28.200000762939</ele>
        <time>2020-08-30T09:38:45.000Z</time>
      </trkpt>
      <trkpt lat="47.33597" lon="-2.37225">
        <ele>-28.200000762939</ele>
        <time>2020-08-30T09:38:51.000Z</time>
      </trkpt>
      <trkpt lat="47.33595" lon="-2.37233">
        <ele>-28.200000762939</ele>
        <time>2020-08-30T09:38:53.000Z</time>
      </trkpt>
      <trkpt lat="47.33593" lon="-2.37236">
        <ele>-28.200000762939</ele>
        <time>2020-08-30T09:38:54.000Z</time>
      </trkpt>
      <trkpt lat="47.33582" lon="-2.37236">
        <ele>-28.200000762939</ele>
        <time>2020-08-30T09:38:57.000Z</time>
      </trkpt>
      <trkpt lat="47.33547" lon="-2.37232">
        <ele>-28.200000762939</ele>
        <time>2020-08-30T09:39:05.000Z</time>
      </trkpt>
      <trkpt lat="47.33515" lon="-2.37232">
        <ele>-28.200000762939</ele>
        <time>2020-08-30T09:39:11.000Z</time>
      </trkpt>
      <trkpt lat="47.3351" lon="-2.37231">
        <ele>-28.799999237061</ele>
        <time>2020-08-30T09:39:12.000Z</time>
      </trkpt>
      <trkpt lat="47.33505" lon="-2.3723">
        <ele>-29.200000762939</ele>
        <time>2020-08-30T09:39:13.000Z</time>
      </trkpt>
      <trkpt lat="47.33501" lon="-2.37229">
        <ele>-29.60000038147</ele>
        <time>2020-08-30T09:39:14.000Z</time>
      </trkpt>
      <trkpt lat="47.33497" lon="-2.37227">
        <ele>-30.200000762939</ele>
        <time>2020-08-30T09:39:15.000Z</time>
      </trkpt>
      <trkpt lat="47.33494" lon="-2.37224">
        <ele>-30.60000038147</ele>
        <time>2020-08-30T09:39:16.000Z</time>
      </trkpt>
      <trkpt lat="47.33485" lon="-2.37202">
        <ele>-30.60000038147</ele>
        <time>2020-08-30T09:39:20.000Z</time>
      </trkpt>
      <trkpt lat="47.33484" lon="-2.37196">
        <ele>-31</ele>
        <time>2020-08-30T09:39:21.000Z</time>
      </trkpt>
      <trkpt lat="47.33483" lon="-2.37191">
        <ele>-31.39999961853</ele>
        <time>2020-08-30T09:39:22.000Z</time>
      </trkpt>
      <trkpt lat="47.33483" lon="-2.37187">
        <ele>-31.799999237061</ele>
        <time>2020-08-30T09:39:23.000Z</time>
      </trkpt>
      <trkpt lat="47.33482" lon="-2.37183">
        <ele>-32.200000762939</ele>
        <time>2020-08-30T09:39:24.000Z</time>
      </trkpt>
      <trkpt lat="47.33482" lon="-2.37179">
        <ele>-32.799999237061</ele>
        <time>2020-08-30T09:39:25.000Z</time>
      </trkpt>
      <trkpt lat="47.33479" lon="-2.37151">
        <ele>-32.799999237061</ele>
        <time>2020-08-30T09:39:31.000Z</time>
      </trkpt>
      <trkpt lat="47.33474" lon="-2.37107">
        <ele>-32.799999237061</ele>
        <time>2020-08-30T09:39:37.000Z</time>
      </trkpt>
      <trkpt lat="47.33472" lon="-2.37088">
        <ele>-33.200000762939</ele>
        <time>2020-08-30T09:39:39.000Z</time>
      </trkpt>
      <trkpt lat="47.33471" lon="-2.37078">
        <ele>-33.599998474121</ele>
        <time>2020-08-30T09:39:40.000Z</time>
      </trkpt>
      <trkpt lat="47.33471" lon="-2.37068">
        <ele>-34</ele>
        <time>2020-08-30T09:39:41.000Z</time>
      </trkpt>
      <trkpt lat="47.33471" lon="-2.37059">
        <ele>-34.400001525879</ele>
        <time>2020-08-30T09:39:42.000Z</time>
      </trkpt>
      <trkpt lat="47.33471" lon="-2.37049">
        <ele>-34.799999237061</ele>
        <time>2020-08-30T09:39:43.000Z</time>
      </trkpt>
      <trkpt lat="47.33473" lon="-2.37014">
        <ele>-34.799999237061</ele>
        <time>2020-08-30T09:39:47.000Z</time>
      </trkpt>
      <trkpt lat="47.33472" lon="-2.37008">
        <ele>-35.200000762939</ele>
        <time>2020-08-30T09:39:48.000Z</time>
      </trkpt>
      <trkpt lat="47.33469" lon="-2.37002">
        <ele>-35.599998474121</ele>
        <time>2020-08-30T09:39:49.000Z</time>
      </trkpt>
      <trkpt lat="47.33467" lon="-2.36998">
        <ele>-36</ele>
        <time>2020-08-30T09:39:50.000Z</time>
      </trkpt>
      <trkpt lat="47.33465" lon="-2.36994">
        <ele>-36.400001525879</ele>
        <time>2020-08-30T09:39:51.000Z</time>
      </trkpt>
      <trkpt lat="47.33462" lon="-2.36989">
        <ele>-36.799999237061</ele>
        <time>2020-08-30T09:39:52.000Z</time>
      </trkpt>
      <trkpt lat="47.33459" lon="-2.36983">
        <ele>-36.799999237061</ele>
        <time>2020-08-30T09:39:53.000Z</time>
      </trkpt>
      <trkpt lat="47.33452" lon="-2.36968">
        <ele>-36.799999237061</ele>
        <time>2020-08-30T09:39:56.000Z</time>
      </trkpt>
      <trkpt lat="47.33448" lon="-2.36947">
        <ele>-36.799999237061</ele>
        <time>2020-08-30T09:40:00.000Z</time>
      </trkpt>
      <trkpt lat="47.33446" lon="-2.36905">
        <ele>-36.799999237061</ele>
        <time>2020-08-30T09:40:07.000Z</time>
      </trkpt>
      <trkpt lat="47.33444" lon="-2.36885">
        <ele>-36.799999237061</ele>
        <time>2020-08-30T09:40:11.000Z</time>
      </trkpt>
      <trkpt lat="47.33446" lon="-2.36875">
        <ele>-36.799999237061</ele>
        <time>2020-08-30T09:40:14.000Z</time>
      </trkpt>
      <trkpt lat="47.3345" lon="-2.36864">
        <ele>-36.799999237061</ele>
        <time>2020-08-30T09:40:16.000Z</time>
      </trkpt>
      <trkpt lat="47.33455" lon="-2.36857">
        <ele>-37.400001525879</ele>
        <time>2020-08-30T09:40:18.000Z</time>
      </trkpt>
      <trkpt lat="47.33457" lon="-2.36851">
        <ele>-37.799999237061</ele>
        <time>2020-08-30T09:40:19.000Z</time>
      </trkpt>
      <trkpt lat="47.33459" lon="-2.36846">
        <ele>-38.200000762939</ele>
        <time>2020-08-30T09:40:20.000Z</time>
      </trkpt>
      <trkpt lat="47.3346" lon="-2.3684">
        <ele>-38.599998474121</ele>
        <time>2020-08-30T09:40:21.000Z</time>
      </trkpt>
      <trkpt lat="47.33461" lon="-2.36833">
        <ele>-39</ele>
        <time>2020-08-30T09:40:22.000Z</time>
      </trkpt>
      <trkpt lat="47.33462" lon="-2.36827">
        <ele>-39</ele>
        <time>2020-08-30T09:40:23.000Z</time>
      </trkpt>
      <trkpt lat="47.33463" lon="-2.3682">
        <ele>-39</ele>
        <time>2020-08-30T09:40:24.000Z</time>
      </trkpt>
      <trkpt lat="47.33464" lon="-2.36814">
        <ele>-39</ele>
        <time>2020-08-30T09:40:25.000Z</time>
      </trkpt>
      <trkpt lat="47.33467" lon="-2.36777">
        <ele>-39</ele>
        <time>2020-08-30T09:40:31.000Z</time>
      </trkpt>
      <trkpt lat="47.33475" lon="-2.36748">
        <ele>-39</ele>
        <time>2020-08-30T09:40:37.000Z</time>
      </trkpt>
      <trkpt lat="47.33484" lon="-2.36724">
        <ele>-39</ele>
        <time>2020-08-30T09:40:42.000Z</time>
      </trkpt>
      <trkpt lat="47.33499" lon="-2.36698">
        <ele>-39</ele>
        <time>2020-08-30T09:40:47.000Z</time>
      </trkpt>
      <trkpt lat="47.33503" lon="-2.36692">
        <ele>-39</ele>
        <time>2020-08-30T09:40:48.000Z</time>
      </trkpt>
      <trkpt lat="47.33512" lon="-2.36678">
        <ele>-39</ele>
        <time>2020-08-30T09:40:51.000Z</time>
      </trkpt>
      <trkpt lat="47.33523" lon="-2.36666">
        <ele>-39</ele>
        <time>2020-08-30T09:40:55.000Z</time>
      </trkpt>
      <trkpt lat="47.33524" lon="-2.36665">
        <ele>-39</ele>
        <time>2020-08-30T09:40:56.000Z</time>
      </trkpt>
      <trkpt lat="47.33528" lon="-2.36663">
        <ele>-41.200000762939</ele>
        <time>2020-08-30T09:41:36.000Z</time>
      </trkpt>
      <trkpt lat="47.33529" lon="-2.36661">
        <ele>-41.200000762939</ele>
        <time>2020-08-30T09:41:37.000Z</time>
      </trkpt>
      <trkpt lat="47.3353" lon="-2.36645">
        <ele>-41.200000762939</ele>
        <time>2020-08-30T09:41:43.000Z</time>
      </trkpt>
      <trkpt lat="47.33528" lon="-2.36636">
        <ele>-40.599998474121</ele>
        <time>2020-08-30T09:41:47.000Z</time>
      </trkpt>
      <trkpt lat="47.33527" lon="-2.36634">
        <ele>-40.200000762939</ele>
        <time>2020-08-30T09:41:48.000Z</time>
      </trkpt>
      <trkpt lat="47.33526" lon="-2.36632">
        <ele>-39.599998474121</ele>
        <time>2020-08-30T09:41:49.000Z</time>
      </trkpt>
      <trkpt lat="47.33526" lon="-2.3663">
        <ele>-38.599998474121</ele>
        <time>2020-08-30T09:41:50.000Z</time>
      </trkpt>
      <trkpt lat="47.33525" lon="-2.36628">
        <ele>-38.200000762939</ele>
        <time>2020-08-30T09:41:51.000Z</time>
      </trkpt>
      <trkpt lat="47.33524" lon="-2.36626">
        <ele>-37.799999237061</ele>
        <time>2020-08-30T09:41:52.000Z</time>
      </trkpt>
      <trkpt lat="47.33523" lon="-2.36624">
        <ele>-37.400001525879</ele>
        <time>2020-08-30T09:41:53.000Z</time>
      </trkpt>
      <trkpt lat="47.33521" lon="-2.36622">
        <ele>-37</ele>
        <time>2020-08-30T09:41:54.000Z</time>
      </trkpt>
      <trkpt lat="47.3352" lon="-2.3662">
        <ele>-36.599998474121</ele>
        <time>2020-08-30T09:41:55.000Z</time>
      </trkpt>
      <trkpt lat="47.33511" lon="-2.36612">
        <ele>-36.599998474121</ele>
        <time>2020-08-30T09:41:59.000Z</time>
      </trkpt>
      <trkpt lat="47.335" lon="-2.36602">
        <ele>-36.200000762939</ele>
        <time>2020-08-30T09:42:04.000Z</time>
      </trkpt>
      <trkpt lat="47.33497" lon="-2.36601">
        <ele>-35.799999237061</ele>
        <time>2020-08-30T09:42:05.000Z</time>
      </trkpt>
      <trkpt lat="47.33494" lon="-2.366">
        <ele>-35.400001525879</ele>
        <time>2020-08-30T09:42:06.000Z</time>
      </trkpt>
      <trkpt lat="47.33491" lon="-2.366">
        <ele>-34.799999237061</ele>
        <time>2020-08-30T09:42:07.000Z</time>
      </trkpt>
      <trkpt lat="47.33488" lon="-2.366">
        <ele>-34.400001525879</ele>
        <time>2020-08-30T09:42:08.000Z</time>
      </trkpt>
      <trkpt lat="47.3348" lon="-2.36598">
        <ele>-34.400001525879</ele>
        <time>2020-08-30T09:42:11.000Z</time>
      </trkpt>
      <trkpt lat="47.3347" lon="-2.36591">
        <ele>-34.400001525879</ele>
        <time>2020-08-30T09:42:15.000Z</time>
      </trkpt>
      <trkpt lat="47.33469" lon="-2.36586">
        <ele>-34.400001525879</ele>
        <time>2020-08-30T09:42:16.000Z</time>
      </trkpt>
      <trkpt lat="47.3347" lon="-2.36571">
        <ele>-34.400001525879</ele>
        <time>2020-08-30T09:42:19.000Z</time>
      </trkpt>
      <trkpt lat="47.3347" lon="-2.36556">
        <ele>-34.400001525879</ele>
        <time>2020-08-30T09:42:22.000Z</time>
      </trkpt>
      <trkpt lat="47.33471" lon="-2.3652">
        <ele>-34.400001525879</ele>
        <time>2020-08-30T09:42:29.000Z</time>
      </trkpt>
      <trkpt lat="47.33472" lon="-2.36506">
        <ele>-34</ele>
        <time>2020-08-30T09:42:32.000Z</time>
      </trkpt>
      <trkpt lat="47.33472" lon="-2.365">
        <ele>-33.599998474121</ele>
        <time>2020-08-30T09:42:33.000Z</time>
      </trkpt>
      <trkpt lat="47.33473" lon="-2.36495">
        <ele>-33.200000762939</ele>
        <time>2020-08-30T09:42:34.000Z</time>
      </trkpt>
      <trkpt lat="47.33473" lon="-2.36489">
        <ele>-32.799999237061</ele>
        <time>2020-08-30T09:42:35.000Z</time>
      </trkpt>
      <trkpt lat="47.33473" lon="-2.36483">
        <ele>-32.400001525879</ele>
        <time>2020-08-30T09:42:36.000Z</time>
      </trkpt>
      <trkpt lat="47.33475" lon="-2.3645">
        <ele>-32.400001525879</ele>
        <time>2020-08-30T09:42:42.000Z</time>
      </trkpt>
      <trkpt lat="47.33474" lon="-2.3643">
        <ele>-32.400001525879</ele>
        <time>2020-08-30T09:42:46.000Z</time>
      </trkpt>
      <trkpt lat="47.33472" lon="-2.36428">
        <ele>-32.400001525879</ele>
        <time>2020-08-30T09:42:47.000Z</time>
      </trkpt>
      <trkpt lat="47.33463" lon="-2.36423">
        <ele>-32.400001525879</ele>
        <time>2020-08-30T09:42:51.000Z</time>
      </trkpt>
      <trkpt lat="47.33461" lon="-2.36421">
        <ele>-32.400001525879</ele>
        <time>2020-08-30T09:42:52.000Z</time>
      </trkpt>
      <trkpt lat="47.33452" lon="-2.36409">
        <ele>-32.400001525879</ele>
        <time>2020-08-30T09:42:56.000Z</time>
      </trkpt>
      <trkpt lat="47.33443" lon="-2.36385">
        <ele>-32.400001525879</ele>
        <time>2020-08-30T09:43:02.000Z</time>
      </trkpt>
      <trkpt lat="47.3344" lon="-2.36377">
        <ele>-32</ele>
        <time>2020-08-30T09:43:04.000Z</time>
      </trkpt>
      <trkpt lat="47.33438" lon="-2.36373">
        <ele>-31.200000762939</ele>
        <time>2020-08-30T09:43:05.000Z</time>
      </trkpt>
      <trkpt lat="47.33436" lon="-2.36369">
        <ele>-30.799999237061</ele>
        <time>2020-08-30T09:43:06.000Z</time>
      </trkpt>
      <trkpt lat="47.33435" lon="-2.36364">
        <ele>-30.39999961853</ele>
        <time>2020-08-30T09:43:07.000Z</time>
      </trkpt>
      <trkpt lat="47.33433" lon="-2.3636">
        <ele>-30.39999961853</ele>
        <time>2020-08-30T09:43:08.000Z</time>
      </trkpt>
      <trkpt lat="47.33424" lon="-2.36331">
        <ele>-30.39999961853</ele>
        <time>2020-08-30T09:43:14.000Z</time>
      </trkpt>
      <trkpt lat="47.33419" lon="-2.36311">
        <ele>-30</ele>
        <time>2020-08-30T09:43:18.000Z</time>
      </trkpt>
      <trkpt lat="47.33417" lon="-2.36305">
        <ele>-29.60000038147</ele>
        <time>2020-08-30T09:43:19.000Z</time>
      </trkpt>
      <trkpt lat="47.33416" lon="-2.363">
        <ele>-29.200000762939</ele>
        <time>2020-08-30T09:43:20.000Z</time>
      </trkpt>
      <trkpt lat="47.33414" lon="-2.36294">
        <ele>-28.60000038147</ele>
        <time>2020-08-30T09:43:21.000Z</time>
      </trkpt>
      <trkpt lat="47.33413" lon="-2.36288">
        <ele>-28.200000762939</ele>
        <time>2020-08-30T09:43:22.000Z</time>
      </trkpt>
      <trkpt lat="47.33411" lon="-2.36257">
        <ele>-28.200000762939</ele>
        <time>2020-08-30T09:43:27.000Z</time>
      </trkpt>
      <trkpt lat="47.33412" lon="-2.36225">
        <ele>-28.200000762939</ele>
        <time>2020-08-30T09:43:32.000Z</time>
      </trkpt>
      <trkpt lat="47.33413" lon="-2.36213">
        <ele>-28.200000762939</ele>
        <time>2020-08-30T09:43:34.000Z</time>
      </trkpt>
      <trkpt lat="47.33412" lon="-2.36181">
        <ele>-28.200000762939</ele>
        <time>2020-08-30T09:43:40.000Z</time>
      </trkpt>
      <trkpt lat="47.3341" lon="-2.36172">
        <ele>-27.799999237061</ele>
        <time>2020-08-30T09:43:42.000Z</time>
      </trkpt>
      <trkpt lat="47.33409" lon="-2.36169">
        <ele>-27.39999961853</ele>
        <time>2020-08-30T09:43:43.000Z</time>
      </trkpt>
      <trkpt lat="47.33407" lon="-2.36166">
        <ele>-27</ele>
        <time>2020-08-30T09:43:44.000Z</time>
      </trkpt>
      <trkpt lat="47.33405" lon="-2.36165">
        <ele>-26.60000038147</ele>
        <time>2020-08-30T09:43:45.000Z</time>
      </trkpt>
      <trkpt lat="47.33401" lon="-2.36166">
        <ele>-26.200000762939</ele>
        <time>2020-08-30T09:43:46.000Z</time>
      </trkpt>
      <trkpt lat="47.33392" lon="-2.36169">
        <ele>-26.200000762939</ele>
        <time>2020-08-30T09:43:49.000Z</time>
      </trkpt>
      <trkpt lat="47.33389" lon="-2.3617">
        <ele>-26.200000762939</ele>
        <time>2020-08-30T09:43:50.000Z</time>
      </trkpt>
      <trkpt lat="47.33364" lon="-2.36184">
        <ele>-26.200000762939</ele>
        <time>2020-08-30T09:43:59.000Z</time>
      </trkpt>
      <trkpt lat="47.33353" lon="-2.36195">
        <ele>-26.200000762939</ele>
        <time>2020-08-30T09:44:04.000Z</time>
      </trkpt>
      <trkpt lat="47.3333" lon="-2.36211">
        <ele>-26.200000762939</ele>
        <time>2020-08-30T09:44:11.000Z</time>
      </trkpt>
      <trkpt lat="47.33316" lon="-2.3622">
        <ele>-26.200000762939</ele>
        <time>2020-08-30T09:44:15.000Z</time>
      </trkpt>
      <trkpt lat="47.33312" lon="-2.36218">
        <ele>-26.200000762939</ele>
        <time>2020-08-30T09:44:16.000Z</time>
      </trkpt>
      <trkpt lat="47.33308" lon="-2.36204">
        <ele>-26.200000762939</ele>
        <time>2020-08-30T09:44:19.000Z</time>
      </trkpt>
      <trkpt lat="47.33307" lon="-2.36195">
        <ele>-26.200000762939</ele>
        <time>2020-08-30T09:44:21.000Z</time>
      </trkpt>
      <trkpt lat="47.33307" lon="-2.36183">
        <ele>-26.200000762939</ele>
        <time>2020-08-30T09:44:25.000Z</time>
      </trkpt>
      <trkpt lat="47.33308" lon="-2.36161">
        <ele>-26.200000762939</ele>
        <time>2020-08-30T09:44:32.000Z</time>
      </trkpt>
      <trkpt lat="47.33307" lon="-2.36143">
        <ele>-26.200000762939</ele>
        <time>2020-08-30T09:44:38.000Z</time>
      </trkpt>
      <trkpt lat="47.33308" lon="-2.36118">
        <ele>-26.200000762939</ele>
        <time>2020-08-30T09:44:44.000Z</time>
      </trkpt>
      <trkpt lat="47.33307" lon="-2.36101">
        <ele>-26.200000762939</ele>
        <time>2020-08-30T09:44:49.000Z</time>
      </trkpt>
      <trkpt lat="47.33306" lon="-2.36075">
        <ele>-26.200000762939</ele>
        <time>2020-08-30T09:44:55.000Z</time>
      </trkpt>
      <trkpt lat="47.33307" lon="-2.36035">
        <ele>-26.200000762939</ele>
        <time>2020-08-30T09:45:03.000Z</time>
      </trkpt>
      <trkpt lat="47.33311" lon="-2.36004">
        <ele>-26.200000762939</ele>
        <time>2020-08-30T09:45:10.000Z</time>
      </trkpt>
      <trkpt lat="47.33317" lon="-2.35971">
        <ele>-26.200000762939</ele>
        <time>2020-08-30T09:45:17.000Z</time>
      </trkpt>
      <trkpt lat="47.33319" lon="-2.35946">
        <ele>-26.200000762939</ele>
        <time>2020-08-30T09:45:22.000Z</time>
      </trkpt>
      <trkpt lat="47.33311" lon="-2.35912">
        <ele>-26.200000762939</ele>
        <time>2020-08-30T09:45:28.000Z</time>
      </trkpt>
      <trkpt lat="47.33307" lon="-2.35902">
        <ele>-26.200000762939</ele>
        <time>2020-08-30T09:45:30.000Z</time>
      </trkpt>
      <trkpt lat="47.33301" lon="-2.35892">
        <ele>-26.200000762939</ele>
        <time>2020-08-30T09:45:32.000Z</time>
      </trkpt>
      <trkpt lat="47.33297" lon="-2.35888">
        <ele>-26.200000762939</ele>
        <time>2020-08-30T09:45:33.000Z</time>
      </trkpt>
      <trkpt lat="47.33282" lon="-2.35877">
        <ele>-26.200000762939</ele>
        <time>2020-08-30T09:45:36.000Z</time>
      </trkpt>
      <trkpt lat="47.33273" lon="-2.35871">
        <ele>-26.200000762939</ele>
        <time>2020-08-30T09:45:38.000Z</time>
      </trkpt>
      <trkpt lat="47.33268" lon="-2.35867">
        <ele>-26.200000762939</ele>
        <time>2020-08-30T09:45:39.000Z</time>
      </trkpt>
      <trkpt lat="47.33251" lon="-2.35845">
        <ele>-26.200000762939</ele>
        <time>2020-08-30T09:45:43.000Z</time>
      </trkpt>
      <trkpt lat="47.33246" lon="-2.3584">
        <ele>-26.200000762939</ele>
        <time>2020-08-30T09:45:44.000Z</time>
      </trkpt>
      <trkpt lat="47.33225" lon="-2.35826">
        <ele>-26.60000038147</ele>
        <time>2020-08-30T09:45:47.000Z</time>
      </trkpt>
      <trkpt lat="47.33218" lon="-2.35822">
        <ele>-27</ele>
        <time>2020-08-30T09:45:48.000Z</time>
      </trkpt>
      <trkpt lat="47.3321" lon="-2.3582">
        <ele>-27.60000038147</ele>
        <time>2020-08-30T09:45:49.000Z</time>
      </trkpt>
      <trkpt lat="47.33202" lon="-2.35817">
        <ele>-28</ele>
        <time>2020-08-30T09:45:50.000Z</time>
      </trkpt>
      <trkpt lat="47.33194" lon="-2.35815">
        <ele>-28.39999961853</ele>
        <time>2020-08-30T09:45:51.000Z</time>
      </trkpt>
      <trkpt lat="47.33178" lon="-2.35813">
        <ele>-28.799999237061</ele>
        <time>2020-08-30T09:45:53.000Z</time>
      </trkpt>
      <trkpt lat="47.3317" lon="-2.35812">
        <ele>-29.200000762939</ele>
        <time>2020-08-30T09:45:54.000Z</time>
      </trkpt>
      <trkpt lat="47.33163" lon="-2.35811">
        <ele>-29.60000038147</ele>
        <time>2020-08-30T09:45:55.000Z</time>
      </trkpt>
      <trkpt lat="47.33155" lon="-2.3581">
        <ele>-30</ele>
        <time>2020-08-30T09:45:56.000Z</time>
      </trkpt>
      <trkpt lat="47.33149" lon="-2.35809">
        <ele>-30.39999961853</ele>
        <time>2020-08-30T09:45:57.000Z</time>
      </trkpt>
      <trkpt lat="47.33135" lon="-2.35807">
        <ele>-30.39999961853</ele>
        <time>2020-08-30T09:45:59.000Z</time>
      </trkpt>
      <trkpt lat="47.33094" lon="-2.3581">
        <ele>-31</ele>
        <time>2020-08-30T09:46:05.000Z</time>
      </trkpt>
      <trkpt lat="47.33086" lon="-2.3581">
        <ele>-31.39999961853</ele>
        <time>2020-08-30T09:46:06.000Z</time>
      </trkpt>
      <trkpt lat="47.33079" lon="-2.35811">
        <ele>-31.799999237061</ele>
        <time>2020-08-30T09:46:07.000Z</time>
      </trkpt>
      <trkpt lat="47.33073" lon="-2.35811">
        <ele>-32.200000762939</ele>
        <time>2020-08-30T09:46:08.000Z</time>
      </trkpt>
      <trkpt lat="47.33066" lon="-2.35811">
        <ele>-32.599998474121</ele>
        <time>2020-08-30T09:46:09.000Z</time>
      </trkpt>
      <trkpt lat="47.33053" lon="-2.35811">
        <ele>-32.599998474121</ele>
        <time>2020-08-30T09:46:11.000Z</time>
      </trkpt>
      <trkpt lat="47.3304" lon="-2.35808">
        <ele>-32.599998474121</ele>
        <time>2020-08-30T09:46:13.000Z</time>
      </trkpt>
      <trkpt lat="47.33027" lon="-2.35799">
        <ele>-32.599998474121</ele>
        <time>2020-08-30T09:46:15.000Z</time>
      </trkpt>
      <trkpt lat="47.33021" lon="-2.35793">
        <ele>-33</ele>
        <time>2020-08-30T09:46:16.000Z</time>
      </trkpt>
      <trkpt lat="47.33016" lon="-2.35787">
        <ele>-33.400001525879</ele>
        <time>2020-08-30T09:46:17.000Z</time>
      </trkpt>
      <trkpt lat="47.33013" lon="-2.35779">
        <ele>-33.799999237061</ele>
        <time>2020-08-30T09:46:18.000Z</time>
      </trkpt>
      <trkpt lat="47.3301" lon="-2.35772">
        <ele>-34.200000762939</ele>
        <time>2020-08-30T09:46:19.000Z</time>
      </trkpt>
      <trkpt lat="47.33008" lon="-2.35764">
        <ele>-34.599998474121</ele>
        <time>2020-08-30T09:46:20.000Z</time>
      </trkpt>
      <trkpt lat="47.33006" lon="-2.35745">
        <ele>-34.599998474121</ele>
        <time>2020-08-30T09:46:22.000Z</time>
      </trkpt>
      <trkpt lat="47.33009" lon="-2.35698">
        <ele>-34.599998474121</ele>
        <time>2020-08-30T09:46:27.000Z</time>
      </trkpt>
      <trkpt lat="47.33013" lon="-2.35671">
        <ele>-34.599998474121</ele>
        <time>2020-08-30T09:46:30.000Z</time>
      </trkpt>
      <trkpt lat="47.33015" lon="-2.35656">
        <ele>-34.599998474121</ele>
        <time>2020-08-30T09:46:32.000Z</time>
      </trkpt>
      <trkpt lat="47.33018" lon="-2.35632">
        <ele>-34.599998474121</ele>
        <time>2020-08-30T09:46:35.000Z</time>
      </trkpt>
      <trkpt lat="47.33019" lon="-2.35613">
        <ele>-34.599998474121</ele>
        <time>2020-08-30T09:46:38.000Z</time>
      </trkpt>
      <trkpt lat="47.33021" lon="-2.35606">
        <ele>-34.599998474121</ele>
        <time>2020-08-30T09:46:39.000Z</time>
      </trkpt>
      <trkpt lat="47.33024" lon="-2.35587">
        <ele>-34.599998474121</ele>
        <time>2020-08-30T09:46:42.000Z</time>
      </trkpt>
      <trkpt lat="47.33025" lon="-2.35581">
        <ele>-34.599998474121</ele>
        <time>2020-08-30T09:46:43.000Z</time>
      </trkpt>
      <trkpt lat="47.33025" lon="-2.35555">
        <ele>-34.599998474121</ele>
        <time>2020-08-30T09:46:47.000Z</time>
      </trkpt>
      <trkpt lat="47.33026" lon="-2.35549">
        <ele>-34.599998474121</ele>
        <time>2020-08-30T09:46:48.000Z</time>
      </trkpt>
      <trkpt lat="47.33029" lon="-2.35504">
        <ele>-34.599998474121</ele>
        <time>2020-08-30T09:46:55.000Z</time>
      </trkpt>
      <trkpt lat="47.33032" lon="-2.35469">
        <ele>-34.599998474121</ele>
        <time>2020-08-30T09:47:01.000Z</time>
      </trkpt>
      <trkpt lat="47.33032" lon="-2.35459">
        <ele>-34.200000762939</ele>
        <time>2020-08-30T09:47:03.000Z</time>
      </trkpt>
      <trkpt lat="47.33031" lon="-2.35455">
        <ele>-33.799999237061</ele>
        <time>2020-08-30T09:47:04.000Z</time>
      </trkpt>
      <trkpt lat="47.3303" lon="-2.35451">
        <ele>-33.400001525879</ele>
        <time>2020-08-30T09:47:05.000Z</time>
      </trkpt>
      <trkpt lat="47.33031" lon="-2.35447">
        <ele>-33</ele>
        <time>2020-08-30T09:47:06.000Z</time>
      </trkpt>
      <trkpt lat="47.33031" lon="-2.35442">
        <ele>-32.599998474121</ele>
        <time>2020-08-30T09:47:07.000Z</time>
      </trkpt>
      <trkpt lat="47.33032" lon="-2.35425">
        <ele>-32.599998474121</ele>
        <time>2020-08-30T09:47:10.000Z</time>
      </trkpt>
      <trkpt lat="47.33029" lon="-2.35395">
        <ele>-32.599998474121</ele>
        <time>2020-08-30T09:47:15.000Z</time>
      </trkpt>
      <trkpt lat="47.33026" lon="-2.35375">
        <ele>-32.200000762939</ele>
        <time>2020-08-30T09:47:19.000Z</time>
      </trkpt>
      <trkpt lat="47.33025" lon="-2.3537">
        <ele>-31.799999237061</ele>
        <time>2020-08-30T09:47:20.000Z</time>
      </trkpt>
      <trkpt lat="47.33025" lon="-2.35365">
        <ele>-31.200000762939</ele>
        <time>2020-08-30T09:47:21.000Z</time>
      </trkpt>
      <trkpt lat="47.33024" lon="-2.3536">
        <ele>-30.799999237061</ele>
        <time>2020-08-30T09:47:22.000Z</time>
      </trkpt>
      <trkpt lat="47.33024" lon="-2.35354">
        <ele>-30.39999961853</ele>
        <time>2020-08-30T09:47:23.000Z</time>
      </trkpt>
      <trkpt lat="47.33023" lon="-2.3532">
        <ele>-30.39999961853</ele>
        <time>2020-08-30T09:47:29.000Z</time>
      </trkpt>
      <trkpt lat="47.33024" lon="-2.35285">
        <ele>-30.39999961853</ele>
        <time>2020-08-30T09:47:35.000Z</time>
      </trkpt>
      <trkpt lat="47.33024" lon="-2.35249">
        <ele>-30.39999961853</ele>
        <time>2020-08-30T09:47:42.000Z</time>
      </trkpt>
      <trkpt lat="47.33024" lon="-2.35234">
        <ele>-30.39999961853</ele>
        <time>2020-08-30T09:47:44.000Z</time>
      </trkpt>
      <trkpt lat="47.33024" lon="-2.35209">
        <ele>-30.39999961853</ele>
        <time>2020-08-30T09:47:47.000Z</time>
      </trkpt>
      <trkpt lat="47.33023" lon="-2.35186">
        <ele>-30.39999961853</ele>
        <time>2020-08-30T09:47:50.000Z</time>
      </trkpt>
      <trkpt lat="47.33021" lon="-2.35163">
        <ele>-30.39999961853</ele>
        <time>2020-08-30T09:47:53.000Z</time>
      </trkpt>
      <trkpt lat="47.33019" lon="-2.35135">
        <ele>-30.39999961853</ele>
        <time>2020-08-30T09:47:57.000Z</time>
      </trkpt>
      <trkpt lat="47.33018" lon="-2.35122">
        <ele>-30.39999961853</ele>
        <time>2020-08-30T09:47:59.000Z</time>
      </trkpt>
      <trkpt lat="47.33011" lon="-2.35085">
        <ele>-30.39999961853</ele>
        <time>2020-08-30T09:48:04.000Z</time>
      </trkpt>
      <trkpt lat="47.33009" lon="-2.35078">
        <ele>-30.39999961853</ele>
        <time>2020-08-30T09:48:05.000Z</time>
      </trkpt>
      <trkpt lat="47.33004" lon="-2.35058">
        <ele>-30.39999961853</ele>
        <time>2020-08-30T09:48:08.000Z</time>
      </trkpt>
      <trkpt lat="47.32999" lon="-2.35037">
        <ele>-30.39999961853</ele>
        <time>2020-08-30T09:48:11.000Z</time>
      </trkpt>
      <trkpt lat="47.32991" lon="-2.35015">
        <ele>-30.39999961853</ele>
        <time>2020-08-30T09:48:14.000Z</time>
      </trkpt>
      <trkpt lat="47.32985" lon="-2.35002">
        <ele>-30.39999961853</ele>
        <time>2020-08-30T09:48:16.000Z</time>
      </trkpt>
      <trkpt lat="47.3298" lon="-2.34987">
        <ele>-30.39999961853</ele>
        <time>2020-08-30T09:48:18.000Z</time>
      </trkpt>
      <trkpt lat="47.32971" lon="-2.34965">
        <ele>-30.39999961853</ele>
        <time>2020-08-30T09:48:21.000Z</time>
      </trkpt>
      <trkpt lat="47.32965" lon="-2.3495">
        <ele>-30.39999961853</ele>
        <time>2020-08-30T09:48:23.000Z</time>
      </trkpt>
      <trkpt lat="47.32962" lon="-2.34942">
        <ele>-30.799999237061</ele>
        <time>2020-08-30T09:48:24.000Z</time>
      </trkpt>
      <trkpt lat="47.32959" lon="-2.34934">
        <ele>-31.39999961853</ele>
        <time>2020-08-30T09:48:25.000Z</time>
      </trkpt>
      <trkpt lat="47.32957" lon="-2.34925">
        <ele>-32.200000762939</ele>
        <time>2020-08-30T09:48:26.000Z</time>
      </trkpt>
      <trkpt lat="47.32954" lon="-2.34918">
        <ele>-32.599998474121</ele>
        <time>2020-08-30T09:48:27.000Z</time>
      </trkpt>
      <trkpt lat="47.32937" lon="-2.34869">
        <ele>-32.599998474121</ele>
        <time>2020-08-30T09:48:33.000Z</time>
      </trkpt>
      <trkpt lat="47.32918" lon="-2.34813">
        <ele>-32.599998474121</ele>
        <time>2020-08-30T09:48:40.000Z</time>
      </trkpt>
      <trkpt lat="47.32915" lon="-2.34807">
        <ele>-32.599998474121</ele>
        <time>2020-08-30T09:48:41.000Z</time>
      </trkpt>
      <trkpt lat="47.32904" lon="-2.34795">
        <ele>-32.599998474121</ele>
        <time>2020-08-30T09:48:44.000Z</time>
      </trkpt>
      <trkpt lat="47.3289" lon="-2.348">
        <ele>-32.599998474121</ele>
        <time>2020-08-30T09:48:47.000Z</time>
      </trkpt>
      <trkpt lat="47.3288" lon="-2.34805">
        <ele>-32.599998474121</ele>
        <time>2020-08-30T09:48:49.000Z</time>
      </trkpt>
      <trkpt lat="47.32867" lon="-2.34814">
        <ele>-32.599998474121</ele>
        <time>2020-08-30T09:48:52.000Z</time>
      </trkpt>
      <trkpt lat="47.3285" lon="-2.34824">
        <ele>-32.599998474121</ele>
        <time>2020-08-30T09:48:56.000Z</time>
      </trkpt>
      <trkpt lat="47.32842" lon="-2.3483">
        <ele>-32.599998474121</ele>
        <time>2020-08-30T09:48:58.000Z</time>
      </trkpt>
      <trkpt lat="47.32815" lon="-2.34849">
        <ele>-32.599998474121</ele>
        <time>2020-08-30T09:49:04.000Z</time>
      </trkpt>
      <trkpt lat="47.32795" lon="-2.34864">
        <ele>-32.599998474121</ele>
        <time>2020-08-30T09:49:09.000Z</time>
      </trkpt>
      <trkpt lat="47.32767" lon="-2.34882">
        <ele>-32.599998474121</ele>
        <time>2020-08-30T09:49:15.000Z</time>
      </trkpt>
      <trkpt lat="47.32735" lon="-2.34905">
        <ele>-32.599998474121</ele>
        <time>2020-08-30T09:49:22.000Z</time>
      </trkpt>
      <trkpt lat="47.32705" lon="-2.34926">
        <ele>-32.599998474121</ele>
        <time>2020-08-30T09:49:29.000Z</time>
      </trkpt>
      <trkpt lat="47.32689" lon="-2.34939">
        <ele>-32.599998474121</ele>
        <time>2020-08-30T09:49:34.000Z</time>
      </trkpt>
      <trkpt lat="47.32674" lon="-2.3495">
        <ele>-32.599998474121</ele>
        <time>2020-08-30T09:49:39.000Z</time>
      </trkpt>
      <trkpt lat="47.32663" lon="-2.34956">
        <ele>-32.599998474121</ele>
        <time>2020-08-30T09:49:44.000Z</time>
      </trkpt>
      <trkpt lat="47.32662" lon="-2.34956">
        <ele>-32.599998474121</ele>
        <time>2020-08-30T09:49:46.000Z</time>
      </trkpt>
      <trkpt lat="47.32661" lon="-2.34956">
        <ele>-30.60000038147</ele>
        <time>2020-08-30T09:49:51.000Z</time>
      </trkpt>
      <trkpt lat="47.32656" lon="-2.34958">
        <ele>-30.60000038147</ele>
        <time>2020-08-30T09:49:53.000Z</time>
      </trkpt>
      <trkpt lat="47.32643" lon="-2.34972">
        <ele>-30.60000038147</ele>
        <time>2020-08-30T09:49:59.000Z</time>
      </trkpt>
      <trkpt lat="47.3263" lon="-2.34979">
        <ele>-30.60000038147</ele>
        <time>2020-08-30T09:50:04.000Z</time>
      </trkpt>
      <trkpt lat="47.32611" lon="-2.34987">
        <ele>-30.60000038147</ele>
        <time>2020-08-30T09:50:10.000Z</time>
      </trkpt>
      <trkpt lat="47.32589" lon="-2.34997">
        <ele>-30.60000038147</ele>
        <time>2020-08-30T09:50:17.000Z</time>
      </trkpt>
      <trkpt lat="47.3257" lon="-2.35006">
        <ele>-30.200000762939</ele>
        <time>2020-08-30T09:50:23.000Z</time>
      </trkpt>
      <trkpt lat="47.32566" lon="-2.35007">
        <ele>-29.799999237061</ele>
        <time>2020-08-30T09:50:24.000Z</time>
      </trkpt>
      <trkpt lat="47.32563" lon="-2.35009">
        <ele>-29.39999961853</ele>
        <time>2020-08-30T09:50:25.000Z</time>
      </trkpt>
      <trkpt lat="47.32559" lon="-2.35009">
        <ele>-29</ele>
        <time>2020-08-30T09:50:26.000Z</time>
      </trkpt>
      <trkpt lat="47.32556" lon="-2.35011">
        <ele>-28.60000038147</ele>
        <time>2020-08-30T09:50:27.000Z</time>
      </trkpt>
      <trkpt lat="47.32549" lon="-2.35013">
        <ele>-28.60000038147</ele>
        <time>2020-08-30T09:50:29.000Z</time>
      </trkpt>
      <trkpt lat="47.32534" lon="-2.35018">
        <ele>-28.60000038147</ele>
        <time>2020-08-30T09:50:34.000Z</time>
      </trkpt>
      <trkpt lat="47.32515" lon="-2.35022">
        <ele>-28.60000038147</ele>
        <time>2020-08-30T09:50:40.000Z</time>
      </trkpt>
      <trkpt lat="47.32498" lon="-2.35024">
        <ele>-28.60000038147</ele>
        <time>2020-08-30T09:50:46.000Z</time>
      </trkpt>
      <trkpt lat="47.32478" lon="-2.3503">
        <ele>-28.60000038147</ele>
        <time>2020-08-30T09:50:52.000Z</time>
      </trkpt>
      <trkpt lat="47.32466" lon="-2.35033">
        <ele>-28.200000762939</ele>
        <time>2020-08-30T09:50:55.000Z</time>
      </trkpt>
      <trkpt lat="47.32462" lon="-2.35035">
        <ele>-27.799999237061</ele>
        <time>2020-08-30T09:50:56.000Z</time>
      </trkpt>
      <trkpt lat="47.32459" lon="-2.35036">
        <ele>-27.39999961853</ele>
        <time>2020-08-30T09:50:57.000Z</time>
      </trkpt>
      <trkpt lat="47.32455" lon="-2.35037">
        <ele>-27</ele>
        <time>2020-08-30T09:50:58.000Z</time>
      </trkpt>
      <trkpt lat="47.32451" lon="-2.35037">
        <ele>-26.60000038147</ele>
        <time>2020-08-30T09:50:59.000Z</time>
      </trkpt>
      <trkpt lat="47.32427" lon="-2.35043">
        <ele>-26.60000038147</ele>
        <time>2020-08-30T09:51:06.000Z</time>
      </trkpt>
      <trkpt lat="47.324" lon="-2.35046">
        <ele>-26.60000038147</ele>
        <time>2020-08-30T09:51:13.000Z</time>
      </trkpt>
      <trkpt lat="47.3238" lon="-2.35046">
        <ele>-26.60000038147</ele>
        <time>2020-08-30T09:51:19.000Z</time>
      </trkpt>
      <trkpt lat="47.32357" lon="-2.35044">
        <ele>-26.60000038147</ele>
        <time>2020-08-30T09:51:26.000Z</time>
      </trkpt>
      <trkpt lat="47.32334" lon="-2.35043">
        <ele>-26.60000038147</ele>
        <time>2020-08-30T09:51:32.000Z</time>
      </trkpt>
      <trkpt lat="47.32329" lon="-2.35043">
        <ele>-26.60000038147</ele>
        <time>2020-08-30T09:51:33.000Z</time>
      </trkpt>
      <trkpt lat="47.32308" lon="-2.35041">
        <ele>-26.60000038147</ele>
        <time>2020-08-30T09:51:38.000Z</time>
      </trkpt>
      <trkpt lat="47.32285" lon="-2.3504">
        <ele>-27</ele>
        <time>2020-08-30T09:51:43.000Z</time>
      </trkpt>
      <trkpt lat="47.3228" lon="-2.35041">
        <ele>-27.39999961853</ele>
        <time>2020-08-30T09:51:44.000Z</time>
      </trkpt>
      <trkpt lat="47.32274" lon="-2.3504">
        <ele>-27.799999237061</ele>
        <time>2020-08-30T09:51:45.000Z</time>
      </trkpt>
      <trkpt lat="47.32268" lon="-2.35041">
        <ele>-28.200000762939</ele>
        <time>2020-08-30T09:51:46.000Z</time>
      </trkpt>
      <trkpt lat="47.32263" lon="-2.35041">
        <ele>-28.60000038147</ele>
        <time>2020-08-30T09:51:47.000Z</time>
      </trkpt>
      <trkpt lat="47.32258" lon="-2.35043">
        <ele>-28.60000038147</ele>
        <time>2020-08-30T09:51:48.000Z</time>
      </trkpt>
      <trkpt lat="47.32249" lon="-2.35044">
        <ele>-28.60000038147</ele>
        <time>2020-08-30T09:51:50.000Z</time>
      </trkpt>
      <trkpt lat="47.32229" lon="-2.35047">
        <ele>-28.60000038147</ele>
        <time>2020-08-30T09:51:54.000Z</time>
      </trkpt>
      <trkpt lat="47.32213" lon="-2.3505">
        <ele>-28.60000038147</ele>
        <time>2020-08-30T09:51:57.000Z</time>
      </trkpt>
      <trkpt lat="47.32202" lon="-2.35052">
        <ele>-29</ele>
        <time>2020-08-30T09:51:59.000Z</time>
      </trkpt>
      <trkpt lat="47.32197" lon="-2.35052">
        <ele>-29.39999961853</ele>
        <time>2020-08-30T09:52:00.000Z</time>
      </trkpt>
      <trkpt lat="47.32192" lon="-2.35053">
        <ele>-29.799999237061</ele>
        <time>2020-08-30T09:52:01.000Z</time>
      </trkpt>
      <trkpt lat="47.32187" lon="-2.35054">
        <ele>-30.200000762939</ele>
        <time>2020-08-30T09:52:02.000Z</time>
      </trkpt>
      <trkpt lat="47.32181" lon="-2.35054">
        <ele>-30.60000038147</ele>
        <time>2020-08-30T09:52:03.000Z</time>
      </trkpt>
      <trkpt lat="47.3217" lon="-2.35055">
        <ele>-30.60000038147</ele>
        <time>2020-08-30T09:52:05.000Z</time>
      </trkpt>
      <trkpt lat="47.32132" lon="-2.35057">
        <ele>-30.60000038147</ele>
        <time>2020-08-30T09:52:12.000Z</time>
      </trkpt>
      <trkpt lat="47.32096" lon="-2.35058">
        <ele>-30.60000038147</ele>
        <time>2020-08-30T09:52:18.000Z</time>
      </trkpt>
      <trkpt lat="47.32065" lon="-2.35056">
        <ele>-30.60000038147</ele>
        <time>2020-08-30T09:52:24.000Z</time>
      </trkpt>
      <trkpt lat="47.32045" lon="-2.35056">
        <ele>-30.60000038147</ele>
        <time>2020-08-30T09:52:28.000Z</time>
      </trkpt>
      <trkpt lat="47.32038" lon="-2.35063">
        <ele>-30.60000038147</ele>
        <time>2020-08-30T09:52:30.000Z</time>
      </trkpt>
      <trkpt lat="47.3204" lon="-2.35074">
        <ele>-30.60000038147</ele>
        <time>2020-08-30T09:52:32.000Z</time>
      </trkpt>
      <trkpt lat="47.32044" lon="-2.35085">
        <ele>-30.60000038147</ele>
        <time>2020-08-30T09:52:34.000Z</time>
      </trkpt>
      <trkpt lat="47.3205" lon="-2.35108">
        <ele>-30.60000038147</ele>
        <time>2020-08-30T09:52:38.000Z</time>
      </trkpt>
      <trkpt lat="47.32048" lon="-2.35116">
        <ele>-30.60000038147</ele>
        <time>2020-08-30T09:52:40.000Z</time>
      </trkpt>
      <trkpt lat="47.32046" lon="-2.3512">
        <ele>-30.60000038147</ele>
        <time>2020-08-30T09:52:41.000Z</time>
      </trkpt>
      <trkpt lat="47.32029" lon="-2.35144">
        <ele>-30.60000038147</ele>
        <time>2020-08-30T09:52:47.000Z</time>
      </trkpt>
      <trkpt lat="47.32025" lon="-2.35149">
        <ele>-30.60000038147</ele>
        <time>2020-08-30T09:52:48.000Z</time>
      </trkpt>
      <trkpt lat="47.32005" lon="-2.35167">
        <ele>-30.60000038147</ele>
        <time>2020-08-30T09:52:52.000Z</time>
      </trkpt>
      <trkpt lat="47.32" lon="-2.35172">
        <ele>-30.60000038147</ele>
        <time>2020-08-30T09:52:53.000Z</time>
      </trkpt>
      <trkpt lat="47.3198" lon="-2.35192">
        <ele>-30.60000038147</ele>
        <time>2020-08-30T09:52:57.000Z</time>
      </trkpt>
      <trkpt lat="47.31949" lon="-2.35221">
        <ele>-30.200000762939</ele>
        <time>2020-08-30T09:53:03.000Z</time>
      </trkpt>
      <trkpt lat="47.31944" lon="-2.35226">
        <ele>-29.799999237061</ele>
        <time>2020-08-30T09:53:04.000Z</time>
      </trkpt>
      <trkpt lat="47.31937" lon="-2.35231">
        <ele>-29.39999961853</ele>
        <time>2020-08-30T09:53:05.000Z</time>
      </trkpt>
      <trkpt lat="47.31931" lon="-2.35236">
        <ele>-28.799999237061</ele>
        <time>2020-08-30T09:53:06.000Z</time>
      </trkpt>
      <trkpt lat="47.31926" lon="-2.35241">
        <ele>-28.39999961853</ele>
        <time>2020-08-30T09:53:07.000Z</time>
      </trkpt>
      <trkpt lat="47.31906" lon="-2.35257">
        <ele>-28.39999961853</ele>
        <time>2020-08-30T09:53:10.000Z</time>
      </trkpt>
      <trkpt lat="47.31878" lon="-2.3528">
        <ele>-28.39999961853</ele>
        <time>2020-08-30T09:53:15.000Z</time>
      </trkpt>
      <trkpt lat="47.31872" lon="-2.35285">
        <ele>-28.39999961853</ele>
        <time>2020-08-30T09:53:16.000Z</time>
      </trkpt>
      <trkpt lat="47.31834" lon="-2.3531">
        <ele>-28</ele>
        <time>2020-08-30T09:53:23.000Z</time>
      </trkpt>
      <trkpt lat="47.3183" lon="-2.35313">
        <ele>-27.60000038147</ele>
        <time>2020-08-30T09:53:24.000Z</time>
      </trkpt>
      <trkpt lat="47.31825" lon="-2.35316">
        <ele>-27.200000762939</ele>
        <time>2020-08-30T09:53:25.000Z</time>
      </trkpt>
      <trkpt lat="47.3182" lon="-2.35319">
        <ele>-26.799999237061</ele>
        <time>2020-08-30T09:53:26.000Z</time>
      </trkpt>
      <trkpt lat="47.31815" lon="-2.35322">
        <ele>-26.39999961853</ele>
        <time>2020-08-30T09:53:27.000Z</time>
      </trkpt>
      <trkpt lat="47.31793" lon="-2.35336">
        <ele>-26.39999961853</ele>
        <time>2020-08-30T09:53:32.000Z</time>
      </trkpt>
      <trkpt lat="47.31769" lon="-2.35352">
        <ele>-26</ele>
        <time>2020-08-30T09:53:37.000Z</time>
      </trkpt>
      <trkpt lat="47.31765" lon="-2.35355">
        <ele>-25.60000038147</ele>
        <time>2020-08-30T09:53:38.000Z</time>
      </trkpt>
      <trkpt lat="47.31762" lon="-2.35358">
        <ele>-25.200000762939</ele>
        <time>2020-08-30T09:53:39.000Z</time>
      </trkpt>
      <trkpt lat="47.31761" lon="-2.35363">
        <ele>-24.799999237061</ele>
        <time>2020-08-30T09:53:40.000Z</time>
      </trkpt>
      <trkpt lat="47.31761" lon="-2.35369">
        <ele>-24.200000762939</ele>
        <time>2020-08-30T09:53:41.000Z</time>
      </trkpt>
      <trkpt lat="47.31762" lon="-2.35373">
        <ele>-24.200000762939</ele>
        <time>2020-08-30T09:53:42.000Z</time>
      </trkpt>
      <trkpt lat="47.31771" lon="-2.35392">
        <ele>-24.200000762939</ele>
        <time>2020-08-30T09:53:46.000Z</time>
      </trkpt>
      <trkpt lat="47.31789" lon="-2.35422">
        <ele>-24.200000762939</ele>
        <time>2020-08-30T09:53:51.000Z</time>
      </trkpt>
      <trkpt lat="47.31808" lon="-2.35456">
        <ele>-24.799999237061</ele>
        <time>2020-08-30T09:53:56.000Z</time>
      </trkpt>
      <trkpt lat="47.31812" lon="-2.35463">
        <ele>-25.200000762939</ele>
        <time>2020-08-30T09:53:57.000Z</time>
      </trkpt>
      <trkpt lat="47.31815" lon="-2.3547">
        <ele>-25.60000038147</ele>
        <time>2020-08-30T09:53:58.000Z</time>
      </trkpt>
      <trkpt lat="47.31819" lon="-2.35477">
        <ele>-26</ele>
        <time>2020-08-30T09:53:59.000Z</time>
      </trkpt>
      <trkpt lat="47.31822" lon="-2.35484">
        <ele>-26.39999961853</ele>
        <time>2020-08-30T09:54:00.000Z</time>
      </trkpt>
      <trkpt lat="47.31836" lon="-2.35519">
        <ele>-26.39999961853</ele>
        <time>2020-08-30T09:54:05.000Z</time>
      </trkpt>
      <trkpt lat="47.31842" lon="-2.35538">
        <ele>-26.39999961853</ele>
        <time>2020-08-30T09:54:08.000Z</time>
      </trkpt>
      <trkpt lat="47.31844" lon="-2.35549">
        <ele>-26.39999961853</ele>
        <time>2020-08-30T09:54:10.000Z</time>
      </trkpt>
      <trkpt lat="47.31835" lon="-2.35555">
        <ele>-26.39999961853</ele>
        <time>2020-08-30T09:54:12.000Z</time>
      </trkpt>
      <trkpt lat="47.31824" lon="-2.35565">
        <ele>-26.39999961853</ele>
        <time>2020-08-30T09:54:15.000Z</time>
      </trkpt>
      <trkpt lat="47.31821" lon="-2.35569">
        <ele>-26.39999961853</ele>
        <time>2020-08-30T09:54:16.000Z</time>
      </trkpt>
      <trkpt lat="47.31809" lon="-2.35596">
        <ele>-26.39999961853</ele>
        <time>2020-08-30T09:54:21.000Z</time>
      </trkpt>
      <trkpt lat="47.31793" lon="-2.35624">
        <ele>-26.39999961853</ele>
        <time>2020-08-30T09:54:26.000Z</time>
      </trkpt>
      <trkpt lat="47.3179" lon="-2.35638">
        <ele>-26.39999961853</ele>
        <time>2020-08-30T09:54:28.000Z</time>
      </trkpt>
      <trkpt lat="47.31789" lon="-2.3565">
        <ele>-26.39999961853</ele>
        <time>2020-08-30T09:54:30.000Z</time>
      </trkpt>
      <trkpt lat="47.31788" lon="-2.35675">
        <ele>-26.39999961853</ele>
        <time>2020-08-30T09:54:34.000Z</time>
      </trkpt>
      <trkpt lat="47.31788" lon="-2.35682">
        <ele>-26.39999961853</ele>
        <time>2020-08-30T09:54:35.000Z</time>
      </trkpt>
      <trkpt lat="47.31788" lon="-2.35688">
        <ele>-26</ele>
        <time>2020-08-30T09:54:36.000Z</time>
      </trkpt>
      <trkpt lat="47.31788" lon="-2.35695">
        <ele>-25.60000038147</ele>
        <time>2020-08-30T09:54:37.000Z</time>
      </trkpt>
      <trkpt lat="47.31788" lon="-2.35701">
        <ele>-25.200000762939</ele>
        <time>2020-08-30T09:54:38.000Z</time>
      </trkpt>
      <trkpt lat="47.31788" lon="-2.35707">
        <ele>-24.799999237061</ele>
        <time>2020-08-30T09:54:39.000Z</time>
      </trkpt>
      <trkpt lat="47.31787" lon="-2.35714">
        <ele>-24.39999961853</ele>
        <time>2020-08-30T09:54:40.000Z</time>
      </trkpt>
      <trkpt lat="47.31785" lon="-2.35749">
        <ele>-24.39999961853</ele>
        <time>2020-08-30T09:54:46.000Z</time>
      </trkpt>
      <trkpt lat="47.31785" lon="-2.35762">
        <ele>-24</ele>
        <time>2020-08-30T09:54:48.000Z</time>
      </trkpt>
      <trkpt lat="47.31786" lon="-2.35769">
        <ele>-23.60000038147</ele>
        <time>2020-08-30T09:54:49.000Z</time>
      </trkpt>
      <trkpt lat="47.31786" lon="-2.35776">
        <ele>-23.200000762939</ele>
        <time>2020-08-30T09:54:50.000Z</time>
      </trkpt>
      <trkpt lat="47.31788" lon="-2.35783">
        <ele>-22.799999237061</ele>
        <time>2020-08-30T09:54:51.000Z</time>
      </trkpt>
      <trkpt lat="47.31791" lon="-2.35789">
        <ele>-22.200000762939</ele>
        <time>2020-08-30T09:54:52.000Z</time>
      </trkpt>
      <trkpt lat="47.3181" lon="-2.35817">
        <ele>-22.200000762939</ele>
        <time>2020-08-30T09:54:57.000Z</time>
      </trkpt>
      <trkpt lat="47.31821" lon="-2.35836">
        <ele>-22.200000762939</ele>
        <time>2020-08-30T09:55:00.000Z</time>
      </trkpt>
      <trkpt lat="47.31825" lon="-2.35852">
        <ele>-22.200000762939</ele>
        <time>2020-08-30T09:55:02.000Z</time>
      </trkpt>
      <trkpt lat="47.31821" lon="-2.35871">
        <ele>-22.200000762939</ele>
        <time>2020-08-30T09:55:05.000Z</time>
      </trkpt>
      <trkpt lat="47.31805" lon="-2.35882">
        <ele>-22.200000762939</ele>
        <time>2020-08-30T09:55:08.000Z</time>
      </trkpt>
      <trkpt lat="47.31795" lon="-2.35887">
        <ele>-22.200000762939</ele>
        <time>2020-08-30T09:55:10.000Z</time>
      </trkpt>
      <trkpt lat="47.31777" lon="-2.35901">
        <ele>-22.200000762939</ele>
        <time>2020-08-30T09:55:14.000Z</time>
      </trkpt>
      <trkpt lat="47.31748" lon="-2.35918">
        <ele>-22.200000762939</ele>
        <time>2020-08-30T09:55:20.000Z</time>
      </trkpt>
      <trkpt lat="47.31725" lon="-2.35934">
        <ele>-21.799999237061</ele>
        <time>2020-08-30T09:55:25.000Z</time>
      </trkpt>
      <trkpt lat="47.3172" lon="-2.35937">
        <ele>-21</ele>
        <time>2020-08-30T09:55:26.000Z</time>
      </trkpt>
      <trkpt lat="47.31715" lon="-2.3594">
        <ele>-20.60000038147</ele>
        <time>2020-08-30T09:55:27.000Z</time>
      </trkpt>
      <trkpt lat="47.3171" lon="-2.35942">
        <ele>-20.200000762939</ele>
        <time>2020-08-30T09:55:28.000Z</time>
      </trkpt>
      <trkpt lat="47.31701" lon="-2.35948">
        <ele>-20.200000762939</ele>
        <time>2020-08-30T09:55:30.000Z</time>
      </trkpt>
      <trkpt lat="47.31687" lon="-2.35959">
        <ele>-20.200000762939</ele>
        <time>2020-08-30T09:55:33.000Z</time>
      </trkpt>
      <trkpt lat="47.31654" lon="-2.35978">
        <ele>-20.200000762939</ele>
        <time>2020-08-30T09:55:40.000Z</time>
      </trkpt>
      <trkpt lat="47.31646" lon="-2.35984">
        <ele>-20.200000762939</ele>
        <time>2020-08-30T09:55:42.000Z</time>
      </trkpt>
      <trkpt lat="47.31642" lon="-2.3599">
        <ele>-19.799999237061</ele>
        <time>2020-08-30T09:55:43.000Z</time>
      </trkpt>
      <trkpt lat="47.31638" lon="-2.35995">
        <ele>-19.39999961853</ele>
        <time>2020-08-30T09:55:44.000Z</time>
      </trkpt>
      <trkpt lat="47.31634" lon="-2.35999">
        <ele>-19</ele>
        <time>2020-08-30T09:55:45.000Z</time>
      </trkpt>
      <trkpt lat="47.3163" lon="-2.36003">
        <ele>-18.60000038147</ele>
        <time>2020-08-30T09:55:46.000Z</time>
      </trkpt>
      <trkpt lat="47.31626" lon="-2.36007">
        <ele>-18.200000762939</ele>
        <time>2020-08-30T09:55:47.000Z</time>
      </trkpt>
      <trkpt lat="47.31614" lon="-2.36021">
        <ele>-18.200000762939</ele>
        <time>2020-08-30T09:55:50.000Z</time>
      </trkpt>
      <trkpt lat="47.31606" lon="-2.36031">
        <ele>-18.200000762939</ele>
        <time>2020-08-30T09:55:52.000Z</time>
      </trkpt>
      <trkpt lat="47.31594" lon="-2.36043">
        <ele>-18.200000762939</ele>
        <time>2020-08-30T09:55:55.000Z</time>
      </trkpt>
      <trkpt lat="47.31565" lon="-2.3607">
        <ele>-18.200000762939</ele>
        <time>2020-08-30T09:56:02.000Z</time>
      </trkpt>
      <trkpt lat="47.31556" lon="-2.36077">
        <ele>-17.60000038147</ele>
        <time>2020-08-30T09:56:04.000Z</time>
      </trkpt>
      <trkpt lat="47.31552" lon="-2.36082">
        <ele>-17.200000762939</ele>
        <time>2020-08-30T09:56:05.000Z</time>
      </trkpt>
      <trkpt lat="47.31548" lon="-2.36086">
        <ele>-16.799999237061</ele>
        <time>2020-08-30T09:56:06.000Z</time>
      </trkpt>
      <trkpt lat="47.31544" lon="-2.36091">
        <ele>-16.39999961853</ele>
        <time>2020-08-30T09:56:07.000Z</time>
      </trkpt>
      <trkpt lat="47.3154" lon="-2.36096">
        <ele>-16</ele>
        <time>2020-08-30T09:56:08.000Z</time>
      </trkpt>
      <trkpt lat="47.31519" lon="-2.36119">
        <ele>-16</ele>
        <time>2020-08-30T09:56:13.000Z</time>
      </trkpt>
      <trkpt lat="47.31508" lon="-2.36133">
        <ele>-16</ele>
        <time>2020-08-30T09:56:16.000Z</time>
      </trkpt>
      <trkpt lat="47.315" lon="-2.36143">
        <ele>-16</ele>
        <time>2020-08-30T09:56:18.000Z</time>
      </trkpt>
      <trkpt lat="47.31479" lon="-2.36165">
        <ele>-16</ele>
        <time>2020-08-30T09:56:24.000Z</time>
      </trkpt>
      <trkpt lat="47.31464" lon="-2.36175">
        <ele>-16</ele>
        <time>2020-08-30T09:56:30.000Z</time>
      </trkpt>
      <trkpt lat="47.31463" lon="-2.36175">
        <ele>-16</ele>
        <time>2020-08-30T09:56:33.000Z</time>
      </trkpt>
      <trkpt lat="47.31462" lon="-2.36176">
        <ele>-16</ele>
        <time>2020-08-30T10:00:02.000Z</time>
      </trkpt>
      <trkpt lat="47.31453" lon="-2.36189">
        <ele>-16</ele>
        <time>2020-08-30T10:00:07.000Z</time>
      </trkpt>
      <trkpt lat="47.31445" lon="-2.36195">
        <ele>-16</ele>
        <time>2020-08-30T10:00:09.000Z</time>
      </trkpt>
      <trkpt lat="47.31433" lon="-2.36202">
        <ele>-16</ele>
        <time>2020-08-30T10:00:13.000Z</time>
      </trkpt>
      <trkpt lat="47.31432" lon="-2.36202">
        <ele>-16</ele>
        <time>2020-08-30T10:00:15.000Z</time>
      </trkpt>
      <trkpt lat="47.31429" lon="-2.36205">
        <ele>-16</ele>
        <time>2020-08-30T10:00:25.000Z</time>
      </trkpt>
      <trkpt lat="47.31414" lon="-2.36216">
        <ele>-16</ele>
        <time>2020-08-30T10:00:29.000Z</time>
      </trkpt>
      <trkpt lat="47.31383" lon="-2.36231">
        <ele>-16</ele>
        <time>2020-08-30T10:00:35.000Z</time>
      </trkpt>
      <trkpt lat="47.31368" lon="-2.3624">
        <ele>-15.60000038147</ele>
        <time>2020-08-30T10:00:38.000Z</time>
      </trkpt>
      <trkpt lat="47.31364" lon="-2.36244">
        <ele>-15.199999809265</ele>
        <time>2020-08-30T10:00:39.000Z</time>
      </trkpt>
      <trkpt lat="47.31359" lon="-2.36248">
        <ele>-14.800000190735</ele>
        <time>2020-08-30T10:00:40.000Z</time>
      </trkpt>
      <trkpt lat="47.31354" lon="-2.36252">
        <ele>-14.199999809265</ele>
        <time>2020-08-30T10:00:41.000Z</time>
      </trkpt>
      <trkpt lat="47.31349" lon="-2.36256">
        <ele>-13.800000190735</ele>
        <time>2020-08-30T10:00:42.000Z</time>
      </trkpt>
      <trkpt lat="47.31331" lon="-2.36274">
        <ele>-13.800000190735</ele>
        <time>2020-08-30T10:00:46.000Z</time>
      </trkpt>
      <trkpt lat="47.31326" lon="-2.36279">
        <ele>-13.800000190735</ele>
        <time>2020-08-30T10:00:47.000Z</time>
      </trkpt>
      <trkpt lat="47.31306" lon="-2.36294">
        <ele>-13.800000190735</ele>
        <time>2020-08-30T10:00:51.000Z</time>
      </trkpt>
      <trkpt lat="47.313" lon="-2.36297">
        <ele>-13.800000190735</ele>
        <time>2020-08-30T10:00:52.000Z</time>
      </trkpt>
      <trkpt lat="47.31261" lon="-2.36315">
        <ele>-13.800000190735</ele>
        <time>2020-08-30T10:00:58.000Z</time>
      </trkpt>
      <trkpt lat="47.31212" lon="-2.36346">
        <ele>-13.800000190735</ele>
        <time>2020-08-30T10:01:05.000Z</time>
      </trkpt>
      <trkpt lat="47.3117" lon="-2.3637">
        <ele>-13.800000190735</ele>
        <time>2020-08-30T10:01:11.000Z</time>
      </trkpt>
      <trkpt lat="47.31163" lon="-2.36375">
        <ele>-14.199999809265</ele>
        <time>2020-08-30T10:01:12.000Z</time>
      </trkpt>
      <trkpt lat="47.31157" lon="-2.3638">
        <ele>-14.60000038147</ele>
        <time>2020-08-30T10:01:13.000Z</time>
      </trkpt>
      <trkpt lat="47.31151" lon="-2.36385">
        <ele>-15</ele>
        <time>2020-08-30T10:01:14.000Z</time>
      </trkpt>
      <trkpt lat="47.31144" lon="-2.36391">
        <ele>-15.39999961853</ele>
        <time>2020-08-30T10:01:15.000Z</time>
      </trkpt>
      <trkpt lat="47.31138" lon="-2.36395">
        <ele>-15.800000190735</ele>
        <time>2020-08-30T10:01:16.000Z</time>
      </trkpt>
      <trkpt lat="47.31132" lon="-2.36397">
        <ele>-15.800000190735</ele>
        <time>2020-08-30T10:01:17.000Z</time>
      </trkpt>
      <trkpt lat="47.31096" lon="-2.36416">
        <ele>-15.800000190735</ele>
        <time>2020-08-30T10:01:23.000Z</time>
      </trkpt>
      <trkpt lat="47.3109" lon="-2.36417">
        <ele>-15.800000190735</ele>
        <time>2020-08-30T10:01:24.000Z</time>
      </trkpt>
      <trkpt lat="47.31051" lon="-2.36423">
        <ele>-15.800000190735</ele>
        <time>2020-08-30T10:01:30.000Z</time>
      </trkpt>
      <trkpt lat="47.31014" lon="-2.3643">
        <ele>-15.800000190735</ele>
        <time>2020-08-30T10:01:36.000Z</time>
      </trkpt>
      <trkpt lat="47.30979" lon="-2.36445">
        <ele>-15.800000190735</ele>
        <time>2020-08-30T10:01:42.000Z</time>
      </trkpt>
      <trkpt lat="47.30947" lon="-2.36458">
        <ele>-15.800000190735</ele>
        <time>2020-08-30T10:01:48.000Z</time>
      </trkpt>
      <trkpt lat="47.30918" lon="-2.36465">
        <ele>-15.800000190735</ele>
        <time>2020-08-30T10:01:53.000Z</time>
      </trkpt>
      <trkpt lat="47.30884" lon="-2.36477">
        <ele>-15.800000190735</ele>
        <time>2020-08-30T10:01:59.000Z</time>
      </trkpt>
      <trkpt lat="47.30873" lon="-2.3648">
        <ele>-15.800000190735</ele>
        <time>2020-08-30T10:02:01.000Z</time>
      </trkpt>
      <trkpt lat="47.30853" lon="-2.36485">
        <ele>-15.800000190735</ele>
        <time>2020-08-30T10:02:05.000Z</time>
      </trkpt>
      <trkpt lat="47.30848" lon="-2.36486">
        <ele>-15.800000190735</ele>
        <time>2020-08-30T10:02:06.000Z</time>
      </trkpt>
      <trkpt lat="47.3083" lon="-2.36486">
        <ele>-15.800000190735</ele>
        <time>2020-08-30T10:02:10.000Z</time>
      </trkpt>
      <trkpt lat="47.30813" lon="-2.36473">
        <ele>-15.800000190735</ele>
        <time>2020-08-30T10:02:14.000Z</time>
      </trkpt>
      <trkpt lat="47.30797" lon="-2.36474">
        <ele>-15.800000190735</ele>
        <time>2020-08-30T10:02:17.000Z</time>
      </trkpt>
      <trkpt lat="47.30787" lon="-2.36479">
        <ele>-15.800000190735</ele>
        <time>2020-08-30T10:02:19.000Z</time>
      </trkpt>
      <trkpt lat="47.30777" lon="-2.36482">
        <ele>-15.39999961853</ele>
        <time>2020-08-30T10:02:21.000Z</time>
      </trkpt>
      <trkpt lat="47.30772" lon="-2.36484">
        <ele>-15</ele>
        <time>2020-08-30T10:02:22.000Z</time>
      </trkpt>
      <trkpt lat="47.30767" lon="-2.36486">
        <ele>-14.60000038147</ele>
        <time>2020-08-30T10:02:23.000Z</time>
      </trkpt>
      <trkpt lat="47.30762" lon="-2.36488">
        <ele>-14.199999809265</ele>
        <time>2020-08-30T10:02:24.000Z</time>
      </trkpt>
      <trkpt lat="47.30757" lon="-2.3649">
        <ele>-13.60000038147</ele>
        <time>2020-08-30T10:02:25.000Z</time>
      </trkpt>
      <trkpt lat="47.30724" lon="-2.36503">
        <ele>-13.60000038147</ele>
        <time>2020-08-30T10:02:32.000Z</time>
      </trkpt>
      <trkpt lat="47.30712" lon="-2.36512">
        <ele>-13.60000038147</ele>
        <time>2020-08-30T10:02:35.000Z</time>
      </trkpt>
      <trkpt lat="47.30709" lon="-2.36516">
        <ele>-13.199999809265</ele>
        <time>2020-08-30T10:02:36.000Z</time>
      </trkpt>
      <trkpt lat="47.30706" lon="-2.36519">
        <ele>-12.800000190735</ele>
        <time>2020-08-30T10:02:37.000Z</time>
      </trkpt>
      <trkpt lat="47.30702" lon="-2.36521">
        <ele>-12.39999961853</ele>
        <time>2020-08-30T10:02:38.000Z</time>
      </trkpt>
      <trkpt lat="47.30698" lon="-2.36519">
        <ele>-12</ele>
        <time>2020-08-30T10:02:39.000Z</time>
      </trkpt>
      <trkpt lat="47.30696" lon="-2.36515">
        <ele>-11.60000038147</ele>
        <time>2020-08-30T10:02:40.000Z</time>
      </trkpt>
      <trkpt lat="47.30686" lon="-2.36512">
        <ele>-11.60000038147</ele>
        <time>2020-08-30T10:02:43.000Z</time>
      </trkpt>
      <trkpt lat="47.30675" lon="-2.36518">
        <ele>-11.60000038147</ele>
        <time>2020-08-30T10:02:46.000Z</time>
      </trkpt>
      <trkpt lat="47.30662" lon="-2.36523">
        <ele>-11.60000038147</ele>
        <time>2020-08-30T10:02:49.000Z</time>
      </trkpt>
      <trkpt lat="47.30633" lon="-2.36538">
        <ele>-11.60000038147</ele>
        <time>2020-08-30T10:02:56.000Z</time>
      </trkpt>
      <trkpt lat="47.30629" lon="-2.36539">
        <ele>-11.199999809265</ele>
        <time>2020-08-30T10:02:57.000Z</time>
      </trkpt>
      <trkpt lat="47.30625" lon="-2.36541">
        <ele>-10.800000190735</ele>
        <time>2020-08-30T10:02:58.000Z</time>
      </trkpt>
      <trkpt lat="47.30621" lon="-2.36542">
        <ele>-10.39999961853</ele>
        <time>2020-08-30T10:02:59.000Z</time>
      </trkpt>
      <trkpt lat="47.30616" lon="-2.36543">
        <ele>-10</ele>
        <time>2020-08-30T10:03:00.000Z</time>
      </trkpt>
      <trkpt lat="47.30611" lon="-2.36544">
        <ele>-9.6000003814697</ele>
        <time>2020-08-30T10:03:01.000Z</time>
      </trkpt>
      <trkpt lat="47.30607" lon="-2.36545">
        <ele>-9.6000003814697</ele>
        <time>2020-08-30T10:03:02.000Z</time>
      </trkpt>
      <trkpt lat="47.30597" lon="-2.36546">
        <ele>-9.6000003814697</ele>
        <time>2020-08-30T10:03:04.000Z</time>
      </trkpt>
      <trkpt lat="47.30581" lon="-2.3655">
        <ele>-9.6000003814697</ele>
        <time>2020-08-30T10:03:07.000Z</time>
      </trkpt>
      <trkpt lat="47.30566" lon="-2.36558">
        <ele>-9.6000003814697</ele>
        <time>2020-08-30T10:03:10.000Z</time>
      </trkpt>
      <trkpt lat="47.30557" lon="-2.36566">
        <ele>-9.6000003814697</ele>
        <time>2020-08-30T10:03:12.000Z</time>
      </trkpt>
      <trkpt lat="47.30553" lon="-2.36569">
        <ele>-9.6000003814697</ele>
        <time>2020-08-30T10:03:13.000Z</time>
      </trkpt>
      <trkpt lat="47.30545" lon="-2.36576">
        <ele>-9.6000003814697</ele>
        <time>2020-08-30T10:03:15.000Z</time>
      </trkpt>
      <trkpt lat="47.30528" lon="-2.36588">
        <ele>-9.6000003814697</ele>
        <time>2020-08-30T10:03:19.000Z</time>
      </trkpt>
      <trkpt lat="47.30524" lon="-2.36589">
        <ele>-9.6000003814697</ele>
        <time>2020-08-30T10:03:20.000Z</time>
      </trkpt>
      <trkpt lat="47.30507" lon="-2.36597">
        <ele>-9.6000003814697</ele>
        <time>2020-08-30T10:03:24.000Z</time>
      </trkpt>
      <trkpt lat="47.30493" lon="-2.36601">
        <ele>-9.6000003814697</ele>
        <time>2020-08-30T10:03:27.000Z</time>
      </trkpt>
      <trkpt lat="47.30479" lon="-2.36606">
        <ele>-9.6000003814697</ele>
        <time>2020-08-30T10:03:30.000Z</time>
      </trkpt>
      <trkpt lat="47.30465" lon="-2.36613">
        <ele>-9.6000003814697</ele>
        <time>2020-08-30T10:03:33.000Z</time>
      </trkpt>
      <trkpt lat="47.30452" lon="-2.36624">
        <ele>-9.6000003814697</ele>
        <time>2020-08-30T10:03:36.000Z</time>
      </trkpt>
      <trkpt lat="47.30437" lon="-2.36639">
        <ele>-9.6000003814697</ele>
        <time>2020-08-30T10:03:40.000Z</time>
      </trkpt>
      <trkpt lat="47.30426" lon="-2.36648">
        <ele>-9.6000003814697</ele>
        <time>2020-08-30T10:03:43.000Z</time>
      </trkpt>
      <trkpt lat="47.30413" lon="-2.36653">
        <ele>-9.6000003814697</ele>
        <time>2020-08-30T10:03:46.000Z</time>
      </trkpt>
      <trkpt lat="47.30403" lon="-2.36654">
        <ele>-9.6000003814697</ele>
        <time>2020-08-30T10:03:48.000Z</time>
      </trkpt>
      <trkpt lat="47.30368" lon="-2.36654">
        <ele>-9.6000003814697</ele>
        <time>2020-08-30T10:03:54.000Z</time>
      </trkpt>
      <trkpt lat="47.30331" lon="-2.36649">
        <ele>-9.6000003814697</ele>
        <time>2020-08-30T10:04:00.000Z</time>
      </trkpt>
      <trkpt lat="47.30312" lon="-2.36646">
        <ele>-10.39999961853</ele>
        <time>2020-08-30T10:04:03.000Z</time>
      </trkpt>
      <trkpt lat="47.30307" lon="-2.36647">
        <ele>-10.800000190735</ele>
        <time>2020-08-30T10:04:04.000Z</time>
      </trkpt>
      <trkpt lat="47.30301" lon="-2.36648">
        <ele>-11.199999809265</ele>
        <time>2020-08-30T10:04:05.000Z</time>
      </trkpt>
      <trkpt lat="47.30295" lon="-2.3665">
        <ele>-11.60000038147</ele>
        <time>2020-08-30T10:04:06.000Z</time>
      </trkpt>
      <trkpt lat="47.30276" lon="-2.36658">
        <ele>-11.60000038147</ele>
        <time>2020-08-30T10:04:10.000Z</time>
      </trkpt>
      <trkpt lat="47.30249" lon="-2.36666">
        <ele>-11.60000038147</ele>
        <time>2020-08-30T10:04:15.000Z</time>
      </trkpt>
      <trkpt lat="47.30207" lon="-2.36672">
        <ele>-11.60000038147</ele>
        <time>2020-08-30T10:04:23.000Z</time>
      </trkpt>
      <trkpt lat="47.30199" lon="-2.36674">
        <ele>-11.60000038147</ele>
        <time>2020-08-30T10:04:25.000Z</time>
      </trkpt>
      <trkpt lat="47.3019" lon="-2.36677">
        <ele>-11.60000038147</ele>
        <time>2020-08-30T10:04:28.000Z</time>
      </trkpt>
      <trkpt lat="47.30186" lon="-2.36677">
        <ele>-11.60000038147</ele>
        <time>2020-08-30T10:04:31.000Z</time>
      </trkpt>
      <trkpt lat="47.30186" lon="-2.36677">
        <ele>-11.60000038147</ele>
        <time>2020-08-30T10:04:32.000Z</time>
      </trkpt>
      <trkpt lat="47.30174" lon="-2.36678">
        <ele>-11.60000038147</ele>
        <time>2020-08-30T10:06:21.000Z</time>
      </trkpt>
      <trkpt lat="47.30167" lon="-2.36683">
        <ele>-12</ele>
        <time>2020-08-30T10:06:25.000Z</time>
      </trkpt>
      <trkpt lat="47.30164" lon="-2.36684">
        <ele>-12.39999961853</ele>
        <time>2020-08-30T10:06:26.000Z</time>
      </trkpt>
      <trkpt lat="47.3016" lon="-2.36684">
        <ele>-12.800000190735</ele>
        <time>2020-08-30T10:06:27.000Z</time>
      </trkpt>
      <trkpt lat="47.30156" lon="-2.36684">
        <ele>-13.199999809265</ele>
        <time>2020-08-30T10:06:28.000Z</time>
      </trkpt>
      <trkpt lat="47.30151" lon="-2.36685">
        <ele>-13.60000038147</ele>
        <time>2020-08-30T10:06:29.000Z</time>
      </trkpt>
      <trkpt lat="47.30146" lon="-2.3669">
        <ele>-13.60000038147</ele>
        <time>2020-08-30T10:06:30.000Z</time>
      </trkpt>
      <trkpt lat="47.30116" lon="-2.36712">
        <ele>-13.60000038147</ele>
        <time>2020-08-30T10:06:35.000Z</time>
      </trkpt>
      <trkpt lat="47.30089" lon="-2.36736">
        <ele>-13.60000038147</ele>
        <time>2020-08-30T10:06:41.000Z</time>
      </trkpt>
      <trkpt lat="47.30065" lon="-2.3676">
        <ele>-13.60000038147</ele>
        <time>2020-08-30T10:06:47.000Z</time>
      </trkpt>
      <trkpt lat="47.30061" lon="-2.36764">
        <ele>-13.60000038147</ele>
        <time>2020-08-30T10:06:48.000Z</time>
      </trkpt>
      <trkpt lat="47.30046" lon="-2.36784">
        <ele>-13.60000038147</ele>
        <time>2020-08-30T10:06:52.000Z</time>
      </trkpt>
      <trkpt lat="47.30042" lon="-2.36789">
        <ele>-13.60000038147</ele>
        <time>2020-08-30T10:06:53.000Z</time>
      </trkpt>
      <trkpt lat="47.30011" lon="-2.36826">
        <ele>-13.60000038147</ele>
        <time>2020-08-30T10:07:00.000Z</time>
      </trkpt>
      <trkpt lat="47.2997" lon="-2.36873">
        <ele>-13.60000038147</ele>
        <time>2020-08-30T10:07:09.000Z</time>
      </trkpt>
      <trkpt lat="47.29967" lon="-2.36879">
        <ele>-13.60000038147</ele>
        <time>2020-08-30T10:07:10.000Z</time>
      </trkpt>
      <trkpt lat="47.29948" lon="-2.36902">
        <ele>-13.60000038147</ele>
        <time>2020-08-30T10:07:15.000Z</time>
      </trkpt>
      <trkpt lat="47.29917" lon="-2.36938">
        <ele>-13.60000038147</ele>
        <time>2020-08-30T10:07:23.000Z</time>
      </trkpt>
      <trkpt lat="47.2991" lon="-2.36949">
        <ele>-13.60000038147</ele>
        <time>2020-08-30T10:07:25.000Z</time>
      </trkpt>
      <trkpt lat="47.29904" lon="-2.36967">
        <ele>-13.60000038147</ele>
        <time>2020-08-30T10:07:28.000Z</time>
      </trkpt>
      <trkpt lat="47.299" lon="-2.36971">
        <ele>-13.60000038147</ele>
        <time>2020-08-30T10:07:29.000Z</time>
      </trkpt>
      <trkpt lat="47.2989" lon="-2.36972">
        <ele>-13.60000038147</ele>
        <time>2020-08-30T10:07:31.000Z</time>
      </trkpt>
      <trkpt lat="47.29882" lon="-2.36974">
        <ele>-13.60000038147</ele>
        <time>2020-08-30T10:07:33.000Z</time>
      </trkpt>
      <trkpt lat="47.29869" lon="-2.36984">
        <ele>-13.60000038147</ele>
        <time>2020-08-30T10:07:36.000Z</time>
      </trkpt>
      <trkpt lat="47.29861" lon="-2.36993">
        <ele>-13.60000038147</ele>
        <time>2020-08-30T10:07:38.000Z</time>
      </trkpt>
      <trkpt lat="47.29857" lon="-2.36997">
        <ele>-13.199999809265</ele>
        <time>2020-08-30T10:07:39.000Z</time>
      </trkpt>
      <trkpt lat="47.29854" lon="-2.37002">
        <ele>-12.800000190735</ele>
        <time>2020-08-30T10:07:40.000Z</time>
      </trkpt>
      <trkpt lat="47.2985" lon="-2.37006">
        <ele>-12.39999961853</ele>
        <time>2020-08-30T10:07:41.000Z</time>
      </trkpt>
      <trkpt lat="47.29846" lon="-2.37011">
        <ele>-12</ele>
        <time>2020-08-30T10:07:42.000Z</time>
      </trkpt>
      <trkpt lat="47.29842" lon="-2.37016">
        <ele>-11.60000038147</ele>
        <time>2020-08-30T10:07:43.000Z</time>
      </trkpt>
      <trkpt lat="47.29827" lon="-2.37036">
        <ele>-11.60000038147</ele>
        <time>2020-08-30T10:07:47.000Z</time>
      </trkpt>
      <trkpt lat="47.29818" lon="-2.37053">
        <ele>-11.60000038147</ele>
        <time>2020-08-30T10:07:50.000Z</time>
      </trkpt>
      <trkpt lat="47.2981" lon="-2.37071">
        <ele>-11.60000038147</ele>
        <time>2020-08-30T10:07:53.000Z</time>
      </trkpt>
      <trkpt lat="47.29807" lon="-2.37092">
        <ele>-11.60000038147</ele>
        <time>2020-08-30T10:07:56.000Z</time>
      </trkpt>
      <trkpt lat="47.29803" lon="-2.37112">
        <ele>-11.60000038147</ele>
        <time>2020-08-30T10:07:59.000Z</time>
      </trkpt>
      <trkpt lat="47.29798" lon="-2.37134">
        <ele>-11.60000038147</ele>
        <time>2020-08-30T10:08:02.000Z</time>
      </trkpt>
      <trkpt lat="47.29782" lon="-2.37164">
        <ele>-11.60000038147</ele>
        <time>2020-08-30T10:08:07.000Z</time>
      </trkpt>
      <trkpt lat="47.29758" lon="-2.3718">
        <ele>-11.60000038147</ele>
        <time>2020-08-30T10:08:12.000Z</time>
      </trkpt>
      <trkpt lat="47.29753" lon="-2.37182">
        <ele>-11.60000038147</ele>
        <time>2020-08-30T10:08:13.000Z</time>
      </trkpt>
      <trkpt lat="47.29717" lon="-2.37188">
        <ele>-11.60000038147</ele>
        <time>2020-08-30T10:08:20.000Z</time>
      </trkpt>
      <trkpt lat="47.2967" lon="-2.37209">
        <ele>-11.60000038147</ele>
        <time>2020-08-30T10:08:29.000Z</time>
      </trkpt>
      <trkpt lat="47.29636" lon="-2.37222">
        <ele>-12</ele>
        <time>2020-08-30T10:08:36.000Z</time>
      </trkpt>
      <trkpt lat="47.29631" lon="-2.37224">
        <ele>-12.39999961853</ele>
        <time>2020-08-30T10:08:37.000Z</time>
      </trkpt>
      <trkpt lat="47.29625" lon="-2.37226">
        <ele>-12.800000190735</ele>
        <time>2020-08-30T10:08:38.000Z</time>
      </trkpt>
      <trkpt lat="47.2962" lon="-2.37229">
        <ele>-13.199999809265</ele>
        <time>2020-08-30T10:08:39.000Z</time>
      </trkpt>
      <trkpt lat="47.29614" lon="-2.37232">
        <ele>-13.60000038147</ele>
        <time>2020-08-30T10:08:40.000Z</time>
      </trkpt>
      <trkpt lat="47.29584" lon="-2.3725">
        <ele>-14.199999809265</ele>
        <time>2020-08-30T10:08:45.000Z</time>
      </trkpt>
      <trkpt lat="47.29578" lon="-2.37253">
        <ele>-14.60000038147</ele>
        <time>2020-08-30T10:08:46.000Z</time>
      </trkpt>
      <trkpt lat="47.29572" lon="-2.37257">
        <ele>-15</ele>
        <time>2020-08-30T10:08:47.000Z</time>
      </trkpt>
      <trkpt lat="47.29566" lon="-2.3726">
        <ele>-15.39999961853</ele>
        <time>2020-08-30T10:08:48.000Z</time>
      </trkpt>
      <trkpt lat="47.2956" lon="-2.37264">
        <ele>-15.800000190735</ele>
        <time>2020-08-30T10:08:49.000Z</time>
      </trkpt>
      <trkpt lat="47.29553" lon="-2.37267">
        <ele>-15.800000190735</ele>
        <time>2020-08-30T10:08:50.000Z</time>
      </trkpt>
      <trkpt lat="47.29533" lon="-2.37279">
        <ele>-15.800000190735</ele>
        <time>2020-08-30T10:08:53.000Z</time>
      </trkpt>
      <trkpt lat="47.29524" lon="-2.37283">
        <ele>-15.800000190735</ele>
        <time>2020-08-30T10:08:54.000Z</time>
      </trkpt>
      <trkpt lat="47.295" lon="-2.37286">
        <ele>-16.200000762939</ele>
        <time>2020-08-30T10:08:57.000Z</time>
      </trkpt>
      <trkpt lat="47.29493" lon="-2.37287">
        <ele>-17.200000762939</ele>
        <time>2020-08-30T10:08:58.000Z</time>
      </trkpt>
      <trkpt lat="47.29488" lon="-2.37287">
        <ele>-17.60000038147</ele>
        <time>2020-08-30T10:08:59.000Z</time>
      </trkpt>
      <trkpt lat="47.29484" lon="-2.37288">
        <ele>-18</ele>
        <time>2020-08-30T10:09:00.000Z</time>
      </trkpt>
      <trkpt lat="47.29481" lon="-2.3729">
        <ele>-18.60000038147</ele>
        <time>2020-08-30T10:09:01.000Z</time>
      </trkpt>
      <trkpt lat="47.29479" lon="-2.37292">
        <ele>-19</ele>
        <time>2020-08-30T10:09:02.000Z</time>
      </trkpt>
      <trkpt lat="47.29478" lon="-2.37293">
        <ele>-19.60000038147</ele>
        <time>2020-08-30T10:09:03.000Z</time>
      </trkpt>
      <trkpt lat="47.29477" lon="-2.37294">
        <ele>-20</ele>
        <time>2020-08-30T10:09:04.000Z</time>
      </trkpt>
      <trkpt lat="47.29476" lon="-2.37295">
        <ele>-20</ele>
        <time>2020-08-30T10:09:05.000Z</time>
      </trkpt>
      <trkpt lat="47.29474" lon="-2.37296">
        <ele>-20</ele>
        <time>2020-08-30T10:09:06.000Z</time>
      </trkpt>
      <trkpt lat="47.2947" lon="-2.37293">
        <ele>-20</ele>
        <time>2020-08-30T10:09:09.000Z</time>
      </trkpt>
      <trkpt lat="47.29464" lon="-2.37287">
        <ele>-20</ele>
        <time>2020-08-30T10:09:12.000Z</time>
      </trkpt>
      <trkpt lat="47.29455" lon="-2.3728">
        <ele>-20</ele>
        <time>2020-08-30T10:09:15.000Z</time>
      </trkpt>
      <trkpt lat="47.29452" lon="-2.37277">
        <ele>-20.39999961853</ele>
        <time>2020-08-30T10:09:16.000Z</time>
      </trkpt>
      <trkpt lat="47.29448" lon="-2.37273">
        <ele>-20.799999237061</ele>
        <time>2020-08-30T10:09:17.000Z</time>
      </trkpt>
      <trkpt lat="47.29443" lon="-2.37268">
        <ele>-21.39999961853</ele>
        <time>2020-08-30T10:09:18.000Z</time>
      </trkpt>
      <trkpt lat="47.29438" lon="-2.37264">
        <ele>-21.799999237061</ele>
        <time>2020-08-30T10:09:19.000Z</time>
      </trkpt>
      <trkpt lat="47.29433" lon="-2.37259">
        <ele>-22.200000762939</ele>
        <time>2020-08-30T10:09:20.000Z</time>
      </trkpt>
      <trkpt lat="47.29418" lon="-2.37244">
        <ele>-22.200000762939</ele>
        <time>2020-08-30T10:09:23.000Z</time>
      </trkpt>
      <trkpt lat="47.29412" lon="-2.3724">
        <ele>-22.200000762939</ele>
        <time>2020-08-30T10:09:24.000Z</time>
      </trkpt>
      <trkpt lat="47.29394" lon="-2.37227">
        <ele>-22.200000762939</ele>
        <time>2020-08-30T10:09:27.000Z</time>
      </trkpt>
      <trkpt lat="47.29374" lon="-2.37218">
        <ele>-22.200000762939</ele>
        <time>2020-08-30T10:09:30.000Z</time>
      </trkpt>
      <trkpt lat="47.29324" lon="-2.37187">
        <ele>-22.200000762939</ele>
        <time>2020-08-30T10:09:38.000Z</time>
      </trkpt>
      <trkpt lat="47.29285" lon="-2.37146">
        <ele>-22.200000762939</ele>
        <time>2020-08-30T10:09:45.000Z</time>
      </trkpt>
      <trkpt lat="47.29242" lon="-2.37099">
        <ele>-22.200000762939</ele>
        <time>2020-08-30T10:09:53.000Z</time>
      </trkpt>
      <trkpt lat="47.29196" lon="-2.37048">
        <ele>-22.200000762939</ele>
        <time>2020-08-30T10:10:02.000Z</time>
      </trkpt>
      <trkpt lat="47.29172" lon="-2.37018">
        <ele>-22.200000762939</ele>
        <time>2020-08-30T10:10:07.000Z</time>
      </trkpt>
      <trkpt lat="47.29138" lon="-2.36973">
        <ele>-22.200000762939</ele>
        <time>2020-08-30T10:10:15.000Z</time>
      </trkpt>
      <trkpt lat="47.29135" lon="-2.3697">
        <ele>-22.200000762939</ele>
        <time>2020-08-30T10:10:16.000Z</time>
      </trkpt>
      <trkpt lat="47.29121" lon="-2.36961">
        <ele>-22.200000762939</ele>
        <time>2020-08-30T10:10:20.000Z</time>
      </trkpt>
      <trkpt lat="47.29111" lon="-2.36957">
        <ele>-22.200000762939</ele>
        <time>2020-08-30T10:10:25.000Z</time>
      </trkpt>
      <trkpt lat="47.29101" lon="-2.36957">
        <ele>-22.200000762939</ele>
        <time>2020-08-30T10:10:31.000Z</time>
      </trkpt>
      <trkpt lat="47.29085" lon="-2.36952">
        <ele>-22.200000762939</ele>
        <time>2020-08-30T10:10:37.000Z</time>
      </trkpt>
      <trkpt lat="47.29069" lon="-2.3694">
        <ele>-22.200000762939</ele>
        <time>2020-08-30T10:10:42.000Z</time>
      </trkpt>
      <trkpt lat="47.29057" lon="-2.36928">
        <ele>-22.60000038147</ele>
        <time>2020-08-30T10:10:46.000Z</time>
      </trkpt>
      <trkpt lat="47.29055" lon="-2.36926">
        <ele>-23</ele>
        <time>2020-08-30T10:10:47.000Z</time>
      </trkpt>
      <trkpt lat="47.29053" lon="-2.36924">
        <ele>-23.39999961853</ele>
        <time>2020-08-30T10:10:48.000Z</time>
      </trkpt>
      <trkpt lat="47.2905" lon="-2.36922">
        <ele>-23.799999237061</ele>
        <time>2020-08-30T10:10:49.000Z</time>
      </trkpt>
      <trkpt lat="47.29046" lon="-2.36918">
        <ele>-24.200000762939</ele>
        <time>2020-08-30T10:10:50.000Z</time>
      </trkpt>
      <trkpt lat="47.29038" lon="-2.3691">
        <ele>-24.200000762939</ele>
        <time>2020-08-30T10:10:52.000Z</time>
      </trkpt>
      <trkpt lat="47.29014" lon="-2.36884">
        <ele>-24.200000762939</ele>
        <time>2020-08-30T10:10:57.000Z</time>
      </trkpt>
      <trkpt lat="47.28984" lon="-2.36855">
        <ele>-25</ele>
        <time>2020-08-30T10:11:02.000Z</time>
      </trkpt>
      <trkpt lat="47.28978" lon="-2.36849">
        <ele>-25.39999961853</ele>
        <time>2020-08-30T10:11:03.000Z</time>
      </trkpt>
      <trkpt lat="47.28972" lon="-2.36843">
        <ele>-26</ele>
        <time>2020-08-30T10:11:04.000Z</time>
      </trkpt>
      <trkpt lat="47.28966" lon="-2.36837">
        <ele>-26.39999961853</ele>
        <time>2020-08-30T10:11:05.000Z</time>
      </trkpt>
      <trkpt lat="47.28937" lon="-2.36811">
        <ele>-26.39999961853</ele>
        <time>2020-08-30T10:11:10.000Z</time>
      </trkpt>
      <trkpt lat="47.28922" lon="-2.36795">
        <ele>-26.799999237061</ele>
        <time>2020-08-30T10:11:14.000Z</time>
      </trkpt>
      <trkpt lat="47.28919" lon="-2.36792">
        <ele>-27.200000762939</ele>
        <time>2020-08-30T10:11:15.000Z</time>
      </trkpt>
      <trkpt lat="47.28916" lon="-2.36789">
        <ele>-27.60000038147</ele>
        <time>2020-08-30T10:11:16.000Z</time>
      </trkpt>
      <trkpt lat="47.28913" lon="-2.36787">
        <ele>-28</ele>
        <time>2020-08-30T10:11:17.000Z</time>
      </trkpt>
      <trkpt lat="47.2891" lon="-2.36785">
        <ele>-28.39999961853</ele>
        <time>2020-08-30T10:11:18.000Z</time>
      </trkpt>
      <trkpt lat="47.28904" lon="-2.36782">
        <ele>-28.39999961853</ele>
        <time>2020-08-30T10:11:20.000Z</time>
      </trkpt>
      <trkpt lat="47.289" lon="-2.36781">
        <ele>-29</ele>
        <time>2020-08-30T10:11:21.000Z</time>
      </trkpt>
      <trkpt lat="47.28897" lon="-2.36779">
        <ele>-29.39999961853</ele>
        <time>2020-08-30T10:11:22.000Z</time>
      </trkpt>
      <trkpt lat="47.28894" lon="-2.36778">
        <ele>-29.799999237061</ele>
        <time>2020-08-30T10:11:23.000Z</time>
      </trkpt>
      <trkpt lat="47.28891" lon="-2.36778">
        <ele>-30.200000762939</ele>
        <time>2020-08-30T10:11:24.000Z</time>
      </trkpt>
      <trkpt lat="47.28888" lon="-2.36778">
        <ele>-30.60000038147</ele>
        <time>2020-08-30T10:11:25.000Z</time>
      </trkpt>
      <trkpt lat="47.28884" lon="-2.36777">
        <ele>-30.60000038147</ele>
        <time>2020-08-30T10:11:27.000Z</time>
      </trkpt>
      <trkpt lat="47.28882" lon="-2.36777">
        <ele>-30.60000038147</ele>
        <time>2020-08-30T10:11:28.000Z</time>
      </trkpt>
      <trkpt lat="47.28877" lon="-2.36786">
        <ele>-30.60000038147</ele>
        <time>2020-08-30T10:11:31.000Z</time>
      </trkpt>
      <trkpt lat="47.28869" lon="-2.36809">
        <ele>-30.60000038147</ele>
        <time>2020-08-30T10:11:37.000Z</time>
      </trkpt>
      <trkpt lat="47.28868" lon="-2.36814">
        <ele>-31</ele>
        <time>2020-08-30T10:11:40.000Z</time>
      </trkpt>
      <trkpt lat="47.28868" lon="-2.36815">
        <ele>-31.39999961853</ele>
        <time>2020-08-30T10:11:41.000Z</time>
      </trkpt>
      <trkpt lat="47.28867" lon="-2.36815">
        <ele>-32.799999237061</ele>
        <time>2020-08-30T10:12:16.000Z</time>
      </trkpt>
      <trkpt lat="47.28864" lon="-2.36821">
        <ele>-32.799999237061</ele>
        <time>2020-08-30T10:12:18.000Z</time>
      </trkpt>
      <trkpt lat="47.28853" lon="-2.36848">
        <ele>-32.799999237061</ele>
        <time>2020-08-30T10:12:24.000Z</time>
      </trkpt>
      <trkpt lat="47.28846" lon="-2.36873">
        <ele>-32.799999237061</ele>
        <time>2020-08-30T10:12:29.000Z</time>
      </trkpt>
      <trkpt lat="47.28841" lon="-2.36879">
        <ele>-33.200000762939</ele>
        <time>2020-08-30T10:12:32.000Z</time>
      </trkpt>
      <trkpt lat="47.28839" lon="-2.36877">
        <ele>-33.599998474121</ele>
        <time>2020-08-30T10:12:33.000Z</time>
      </trkpt>
      <trkpt lat="47.28836" lon="-2.36874">
        <ele>-34</ele>
        <time>2020-08-30T10:12:34.000Z</time>
      </trkpt>
      <trkpt lat="47.28832" lon="-2.36869">
        <ele>-34.400001525879</ele>
        <time>2020-08-30T10:12:35.000Z</time>
      </trkpt>
      <trkpt lat="47.28829" lon="-2.36861">
        <ele>-34.799999237061</ele>
        <time>2020-08-30T10:12:36.000Z</time>
      </trkpt>
      <trkpt lat="47.28826" lon="-2.36852">
        <ele>-35.400001525879</ele>
        <time>2020-08-30T10:12:37.000Z</time>
      </trkpt>
      <trkpt lat="47.28824" lon="-2.36844">
        <ele>-35.799999237061</ele>
        <time>2020-08-30T10:12:38.000Z</time>
      </trkpt>
      <trkpt lat="47.28822" lon="-2.36836">
        <ele>-36.400001525879</ele>
        <time>2020-08-30T10:12:39.000Z</time>
      </trkpt>
      <trkpt lat="47.28819" lon="-2.36829">
        <ele>-37</ele>
        <time>2020-08-30T10:12:40.000Z</time>
      </trkpt>
      <trkpt lat="47.28816" lon="-2.36824">
        <ele>-38.400001525879</ele>
        <time>2020-08-30T10:12:41.000Z</time>
      </trkpt>
      <trkpt lat="47.28812" lon="-2.36821">
        <ele>-39.400001525879</ele>
        <time>2020-08-30T10:12:42.000Z</time>
      </trkpt>
      <trkpt lat="47.28808" lon="-2.3682">
        <ele>-40.200000762939</ele>
        <time>2020-08-30T10:12:43.000Z</time>
      </trkpt>
      <trkpt lat="47.28804" lon="-2.36821">
        <ele>-41</ele>
        <time>2020-08-30T10:12:44.000Z</time>
      </trkpt>
      <trkpt lat="47.288" lon="-2.36825">
        <ele>-41.799999237061</ele>
        <time>2020-08-30T10:12:45.000Z</time>
      </trkpt>
      <trkpt lat="47.28794" lon="-2.36835">
        <ele>-41.799999237061</ele>
        <time>2020-08-30T10:12:47.000Z</time>
      </trkpt>
      <trkpt lat="47.28789" lon="-2.36847">
        <ele>-41.799999237061</ele>
        <time>2020-08-30T10:12:49.000Z</time>
      </trkpt>
      <trkpt lat="47.28785" lon="-2.3686">
        <ele>-41.799999237061</ele>
        <time>2020-08-30T10:12:51.000Z</time>
      </trkpt>
      <trkpt lat="47.28782" lon="-2.36872">
        <ele>-41.799999237061</ele>
        <time>2020-08-30T10:12:53.000Z</time>
      </trkpt>
      <trkpt lat="47.28781" lon="-2.36879">
        <ele>-41.799999237061</ele>
        <time>2020-08-30T10:12:54.000Z</time>
      </trkpt>
      <trkpt lat="47.28778" lon="-2.36904">
        <ele>-41.799999237061</ele>
        <time>2020-08-30T10:12:58.000Z</time>
      </trkpt>
      <trkpt lat="47.28777" lon="-2.36908">
        <ele>-42.200000762939</ele>
        <time>2020-08-30T10:12:59.000Z</time>
      </trkpt>
      <trkpt lat="47.28775" lon="-2.3691">
        <ele>-42.599998474121</ele>
        <time>2020-08-30T10:13:00.000Z</time>
      </trkpt>
      <trkpt lat="47.28773" lon="-2.36912">
        <ele>-43</ele>
        <time>2020-08-30T10:13:01.000Z</time>
      </trkpt>
      <trkpt lat="47.28772" lon="-2.36913">
        <ele>-43.400001525879</ele>
        <time>2020-08-30T10:13:02.000Z</time>
      </trkpt>
      <trkpt lat="47.2877" lon="-2.36913">
        <ele>-43.799999237061</ele>
        <time>2020-08-30T10:13:03.000Z</time>
      </trkpt>
      <trkpt lat="47.28767" lon="-2.36911">
        <ele>-43.799999237061</ele>
        <time>2020-08-30T10:13:05.000Z</time>
      </trkpt>
      <trkpt lat="47.28755" lon="-2.36911">
        <ele>-43.799999237061</ele>
        <time>2020-08-30T10:13:10.000Z</time>
      </trkpt>
      <trkpt lat="47.28753" lon="-2.36911">
        <ele>-43.400001525879</ele>
        <time>2020-08-30T10:13:11.000Z</time>
      </trkpt>
      <trkpt lat="47.28751" lon="-2.36913">
        <ele>-42.799999237061</ele>
        <time>2020-08-30T10:13:12.000Z</time>
      </trkpt>
      <trkpt lat="47.28748" lon="-2.36914">
        <ele>-42.400001525879</ele>
        <time>2020-08-30T10:13:13.000Z</time>
      </trkpt>
      <trkpt lat="47.28745" lon="-2.36916">
        <ele>-42</ele>
        <time>2020-08-30T10:13:14.000Z</time>
      </trkpt>
      <trkpt lat="47.28742" lon="-2.36917">
        <ele>-41.599998474121</ele>
        <time>2020-08-30T10:13:15.000Z</time>
      </trkpt>
      <trkpt lat="47.28736" lon="-2.36919">
        <ele>-41.599998474121</ele>
        <time>2020-08-30T10:13:17.000Z</time>
      </trkpt>
      <trkpt lat="47.28731" lon="-2.3692">
        <ele>-41</ele>
        <time>2020-08-30T10:13:19.000Z</time>
      </trkpt>
      <trkpt lat="47.28728" lon="-2.36919">
        <ele>-40.599998474121</ele>
        <time>2020-08-30T10:13:20.000Z</time>
      </trkpt>
      <trkpt lat="47.28726" lon="-2.36917">
        <ele>-40</ele>
        <time>2020-08-30T10:13:21.000Z</time>
      </trkpt>
      <trkpt lat="47.28723" lon="-2.36915">
        <ele>-39.599998474121</ele>
        <time>2020-08-30T10:13:22.000Z</time>
      </trkpt>
      <trkpt lat="47.28722" lon="-2.36912">
        <ele>-39</ele>
        <time>2020-08-30T10:13:23.000Z</time>
      </trkpt>
      <trkpt lat="47.2872" lon="-2.36908">
        <ele>-38.599998474121</ele>
        <time>2020-08-30T10:13:24.000Z</time>
      </trkpt>
      <trkpt lat="47.28719" lon="-2.36905">
        <ele>-38.200000762939</ele>
        <time>2020-08-30T10:13:25.000Z</time>
      </trkpt>
      <trkpt lat="47.28717" lon="-2.36901">
        <ele>-37.799999237061</ele>
        <time>2020-08-30T10:13:26.000Z</time>
      </trkpt>
      <trkpt lat="47.28716" lon="-2.36898">
        <ele>-37.400001525879</ele>
        <time>2020-08-30T10:13:27.000Z</time>
      </trkpt>
      <trkpt lat="47.28715" lon="-2.36894">
        <ele>-37</ele>
        <time>2020-08-30T10:13:28.000Z</time>
      </trkpt>
      <trkpt lat="47.28714" lon="-2.36891">
        <ele>-37</ele>
        <time>2020-08-30T10:13:29.000Z</time>
      </trkpt>
      <trkpt lat="47.28705" lon="-2.36868">
        <ele>-36.599998474121</ele>
        <time>2020-08-30T10:13:36.000Z</time>
      </trkpt>
      <trkpt lat="47.28703" lon="-2.36864">
        <ele>-36.200000762939</ele>
        <time>2020-08-30T10:13:37.000Z</time>
      </trkpt>
      <trkpt lat="47.28701" lon="-2.3686">
        <ele>-35.799999237061</ele>
        <time>2020-08-30T10:13:38.000Z</time>
      </trkpt>
      <trkpt lat="47.28699" lon="-2.36856">
        <ele>-35.400001525879</ele>
        <time>2020-08-30T10:13:39.000Z</time>
      </trkpt>
      <trkpt lat="47.28698" lon="-2.36852">
        <ele>-35</ele>
        <time>2020-08-30T10:13:40.000Z</time>
      </trkpt>
      <trkpt lat="47.28691" lon="-2.36835">
        <ele>-35</ele>
        <time>2020-08-30T10:13:43.000Z</time>
      </trkpt>
      <trkpt lat="47.28671" lon="-2.36802">
        <ele>-35</ele>
        <time>2020-08-30T10:13:49.000Z</time>
      </trkpt>
      <trkpt lat="47.28667" lon="-2.368">
        <ele>-34.599998474121</ele>
        <time>2020-08-30T10:13:50.000Z</time>
      </trkpt>
      <trkpt lat="47.28662" lon="-2.36801">
        <ele>-34.200000762939</ele>
        <time>2020-08-30T10:13:51.000Z</time>
      </trkpt>
      <trkpt lat="47.28658" lon="-2.36803">
        <ele>-33.799999237061</ele>
        <time>2020-08-30T10:13:52.000Z</time>
      </trkpt>
      <trkpt lat="47.28653" lon="-2.36807">
        <ele>-33.400001525879</ele>
        <time>2020-08-30T10:13:53.000Z</time>
      </trkpt>
      <trkpt lat="47.28649" lon="-2.36811">
        <ele>-33</ele>
        <time>2020-08-30T10:13:54.000Z</time>
      </trkpt>
      <trkpt lat="47.28641" lon="-2.36822">
        <ele>-33</ele>
        <time>2020-08-30T10:13:56.000Z</time>
      </trkpt>
      <trkpt lat="47.28637" lon="-2.36828">
        <ele>-33</ele>
        <time>2020-08-30T10:13:57.000Z</time>
      </trkpt>
      <trkpt lat="47.28627" lon="-2.36838">
        <ele>-33</ele>
        <time>2020-08-30T10:13:59.000Z</time>
      </trkpt>
      <trkpt lat="47.28615" lon="-2.36844">
        <ele>-33</ele>
        <time>2020-08-30T10:14:01.000Z</time>
      </trkpt>
      <trkpt lat="47.28602" lon="-2.36843">
        <ele>-33.400001525879</ele>
        <time>2020-08-30T10:14:03.000Z</time>
      </trkpt>
      <trkpt lat="47.28597" lon="-2.36839">
        <ele>-33.799999237061</ele>
        <time>2020-08-30T10:14:04.000Z</time>
      </trkpt>
      <trkpt lat="47.28592" lon="-2.36833">
        <ele>-34.200000762939</ele>
        <time>2020-08-30T10:14:05.000Z</time>
      </trkpt>
      <trkpt lat="47.28588" lon="-2.36827">
        <ele>-34.599998474121</ele>
        <time>2020-08-30T10:14:06.000Z</time>
      </trkpt>
      <trkpt lat="47.28585" lon="-2.3682">
        <ele>-35</ele>
        <time>2020-08-30T10:14:07.000Z</time>
      </trkpt>
      <trkpt lat="47.28581" lon="-2.36814">
        <ele>-35</ele>
        <time>2020-08-30T10:14:08.000Z</time>
      </trkpt>
      <trkpt lat="47.28554" lon="-2.36766">
        <ele>-35</ele>
        <time>2020-08-30T10:14:16.000Z</time>
      </trkpt>
      <trkpt lat="47.28533" lon="-2.36728">
        <ele>-35</ele>
        <time>2020-08-30T10:14:23.000Z</time>
      </trkpt>
      <trkpt lat="47.28527" lon="-2.36717">
        <ele>-34.599998474121</ele>
        <time>2020-08-30T10:14:25.000Z</time>
      </trkpt>
      <trkpt lat="47.28525" lon="-2.36713">
        <ele>-34.200000762939</ele>
        <time>2020-08-30T10:14:26.000Z</time>
      </trkpt>
      <trkpt lat="47.28523" lon="-2.36709">
        <ele>-33.599998474121</ele>
        <time>2020-08-30T10:14:27.000Z</time>
      </trkpt>
      <trkpt lat="47.28521" lon="-2.36706">
        <ele>-33.200000762939</ele>
        <time>2020-08-30T10:14:28.000Z</time>
      </trkpt>
      <trkpt lat="47.2852" lon="-2.36702">
        <ele>-32.799999237061</ele>
        <time>2020-08-30T10:14:29.000Z</time>
      </trkpt>
      <trkpt lat="47.28513" lon="-2.36689">
        <ele>-32.799999237061</ele>
        <time>2020-08-30T10:14:34.000Z</time>
      </trkpt>
      <trkpt lat="47.28511" lon="-2.36687">
        <ele>-32.400001525879</ele>
        <time>2020-08-30T10:14:35.000Z</time>
      </trkpt>
      <trkpt lat="47.2851" lon="-2.36686">
        <ele>-32</ele>
        <time>2020-08-30T10:14:36.000Z</time>
      </trkpt>
      <trkpt lat="47.28509" lon="-2.36685">
        <ele>-31.60000038147</ele>
        <time>2020-08-30T10:14:37.000Z</time>
      </trkpt>
      <trkpt lat="47.28507" lon="-2.36684">
        <ele>-31</ele>
        <time>2020-08-30T10:14:38.000Z</time>
      </trkpt>
      <trkpt lat="47.28507" lon="-2.36683">
        <ele>-30.60000038147</ele>
        <time>2020-08-30T10:14:39.000Z</time>
      </trkpt>
      <trkpt lat="47.28506" lon="-2.36683">
        <ele>-30.60000038147</ele>
        <time>2020-08-30T10:14:40.000Z</time>
      </trkpt>
      <trkpt lat="47.28504" lon="-2.36682">
        <ele>-30.60000038147</ele>
        <time>2020-08-30T10:15:47.000Z</time>
      </trkpt>
      <trkpt lat="47.28493" lon="-2.36685">
        <ele>-30.60000038147</ele>
        <time>2020-08-30T10:15:51.000Z</time>
      </trkpt>
      <trkpt lat="47.28473" lon="-2.36701">
        <ele>-30.60000038147</ele>
        <time>2020-08-30T10:15:56.000Z</time>
      </trkpt>
      <trkpt lat="47.28452" lon="-2.36719">
        <ele>-30.60000038147</ele>
        <time>2020-08-30T10:16:03.000Z</time>
      </trkpt>
      <trkpt lat="47.28452" lon="-2.36719">
        <ele>-30.60000038147</ele>
        <time>2020-08-30T10:16:04.000Z</time>
      </trkpt>
      <trkpt lat="47.28449" lon="-2.36722">
        <ele>-30.60000038147</ele>
        <time>2020-08-30T10:16:13.000Z</time>
      </trkpt>
      <trkpt lat="47.28448" lon="-2.36722">
        <ele>-30.60000038147</ele>
        <time>2020-08-30T10:16:14.000Z</time>
      </trkpt>
      <trkpt lat="47.28439" lon="-2.36706">
        <ele>-30.60000038147</ele>
        <time>2020-08-30T10:16:18.000Z</time>
      </trkpt>
      <trkpt lat="47.28434" lon="-2.36694">
        <ele>-30.60000038147</ele>
        <time>2020-08-30T10:16:20.000Z</time>
      </trkpt>
      <trkpt lat="47.2843" lon="-2.36681">
        <ele>-30.60000038147</ele>
        <time>2020-08-30T10:16:22.000Z</time>
      </trkpt>
      <trkpt lat="47.28425" lon="-2.3667">
        <ele>-30.60000038147</ele>
        <time>2020-08-30T10:16:24.000Z</time>
      </trkpt>
      <trkpt lat="47.28407" lon="-2.36639">
        <ele>-30.60000038147</ele>
        <time>2020-08-30T10:16:29.000Z</time>
      </trkpt>
      <trkpt lat="47.28402" lon="-2.36633">
        <ele>-30.60000038147</ele>
        <time>2020-08-30T10:16:30.000Z</time>
      </trkpt>
      <trkpt lat="47.28387" lon="-2.3661">
        <ele>-31</ele>
        <time>2020-08-30T10:16:33.000Z</time>
      </trkpt>
      <trkpt lat="47.28382" lon="-2.36601">
        <ele>-31.39999961853</ele>
        <time>2020-08-30T10:16:34.000Z</time>
      </trkpt>
      <trkpt lat="47.28377" lon="-2.36592">
        <ele>-32</ele>
        <time>2020-08-30T10:16:35.000Z</time>
      </trkpt>
      <trkpt lat="47.28372" lon="-2.36585">
        <ele>-32.400001525879</ele>
        <time>2020-08-30T10:16:36.000Z</time>
      </trkpt>
      <trkpt lat="47.28366" lon="-2.3658">
        <ele>-32.799999237061</ele>
        <time>2020-08-30T10:16:37.000Z</time>
      </trkpt>
      <trkpt lat="47.2836" lon="-2.36578">
        <ele>-33.400001525879</ele>
        <time>2020-08-30T10:16:38.000Z</time>
      </trkpt>
      <trkpt lat="47.28353" lon="-2.36579">
        <ele>-34</ele>
        <time>2020-08-30T10:16:39.000Z</time>
      </trkpt>
      <trkpt lat="47.28346" lon="-2.36583">
        <ele>-34.400001525879</ele>
        <time>2020-08-30T10:16:40.000Z</time>
      </trkpt>
      <trkpt lat="47.2834" lon="-2.36589">
        <ele>-35</ele>
        <time>2020-08-30T10:16:41.000Z</time>
      </trkpt>
      <trkpt lat="47.28334" lon="-2.36596">
        <ele>-35.400001525879</ele>
        <time>2020-08-30T10:16:42.000Z</time>
      </trkpt>
      <trkpt lat="47.28328" lon="-2.36604">
        <ele>-35.799999237061</ele>
        <time>2020-08-30T10:16:43.000Z</time>
      </trkpt>
      <trkpt lat="47.28322" lon="-2.36611">
        <ele>-36.200000762939</ele>
        <time>2020-08-30T10:16:44.000Z</time>
      </trkpt>
      <trkpt lat="47.28316" lon="-2.36618">
        <ele>-36.599998474121</ele>
        <time>2020-08-30T10:16:45.000Z</time>
      </trkpt>
      <trkpt lat="47.28309" lon="-2.36626">
        <ele>-37</ele>
        <time>2020-08-30T10:16:46.000Z</time>
      </trkpt>
      <trkpt lat="47.28303" lon="-2.36634">
        <ele>-38</ele>
        <time>2020-08-30T10:16:47.000Z</time>
      </trkpt>
      <trkpt lat="47.28296" lon="-2.36642">
        <ele>-38.400001525879</ele>
        <time>2020-08-30T10:16:48.000Z</time>
      </trkpt>
      <trkpt lat="47.28289" lon="-2.36651">
        <ele>-38.799999237061</ele>
        <time>2020-08-30T10:16:49.000Z</time>
      </trkpt>
      <trkpt lat="47.28282" lon="-2.36659">
        <ele>-39.400001525879</ele>
        <time>2020-08-30T10:16:50.000Z</time>
      </trkpt>
      <trkpt lat="47.28274" lon="-2.36667">
        <ele>-39.799999237061</ele>
        <time>2020-08-30T10:16:51.000Z</time>
      </trkpt>
      <trkpt lat="47.28267" lon="-2.36676">
        <ele>-40.200000762939</ele>
        <time>2020-08-30T10:16:52.000Z</time>
      </trkpt>
      <trkpt lat="47.2826" lon="-2.36684">
        <ele>-40.799999237061</ele>
        <time>2020-08-30T10:16:53.000Z</time>
      </trkpt>
      <trkpt lat="47.28253" lon="-2.36693">
        <ele>-41.200000762939</ele>
        <time>2020-08-30T10:16:54.000Z</time>
      </trkpt>
      <trkpt lat="47.28247" lon="-2.36701">
        <ele>-41.799999237061</ele>
        <time>2020-08-30T10:16:55.000Z</time>
      </trkpt>
      <trkpt lat="47.2824" lon="-2.36711">
        <ele>-42.200000762939</ele>
        <time>2020-08-30T10:16:56.000Z</time>
      </trkpt>
      <trkpt lat="47.28233" lon="-2.36718">
        <ele>-42.599998474121</ele>
        <time>2020-08-30T10:16:57.000Z</time>
      </trkpt>
      <trkpt lat="47.28227" lon="-2.36726">
        <ele>-43</ele>
        <time>2020-08-30T10:16:58.000Z</time>
      </trkpt>
      <trkpt lat="47.2822" lon="-2.36734">
        <ele>-43.400001525879</ele>
        <time>2020-08-30T10:16:59.000Z</time>
      </trkpt>
      <trkpt lat="47.28196" lon="-2.36761">
        <ele>-44</ele>
        <time>2020-08-30T10:17:03.000Z</time>
      </trkpt>
      <trkpt lat="47.2819" lon="-2.36768">
        <ele>-44.400001525879</ele>
        <time>2020-08-30T10:17:04.000Z</time>
      </trkpt>
      <trkpt lat="47.28184" lon="-2.36774">
        <ele>-44.799999237061</ele>
        <time>2020-08-30T10:17:05.000Z</time>
      </trkpt>
      <trkpt lat="47.28178" lon="-2.36781">
        <ele>-45.200000762939</ele>
        <time>2020-08-30T10:17:06.000Z</time>
      </trkpt>
      <trkpt lat="47.28172" lon="-2.36787">
        <ele>-45.599998474121</ele>
        <time>2020-08-30T10:17:07.000Z</time>
      </trkpt>
      <trkpt lat="47.2816" lon="-2.368">
        <ele>-45.599998474121</ele>
        <time>2020-08-30T10:17:09.000Z</time>
      </trkpt>
      <trkpt lat="47.28149" lon="-2.36814">
        <ele>-45.599998474121</ele>
        <time>2020-08-30T10:17:11.000Z</time>
      </trkpt>
      <trkpt lat="47.28144" lon="-2.36824">
        <ele>-46.400001525879</ele>
        <time>2020-08-30T10:17:12.000Z</time>
      </trkpt>
      <trkpt lat="47.28141" lon="-2.36835">
        <ele>-46.799999237061</ele>
        <time>2020-08-30T10:17:13.000Z</time>
      </trkpt>
      <trkpt lat="47.2814" lon="-2.36848">
        <ele>-47.400001525879</ele>
        <time>2020-08-30T10:17:14.000Z</time>
      </trkpt>
      <trkpt lat="47.28139" lon="-2.36859">
        <ele>-47.799999237061</ele>
        <time>2020-08-30T10:17:15.000Z</time>
      </trkpt>
      <trkpt lat="47.28137" lon="-2.36868">
        <ele>-47.799999237061</ele>
        <time>2020-08-30T10:17:16.000Z</time>
      </trkpt>
      <trkpt lat="47.28125" lon="-2.36884">
        <ele>-48.200000762939</ele>
        <time>2020-08-30T10:17:19.000Z</time>
      </trkpt>
      <trkpt lat="47.2812" lon="-2.36887">
        <ele>-48.599998474121</ele>
        <time>2020-08-30T10:17:20.000Z</time>
      </trkpt>
      <trkpt lat="47.28116" lon="-2.36889">
        <ele>-49</ele>
        <time>2020-08-30T10:17:21.000Z</time>
      </trkpt>
      <trkpt lat="47.28111" lon="-2.36889">
        <ele>-49.400001525879</ele>
        <time>2020-08-30T10:17:22.000Z</time>
      </trkpt>
      <trkpt lat="47.28106" lon="-2.36888">
        <ele>-49.799999237061</ele>
        <time>2020-08-30T10:17:23.000Z</time>
      </trkpt>
      <trkpt lat="47.28099" lon="-2.36885">
        <ele>-49.799999237061</ele>
        <time>2020-08-30T10:17:25.000Z</time>
      </trkpt>
      <trkpt lat="47.28089" lon="-2.36884">
        <ele>-49.799999237061</ele>
        <time>2020-08-30T10:17:28.000Z</time>
      </trkpt>
      <trkpt lat="47.28077" lon="-2.36892">
        <ele>-49.799999237061</ele>
        <time>2020-08-30T10:17:32.000Z</time>
      </trkpt>
      <trkpt lat="47.28067" lon="-2.36904">
        <ele>-49.799999237061</ele>
        <time>2020-08-30T10:17:35.000Z</time>
      </trkpt>
      <trkpt lat="47.28063" lon="-2.36909">
        <ele>-49.799999237061</ele>
        <time>2020-08-30T10:17:36.000Z</time>
      </trkpt>
      <trkpt lat="47.28045" lon="-2.36932">
        <ele>-49.799999237061</ele>
        <time>2020-08-30T10:17:40.000Z</time>
      </trkpt>
      <trkpt lat="47.2804" lon="-2.36937">
        <ele>-49.799999237061</ele>
        <time>2020-08-30T10:17:41.000Z</time>
      </trkpt>
      <trkpt lat="47.28024" lon="-2.36957">
        <ele>-49.799999237061</ele>
        <time>2020-08-30T10:17:45.000Z</time>
      </trkpt>
      <trkpt lat="47.2802" lon="-2.36961">
        <ele>-49.799999237061</ele>
        <time>2020-08-30T10:17:46.000Z</time>
      </trkpt>
      <trkpt lat="47.28013" lon="-2.36968">
        <ele>-49.799999237061</ele>
        <time>2020-08-30T10:17:48.000Z</time>
      </trkpt>
      <trkpt lat="47.27998" lon="-2.36987">
        <ele>-49.799999237061</ele>
        <time>2020-08-30T10:17:52.000Z</time>
      </trkpt>
      <trkpt lat="47.27976" lon="-2.37012">
        <ele>-49.799999237061</ele>
        <time>2020-08-30T10:17:59.000Z</time>
      </trkpt>
      <trkpt lat="47.27961" lon="-2.37028">
        <ele>-49.799999237061</ele>
        <time>2020-08-30T10:18:05.000Z</time>
      </trkpt>
      <trkpt lat="47.27946" lon="-2.37047">
        <ele>-49.799999237061</ele>
        <time>2020-08-30T10:18:12.000Z</time>
      </trkpt>
      <trkpt lat="47.27933" lon="-2.37063">
        <ele>-49.799999237061</ele>
        <time>2020-08-30T10:18:17.000Z</time>
      </trkpt>
      <trkpt lat="47.27916" lon="-2.37085">
        <ele>-49.400001525879</ele>
        <time>2020-08-30T10:18:23.000Z</time>
      </trkpt>
      <trkpt lat="47.27913" lon="-2.37088">
        <ele>-49</ele>
        <time>2020-08-30T10:18:24.000Z</time>
      </trkpt>
      <trkpt lat="47.2791" lon="-2.37092">
        <ele>-48.599998474121</ele>
        <time>2020-08-30T10:18:25.000Z</time>
      </trkpt>
      <trkpt lat="47.27907" lon="-2.37096">
        <ele>-47.799999237061</ele>
        <time>2020-08-30T10:18:26.000Z</time>
      </trkpt>
      <trkpt lat="47.27895" lon="-2.3711">
        <ele>-47.799999237061</ele>
        <time>2020-08-30T10:18:30.000Z</time>
      </trkpt>
      <trkpt lat="47.27867" lon="-2.37144">
        <ele>-47.799999237061</ele>
        <time>2020-08-30T10:18:39.000Z</time>
      </trkpt>
      <trkpt lat="47.27852" lon="-2.37161">
        <ele>-47.799999237061</ele>
        <time>2020-08-30T10:18:45.000Z</time>
      </trkpt>
      <trkpt lat="47.27843" lon="-2.37168">
        <ele>-47.799999237061</ele>
        <time>2020-08-30T10:18:49.000Z</time>
      </trkpt>
      <trkpt lat="47.27836" lon="-2.37178">
        <ele>-47.799999237061</ele>
        <time>2020-08-30T10:18:51.000Z</time>
      </trkpt>
      <trkpt lat="47.27833" lon="-2.3719">
        <ele>-47.799999237061</ele>
        <time>2020-08-30T10:18:53.000Z</time>
      </trkpt>
      <trkpt lat="47.27831" lon="-2.37195">
        <ele>-47.799999237061</ele>
        <time>2020-08-30T10:18:54.000Z</time>
      </trkpt>
      <trkpt lat="47.27824" lon="-2.37201">
        <ele>-47.799999237061</ele>
        <time>2020-08-30T10:18:56.000Z</time>
      </trkpt>
      <trkpt lat="47.27818" lon="-2.37193">
        <ele>-47.799999237061</ele>
        <time>2020-08-30T10:18:58.000Z</time>
      </trkpt>
      <trkpt lat="47.27814" lon="-2.37174">
        <ele>-47.799999237061</ele>
        <time>2020-08-30T10:19:01.000Z</time>
      </trkpt>
      <trkpt lat="47.27813" lon="-2.37168">
        <ele>-47.799999237061</ele>
        <time>2020-08-30T10:19:02.000Z</time>
      </trkpt>
      <trkpt lat="47.27805" lon="-2.37139">
        <ele>-47.799999237061</ele>
        <time>2020-08-30T10:19:06.000Z</time>
      </trkpt>
      <trkpt lat="47.27789" lon="-2.37079">
        <ele>-47.799999237061</ele>
        <time>2020-08-30T10:19:14.000Z</time>
      </trkpt>
      <trkpt lat="47.2777" lon="-2.37009">
        <ele>-47.799999237061</ele>
        <time>2020-08-30T10:19:23.000Z</time>
      </trkpt>
      <trkpt lat="47.27747" lon="-2.36938">
        <ele>-47.799999237061</ele>
        <time>2020-08-30T10:19:32.000Z</time>
      </trkpt>
      <trkpt lat="47.27727" lon="-2.3687">
        <ele>-47.799999237061</ele>
        <time>2020-08-30T10:19:40.000Z</time>
      </trkpt>
      <trkpt lat="47.27707" lon="-2.36796">
        <ele>-47.200000762939</ele>
        <time>2020-08-30T10:19:48.000Z</time>
      </trkpt>
      <trkpt lat="47.27705" lon="-2.36787">
        <ele>-46.799999237061</ele>
        <time>2020-08-30T10:19:49.000Z</time>
      </trkpt>
      <trkpt lat="47.27702" lon="-2.36778">
        <ele>-46.400001525879</ele>
        <time>2020-08-30T10:19:50.000Z</time>
      </trkpt>
      <trkpt lat="47.27698" lon="-2.36769">
        <ele>-46</ele>
        <time>2020-08-30T10:19:51.000Z</time>
      </trkpt>
      <trkpt lat="47.27695" lon="-2.3676">
        <ele>-45.599998474121</ele>
        <time>2020-08-30T10:19:52.000Z</time>
      </trkpt>
      <trkpt lat="47.27683" lon="-2.36726">
        <ele>-45.599998474121</ele>
        <time>2020-08-30T10:19:56.000Z</time>
      </trkpt>
      <trkpt lat="47.27658" lon="-2.36653">
        <ele>-45.599998474121</ele>
        <time>2020-08-30T10:20:04.000Z</time>
      </trkpt>
      <trkpt lat="47.27633" lon="-2.3658">
        <ele>-45.599998474121</ele>
        <time>2020-08-30T10:20:12.000Z</time>
      </trkpt>
      <trkpt lat="47.27608" lon="-2.36505">
        <ele>-45.599998474121</ele>
        <time>2020-08-30T10:20:20.000Z</time>
      </trkpt>
      <trkpt lat="47.27605" lon="-2.36496">
        <ele>-45.599998474121</ele>
        <time>2020-08-30T10:20:21.000Z</time>
      </trkpt>
      <trkpt lat="47.27576" lon="-2.3642">
        <ele>-45.599998474121</ele>
        <time>2020-08-30T10:20:29.000Z</time>
      </trkpt>
      <trkpt lat="47.27572" lon="-2.36411">
        <ele>-45.599998474121</ele>
        <time>2020-08-30T10:20:30.000Z</time>
      </trkpt>
      <trkpt lat="47.27543" lon="-2.36333">
        <ele>-45.599998474121</ele>
        <time>2020-08-30T10:20:38.000Z</time>
      </trkpt>
      <trkpt lat="47.27539" lon="-2.36323">
        <ele>-45.599998474121</ele>
        <time>2020-08-30T10:20:39.000Z</time>
      </trkpt>
      <trkpt lat="47.2751" lon="-2.36245">
        <ele>-45.599998474121</ele>
        <time>2020-08-30T10:20:47.000Z</time>
      </trkpt>
      <trkpt lat="47.27484" lon="-2.36174">
        <ele>-45.599998474121</ele>
        <time>2020-08-30T10:20:54.000Z</time>
      </trkpt>
      <trkpt lat="47.27477" lon="-2.36154">
        <ele>-45.599998474121</ele>
        <time>2020-08-30T10:20:56.000Z</time>
      </trkpt>
      <trkpt lat="47.27462" lon="-2.36105">
        <ele>-45.599998474121</ele>
        <time>2020-08-30T10:21:01.000Z</time>
      </trkpt>
      <trkpt lat="47.27448" lon="-2.36082">
        <ele>-45.599998474121</ele>
        <time>2020-08-30T10:21:04.000Z</time>
      </trkpt>
      <trkpt lat="47.27444" lon="-2.36073">
        <ele>-45.599998474121</ele>
        <time>2020-08-30T10:21:05.000Z</time>
      </trkpt>
      <trkpt lat="47.27422" lon="-2.36017">
        <ele>-45.599998474121</ele>
        <time>2020-08-30T10:21:11.000Z</time>
      </trkpt>
      <trkpt lat="47.27393" lon="-2.35948">
        <ele>-45.599998474121</ele>
        <time>2020-08-30T10:21:18.000Z</time>
      </trkpt>
      <trkpt lat="47.27365" lon="-2.35875">
        <ele>-45.599998474121</ele>
        <time>2020-08-30T10:21:25.000Z</time>
      </trkpt>
      <trkpt lat="47.27352" lon="-2.35843">
        <ele>-45.599998474121</ele>
        <time>2020-08-30T10:21:28.000Z</time>
      </trkpt>
      <trkpt lat="47.27324" lon="-2.35769">
        <ele>-45.599998474121</ele>
        <time>2020-08-30T10:21:35.000Z</time>
      </trkpt>
      <trkpt lat="47.2732" lon="-2.35759">
        <ele>-45.599998474121</ele>
        <time>2020-08-30T10:21:36.000Z</time>
      </trkpt>
      <trkpt lat="47.27307" lon="-2.35728">
        <ele>-45.599998474121</ele>
        <time>2020-08-30T10:21:39.000Z</time>
      </trkpt>
      <trkpt lat="47.27301" lon="-2.35708">
        <ele>-45.599998474121</ele>
        <time>2020-08-30T10:21:41.000Z</time>
      </trkpt>
      <trkpt lat="47.27282" lon="-2.35673">
        <ele>-45.599998474121</ele>
        <time>2020-08-30T10:21:45.000Z</time>
      </trkpt>
      <trkpt lat="47.27273" lon="-2.35654">
        <ele>-45.599998474121</ele>
        <time>2020-08-30T10:21:47.000Z</time>
      </trkpt>
      <trkpt lat="47.27261" lon="-2.35626">
        <ele>-45.599998474121</ele>
        <time>2020-08-30T10:21:50.000Z</time>
      </trkpt>
      <trkpt lat="47.27227" lon="-2.35551">
        <ele>-45.599998474121</ele>
        <time>2020-08-30T10:21:58.000Z</time>
      </trkpt>
      <trkpt lat="47.27191" lon="-2.35477">
        <ele>-45.599998474121</ele>
        <time>2020-08-30T10:22:06.000Z</time>
      </trkpt>
      <trkpt lat="47.27182" lon="-2.35459">
        <ele>-45.599998474121</ele>
        <time>2020-08-30T10:22:08.000Z</time>
      </trkpt>
      <trkpt lat="47.27147" lon="-2.35395">
        <ele>-45.599998474121</ele>
        <time>2020-08-30T10:22:15.000Z</time>
      </trkpt>
      <trkpt lat="47.27137" lon="-2.35376">
        <ele>-45.599998474121</ele>
        <time>2020-08-30T10:22:17.000Z</time>
      </trkpt>
      <trkpt lat="47.27101" lon="-2.35314">
        <ele>-45.599998474121</ele>
        <time>2020-08-30T10:22:24.000Z</time>
      </trkpt>
      <trkpt lat="47.2709" lon="-2.35297">
        <ele>-45.599998474121</ele>
        <time>2020-08-30T10:22:26.000Z</time>
      </trkpt>
      <trkpt lat="47.27057" lon="-2.35248">
        <ele>-45.599998474121</ele>
        <time>2020-08-30T10:22:32.000Z</time>
      </trkpt>
      <trkpt lat="47.27019" lon="-2.35188">
        <ele>-45.599998474121</ele>
        <time>2020-08-30T10:22:39.000Z</time>
      </trkpt>
      <trkpt lat="47.26996" lon="-2.35154">
        <ele>-45.599998474121</ele>
        <time>2020-08-30T10:22:43.000Z</time>
      </trkpt>
      <trkpt lat="47.26963" lon="-2.35104">
        <ele>-46</ele>
        <time>2020-08-30T10:22:49.000Z</time>
      </trkpt>
      <trkpt lat="47.26958" lon="-2.35095">
        <ele>-46.400001525879</ele>
        <time>2020-08-30T10:22:50.000Z</time>
      </trkpt>
      <trkpt lat="47.26952" lon="-2.35087">
        <ele>-46.799999237061</ele>
        <time>2020-08-30T10:22:51.000Z</time>
      </trkpt>
      <trkpt lat="47.26947" lon="-2.35079">
        <ele>-47.200000762939</ele>
        <time>2020-08-30T10:22:52.000Z</time>
      </trkpt>
      <trkpt lat="47.26941" lon="-2.3507">
        <ele>-47.599998474121</ele>
        <time>2020-08-30T10:22:53.000Z</time>
      </trkpt>
      <trkpt lat="47.26903" lon="-2.35012">
        <ele>-47.599998474121</ele>
        <time>2020-08-30T10:23:00.000Z</time>
      </trkpt>
      <trkpt lat="47.26892" lon="-2.34994">
        <ele>-47.599998474121</ele>
        <time>2020-08-30T10:23:02.000Z</time>
      </trkpt>
      <trkpt lat="47.26854" lon="-2.34937">
        <ele>-47.599998474121</ele>
        <time>2020-08-30T10:23:09.000Z</time>
      </trkpt>
      <trkpt lat="47.26848" lon="-2.34929">
        <ele>-47.599998474121</ele>
        <time>2020-08-30T10:23:10.000Z</time>
      </trkpt>
      <trkpt lat="47.26806" lon="-2.34866">
        <ele>-47.599998474121</ele>
        <time>2020-08-30T10:23:18.000Z</time>
      </trkpt>
      <trkpt lat="47.2677" lon="-2.34815">
        <ele>-47.599998474121</ele>
        <time>2020-08-30T10:23:25.000Z</time>
      </trkpt>
      <trkpt lat="47.26764" lon="-2.34811">
        <ele>-47.599998474121</ele>
        <time>2020-08-30T10:23:26.000Z</time>
      </trkpt>
      <trkpt lat="47.26757" lon="-2.34799">
        <ele>-47.599998474121</ele>
        <time>2020-08-30T10:23:28.000Z</time>
      </trkpt>
      <trkpt lat="47.26744" lon="-2.34783">
        <ele>-47.599998474121</ele>
        <time>2020-08-30T10:23:31.000Z</time>
      </trkpt>
      <trkpt lat="47.26736" lon="-2.34772">
        <ele>-47.599998474121</ele>
        <time>2020-08-30T10:23:33.000Z</time>
      </trkpt>
      <trkpt lat="47.26708" lon="-2.34736">
        <ele>-47.599998474121</ele>
        <time>2020-08-30T10:23:40.000Z</time>
      </trkpt>
      <trkpt lat="47.26699" lon="-2.34726">
        <ele>-47.599998474121</ele>
        <time>2020-08-30T10:23:42.000Z</time>
      </trkpt>
      <trkpt lat="47.26677" lon="-2.347">
        <ele>-47.599998474121</ele>
        <time>2020-08-30T10:23:48.000Z</time>
      </trkpt>
      <trkpt lat="47.26648" lon="-2.34665">
        <ele>-47.599998474121</ele>
        <time>2020-08-30T10:23:55.000Z</time>
      </trkpt>
      <trkpt lat="47.26611" lon="-2.3462">
        <ele>-47.599998474121</ele>
        <time>2020-08-30T10:24:04.000Z</time>
      </trkpt>
      <trkpt lat="47.26573" lon="-2.34576">
        <ele>-47.599998474121</ele>
        <time>2020-08-30T10:24:13.000Z</time>
      </trkpt>
      <trkpt lat="47.26533" lon="-2.34536">
        <ele>-47.599998474121</ele>
        <time>2020-08-30T10:24:22.000Z</time>
      </trkpt>
      <trkpt lat="47.26498" lon="-2.34509">
        <ele>-47.599998474121</ele>
        <time>2020-08-30T10:24:29.000Z</time>
      </trkpt>
      <trkpt lat="47.26461" lon="-2.34483">
        <ele>-47.599998474121</ele>
        <time>2020-08-30T10:24:36.000Z</time>
      </trkpt>
      <trkpt lat="47.26428" lon="-2.34458">
        <ele>-47.599998474121</ele>
        <time>2020-08-30T10:24:41.000Z</time>
      </trkpt>
      <trkpt lat="47.26379" lon="-2.34417">
        <ele>-47.599998474121</ele>
        <time>2020-08-30T10:24:48.000Z</time>
      </trkpt>
      <trkpt lat="47.26342" lon="-2.34385">
        <ele>-47.599998474121</ele>
        <time>2020-08-30T10:24:54.000Z</time>
      </trkpt>
      <trkpt lat="47.26326" lon="-2.34382">
        <ele>-47.599998474121</ele>
        <time>2020-08-30T10:24:57.000Z</time>
      </trkpt>
      <trkpt lat="47.26315" lon="-2.34366">
        <ele>-47.599998474121</ele>
        <time>2020-08-30T10:25:00.000Z</time>
      </trkpt>
      <trkpt lat="47.26302" lon="-2.34348">
        <ele>-47.599998474121</ele>
        <time>2020-08-30T10:25:03.000Z</time>
      </trkpt>
      <trkpt lat="47.26296" lon="-2.34342">
        <ele>-47.599998474121</ele>
        <time>2020-08-30T10:25:04.000Z</time>
      </trkpt>
      <trkpt lat="47.26259" lon="-2.34303">
        <ele>-47.599998474121</ele>
        <time>2020-08-30T10:25:11.000Z</time>
      </trkpt>
      <trkpt lat="47.26215" lon="-2.34256">
        <ele>-47.599998474121</ele>
        <time>2020-08-30T10:25:19.000Z</time>
      </trkpt>
      <trkpt lat="47.2621" lon="-2.3425">
        <ele>-47.599998474121</ele>
        <time>2020-08-30T10:25:20.000Z</time>
      </trkpt>
      <trkpt lat="47.26166" lon="-2.34205">
        <ele>-47.599998474121</ele>
        <time>2020-08-30T10:25:28.000Z</time>
      </trkpt>
      <trkpt lat="47.26144" lon="-2.34187">
        <ele>-47.599998474121</ele>
        <time>2020-08-30T10:25:32.000Z</time>
      </trkpt>
      <trkpt lat="47.26133" lon="-2.34183">
        <ele>-47.599998474121</ele>
        <time>2020-08-30T10:25:34.000Z</time>
      </trkpt>
      <trkpt lat="47.26124" lon="-2.34172">
        <ele>-47.599998474121</ele>
        <time>2020-08-30T10:25:36.000Z</time>
      </trkpt>
      <trkpt lat="47.2612" lon="-2.34166">
        <ele>-47.599998474121</ele>
        <time>2020-08-30T10:25:37.000Z</time>
      </trkpt>
      <trkpt lat="47.26115" lon="-2.34162">
        <ele>-47.599998474121</ele>
        <time>2020-08-30T10:25:38.000Z</time>
      </trkpt>
      <trkpt lat="47.26103" lon="-2.34156">
        <ele>-47.599998474121</ele>
        <time>2020-08-30T10:25:40.000Z</time>
      </trkpt>
      <trkpt lat="47.26084" lon="-2.34148">
        <ele>-47.599998474121</ele>
        <time>2020-08-30T10:25:43.000Z</time>
      </trkpt>
      <trkpt lat="47.26063" lon="-2.34138">
        <ele>-47.599998474121</ele>
        <time>2020-08-30T10:25:46.000Z</time>
      </trkpt>
      <trkpt lat="47.26007" lon="-2.34111">
        <ele>-47.599998474121</ele>
        <time>2020-08-30T10:25:54.000Z</time>
      </trkpt>
      <trkpt lat="47.26" lon="-2.34107">
        <ele>-47.599998474121</ele>
        <time>2020-08-30T10:25:55.000Z</time>
      </trkpt>
      <trkpt lat="47.25948" lon="-2.34081">
        <ele>-47.599998474121</ele>
        <time>2020-08-30T10:26:03.000Z</time>
      </trkpt>
      <trkpt lat="47.25928" lon="-2.34075">
        <ele>-47.599998474121</ele>
        <time>2020-08-30T10:26:06.000Z</time>
      </trkpt>
      <trkpt lat="47.25921" lon="-2.34077">
        <ele>-47.599998474121</ele>
        <time>2020-08-30T10:26:07.000Z</time>
      </trkpt>
      <trkpt lat="47.25901" lon="-2.34095">
        <ele>-47.599998474121</ele>
        <time>2020-08-30T10:26:10.000Z</time>
      </trkpt>
      <trkpt lat="47.25892" lon="-2.34113">
        <ele>-47.599998474121</ele>
        <time>2020-08-30T10:26:12.000Z</time>
      </trkpt>
      <trkpt lat="47.25881" lon="-2.34141">
        <ele>-47.599998474121</ele>
        <time>2020-08-30T10:26:15.000Z</time>
      </trkpt>
      <trkpt lat="47.25876" lon="-2.34157">
        <ele>-48</ele>
        <time>2020-08-30T10:26:17.000Z</time>
      </trkpt>
      <trkpt lat="47.25873" lon="-2.34162">
        <ele>-48.400001525879</ele>
        <time>2020-08-30T10:26:18.000Z</time>
      </trkpt>
      <trkpt lat="47.2587" lon="-2.34165">
        <ele>-49</ele>
        <time>2020-08-30T10:26:19.000Z</time>
      </trkpt>
      <trkpt lat="47.25867" lon="-2.34164">
        <ele>-49.400001525879</ele>
        <time>2020-08-30T10:26:20.000Z</time>
      </trkpt>
      <trkpt lat="47.25863" lon="-2.34161">
        <ele>-49.799999237061</ele>
        <time>2020-08-30T10:26:21.000Z</time>
      </trkpt>
      <trkpt lat="47.2586" lon="-2.3416">
        <ele>-49.799999237061</ele>
        <time>2020-08-30T10:26:22.000Z</time>
      </trkpt>
      <trkpt lat="47.25849" lon="-2.34158">
        <ele>-49.799999237061</ele>
        <time>2020-08-30T10:26:26.000Z</time>
      </trkpt>
      <trkpt lat="47.25836" lon="-2.34157">
        <ele>-49.799999237061</ele>
        <time>2020-08-30T10:26:31.000Z</time>
      </trkpt>
      <trkpt lat="47.25835" lon="-2.3416">
        <ele>-49.799999237061</ele>
        <time>2020-08-30T10:26:32.000Z</time>
      </trkpt>
      <trkpt lat="47.25829" lon="-2.34176">
        <ele>-49.799999237061</ele>
        <time>2020-08-30T10:26:36.000Z</time>
      </trkpt>
      <trkpt lat="47.25814" lon="-2.34178">
        <ele>-49.799999237061</ele>
        <time>2020-08-30T10:26:40.000Z</time>
      </trkpt>
      <trkpt lat="47.25809" lon="-2.34178">
        <ele>-49</ele>
        <time>2020-08-30T10:26:41.000Z</time>
      </trkpt>
      <trkpt lat="47.25805" lon="-2.34177">
        <ele>-48.599998474121</ele>
        <time>2020-08-30T10:26:42.000Z</time>
      </trkpt>
      <trkpt lat="47.258" lon="-2.34175">
        <ele>-48.200000762939</ele>
        <time>2020-08-30T10:26:43.000Z</time>
      </trkpt>
      <trkpt lat="47.25795" lon="-2.34174">
        <ele>-47.799999237061</ele>
        <time>2020-08-30T10:26:44.000Z</time>
      </trkpt>
      <trkpt lat="47.2579" lon="-2.34173">
        <ele>-47.799999237061</ele>
        <time>2020-08-30T10:26:45.000Z</time>
      </trkpt>
      <trkpt lat="47.25785" lon="-2.34173">
        <ele>-47.799999237061</ele>
        <time>2020-08-30T10:26:46.000Z</time>
      </trkpt>
      <trkpt lat="47.25769" lon="-2.34175">
        <ele>-47.799999237061</ele>
        <time>2020-08-30T10:26:49.000Z</time>
      </trkpt>
      <trkpt lat="47.25758" lon="-2.34177">
        <ele>-47.799999237061</ele>
        <time>2020-08-30T10:26:51.000Z</time>
      </trkpt>
      <trkpt lat="47.25724" lon="-2.34185">
        <ele>-47.799999237061</ele>
        <time>2020-08-30T10:26:57.000Z</time>
      </trkpt>
      <trkpt lat="47.2568" lon="-2.34192">
        <ele>-47.799999237061</ele>
        <time>2020-08-30T10:27:05.000Z</time>
      </trkpt>
      <trkpt lat="47.25675" lon="-2.34191">
        <ele>-47.799999237061</ele>
        <time>2020-08-30T10:27:06.000Z</time>
      </trkpt>
      <trkpt lat="47.25667" lon="-2.3418">
        <ele>-47.799999237061</ele>
        <time>2020-08-30T10:27:08.000Z</time>
      </trkpt>
      <trkpt lat="47.25649" lon="-2.34145">
        <ele>-47.799999237061</ele>
        <time>2020-08-30T10:27:13.000Z</time>
      </trkpt>
      <trkpt lat="47.25646" lon="-2.34138">
        <ele>-47.799999237061</ele>
        <time>2020-08-30T10:27:14.000Z</time>
      </trkpt>
      <trkpt lat="47.2564" lon="-2.34112">
        <ele>-47.799999237061</ele>
        <time>2020-08-30T10:27:17.000Z</time>
      </trkpt>
      <trkpt lat="47.25642" lon="-2.34068">
        <ele>-47.799999237061</ele>
        <time>2020-08-30T10:27:22.000Z</time>
      </trkpt>
      <trkpt lat="47.25644" lon="-2.34058">
        <ele>-47.799999237061</ele>
        <time>2020-08-30T10:27:23.000Z</time>
      </trkpt>
      <trkpt lat="47.25652" lon="-2.34004">
        <ele>-47.400001525879</ele>
        <time>2020-08-30T10:27:29.000Z</time>
      </trkpt>
      <trkpt lat="47.25655" lon="-2.33996">
        <ele>-47</ele>
        <time>2020-08-30T10:27:30.000Z</time>
      </trkpt>
      <trkpt lat="47.25657" lon="-2.33987">
        <ele>-46.200000762939</ele>
        <time>2020-08-30T10:27:31.000Z</time>
      </trkpt>
      <trkpt lat="47.25658" lon="-2.33979">
        <ele>-45.599998474121</ele>
        <time>2020-08-30T10:27:32.000Z</time>
      </trkpt>
      <trkpt lat="47.25661" lon="-2.33962">
        <ele>-45.599998474121</ele>
        <time>2020-08-30T10:27:34.000Z</time>
      </trkpt>
      <trkpt lat="47.25661" lon="-2.33945">
        <ele>-45.599998474121</ele>
        <time>2020-08-30T10:27:36.000Z</time>
      </trkpt>
      <trkpt lat="47.25659" lon="-2.33929">
        <ele>-45.599998474121</ele>
        <time>2020-08-30T10:27:38.000Z</time>
      </trkpt>
      <trkpt lat="47.2565" lon="-2.3388">
        <ele>-45.599998474121</ele>
        <time>2020-08-30T10:27:45.000Z</time>
      </trkpt>
      <trkpt lat="47.25647" lon="-2.33867">
        <ele>-45.599998474121</ele>
        <time>2020-08-30T10:27:47.000Z</time>
      </trkpt>
      <trkpt lat="47.25641" lon="-2.33834">
        <ele>-45.599998474121</ele>
        <time>2020-08-30T10:27:52.000Z</time>
      </trkpt>
      <trkpt lat="47.25635" lon="-2.33801">
        <ele>-45.599998474121</ele>
        <time>2020-08-30T10:27:57.000Z</time>
      </trkpt>
      <trkpt lat="47.25633" lon="-2.33794">
        <ele>-45.599998474121</ele>
        <time>2020-08-30T10:27:58.000Z</time>
      </trkpt>
      <trkpt lat="47.25621" lon="-2.33767">
        <ele>-45.599998474121</ele>
        <time>2020-08-30T10:28:03.000Z</time>
      </trkpt>
      <trkpt lat="47.25606" lon="-2.33759">
        <ele>-45.599998474121</ele>
        <time>2020-08-30T10:28:06.000Z</time>
      </trkpt>
      <trkpt lat="47.25599" lon="-2.33757">
        <ele>-45.599998474121</ele>
        <time>2020-08-30T10:28:07.000Z</time>
      </trkpt>
      <trkpt lat="47.25573" lon="-2.33755">
        <ele>-45.599998474121</ele>
        <time>2020-08-30T10:28:11.000Z</time>
      </trkpt>
      <trkpt lat="47.25517" lon="-2.33758">
        <ele>-45.599998474121</ele>
        <time>2020-08-30T10:28:19.000Z</time>
      </trkpt>
      <trkpt lat="47.25483" lon="-2.33756">
        <ele>-45.599998474121</ele>
        <time>2020-08-30T10:28:24.000Z</time>
      </trkpt>
      <trkpt lat="47.25476" lon="-2.33753">
        <ele>-45.599998474121</ele>
        <time>2020-08-30T10:28:25.000Z</time>
      </trkpt>
      <trkpt lat="47.25458" lon="-2.3374">
        <ele>-45.599998474121</ele>
        <time>2020-08-30T10:28:28.000Z</time>
      </trkpt>
      <trkpt lat="47.25454" lon="-2.33732">
        <ele>-45.599998474121</ele>
        <time>2020-08-30T10:28:29.000Z</time>
      </trkpt>
      <trkpt lat="47.25449" lon="-2.33701">
        <ele>-45.599998474121</ele>
        <time>2020-08-30T10:28:32.000Z</time>
      </trkpt>
      <trkpt lat="47.25443" lon="-2.3365">
        <ele>-45.599998474121</ele>
        <time>2020-08-30T10:28:38.000Z</time>
      </trkpt>
      <trkpt lat="47.2544" lon="-2.33628">
        <ele>-45.599998474121</ele>
        <time>2020-08-30T10:28:41.000Z</time>
      </trkpt>
      <trkpt lat="47.25439" lon="-2.33614">
        <ele>-45.599998474121</ele>
        <time>2020-08-30T10:28:43.000Z</time>
      </trkpt>
      <trkpt lat="47.2544" lon="-2.33585">
        <ele>-45.599998474121</ele>
        <time>2020-08-30T10:28:48.000Z</time>
      </trkpt>
      <trkpt lat="47.25443" lon="-2.33582">
        <ele>-45.599998474121</ele>
        <time>2020-08-30T10:28:49.000Z</time>
      </trkpt>
      <trkpt lat="47.25456" lon="-2.33574">
        <ele>-45.599998474121</ele>
        <time>2020-08-30T10:28:53.000Z</time>
      </trkpt>
      <trkpt lat="47.25454" lon="-2.33558">
        <ele>-45.599998474121</ele>
        <time>2020-08-30T10:28:56.000Z</time>
      </trkpt>
      <trkpt lat="47.25452" lon="-2.33552">
        <ele>-45.599998474121</ele>
        <time>2020-08-30T10:28:57.000Z</time>
      </trkpt>
      <trkpt lat="47.25443" lon="-2.33506">
        <ele>-45.599998474121</ele>
        <time>2020-08-30T10:29:04.000Z</time>
      </trkpt>
      <trkpt lat="47.25433" lon="-2.33474">
        <ele>-45.599998474121</ele>
        <time>2020-08-30T10:29:10.000Z</time>
      </trkpt>
      <trkpt lat="47.25429" lon="-2.33462">
        <ele>-45.599998474121</ele>
        <time>2020-08-30T10:29:16.000Z</time>
      </trkpt>
      <trkpt lat="47.2543" lon="-2.33441">
        <ele>-45.599998474121</ele>
        <time>2020-08-30T10:29:20.000Z</time>
      </trkpt>
      <trkpt lat="47.25429" lon="-2.33399">
        <ele>-45.599998474121</ele>
        <time>2020-08-30T10:29:25.000Z</time>
      </trkpt>
      <trkpt lat="47.2543" lon="-2.33347">
        <ele>-45.599998474121</ele>
        <time>2020-08-30T10:29:31.000Z</time>
      </trkpt>
      <trkpt lat="47.25431" lon="-2.33339">
        <ele>-45.599998474121</ele>
        <time>2020-08-30T10:29:32.000Z</time>
      </trkpt>
      <trkpt lat="47.25437" lon="-2.33323">
        <ele>-45.599998474121</ele>
        <time>2020-08-30T10:29:34.000Z</time>
      </trkpt>
      <trkpt lat="47.25447" lon="-2.33292">
        <ele>-45.599998474121</ele>
        <time>2020-08-30T10:29:38.000Z</time>
      </trkpt>
      <trkpt lat="47.25445" lon="-2.33276">
        <ele>-45.599998474121</ele>
        <time>2020-08-30T10:29:40.000Z</time>
      </trkpt>
      <trkpt lat="47.2544" lon="-2.33261">
        <ele>-45.599998474121</ele>
        <time>2020-08-30T10:29:42.000Z</time>
      </trkpt>
      <trkpt lat="47.25432" lon="-2.33241">
        <ele>-45.599998474121</ele>
        <time>2020-08-30T10:29:45.000Z</time>
      </trkpt>
      <trkpt lat="47.2541" lon="-2.33189">
        <ele>-45.599998474121</ele>
        <time>2020-08-30T10:29:53.000Z</time>
      </trkpt>
      <trkpt lat="47.25405" lon="-2.33177">
        <ele>-45.599998474121</ele>
        <time>2020-08-30T10:29:55.000Z</time>
      </trkpt>
      <trkpt lat="47.25392" lon="-2.33149">
        <ele>-45.599998474121</ele>
        <time>2020-08-30T10:30:00.000Z</time>
      </trkpt>
      <trkpt lat="47.25375" lon="-2.33118">
        <ele>-45.599998474121</ele>
        <time>2020-08-30T10:30:07.000Z</time>
      </trkpt>
      <trkpt lat="47.25372" lon="-2.33115">
        <ele>-45.599998474121</ele>
        <time>2020-08-30T10:30:10.000Z</time>
      </trkpt>
      <trkpt lat="47.25374" lon="-2.33114">
        <ele>-45.599998474121</ele>
        <time>2020-08-30T10:34:41.000Z</time>
      </trkpt>
      <trkpt lat="47.25372" lon="-2.33105">
        <ele>-45.599998474121</ele>
        <time>2020-08-30T10:34:44.000Z</time>
      </trkpt>
      <trkpt lat="47.25367" lon="-2.33096">
        <ele>-45.599998474121</ele>
        <time>2020-08-30T10:34:46.000Z</time>
      </trkpt>
      <trkpt lat="47.25365" lon="-2.3309">
        <ele>-45.599998474121</ele>
        <time>2020-08-30T10:34:47.000Z</time>
      </trkpt>
      <trkpt lat="47.25364" lon="-2.33083">
        <ele>-45.599998474121</ele>
        <time>2020-08-30T10:34:48.000Z</time>
      </trkpt>
      <trkpt lat="47.25346" lon="-2.33036">
        <ele>-45.599998474121</ele>
        <time>2020-08-30T10:34:55.000Z</time>
      </trkpt>
      <trkpt lat="47.25318" lon="-2.32968">
        <ele>-45.599998474121</ele>
        <time>2020-08-30T10:35:05.000Z</time>
      </trkpt>
      <trkpt lat="47.25306" lon="-2.32935">
        <ele>-45.599998474121</ele>
        <time>2020-08-30T10:35:10.000Z</time>
      </trkpt>
      <trkpt lat="47.25306" lon="-2.32927">
        <ele>-45.599998474121</ele>
        <time>2020-08-30T10:35:11.000Z</time>
      </trkpt>
      <trkpt lat="47.2531" lon="-2.32915">
        <ele>-45.200000762939</ele>
        <time>2020-08-30T10:35:13.000Z</time>
      </trkpt>
      <trkpt lat="47.25313" lon="-2.3291">
        <ele>-44.799999237061</ele>
        <time>2020-08-30T10:35:14.000Z</time>
      </trkpt>
      <trkpt lat="47.25318" lon="-2.32906">
        <ele>-44.400001525879</ele>
        <time>2020-08-30T10:35:15.000Z</time>
      </trkpt>
      <trkpt lat="47.25322" lon="-2.32902">
        <ele>-44</ele>
        <time>2020-08-30T10:35:16.000Z</time>
      </trkpt>
      <trkpt lat="47.25326" lon="-2.32898">
        <ele>-43.599998474121</ele>
        <time>2020-08-30T10:35:17.000Z</time>
      </trkpt>
      <trkpt lat="47.25331" lon="-2.32894">
        <ele>-43.599998474121</ele>
        <time>2020-08-30T10:35:18.000Z</time>
      </trkpt>
      <trkpt lat="47.25366" lon="-2.32862">
        <ele>-43.599998474121</ele>
        <time>2020-08-30T10:35:26.000Z</time>
      </trkpt>
      <trkpt lat="47.25395" lon="-2.3283">
        <ele>-43.599998474121</ele>
        <time>2020-08-30T10:35:33.000Z</time>
      </trkpt>
      <trkpt lat="47.25406" lon="-2.32815">
        <ele>-43.599998474121</ele>
        <time>2020-08-30T10:35:36.000Z</time>
      </trkpt>
      <trkpt lat="47.25419" lon="-2.32794">
        <ele>-43.599998474121</ele>
        <time>2020-08-30T10:35:40.000Z</time>
      </trkpt>
      <trkpt lat="47.25429" lon="-2.3277">
        <ele>-43.599998474121</ele>
        <time>2020-08-30T10:35:45.000Z</time>
      </trkpt>
      <trkpt lat="47.25435" lon="-2.32763">
        <ele>-43.599998474121</ele>
        <time>2020-08-30T10:35:47.000Z</time>
      </trkpt>
      <trkpt lat="47.25442" lon="-2.32754">
        <ele>-43.599998474121</ele>
        <time>2020-08-30T10:35:49.000Z</time>
      </trkpt>
      <trkpt lat="47.25469" lon="-2.32717">
        <ele>-43.599998474121</ele>
        <time>2020-08-30T10:35:57.000Z</time>
      </trkpt>
      <trkpt lat="47.25472" lon="-2.32712">
        <ele>-43.200000762939</ele>
        <time>2020-08-30T10:35:58.000Z</time>
      </trkpt>
      <trkpt lat="47.25476" lon="-2.32708">
        <ele>-42.799999237061</ele>
        <time>2020-08-30T10:35:59.000Z</time>
      </trkpt>
      <trkpt lat="47.25479" lon="-2.32703">
        <ele>-42.400001525879</ele>
        <time>2020-08-30T10:36:00.000Z</time>
      </trkpt>
      <trkpt lat="47.25482" lon="-2.32699">
        <ele>-42</ele>
        <time>2020-08-30T10:36:01.000Z</time>
      </trkpt>
      <trkpt lat="47.25484" lon="-2.32693">
        <ele>-41.599998474121</ele>
        <time>2020-08-30T10:36:02.000Z</time>
      </trkpt>
      <trkpt lat="47.25487" lon="-2.32681">
        <ele>-41.599998474121</ele>
        <time>2020-08-30T10:36:04.000Z</time>
      </trkpt>
      <trkpt lat="47.25486" lon="-2.32648">
        <ele>-41.599998474121</ele>
        <time>2020-08-30T10:36:09.000Z</time>
      </trkpt>
      <trkpt lat="47.25484" lon="-2.32635">
        <ele>-41.599998474121</ele>
        <time>2020-08-30T10:36:11.000Z</time>
      </trkpt>
      <trkpt lat="47.25479" lon="-2.32603">
        <ele>-41.599998474121</ele>
        <time>2020-08-30T10:36:16.000Z</time>
      </trkpt>
      <trkpt lat="47.25476" lon="-2.32567">
        <ele>-41.599998474121</ele>
        <time>2020-08-30T10:36:22.000Z</time>
      </trkpt>
      <trkpt lat="47.25478" lon="-2.32562">
        <ele>-41.599998474121</ele>
        <time>2020-08-30T10:36:23.000Z</time>
      </trkpt>
      <trkpt lat="47.25494" lon="-2.32546">
        <ele>-41.599998474121</ele>
        <time>2020-08-30T10:36:27.000Z</time>
      </trkpt>
      <trkpt lat="47.2553" lon="-2.32512">
        <ele>-41.599998474121</ele>
        <time>2020-08-30T10:36:35.000Z</time>
      </trkpt>
      <trkpt lat="47.25573" lon="-2.32473">
        <ele>-41.599998474121</ele>
        <time>2020-08-30T10:36:43.000Z</time>
      </trkpt>
      <trkpt lat="47.25583" lon="-2.32462">
        <ele>-42</ele>
        <time>2020-08-30T10:36:45.000Z</time>
      </trkpt>
      <trkpt lat="47.25589" lon="-2.32456">
        <ele>-42.400001525879</ele>
        <time>2020-08-30T10:36:46.000Z</time>
      </trkpt>
      <trkpt lat="47.25594" lon="-2.32451">
        <ele>-42.799999237061</ele>
        <time>2020-08-30T10:36:47.000Z</time>
      </trkpt>
      <trkpt lat="47.256" lon="-2.32445">
        <ele>-43.200000762939</ele>
        <time>2020-08-30T10:36:48.000Z</time>
      </trkpt>
      <trkpt lat="47.25606" lon="-2.32437">
        <ele>-43.799999237061</ele>
        <time>2020-08-30T10:36:49.000Z</time>
      </trkpt>
      <trkpt lat="47.25611" lon="-2.3243">
        <ele>-44.200000762939</ele>
        <time>2020-08-30T10:36:50.000Z</time>
      </trkpt>
      <trkpt lat="47.25617" lon="-2.32424">
        <ele>-44.799999237061</ele>
        <time>2020-08-30T10:36:51.000Z</time>
      </trkpt>
      <trkpt lat="47.25623" lon="-2.32418">
        <ele>-45.200000762939</ele>
        <time>2020-08-30T10:36:52.000Z</time>
      </trkpt>
      <trkpt lat="47.25629" lon="-2.32413">
        <ele>-45.799999237061</ele>
        <time>2020-08-30T10:36:53.000Z</time>
      </trkpt>
      <trkpt lat="47.25647" lon="-2.32402">
        <ele>-45.799999237061</ele>
        <time>2020-08-30T10:36:56.000Z</time>
      </trkpt>
      <trkpt lat="47.25651" lon="-2.32403">
        <ele>-46.200000762939</ele>
        <time>2020-08-30T10:36:58.000Z</time>
      </trkpt>
      <trkpt lat="47.25653" lon="-2.32403">
        <ele>-47.200000762939</ele>
        <time>2020-08-30T10:36:59.000Z</time>
      </trkpt>
      <trkpt lat="47.25656" lon="-2.32403">
        <ele>-47.599998474121</ele>
        <time>2020-08-30T10:37:00.000Z</time>
      </trkpt>
      <trkpt lat="47.25659" lon="-2.32404">
        <ele>-48</ele>
        <time>2020-08-30T10:37:01.000Z</time>
      </trkpt>
      <trkpt lat="47.25668" lon="-2.32408">
        <ele>-48</ele>
        <time>2020-08-30T10:37:03.000Z</time>
      </trkpt>
      <trkpt lat="47.25682" lon="-2.32418">
        <ele>-48</ele>
        <time>2020-08-30T10:37:06.000Z</time>
      </trkpt>
      <trkpt lat="47.25688" lon="-2.32419">
        <ele>-48</ele>
        <time>2020-08-30T10:37:07.000Z</time>
      </trkpt>
      <trkpt lat="47.25705" lon="-2.32421">
        <ele>-48</ele>
        <time>2020-08-30T10:37:10.000Z</time>
      </trkpt>
      <trkpt lat="47.25717" lon="-2.32421">
        <ele>-48</ele>
        <time>2020-08-30T10:37:12.000Z</time>
      </trkpt>
      <trkpt lat="47.25756" lon="-2.32423">
        <ele>-48</ele>
        <time>2020-08-30T10:37:19.000Z</time>
      </trkpt>
      <trkpt lat="47.2576" lon="-2.32422">
        <ele>-48</ele>
        <time>2020-08-30T10:37:20.000Z</time>
      </trkpt>
      <trkpt lat="47.25773" lon="-2.32416">
        <ele>-48</ele>
        <time>2020-08-30T10:37:23.000Z</time>
      </trkpt>
      <trkpt lat="47.25784" lon="-2.32417">
        <ele>-48</ele>
        <time>2020-08-30T10:37:26.000Z</time>
      </trkpt>
      <trkpt lat="47.25788" lon="-2.32421">
        <ele>-48</ele>
        <time>2020-08-30T10:37:27.000Z</time>
      </trkpt>
      <trkpt lat="47.258" lon="-2.32443">
        <ele>-48</ele>
        <time>2020-08-30T10:37:31.000Z</time>
      </trkpt>
      <trkpt lat="47.25819" lon="-2.32459">
        <ele>-48</ele>
        <time>2020-08-30T10:37:35.000Z</time>
      </trkpt>
      <trkpt lat="47.2583" lon="-2.32464">
        <ele>-48</ele>
        <time>2020-08-30T10:37:37.000Z</time>
      </trkpt>
      <trkpt lat="47.25852" lon="-2.32472">
        <ele>-48</ele>
        <time>2020-08-30T10:37:41.000Z</time>
      </trkpt>
      <trkpt lat="47.25858" lon="-2.32472">
        <ele>-48</ele>
        <time>2020-08-30T10:37:42.000Z</time>
      </trkpt>
      <trkpt lat="47.25868" lon="-2.32472">
        <ele>-48</ele>
        <time>2020-08-30T10:37:44.000Z</time>
      </trkpt>
      <trkpt lat="47.25882" lon="-2.3247">
        <ele>-48</ele>
        <time>2020-08-30T10:37:47.000Z</time>
      </trkpt>
      <trkpt lat="47.25893" lon="-2.32466">
        <ele>-48</ele>
        <time>2020-08-30T10:37:49.000Z</time>
      </trkpt>
      <trkpt lat="47.25902" lon="-2.32457">
        <ele>-48</ele>
        <time>2020-08-30T10:37:51.000Z</time>
      </trkpt>
      <trkpt lat="47.25914" lon="-2.32439">
        <ele>-48</ele>
        <time>2020-08-30T10:37:54.000Z</time>
      </trkpt>
      <trkpt lat="47.25919" lon="-2.32433">
        <ele>-48</ele>
        <time>2020-08-30T10:37:55.000Z</time>
      </trkpt>
      <trkpt lat="47.25946" lon="-2.32401">
        <ele>-48</ele>
        <time>2020-08-30T10:38:01.000Z</time>
      </trkpt>
      <trkpt lat="47.25984" lon="-2.3235">
        <ele>-48</ele>
        <time>2020-08-30T10:38:10.000Z</time>
      </trkpt>
      <trkpt lat="47.26023" lon="-2.323">
        <ele>-48</ele>
        <time>2020-08-30T10:38:19.000Z</time>
      </trkpt>
      <trkpt lat="47.26036" lon="-2.32284">
        <ele>-48.400001525879</ele>
        <time>2020-08-30T10:38:22.000Z</time>
      </trkpt>
      <trkpt lat="47.26041" lon="-2.32279">
        <ele>-48.799999237061</ele>
        <time>2020-08-30T10:38:23.000Z</time>
      </trkpt>
      <trkpt lat="47.26045" lon="-2.32274">
        <ele>-49.400001525879</ele>
        <time>2020-08-30T10:38:24.000Z</time>
      </trkpt>
      <trkpt lat="47.26049" lon="-2.3227">
        <ele>-49.799999237061</ele>
        <time>2020-08-30T10:38:25.000Z</time>
      </trkpt>
      <trkpt lat="47.26054" lon="-2.32265">
        <ele>-50.200000762939</ele>
        <time>2020-08-30T10:38:26.000Z</time>
      </trkpt>
      <trkpt lat="47.26062" lon="-2.32255">
        <ele>-50.200000762939</ele>
        <time>2020-08-30T10:38:28.000Z</time>
      </trkpt>
      <trkpt lat="47.26079" lon="-2.32234">
        <ele>-50.200000762939</ele>
        <time>2020-08-30T10:38:32.000Z</time>
      </trkpt>
      <trkpt lat="47.26098" lon="-2.32207">
        <ele>-50.200000762939</ele>
        <time>2020-08-30T10:38:37.000Z</time>
      </trkpt>
      <trkpt lat="47.26105" lon="-2.32193">
        <ele>-50.200000762939</ele>
        <time>2020-08-30T10:38:39.000Z</time>
      </trkpt>
      <trkpt lat="47.26126" lon="-2.3214">
        <ele>-50.200000762939</ele>
        <time>2020-08-30T10:38:47.000Z</time>
      </trkpt>
      <trkpt lat="47.2614" lon="-2.32091">
        <ele>-50.200000762939</ele>
        <time>2020-08-30T10:38:54.000Z</time>
      </trkpt>
      <trkpt lat="47.26156" lon="-2.32036">
        <ele>-50.200000762939</ele>
        <time>2020-08-30T10:39:02.000Z</time>
      </trkpt>
      <trkpt lat="47.26161" lon="-2.32024">
        <ele>-50.200000762939</ele>
        <time>2020-08-30T10:39:04.000Z</time>
      </trkpt>
      <trkpt lat="47.26167" lon="-2.32018">
        <ele>-50.200000762939</ele>
        <time>2020-08-30T10:39:06.000Z</time>
      </trkpt>
      <trkpt lat="47.26179" lon="-2.3202">
        <ele>-50.200000762939</ele>
        <time>2020-08-30T10:39:09.000Z</time>
      </trkpt>
      <trkpt lat="47.2619" lon="-2.32024">
        <ele>-50.200000762939</ele>
        <time>2020-08-30T10:39:13.000Z</time>
      </trkpt>
      <trkpt lat="47.26196" lon="-2.32023">
        <ele>-50.200000762939</ele>
        <time>2020-08-30T10:39:17.000Z</time>
      </trkpt>
      <trkpt lat="47.26196" lon="-2.3202">
        <ele>-50.200000762939</ele>
        <time>2020-08-30T10:39:18.000Z</time>
      </trkpt>
      <trkpt lat="47.262" lon="-2.32006">
        <ele>-50.200000762939</ele>
        <time>2020-08-30T10:39:23.000Z</time>
      </trkpt>
      <trkpt lat="47.26208" lon="-2.31994">
        <ele>-50.200000762939</ele>
        <time>2020-08-30T10:39:28.000Z</time>
      </trkpt>
      <trkpt lat="47.26227" lon="-2.31973">
        <ele>-50.200000762939</ele>
        <time>2020-08-30T10:39:34.000Z</time>
      </trkpt>
      <trkpt lat="47.26241" lon="-2.31962">
        <ele>-50.200000762939</ele>
        <time>2020-08-30T10:39:39.000Z</time>
      </trkpt>
      <trkpt lat="47.26242" lon="-2.31961">
        <ele>-50.200000762939</ele>
        <time>2020-08-30T10:39:42.000Z</time>
      </trkpt>
      <trkpt lat="47.26244" lon="-2.31958">
        <ele>-50.200000762939</ele>
        <time>2020-08-30T10:39:44.000Z</time>
      </trkpt>
      <trkpt lat="47.26245" lon="-2.31956">
        <ele>-50.200000762939</ele>
        <time>2020-08-30T10:39:45.000Z</time>
      </trkpt>
      <trkpt lat="47.26253" lon="-2.31942">
        <ele>-50.200000762939</ele>
        <time>2020-08-30T10:39:49.000Z</time>
      </trkpt>
      <trkpt lat="47.26269" lon="-2.31922">
        <ele>-50.200000762939</ele>
        <time>2020-08-30T10:39:54.000Z</time>
      </trkpt>
      <trkpt lat="47.26291" lon="-2.31896">
        <ele>-50.200000762939</ele>
        <time>2020-08-30T10:40:01.000Z</time>
      </trkpt>
      <trkpt lat="47.26298" lon="-2.31877">
        <ele>-50.200000762939</ele>
        <time>2020-08-30T10:40:05.000Z</time>
      </trkpt>
      <trkpt lat="47.26297" lon="-2.31869">
        <ele>-50.200000762939</ele>
        <time>2020-08-30T10:40:06.000Z</time>
      </trkpt>
      <trkpt lat="47.26298" lon="-2.31847">
        <ele>-50.200000762939</ele>
        <time>2020-08-30T10:40:09.000Z</time>
      </trkpt>
      <trkpt lat="47.26303" lon="-2.31808">
        <ele>-50.200000762939</ele>
        <time>2020-08-30T10:40:15.000Z</time>
      </trkpt>
      <trkpt lat="47.26303" lon="-2.3178">
        <ele>-50.200000762939</ele>
        <time>2020-08-30T10:40:19.000Z</time>
      </trkpt>
      <trkpt lat="47.26303" lon="-2.31773">
        <ele>-50.200000762939</ele>
        <time>2020-08-30T10:40:20.000Z</time>
      </trkpt>
      <trkpt lat="47.26299" lon="-2.3174">
        <ele>-50.200000762939</ele>
        <time>2020-08-30T10:40:25.000Z</time>
      </trkpt>
      <trkpt lat="47.26304" lon="-2.31716">
        <ele>-50.200000762939</ele>
        <time>2020-08-30T10:40:29.000Z</time>
      </trkpt>
      <trkpt lat="47.26318" lon="-2.31711">
        <ele>-50.200000762939</ele>
        <time>2020-08-30T10:40:32.000Z</time>
      </trkpt>
      <trkpt lat="47.26332" lon="-2.31697">
        <ele>-50.200000762939</ele>
        <time>2020-08-30T10:40:36.000Z</time>
      </trkpt>
      <trkpt lat="47.26334" lon="-2.31691">
        <ele>-50.200000762939</ele>
        <time>2020-08-30T10:40:37.000Z</time>
      </trkpt>
      <trkpt lat="47.26344" lon="-2.31686">
        <ele>-50.200000762939</ele>
        <time>2020-08-30T10:40:40.000Z</time>
      </trkpt>
      <trkpt lat="47.26348" lon="-2.31685">
        <ele>-50.200000762939</ele>
        <time>2020-08-30T10:40:41.000Z</time>
      </trkpt>
      <trkpt lat="47.26351" lon="-2.31683">
        <ele>-49.200000762939</ele>
        <time>2020-08-30T10:40:42.000Z</time>
      </trkpt>
      <trkpt lat="47.26354" lon="-2.31682">
        <ele>-48.799999237061</ele>
        <time>2020-08-30T10:40:43.000Z</time>
      </trkpt>
      <trkpt lat="47.26358" lon="-2.3168">
        <ele>-48.400001525879</ele>
        <time>2020-08-30T10:40:44.000Z</time>
      </trkpt>
      <trkpt lat="47.26361" lon="-2.31678">
        <ele>-48</ele>
        <time>2020-08-30T10:40:45.000Z</time>
      </trkpt>
      <trkpt lat="47.26365" lon="-2.31676">
        <ele>-48</ele>
        <time>2020-08-30T10:40:46.000Z</time>
      </trkpt>
      <trkpt lat="47.26381" lon="-2.31667">
        <ele>-48</ele>
        <time>2020-08-30T10:40:51.000Z</time>
      </trkpt>
      <trkpt lat="47.26399" lon="-2.31658">
        <ele>-48</ele>
        <time>2020-08-30T10:40:57.000Z</time>
      </trkpt>
      <trkpt lat="47.2641" lon="-2.31648">
        <ele>-48</ele>
        <time>2020-08-30T10:41:01.000Z</time>
      </trkpt>
      <trkpt lat="47.2641" lon="-2.31643">
        <ele>-48</ele>
        <time>2020-08-30T10:41:02.000Z</time>
      </trkpt>
      <trkpt lat="47.2641" lon="-2.31618">
        <ele>-48</ele>
        <time>2020-08-30T10:41:07.000Z</time>
      </trkpt>
      <trkpt lat="47.26409" lon="-2.31592">
        <ele>-47.599998474121</ele>
        <time>2020-08-30T10:41:12.000Z</time>
      </trkpt>
      <trkpt lat="47.26409" lon="-2.31587">
        <ele>-47.200000762939</ele>
        <time>2020-08-30T10:41:13.000Z</time>
      </trkpt>
      <trkpt lat="47.26409" lon="-2.31582">
        <ele>-46.799999237061</ele>
        <time>2020-08-30T10:41:14.000Z</time>
      </trkpt>
      <trkpt lat="47.26409" lon="-2.31576">
        <ele>-46.200000762939</ele>
        <time>2020-08-30T10:41:15.000Z</time>
      </trkpt>
      <trkpt lat="47.26408" lon="-2.31571">
        <ele>-45.799999237061</ele>
        <time>2020-08-30T10:41:16.000Z</time>
      </trkpt>
      <trkpt lat="47.26409" lon="-2.31555">
        <ele>-45.799999237061</ele>
        <time>2020-08-30T10:41:20.000Z</time>
      </trkpt>
      <trkpt lat="47.26412" lon="-2.31552">
        <ele>-45.799999237061</ele>
        <time>2020-08-30T10:41:22.000Z</time>
      </trkpt>
      <trkpt lat="47.26413" lon="-2.31553">
        <ele>-45.799999237061</ele>
        <time>2020-08-30T10:41:23.000Z</time>
      </trkpt>
      <trkpt lat="47.26416" lon="-2.31554">
        <ele>-45.799999237061</ele>
        <time>2020-08-30T10:41:27.000Z</time>
      </trkpt>
    </trkseg>
  </trk>
</gpx>